<?xml version='1.0' encoding='UTF-8'?><gpx version="1.1" creator="JPX - https://github.com/jenetics/jpx" xmlns="http://www.topografix.com/GPX/1/1"><trk><trkseg><trkpt lat="43.2872718" lon="11.6048689"><ele>325.0</ele><time>2026-05-03T06:00:14.753Z</time></trkpt><trkpt lat="43.2872602" lon="11.6047596"><ele>325.0</ele><time>2026-05-03T06:00:19.753Z</time></trkpt><trkpt lat="43.2872616" lon="11.6046581"><ele>325.0</ele><time>2026-05-03T06:00:23.69Z</time></trkpt><trkpt lat="43.2872556" lon="11.6045634"><ele>325.0</ele><time>2026-05-03T06:00:27.755Z</time></trkpt><trkpt lat="43.2872005" lon="11.6045028"><ele>325.0</ele><time>2026-05-03T06:00:30.771Z</time></trkpt><trkpt lat="43.2871286" lon="11.6044803"><ele>325.0</ele><time>2026-05-03T06:00:33.731Z</time></trkpt><trkpt lat="43.2870613" lon="11.6044576"><ele>325.0</ele><time>2026-05-03T06:00:36.678Z</time></trkpt><trkpt lat="43.2869913" lon="11.6044249"><ele>325.0</ele><time>2026-05-03T06:00:39.749Z</time></trkpt><trkpt lat="43.2869203" lon="11.6044148"><ele>325.0</ele><time>2026-05-03T06:00:42.798Z</time></trkpt><trkpt lat="43.2868488" lon="11.6044029"><ele>325.0</ele><time>2026-05-03T06:00:45.747Z</time></trkpt><trkpt lat="43.2867735" lon="11.6043935"><ele>325.0</ele><time>2026-05-03T06:00:48.797Z</time></trkpt><trkpt lat="43.2866928" lon="11.6043817"><ele>325.0</ele><time>2026-05-03T06:00:52.755Z</time></trkpt><trkpt lat="43.2866211" lon="11.6043547"><ele>325.0</ele><time>2026-05-03T06:00:56.669Z</time></trkpt><trkpt lat="43.2865556" lon="11.6043477"><ele>325.0</ele><time>2026-05-03T06:00:59.73Z</time></trkpt><trkpt lat="43.2864931" lon="11.6043291"><ele>323.16666666666663</ele><time>2026-05-03T06:01:02.71Z</time></trkpt><trkpt lat="43.2864113" lon="11.6043177"><ele>321.3333333333333</ele><time>2026-05-03T06:01:05.8Z</time></trkpt><trkpt lat="43.2863255" lon="11.6043245"><ele>319.5</ele><time>2026-05-03T06:01:08.731Z</time></trkpt><trkpt lat="43.2862486" lon="11.6043439"><ele>317.6666666666667</ele><time>2026-05-03T06:01:11.812Z</time></trkpt><trkpt lat="43.2861731" lon="11.6043691"><ele>315.83333333333337</ele><time>2026-05-03T06:01:14.749Z</time></trkpt><trkpt lat="43.2860986" lon="11.6043857"><ele>314.0</ele><time>2026-05-03T06:01:17.695Z</time></trkpt><trkpt lat="43.2860172" lon="11.6044028"><ele>314.0</ele><time>2026-05-03T06:01:20.741Z</time></trkpt><trkpt lat="43.2859332" lon="11.6044189"><ele>314.0</ele><time>2026-05-03T06:01:23.73Z</time></trkpt><trkpt lat="43.2858523" lon="11.6044451"><ele>314.0</ele><time>2026-05-03T06:01:26.712Z</time></trkpt><trkpt lat="43.2857756" lon="11.6044658"><ele>314.0</ele><time>2026-05-03T06:01:29.797Z</time></trkpt><trkpt lat="43.2856999" lon="11.604485"><ele>314.0</ele><time>2026-05-03T06:01:32.79Z</time></trkpt><trkpt lat="43.2856303" lon="11.6045129"><ele>314.0</ele><time>2026-05-03T06:01:35.633Z</time></trkpt><trkpt lat="43.2855605" lon="11.6045377"><ele>313.85714285714283</ele><time>2026-05-03T06:01:38.735Z</time></trkpt><trkpt lat="43.2854881" lon="11.6045746"><ele>313.7142857142857</ele><time>2026-05-03T06:01:41.737Z</time></trkpt><trkpt lat="43.2854157" lon="11.6045978"><ele>313.57142857142856</ele><time>2026-05-03T06:01:44.79Z</time></trkpt><trkpt lat="43.2853441" lon="11.6046329"><ele>313.42857142857144</ele><time>2026-05-03T06:01:47.751Z</time></trkpt><trkpt lat="43.2852795" lon="11.6046631"><ele>313.2857142857143</ele><time>2026-05-03T06:01:50.759Z</time></trkpt><trkpt lat="43.2852126" lon="11.6046891"><ele>313.1428571428571</ele><time>2026-05-03T06:01:53.66Z</time></trkpt><trkpt lat="43.2851507" lon="11.6047199"><ele>313.0</ele><time>2026-05-03T06:01:56.775Z</time></trkpt><trkpt lat="43.2850738" lon="11.6047478"><ele>313.0</ele><time>2026-05-03T06:02:00.749Z</time></trkpt><trkpt lat="43.2850095" lon="11.6047691"><ele>313.0</ele><time>2026-05-03T06:02:03.756Z</time></trkpt><trkpt lat="43.2849313" lon="11.6047893"><ele>313.0</ele><time>2026-05-03T06:02:06.735Z</time></trkpt><trkpt lat="43.2848465" lon="11.6048146"><ele>313.0</ele><time>2026-05-03T06:02:09.742Z</time></trkpt><trkpt lat="43.2847601" lon="11.6048357"><ele>313.0</ele><time>2026-05-03T06:02:12.774Z</time></trkpt><trkpt lat="43.2846746" lon="11.6048521"><ele>313.0</ele><time>2026-05-03T06:02:15.742Z</time></trkpt><trkpt lat="43.2845923" lon="11.6048767"><ele>313.3333333333333</ele><time>2026-05-03T06:02:18.735Z</time></trkpt><trkpt lat="43.284519" lon="11.6048985"><ele>313.66666666666663</ele><time>2026-05-03T06:02:21.754Z</time></trkpt><trkpt lat="43.284439" lon="11.6049226"><ele>314.0</ele><time>2026-05-03T06:02:24.671Z</time></trkpt><trkpt lat="43.2843773" lon="11.604945"><ele>314.3333333333333</ele><time>2026-05-03T06:02:26.78Z</time></trkpt><trkpt lat="43.2842998" lon="11.6049799"><ele>314.6666666666667</ele><time>2026-05-03T06:02:29.77Z</time></trkpt><trkpt lat="43.2842228" lon="11.6049975"><ele>315.0</ele><time>2026-05-03T06:02:32.715Z</time></trkpt><trkpt lat="43.2841474" lon="11.6050221"><ele>315.0</ele><time>2026-05-03T06:02:35.776Z</time></trkpt><trkpt lat="43.2840717" lon="11.6050493"><ele>315.0</ele><time>2026-05-03T06:02:38.74Z</time></trkpt><trkpt lat="43.2839964" lon="11.605075"><ele>315.0</ele><time>2026-05-03T06:02:41.814Z</time></trkpt><trkpt lat="43.2839175" lon="11.6050782"><ele>315.0</ele><time>2026-05-03T06:02:44.773Z</time></trkpt><trkpt lat="43.2838439" lon="11.6050906"><ele>315.0</ele><time>2026-05-03T06:02:47.696Z</time></trkpt><trkpt lat="43.2837726" lon="11.6050708"><ele>315.0</ele><time>2026-05-03T06:02:50.755Z</time></trkpt><trkpt lat="43.2837411" lon="11.604985"><ele>315.1666666666667</ele><time>2026-05-03T06:02:53.754Z</time></trkpt><trkpt lat="43.2837257" lon="11.6048827"><ele>315.3333333333333</ele><time>2026-05-03T06:02:56.748Z</time></trkpt><trkpt lat="43.2837099" lon="11.6047743"><ele>315.5</ele><time>2026-05-03T06:02:59.714Z</time></trkpt><trkpt lat="43.2836852" lon="11.6046668"><ele>315.66666666666663</ele><time>2026-05-03T06:03:02.669Z</time></trkpt><trkpt lat="43.2836646" lon="11.6045601"><ele>315.8333333333333</ele><time>2026-05-03T06:03:05.759Z</time></trkpt><trkpt lat="43.2836475" lon="11.604464"><ele>316.0</ele><time>2026-05-03T06:03:08.737Z</time></trkpt><trkpt lat="43.283629" lon="11.6043604"><ele>315.5</ele><time>2026-05-03T06:03:11.753Z</time></trkpt><trkpt lat="43.2836181" lon="11.6042458"><ele>315.0</ele><time>2026-05-03T06:03:14.783Z</time></trkpt><trkpt lat="43.2836014" lon="11.6041337"><ele>314.5</ele><time>2026-05-03T06:03:17.677Z</time></trkpt><trkpt lat="43.2835828" lon="11.6040217"><ele>314.0</ele><time>2026-05-03T06:03:20.746Z</time></trkpt><trkpt lat="43.2835593" lon="11.6039082"><ele>313.5</ele><time>2026-05-03T06:03:23.749Z</time></trkpt><trkpt lat="43.2835378" lon="11.603796"><ele>313.0</ele><time>2026-05-03T06:03:26.69Z</time></trkpt><trkpt lat="43.2835221" lon="11.6036619"><ele>312.5</ele><time>2026-05-03T06:03:29.79Z</time></trkpt><trkpt lat="43.2835053" lon="11.6035692"><ele>312.0</ele><time>2026-05-03T06:03:31.766Z</time></trkpt><trkpt lat="43.2834966" lon="11.6034801"><ele>311.5</ele><time>2026-05-03T06:03:33.764Z</time></trkpt><trkpt lat="43.2834833" lon="11.6033704"><ele>311.0</ele><time>2026-05-03T06:03:36.794Z</time></trkpt><trkpt lat="43.2834669" lon="11.6032582"><ele>310.5</ele><time>2026-05-03T06:03:39.758Z</time></trkpt><trkpt lat="43.2834545" lon="11.603148"><ele>310.0</ele><time>2026-05-03T06:03:42.754Z</time></trkpt><trkpt lat="43.2834536" lon="11.6030437"><ele>310.0</ele><time>2026-05-03T06:03:45.716Z</time></trkpt><trkpt lat="43.283503" lon="11.6029617"><ele>310.0</ele><time>2026-05-03T06:03:48.719Z</time></trkpt><trkpt lat="43.2835608" lon="11.6028987"><ele>310.0</ele><time>2026-05-03T06:03:51.796Z</time></trkpt><trkpt lat="43.2836216" lon="11.6028454"><ele>310.0</ele><time>2026-05-03T06:03:54.654Z</time></trkpt><trkpt lat="43.2836768" lon="11.6028027"><ele>310.0</ele><time>2026-05-03T06:03:56.788Z</time></trkpt><trkpt lat="43.2837335" lon="11.6027601"><ele>310.0</ele><time>2026-05-03T06:03:58.764Z</time></trkpt><trkpt lat="43.2838206" lon="11.6027023"><ele>310.0</ele><time>2026-05-03T06:04:01.751Z</time></trkpt><trkpt lat="43.2838867" lon="11.6026725"><ele>309.3333333333333</ele><time>2026-05-03T06:04:03.754Z</time></trkpt><trkpt lat="43.2839501" lon="11.6026463"><ele>308.66666666666663</ele><time>2026-05-03T06:04:05.79Z</time></trkpt><trkpt lat="43.2840368" lon="11.6026059"><ele>308.0</ele><time>2026-05-03T06:04:08.809Z</time></trkpt><trkpt lat="43.2840964" lon="11.6025763"><ele>307.3333333333333</ele><time>2026-05-03T06:04:10.77Z</time></trkpt><trkpt lat="43.2841779" lon="11.6025378"><ele>306.6666666666667</ele><time>2026-05-03T06:04:13.651Z</time></trkpt><trkpt lat="43.2842653" lon="11.6024995"><ele>306.0</ele><time>2026-05-03T06:04:16.756Z</time></trkpt><trkpt lat="43.2843519" lon="11.6024568"><ele>306.0</ele><time>2026-05-03T06:04:19.75Z</time></trkpt><trkpt lat="43.2844165" lon="11.6024277"><ele>306.0</ele><time>2026-05-03T06:04:21.709Z</time></trkpt><trkpt lat="43.2844832" lon="11.602392"><ele>306.0</ele><time>2026-05-03T06:04:24.783Z</time></trkpt><trkpt lat="43.2845582" lon="11.6023898"><ele>306.0</ele><time>2026-05-03T06:04:27.654Z</time></trkpt><trkpt lat="43.2845961" lon="11.602467"><ele>306.0</ele><time>2026-05-03T06:04:30.762Z</time></trkpt><trkpt lat="43.2846473" lon="11.6025253"><ele>306.0</ele><time>2026-05-03T06:04:33.696Z</time></trkpt><trkpt lat="43.284723" lon="11.6024956"><ele>306.0</ele><time>2026-05-03T06:04:35.72Z</time></trkpt><trkpt lat="43.2848009" lon="11.6024566"><ele>306.0</ele><time>2026-05-03T06:04:37.719Z</time></trkpt><trkpt lat="43.2848673" lon="11.6024114"><ele>306.0</ele><time>2026-05-03T06:04:39.76Z</time></trkpt><trkpt lat="43.2849475" lon="11.6023703"><ele>306.0</ele><time>2026-05-03T06:04:42.751Z</time></trkpt><trkpt lat="43.2850417" lon="11.6023537"><ele>306.0</ele><time>2026-05-03T06:04:45.75Z</time></trkpt><trkpt lat="43.2851225" lon="11.6023809"><ele>306.0</ele><time>2026-05-03T06:04:48.775Z</time></trkpt><trkpt lat="43.2851829" lon="11.6023474"><ele>306.0</ele><time>2026-05-03T06:04:52.818Z</time></trkpt><trkpt lat="43.2851762" lon="11.6022434"><ele>306.0</ele><time>2026-05-03T06:04:55.737Z</time></trkpt><trkpt lat="43.2851171" lon="11.6022128"><ele>306.0</ele><time>2026-05-03T06:04:57.773Z</time></trkpt><trkpt lat="43.2850517" lon="11.6021757"><ele>306.0</ele><time>2026-05-03T06:04:59.757Z</time></trkpt><trkpt lat="43.2849798" lon="11.6021062"><ele>306.0</ele><time>2026-05-03T06:05:02.744Z</time></trkpt><trkpt lat="43.2849164" lon="11.6020411"><ele>306.0</ele><time>2026-05-03T06:05:05.677Z</time></trkpt><trkpt lat="43.2848504" lon="11.6019894"><ele>306.0</ele><time>2026-05-03T06:05:08.748Z</time></trkpt><trkpt lat="43.2847841" lon="11.601947"><ele>306.1428571428571</ele><time>2026-05-03T06:05:11.776Z</time></trkpt><trkpt lat="43.2847183" lon="11.6018938"><ele>306.2857142857143</ele><time>2026-05-03T06:05:14.759Z</time></trkpt><trkpt lat="43.2846595" lon="11.6018433"><ele>306.42857142857144</ele><time>2026-05-03T06:05:17.766Z</time></trkpt><trkpt lat="43.2846057" lon="11.6017883"><ele>306.57142857142856</ele><time>2026-05-03T06:05:20.732Z</time></trkpt><trkpt lat="43.2845475" lon="11.6017437"><ele>306.7142857142857</ele><time>2026-05-03T06:05:23.734Z</time></trkpt><trkpt lat="43.2844836" lon="11.601698"><ele>306.85714285714283</ele><time>2026-05-03T06:05:26.768Z</time></trkpt><trkpt lat="43.2844193" lon="11.6016624"><ele>307.0</ele><time>2026-05-03T06:05:29.749Z</time></trkpt><trkpt lat="43.2843588" lon="11.6016073"><ele>306.99999999999994</ele><time>2026-05-03T06:05:32.776Z</time></trkpt><trkpt lat="43.2842893" lon="11.601553"><ele>307.0</ele><time>2026-05-03T06:05:35.743Z</time></trkpt><trkpt lat="43.2842163" lon="11.6014919"><ele>307.0</ele><time>2026-05-03T06:05:39.769Z</time></trkpt><trkpt lat="43.2841531" lon="11.6014545"><ele>307.0</ele><time>2026-05-03T06:05:42.76Z</time></trkpt><trkpt lat="43.2840882" lon="11.6014062"><ele>307.0</ele><time>2026-05-03T06:05:45.768Z</time></trkpt><trkpt lat="43.2840265" lon="11.6013511"><ele>306.99999999999994</ele><time>2026-05-03T06:05:48.771Z</time></trkpt><trkpt lat="43.283961" lon="11.6013272"><ele>307.0</ele><time>2026-05-03T06:05:51.764Z</time></trkpt><trkpt lat="43.2838836" lon="11.6013053"><ele>306.57142857142856</ele><time>2026-05-03T06:05:54.745Z</time></trkpt><trkpt lat="43.2838103" lon="11.6012732"><ele>306.1428571428571</ele><time>2026-05-03T06:05:57.782Z</time></trkpt><trkpt lat="43.2837463" lon="11.6012319"><ele>305.71428571428567</ele><time>2026-05-03T06:06:00.75Z</time></trkpt><trkpt lat="43.2836876" lon="11.6011952"><ele>305.2857142857143</ele><time>2026-05-03T06:06:03.774Z</time></trkpt><trkpt lat="43.2836155" lon="11.6011517"><ele>304.8571428571429</ele><time>2026-05-03T06:06:07.783Z</time></trkpt><trkpt lat="43.2835582" lon="11.6011027"><ele>304.4285714285714</ele><time>2026-05-03T06:06:11.75Z</time></trkpt><trkpt lat="43.2834996" lon="11.6010606"><ele>304.0</ele><time>2026-05-03T06:06:15.769Z</time></trkpt><trkpt lat="43.2834552" lon="11.6009973"><ele>303.7142857142857</ele><time>2026-05-03T06:06:18.77Z</time></trkpt><trkpt lat="43.2834137" lon="11.6009141"><ele>303.42857142857144</ele><time>2026-05-03T06:06:22.779Z</time></trkpt><trkpt lat="43.2833652" lon="11.6008502"><ele>303.14285714285717</ele><time>2026-05-03T06:06:25.783Z</time></trkpt><trkpt lat="43.2833115" lon="11.6007917"><ele>302.8571428571429</ele><time>2026-05-03T06:06:28.81Z</time></trkpt><trkpt lat="43.2832664" lon="11.6007206"><ele>302.57142857142856</ele><time>2026-05-03T06:06:31.763Z</time></trkpt><trkpt lat="43.2832664" lon="11.6006192"><ele>302.28571428571433</ele><time>2026-05-03T06:06:34.758Z</time></trkpt><trkpt lat="43.2833057" lon="11.6005282"><ele>302.0</ele><time>2026-05-03T06:06:37.693Z</time></trkpt><trkpt lat="43.2833651" lon="11.6004735"><ele>302.00000000000006</ele><time>2026-05-03T06:06:40.745Z</time></trkpt><trkpt lat="43.2834095" lon="11.6004066"><ele>302.0</ele><time>2026-05-03T06:06:43.703Z</time></trkpt><trkpt lat="43.2834489" lon="11.600339"><ele>302.0</ele><time>2026-05-03T06:06:46.657Z</time></trkpt><trkpt lat="43.2834953" lon="11.6002697"><ele>302.0</ele><time>2026-05-03T06:06:49.738Z</time></trkpt><trkpt lat="43.2835507" lon="11.6002083"><ele>302.0</ele><time>2026-05-03T06:06:52.789Z</time></trkpt><trkpt lat="43.2836224" lon="11.6001669"><ele>302.00000000000006</ele><time>2026-05-03T06:06:55.751Z</time></trkpt><trkpt lat="43.2836952" lon="11.6001408"><ele>302.0</ele><time>2026-05-03T06:06:58.762Z</time></trkpt><trkpt lat="43.2837656" lon="11.6001155"><ele>301.00000000000006</ele><time>2026-05-03T06:07:01.751Z</time></trkpt><trkpt lat="43.2838333" lon="11.6000824"><ele>300.0</ele><time>2026-05-03T06:07:04.751Z</time></trkpt><trkpt lat="43.2839001" lon="11.6000702"><ele>299.0</ele><time>2026-05-03T06:07:07.743Z</time></trkpt><trkpt lat="43.2839641" lon="11.6000514"><ele>298.0</ele><time>2026-05-03T06:07:10.759Z</time></trkpt><trkpt lat="43.2840362" lon="11.6000299"><ele>297.0</ele><time>2026-05-03T06:07:14.789Z</time></trkpt><trkpt lat="43.2840898" lon="11.5999557"><ele>296.00000000000006</ele><time>2026-05-03T06:07:17.823Z</time></trkpt><trkpt lat="43.2840658" lon="11.5998368"><ele>295.0</ele><time>2026-05-03T06:07:20.723Z</time></trkpt><trkpt lat="43.2840151" lon="11.59978"><ele>295.00000000000006</ele><time>2026-05-03T06:07:23.741Z</time></trkpt><trkpt lat="43.2839447" lon="11.5998038"><ele>295.0</ele><time>2026-05-03T06:07:27.79Z</time></trkpt><trkpt lat="43.2838809" lon="11.5998336"><ele>295.0</ele><time>2026-05-03T06:07:31.737Z</time></trkpt><trkpt lat="43.2838168" lon="11.5998151"><ele>295.0</ele><time>2026-05-03T06:07:34.763Z</time></trkpt><trkpt lat="43.2837408" lon="11.5997717"><ele>295.0</ele><time>2026-05-03T06:07:38.746Z</time></trkpt><trkpt lat="43.2836703" lon="11.5997672"><ele>295.00000000000006</ele><time>2026-05-03T06:07:41.721Z</time></trkpt><trkpt lat="43.2835989" lon="11.5997725"><ele>295.0</ele><time>2026-05-03T06:07:44.749Z</time></trkpt><trkpt lat="43.2835291" lon="11.5997795"><ele>293.8333333333333</ele><time>2026-05-03T06:07:47.774Z</time></trkpt><trkpt lat="43.2834547" lon="11.5998154"><ele>292.66666666666663</ele><time>2026-05-03T06:07:51.764Z</time></trkpt><trkpt lat="43.2833819" lon="11.5998416"><ele>291.5</ele><time>2026-05-03T06:07:54.753Z</time></trkpt><trkpt lat="43.2832976" lon="11.5998756"><ele>290.3333333333333</ele><time>2026-05-03T06:07:57.789Z</time></trkpt><trkpt lat="43.2832202" lon="11.5999006"><ele>289.1666666666667</ele><time>2026-05-03T06:08:00.73Z</time></trkpt><trkpt lat="43.2831449" lon="11.5999119"><ele>288.0</ele><time>2026-05-03T06:08:03.69Z</time></trkpt><trkpt lat="43.2830749" lon="11.5999255"><ele>287.00000000000006</ele><time>2026-05-03T06:08:06.712Z</time></trkpt><trkpt lat="43.2830067" lon="11.5999333"><ele>286.0</ele><time>2026-05-03T06:08:09.728Z</time></trkpt><trkpt lat="43.2829447" lon="11.5999012"><ele>285.0</ele><time>2026-05-03T06:08:12.695Z</time></trkpt><trkpt lat="43.2828819" lon="11.5998543"><ele>284.0</ele><time>2026-05-03T06:08:15.742Z</time></trkpt><trkpt lat="43.2828173" lon="11.5998319"><ele>283.0</ele><time>2026-05-03T06:08:18.655Z</time></trkpt><trkpt lat="43.2827453" lon="11.599799"><ele>282.00000000000006</ele><time>2026-05-03T06:08:21.726Z</time></trkpt><trkpt lat="43.2826768" lon="11.5997764"><ele>281.0</ele><time>2026-05-03T06:08:24.747Z</time></trkpt><trkpt lat="43.2826102" lon="11.5997788"><ele>281.00000000000006</ele><time>2026-05-03T06:08:27.758Z</time></trkpt><trkpt lat="43.2825418" lon="11.599788"><ele>281.0</ele><time>2026-05-03T06:08:30.758Z</time></trkpt><trkpt lat="43.2824833" lon="11.5997547"><ele>281.0</ele><time>2026-05-03T06:08:33.699Z</time></trkpt><trkpt lat="43.2825094" lon="11.5996522"><ele>281.0</ele><time>2026-05-03T06:08:36.675Z</time></trkpt><trkpt lat="43.2825657" lon="11.5995885"><ele>281.0</ele><time>2026-05-03T06:08:39.772Z</time></trkpt><trkpt lat="43.2826127" lon="11.5995188"><ele>281.00000000000006</ele><time>2026-05-03T06:08:42.749Z</time></trkpt><trkpt lat="43.2826491" lon="11.5994267"><ele>281.0</ele><time>2026-05-03T06:08:45.75Z</time></trkpt><trkpt lat="43.2826615" lon="11.5993115"><ele>279.14285714285717</ele><time>2026-05-03T06:08:48.703Z</time></trkpt><trkpt lat="43.2826704" lon="11.599214"><ele>277.2857142857143</ele><time>2026-05-03T06:08:50.776Z</time></trkpt><trkpt lat="43.2826862" lon="11.5991205"><ele>275.42857142857144</ele><time>2026-05-03T06:08:52.785Z</time></trkpt><trkpt lat="43.2826975" lon="11.5990311"><ele>273.57142857142856</ele><time>2026-05-03T06:08:54.657Z</time></trkpt><trkpt lat="43.2827102" lon="11.5989387"><ele>271.7142857142857</ele><time>2026-05-03T06:08:56.747Z</time></trkpt><trkpt lat="43.282728" lon="11.5988161"><ele>269.8571428571429</ele><time>2026-05-03T06:08:59.727Z</time></trkpt><trkpt lat="43.2827326" lon="11.5987103"><ele>268.0</ele><time>2026-05-03T06:09:02.729Z</time></trkpt><trkpt lat="43.2827088" lon="11.5986083"><ele>267.5</ele><time>2026-05-03T06:09:05.769Z</time></trkpt><trkpt lat="43.2826879" lon="11.5985083"><ele>267.0</ele><time>2026-05-03T06:09:08.671Z</time></trkpt><trkpt lat="43.2826699" lon="11.5984028"><ele>266.5</ele><time>2026-05-03T06:09:11.739Z</time></trkpt><trkpt lat="43.2826791" lon="11.5983112"><ele>266.0</ele><time>2026-05-03T06:09:14.757Z</time></trkpt><trkpt lat="43.2827284" lon="11.5982168"><ele>265.5</ele><time>2026-05-03T06:09:18.757Z</time></trkpt><trkpt lat="43.2827816" lon="11.5981461"><ele>265.0</ele><time>2026-05-03T06:09:21.729Z</time></trkpt><trkpt lat="43.2828386" lon="11.5980786"><ele>264.99999999999994</ele><time>2026-05-03T06:09:24.77Z</time></trkpt><trkpt lat="43.2828734" lon="11.5980023"><ele>265.0</ele><time>2026-05-03T06:09:27.672Z</time></trkpt><trkpt lat="43.2829092" lon="11.5979096"><ele>265.0</ele><time>2026-05-03T06:09:30.735Z</time></trkpt><trkpt lat="43.2829723" lon="11.5978496"><ele>265.0</ele><time>2026-05-03T06:09:33.828Z</time></trkpt><trkpt lat="43.2830267" lon="11.5977759"><ele>265.0</ele><time>2026-05-03T06:09:36.757Z</time></trkpt><trkpt lat="43.2830751" lon="11.5977168"><ele>264.99999999999994</ele><time>2026-05-03T06:09:38.77Z</time></trkpt><trkpt lat="43.283131" lon="11.5976545"><ele>265.0</ele><time>2026-05-03T06:09:40.758Z</time></trkpt><trkpt lat="43.2831893" lon="11.5975892"><ele>264.16666666666663</ele><time>2026-05-03T06:09:42.669Z</time></trkpt><trkpt lat="43.2832545" lon="11.5975276"><ele>263.3333333333333</ele><time>2026-05-03T06:09:44.757Z</time></trkpt><trkpt lat="43.2833136" lon="11.5974709"><ele>262.5</ele><time>2026-05-03T06:09:46.758Z</time></trkpt><trkpt lat="43.2833802" lon="11.5973998"><ele>261.6666666666667</ele><time>2026-05-03T06:09:48.697Z</time></trkpt><trkpt lat="43.2834458" lon="11.5973301"><ele>260.83333333333337</ele><time>2026-05-03T06:09:50.813Z</time></trkpt><trkpt lat="43.2834952" lon="11.5972713"><ele>260.0</ele><time>2026-05-03T06:09:52.797Z</time></trkpt><trkpt lat="43.2835528" lon="11.5971775"><ele>260.0</ele><time>2026-05-03T06:09:55.754Z</time></trkpt><trkpt lat="43.2835986" lon="11.5970823"><ele>260.0</ele><time>2026-05-03T06:09:58.749Z</time></trkpt><trkpt lat="43.283657" lon="11.5969937"><ele>260.0</ele><time>2026-05-03T06:10:01.741Z</time></trkpt><trkpt lat="43.2837195" lon="11.5969032"><ele>260.0</ele><time>2026-05-03T06:10:04.755Z</time></trkpt><trkpt lat="43.2837742" lon="11.5968049"><ele>260.0</ele><time>2026-05-03T06:10:07.778Z</time></trkpt><trkpt lat="43.2838268" lon="11.596718"><ele>260.0</ele><time>2026-05-03T06:10:10.668Z</time></trkpt><trkpt lat="43.2838649" lon="11.5966465"><ele>260.6666666666667</ele><time>2026-05-03T06:10:12.753Z</time></trkpt><trkpt lat="43.2838961" lon="11.5965291"><ele>261.33333333333337</ele><time>2026-05-03T06:10:15.752Z</time></trkpt><trkpt lat="43.283892" lon="11.5964365"><ele>262.0</ele><time>2026-05-03T06:10:17.759Z</time></trkpt><trkpt lat="43.2838722" lon="11.5963419"><ele>262.6666666666667</ele><time>2026-05-03T06:10:20.774Z</time></trkpt><trkpt lat="43.2838503" lon="11.5962491"><ele>263.3333333333333</ele><time>2026-05-03T06:10:23.667Z</time></trkpt><trkpt lat="43.2838253" lon="11.5961363"><ele>264.0</ele><time>2026-05-03T06:10:26.751Z</time></trkpt><trkpt lat="43.2837672" lon="11.596058"><ele>264.1428571428571</ele><time>2026-05-03T06:10:29.742Z</time></trkpt><trkpt lat="43.2837091" lon="11.5960084"><ele>264.2857142857143</ele><time>2026-05-03T06:10:32.769Z</time></trkpt><trkpt lat="43.2836711" lon="11.59592"><ele>264.42857142857144</ele><time>2026-05-03T06:10:35.737Z</time></trkpt><trkpt lat="43.2836572" lon="11.5958274"><ele>264.57142857142856</ele><time>2026-05-03T06:10:38.678Z</time></trkpt><trkpt lat="43.2836256" lon="11.595724"><ele>264.7142857142857</ele><time>2026-05-03T06:10:42.749Z</time></trkpt><trkpt lat="43.28356" lon="11.5956649"><ele>264.85714285714283</ele><time>2026-05-03T06:10:46.798Z</time></trkpt><trkpt lat="43.2834987" lon="11.5956291"><ele>265.0</ele><time>2026-05-03T06:10:50.757Z</time></trkpt><trkpt lat="43.2834345" lon="11.595602"><ele>264.99999999999994</ele><time>2026-05-03T06:10:54.742Z</time></trkpt><trkpt lat="43.2833737" lon="11.5955712"><ele>265.0</ele><time>2026-05-03T06:10:58.778Z</time></trkpt><trkpt lat="43.2833039" lon="11.5955296"><ele>265.0</ele><time>2026-05-03T06:11:04.697Z</time></trkpt><trkpt lat="43.2832419" lon="11.5954713"><ele>265.0</ele><time>2026-05-03T06:11:09.774Z</time></trkpt><trkpt lat="43.2831866" lon="11.5954211"><ele>265.0</ele><time>2026-05-03T06:11:13.753Z</time></trkpt><trkpt lat="43.2831205" lon="11.5953746"><ele>264.99999999999994</ele><time>2026-05-03T06:11:17.655Z</time></trkpt><trkpt lat="43.2830673" lon="11.5953253"><ele>265.0</ele><time>2026-05-03T06:11:20.741Z</time></trkpt><trkpt lat="43.2830105" lon="11.5952833"><ele>265.16666666666663</ele><time>2026-05-03T06:11:23.765Z</time></trkpt><trkpt lat="43.2829351" lon="11.5952361"><ele>265.3333333333333</ele><time>2026-05-03T06:11:27.796Z</time></trkpt><trkpt lat="43.2828702" lon="11.5952066"><ele>265.5</ele><time>2026-05-03T06:11:31.775Z</time></trkpt><trkpt lat="43.2828142" lon="11.5951525"><ele>265.6666666666667</ele><time>2026-05-03T06:11:35.735Z</time></trkpt><trkpt lat="43.2827615" lon="11.5950845"><ele>265.83333333333337</ele><time>2026-05-03T06:11:39.759Z</time></trkpt><trkpt lat="43.282727" lon="11.5949928"><ele>266.0</ele><time>2026-05-03T06:11:43.737Z</time></trkpt><trkpt lat="43.2826952" lon="11.5948831"><ele>266.0</ele><time>2026-05-03T06:11:47.783Z</time></trkpt><trkpt lat="43.2826813" lon="11.5947949"><ele>266.0</ele><time>2026-05-03T06:11:51.772Z</time></trkpt><trkpt lat="43.2826459" lon="11.594705"><ele>266.0</ele><time>2026-05-03T06:11:55.758Z</time></trkpt><trkpt lat="43.2825906" lon="11.5946294"><ele>266.0</ele><time>2026-05-03T06:11:59.756Z</time></trkpt><trkpt lat="43.2825447" lon="11.5945588"><ele>266.0</ele><time>2026-05-03T06:12:02.756Z</time></trkpt><trkpt lat="43.2825053" lon="11.5944761"><ele>266.0</ele><time>2026-05-03T06:12:06.41Z</time></trkpt><trkpt lat="43.2824674" lon="11.5944052"><ele>266.0</ele><time>2026-05-03T06:12:09.711Z</time></trkpt><trkpt lat="43.2824351" lon="11.5943253"><ele>265.42857142857144</ele><time>2026-05-03T06:12:12.76Z</time></trkpt><trkpt lat="43.2824003" lon="11.5942413"><ele>264.8571428571429</ele><time>2026-05-03T06:12:15.762Z</time></trkpt><trkpt lat="43.2823676" lon="11.5941595"><ele>264.2857142857143</ele><time>2026-05-03T06:12:18.757Z</time></trkpt><trkpt lat="43.2823364" lon="11.5940695"><ele>263.7142857142857</ele><time>2026-05-03T06:12:21.74Z</time></trkpt><trkpt lat="43.2823024" lon="11.5939796"><ele>263.14285714285717</ele><time>2026-05-03T06:12:24.74Z</time></trkpt><trkpt lat="43.282262" lon="11.5938927"><ele>262.57142857142856</ele><time>2026-05-03T06:12:27.799Z</time></trkpt><trkpt lat="43.2822212" lon="11.593804"><ele>262.0</ele><time>2026-05-03T06:12:30.778Z</time></trkpt><trkpt lat="43.2821855" lon="11.593698"><ele>263.16666666666663</ele><time>2026-05-03T06:12:33.749Z</time></trkpt><trkpt lat="43.2821493" lon="11.5935958"><ele>264.3333333333333</ele><time>2026-05-03T06:12:36.658Z</time></trkpt><trkpt lat="43.2821016" lon="11.5934925"><ele>265.5</ele><time>2026-05-03T06:12:39.769Z</time></trkpt><trkpt lat="43.2820501" lon="11.5933958"><ele>266.6666666666667</ele><time>2026-05-03T06:12:42.829Z</time></trkpt><trkpt lat="43.2819856" lon="11.593313"><ele>267.83333333333337</ele><time>2026-05-03T06:12:45.716Z</time></trkpt><trkpt lat="43.2819376" lon="11.5932239"><ele>269.0</ele><time>2026-05-03T06:12:48.738Z</time></trkpt><trkpt lat="43.2818882" lon="11.5931423"><ele>269.0</ele><time>2026-05-03T06:12:51.722Z</time></trkpt><trkpt lat="43.2818227" lon="11.5930752"><ele>269.0</ele><time>2026-05-03T06:12:54.76Z</time></trkpt><trkpt lat="43.2817662" lon="11.5929926"><ele>269.0</ele><time>2026-05-03T06:12:57.739Z</time></trkpt><trkpt lat="43.2817145" lon="11.5929097"><ele>269.0</ele><time>2026-05-03T06:13:00.769Z</time></trkpt><trkpt lat="43.2816732" lon="11.5928235"><ele>269.0</ele><time>2026-05-03T06:13:03.689Z</time></trkpt><trkpt lat="43.2816234" lon="11.5927399"><ele>269.0</ele><time>2026-05-03T06:13:06.769Z</time></trkpt><trkpt lat="43.2815815" lon="11.5926588"><ele>269.0</ele><time>2026-05-03T06:13:09.743Z</time></trkpt><trkpt lat="43.2815361" lon="11.5925828"><ele>269.0</ele><time>2026-05-03T06:13:12.708Z</time></trkpt><trkpt lat="43.2814937" lon="11.592507"><ele>269.0</ele><time>2026-05-03T06:13:15.76Z</time></trkpt><trkpt lat="43.2814526" lon="11.5924409"><ele>269.0</ele><time>2026-05-03T06:13:18.737Z</time></trkpt><trkpt lat="43.2813847" lon="11.5924809"><ele>269.0</ele><time>2026-05-03T06:13:22.75Z</time></trkpt><trkpt lat="43.2813231" lon="11.5925444"><ele>269.0</ele><time>2026-05-03T06:13:26.746Z</time></trkpt><trkpt lat="43.2812781" lon="11.5926296"><ele>269.0</ele><time>2026-05-03T06:13:30.775Z</time></trkpt><trkpt lat="43.281249" lon="11.5927357"><ele>270.57142857142856</ele><time>2026-05-03T06:13:34.734Z</time></trkpt><trkpt lat="43.2812341" lon="11.5928278"><ele>272.14285714285717</ele><time>2026-05-03T06:13:37.761Z</time></trkpt><trkpt lat="43.281203" lon="11.5929066"><ele>273.7142857142857</ele><time>2026-05-03T06:13:40.788Z</time></trkpt><trkpt lat="43.2811384" lon="11.5929744"><ele>275.2857142857143</ele><time>2026-05-03T06:13:44.736Z</time></trkpt><trkpt lat="43.2810905" lon="11.5930352"><ele>276.8571428571429</ele><time>2026-05-03T06:13:47.761Z</time></trkpt><trkpt lat="43.2810455" lon="11.5931076"><ele>278.42857142857144</ele><time>2026-05-03T06:13:50.791Z</time></trkpt><trkpt lat="43.281003" lon="11.5931757"><ele>280.0</ele><time>2026-05-03T06:13:53.672Z</time></trkpt><trkpt lat="43.2809523" lon="11.5932481"><ele>280.0</ele><time>2026-05-03T06:13:56.718Z</time></trkpt><trkpt lat="43.2808958" lon="11.5933175"><ele>280.0</ele><time>2026-05-03T06:13:59.734Z</time></trkpt><trkpt lat="43.2808385" lon="11.5933792"><ele>280.0</ele><time>2026-05-03T06:14:02.755Z</time></trkpt><trkpt lat="43.2807779" lon="11.5934349"><ele>280.0</ele><time>2026-05-03T06:14:05.753Z</time></trkpt><trkpt lat="43.2807115" lon="11.5934844"><ele>280.0</ele><time>2026-05-03T06:14:08.571Z</time></trkpt><trkpt lat="43.2806397" lon="11.5935293"><ele>280.0</ele><time>2026-05-03T06:14:11.75Z</time></trkpt><trkpt lat="43.2805786" lon="11.5935622"><ele>280.0</ele><time>2026-05-03T06:14:14.766Z</time></trkpt><trkpt lat="43.2805129" lon="11.5935932"><ele>280.57142857142856</ele><time>2026-05-03T06:14:17.703Z</time></trkpt><trkpt lat="43.2804293" lon="11.5936273"><ele>281.1428571428571</ele><time>2026-05-03T06:14:20.737Z</time></trkpt><trkpt lat="43.2803538" lon="11.5936481"><ele>281.7142857142857</ele><time>2026-05-03T06:14:23.724Z</time></trkpt><trkpt lat="43.2802815" lon="11.5936425"><ele>282.2857142857143</ele><time>2026-05-03T06:14:26.78Z</time></trkpt><trkpt lat="43.2802082" lon="11.5936188"><ele>282.85714285714283</ele><time>2026-05-03T06:14:29.795Z</time></trkpt><trkpt lat="43.2801445" lon="11.5935895"><ele>283.42857142857144</ele><time>2026-05-03T06:14:32.7Z</time></trkpt><trkpt lat="43.2800845" lon="11.5935567"><ele>284.0</ele><time>2026-05-03T06:14:35.791Z</time></trkpt><trkpt lat="43.280018" lon="11.5935178"><ele>284.0</ele><time>2026-05-03T06:14:38.772Z</time></trkpt><trkpt lat="43.27995" lon="11.5934896"><ele>284.0</ele><time>2026-05-03T06:14:41.767Z</time></trkpt><trkpt lat="43.27988" lon="11.5934623"><ele>284.0</ele><time>2026-05-03T06:14:44.747Z</time></trkpt><trkpt lat="43.279805" lon="11.5934421"><ele>284.0</ele><time>2026-05-03T06:14:47.836Z</time></trkpt><trkpt lat="43.2797309" lon="11.5934272"><ele>284.0</ele><time>2026-05-03T06:14:50.697Z</time></trkpt><trkpt lat="43.2796466" lon="11.5933944"><ele>284.0</ele><time>2026-05-03T06:14:53.771Z</time></trkpt><trkpt lat="43.2795793" lon="11.5933383"><ele>283.57142857142856</ele><time>2026-05-03T06:14:56.753Z</time></trkpt><trkpt lat="43.2795778" lon="11.593235"><ele>283.1428571428571</ele><time>2026-05-03T06:14:59.748Z</time></trkpt><trkpt lat="43.2795837" lon="11.5931402"><ele>282.7142857142857</ele><time>2026-05-03T06:15:02.776Z</time></trkpt><trkpt lat="43.279597" lon="11.5930538"><ele>282.2857142857143</ele><time>2026-05-03T06:15:05.673Z</time></trkpt><trkpt lat="43.2796085" lon="11.5929508"><ele>281.8571428571429</ele><time>2026-05-03T06:15:08.766Z</time></trkpt><trkpt lat="43.2796118" lon="11.5928466"><ele>281.42857142857144</ele><time>2026-05-03T06:15:11.751Z</time></trkpt><trkpt lat="43.2796258" lon="11.5927345"><ele>281.0</ele><time>2026-05-03T06:15:15.748Z</time></trkpt><trkpt lat="43.2796533" lon="11.5926339"><ele>281.0</ele><time>2026-05-03T06:15:19.768Z</time></trkpt><trkpt lat="43.2796862" lon="11.5925528"><ele>281.0</ele><time>2026-05-03T06:15:22.744Z</time></trkpt><trkpt lat="43.2797352" lon="11.5924812"><ele>281.0</ele><time>2026-05-03T06:15:25.749Z</time></trkpt><trkpt lat="43.2797787" lon="11.5924168"><ele>281.0</ele><time>2026-05-03T06:15:28.749Z</time></trkpt><trkpt lat="43.2798253" lon="11.5923218"><ele>281.0</ele><time>2026-05-03T06:15:32.747Z</time></trkpt><trkpt lat="43.2798709" lon="11.5922383"><ele>281.0</ele><time>2026-05-03T06:15:35.769Z</time></trkpt><trkpt lat="43.2799217" lon="11.5921408"><ele>281.33333333333337</ele><time>2026-05-03T06:15:38.789Z</time></trkpt><trkpt lat="43.279969" lon="11.592046"><ele>281.6666666666667</ele><time>2026-05-03T06:15:40.735Z</time></trkpt><trkpt lat="43.2800068" lon="11.591958"><ele>282.0</ele><time>2026-05-03T06:15:42.768Z</time></trkpt><trkpt lat="43.2800517" lon="11.5918566"><ele>282.3333333333333</ele><time>2026-05-03T06:15:44.759Z</time></trkpt><trkpt lat="43.2800925" lon="11.5917669"><ele>282.66666666666663</ele><time>2026-05-03T06:15:46.702Z</time></trkpt><trkpt lat="43.2801268" lon="11.5916628"><ele>283.0</ele><time>2026-05-03T06:15:48.763Z</time></trkpt><trkpt lat="43.2801612" lon="11.5915718"><ele>283.0</ele><time>2026-05-03T06:15:50.763Z</time></trkpt><trkpt lat="43.2802165" lon="11.5915074"><ele>283.0</ele><time>2026-05-03T06:15:52.766Z</time></trkpt><trkpt lat="43.280281" lon="11.5914987"><ele>283.0</ele><time>2026-05-03T06:15:54.778Z</time></trkpt><trkpt lat="43.280368" lon="11.5914913"><ele>283.0</ele><time>2026-05-03T06:15:57.783Z</time></trkpt><trkpt lat="43.28043" lon="11.5914702"><ele>283.0</ele><time>2026-05-03T06:15:59.751Z</time></trkpt><trkpt lat="43.2804695" lon="11.5913943"><ele>283.0</ele><time>2026-05-03T06:16:01.675Z</time></trkpt><trkpt lat="43.2805042" lon="11.5913086"><ele>283.0</ele><time>2026-05-03T06:16:03.727Z</time></trkpt><trkpt lat="43.2805825" lon="11.5912593"><ele>282.2857142857143</ele><time>2026-05-03T06:16:06.784Z</time></trkpt><trkpt lat="43.2806758" lon="11.5912858"><ele>281.5714285714286</ele><time>2026-05-03T06:16:09.769Z</time></trkpt><trkpt lat="43.280741" lon="11.5913284"><ele>280.8571428571429</ele><time>2026-05-03T06:16:11.76Z</time></trkpt><trkpt lat="43.2807955" lon="11.5913729"><ele>280.14285714285717</ele><time>2026-05-03T06:16:13.675Z</time></trkpt><trkpt lat="43.2808562" lon="11.5914271"><ele>279.42857142857144</ele><time>2026-05-03T06:16:15.787Z</time></trkpt><trkpt lat="43.2809101" lon="11.5914871"><ele>278.7142857142857</ele><time>2026-05-03T06:16:17.764Z</time></trkpt><trkpt lat="43.2809609" lon="11.5915443"><ele>278.0</ele><time>2026-05-03T06:16:19.678Z</time></trkpt><trkpt lat="43.2810109" lon="11.5916128"><ele>278.0</ele><time>2026-05-03T06:16:21.719Z</time></trkpt><trkpt lat="43.2810714" lon="11.5916806"><ele>278.0</ele><time>2026-05-03T06:16:23.76Z</time></trkpt><trkpt lat="43.2811267" lon="11.5917371"><ele>278.0</ele><time>2026-05-03T06:16:25.656Z</time></trkpt><trkpt lat="43.2811822" lon="11.5918091"><ele>278.0</ele><time>2026-05-03T06:16:27.751Z</time></trkpt><trkpt lat="43.281226" lon="11.5918789"><ele>278.0</ele><time>2026-05-03T06:16:29.762Z</time></trkpt><trkpt lat="43.2812668" lon="11.5919498"><ele>278.0</ele><time>2026-05-03T06:16:31.731Z</time></trkpt><trkpt lat="43.2813181" lon="11.5920087"><ele>278.0</ele><time>2026-05-03T06:16:33.771Z</time></trkpt><trkpt lat="43.2813857" lon="11.591988"><ele>278.0</ele><time>2026-05-03T06:16:36.687Z</time></trkpt><trkpt lat="43.2814261" lon="11.5918591"><ele>278.0</ele><time>2026-05-03T06:16:39.765Z</time></trkpt><trkpt lat="43.2814474" lon="11.5917777"><ele>278.0</ele><time>2026-05-03T06:16:41.756Z</time></trkpt><trkpt lat="43.281485" lon="11.5916592"><ele>278.0</ele><time>2026-05-03T06:16:44.757Z</time></trkpt><trkpt lat="43.2815249" lon="11.5915494"><ele>278.0</ele><time>2026-05-03T06:16:47.817Z</time></trkpt><trkpt lat="43.2815692" lon="11.5914399"><ele>278.0</ele><time>2026-05-03T06:16:50.75Z</time></trkpt><trkpt lat="43.2816111" lon="11.5913244"><ele>276.1666666666667</ele><time>2026-05-03T06:16:53.76Z</time></trkpt><trkpt lat="43.2816488" lon="11.5912105"><ele>274.33333333333337</ele><time>2026-05-03T06:16:56.795Z</time></trkpt><trkpt lat="43.2816731" lon="11.5911274"><ele>272.5</ele><time>2026-05-03T06:16:58.748Z</time></trkpt><trkpt lat="43.2816991" lon="11.5910462"><ele>270.6666666666667</ele><time>2026-05-03T06:17:00.752Z</time></trkpt><trkpt lat="43.2817315" lon="11.5909703"><ele>268.8333333333333</ele><time>2026-05-03T06:17:02.768Z</time></trkpt><trkpt lat="43.2817686" lon="11.5908609"><ele>267.0</ele><time>2026-05-03T06:17:05.732Z</time></trkpt><trkpt lat="43.281797" lon="11.5907483"><ele>267.0</ele><time>2026-05-03T06:17:08.789Z</time></trkpt><trkpt lat="43.2818447" lon="11.590649"><ele>267.0</ele><time>2026-05-03T06:17:11.774Z</time></trkpt><trkpt lat="43.2819041" lon="11.5905566"><ele>267.0</ele><time>2026-05-03T06:17:14.717Z</time></trkpt><trkpt lat="43.2819536" lon="11.5904643"><ele>267.0</ele><time>2026-05-03T06:17:17.772Z</time></trkpt><trkpt lat="43.281994" lon="11.5903513"><ele>267.0</ele><time>2026-05-03T06:17:20.768Z</time></trkpt><trkpt lat="43.2820439" lon="11.5902739"><ele>267.0</ele><time>2026-05-03T06:17:23.332Z</time></trkpt><trkpt lat="43.2821078" lon="11.5902212"><ele>267.1666666666667</ele><time>2026-05-03T06:17:25.721Z</time></trkpt><trkpt lat="43.2821859" lon="11.5901637"><ele>267.3333333333333</ele><time>2026-05-03T06:17:28.767Z</time></trkpt><trkpt lat="43.2822578" lon="11.5901087"><ele>267.5</ele><time>2026-05-03T06:17:31.689Z</time></trkpt><trkpt lat="43.2823265" lon="11.5900773"><ele>267.66666666666663</ele><time>2026-05-03T06:17:33.753Z</time></trkpt><trkpt lat="43.2823851" lon="11.5900395"><ele>267.8333333333333</ele><time>2026-05-03T06:17:35.754Z</time></trkpt><trkpt lat="43.2824663" lon="11.5899695"><ele>268.0</ele><time>2026-05-03T06:17:38.759Z</time></trkpt><trkpt lat="43.2825165" lon="11.5898589"><ele>266.16666666666663</ele><time>2026-05-03T06:17:41.724Z</time></trkpt><trkpt lat="43.2825681" lon="11.5897848"><ele>264.3333333333333</ele><time>2026-05-03T06:17:43.832Z</time></trkpt><trkpt lat="43.282617" lon="11.5896872"><ele>262.5</ele><time>2026-05-03T06:17:46.731Z</time></trkpt><trkpt lat="43.2826499" lon="11.5896029"><ele>260.6666666666667</ele><time>2026-05-03T06:17:48.72Z</time></trkpt><trkpt lat="43.2826821" lon="11.5894996"><ele>258.83333333333337</ele><time>2026-05-03T06:17:50.738Z</time></trkpt><trkpt lat="43.2826875" lon="11.5893888"><ele>257.0</ele><time>2026-05-03T06:17:52.765Z</time></trkpt><trkpt lat="43.2826884" lon="11.5892798"><ele>256.0</ele><time>2026-05-03T06:17:54.77Z</time></trkpt><trkpt lat="43.2826921" lon="11.5891821"><ele>255.0</ele><time>2026-05-03T06:17:56.729Z</time></trkpt><trkpt lat="43.2827138" lon="11.5890913"><ele>254.0</ele><time>2026-05-03T06:17:58.77Z</time></trkpt><trkpt lat="43.2827619" lon="11.5889949"><ele>253.0</ele><time>2026-05-03T06:18:01.694Z</time></trkpt><trkpt lat="43.2827998" lon="11.5888972"><ele>252.00000000000003</ele><time>2026-05-03T06:18:04.759Z</time></trkpt><trkpt lat="43.282848" lon="11.5887982"><ele>251.0</ele><time>2026-05-03T06:18:07.772Z</time></trkpt><trkpt lat="43.2828975" lon="11.5887063"><ele>250.33333333333334</ele><time>2026-05-03T06:18:10.775Z</time></trkpt><trkpt lat="43.2829324" lon="11.5886296"><ele>249.66666666666669</ele><time>2026-05-03T06:18:12.721Z</time></trkpt><trkpt lat="43.2829736" lon="11.5885636"><ele>249.0</ele><time>2026-05-03T06:18:14.826Z</time></trkpt><trkpt lat="43.2830343" lon="11.5884923"><ele>248.33333333333331</ele><time>2026-05-03T06:18:17.668Z</time></trkpt><trkpt lat="43.2830945" lon="11.5883966"><ele>247.66666666666666</ele><time>2026-05-03T06:18:20.767Z</time></trkpt><trkpt lat="43.2831644" lon="11.5883088"><ele>247.0</ele><time>2026-05-03T06:18:23.734Z</time></trkpt><trkpt lat="43.2832406" lon="11.5882351"><ele>246.83333333333331</ele><time>2026-05-03T06:18:26.77Z</time></trkpt><trkpt lat="43.2833005" lon="11.5881887"><ele>246.66666666666666</ele><time>2026-05-03T06:18:28.753Z</time></trkpt><trkpt lat="43.2833874" lon="11.588133"><ele>246.5</ele><time>2026-05-03T06:18:31.77Z</time></trkpt><trkpt lat="43.2834417" lon="11.5880862"><ele>246.33333333333331</ele><time>2026-05-03T06:18:33.766Z</time></trkpt><trkpt lat="43.2835125" lon="11.5880164"><ele>246.16666666666666</ele><time>2026-05-03T06:18:36.816Z</time></trkpt><trkpt lat="43.2835768" lon="11.5879522"><ele>246.0</ele><time>2026-05-03T06:18:39.675Z</time></trkpt><trkpt lat="43.2836393" lon="11.5878752"><ele>245.66666666666666</ele><time>2026-05-03T06:18:42.767Z</time></trkpt><trkpt lat="43.2837115" lon="11.5878077"><ele>245.33333333333331</ele><time>2026-05-03T06:18:45.757Z</time></trkpt><trkpt lat="43.2838032" lon="11.5877487"><ele>245.0</ele><time>2026-05-03T06:18:48.73Z</time></trkpt><trkpt lat="43.2838726" lon="11.5877185"><ele>244.66666666666666</ele><time>2026-05-03T06:18:50.751Z</time></trkpt><trkpt lat="43.2839524" lon="11.5876658"><ele>244.33333333333331</ele><time>2026-05-03T06:18:53.736Z</time></trkpt><trkpt lat="43.2840253" lon="11.5876112"><ele>244.0</ele><time>2026-05-03T06:18:56.836Z</time></trkpt><trkpt lat="43.284107" lon="11.587601"><ele>243.99999999999997</ele><time>2026-05-03T06:18:59.795Z</time></trkpt><trkpt lat="43.2841937" lon="11.5876463"><ele>244.0</ele><time>2026-05-03T06:19:02.76Z</time></trkpt><trkpt lat="43.2842726" lon="11.5876493"><ele>244.0</ele><time>2026-05-03T06:19:05.756Z</time></trkpt><trkpt lat="43.2843476" lon="11.587698"><ele>244.0</ele><time>2026-05-03T06:19:08.758Z</time></trkpt><trkpt lat="43.2844083" lon="11.587776"><ele>243.99999999999997</ele><time>2026-05-03T06:19:11.746Z</time></trkpt><trkpt lat="43.2844496" lon="11.5878434"><ele>244.0</ele><time>2026-05-03T06:19:13.746Z</time></trkpt><trkpt lat="43.2844955" lon="11.5879041"><ele>243.99999999999997</ele><time>2026-05-03T06:19:15.67Z</time></trkpt><trkpt lat="43.2845488" lon="11.5879643"><ele>244.0</ele><time>2026-05-03T06:19:17.809Z</time></trkpt><trkpt lat="43.2846156" lon="11.5880392"><ele>244.0</ele><time>2026-05-03T06:19:20.687Z</time></trkpt><trkpt lat="43.2846961" lon="11.5880557"><ele>244.0</ele><time>2026-05-03T06:19:23.748Z</time></trkpt><trkpt lat="43.2847668" lon="11.5880228"><ele>243.99999999999997</ele><time>2026-05-03T06:19:26.793Z</time></trkpt><trkpt lat="43.2848288" lon="11.587982"><ele>244.0</ele><time>2026-05-03T06:19:29.755Z</time></trkpt><trkpt lat="43.2849037" lon="11.5880078"><ele>244.1428571428571</ele><time>2026-05-03T06:19:33.65Z</time></trkpt><trkpt lat="43.2849666" lon="11.588043"><ele>244.28571428571428</ele><time>2026-05-03T06:19:36.76Z</time></trkpt><trkpt lat="43.2850322" lon="11.5880889"><ele>244.42857142857142</ele><time>2026-05-03T06:19:39.754Z</time></trkpt><trkpt lat="43.2851022" lon="11.5881557"><ele>244.57142857142856</ele><time>2026-05-03T06:19:42.712Z</time></trkpt><trkpt lat="43.2851575" lon="11.5882215"><ele>244.71428571428572</ele><time>2026-05-03T06:19:44.773Z</time></trkpt><trkpt lat="43.2852023" lon="11.5882839"><ele>244.85714285714286</ele><time>2026-05-03T06:19:46.673Z</time></trkpt><trkpt lat="43.2852571" lon="11.5883733"><ele>245.0</ele><time>2026-05-03T06:19:48.754Z</time></trkpt><trkpt lat="43.2853067" lon="11.5884532"><ele>245.00000000000003</ele><time>2026-05-03T06:19:50.759Z</time></trkpt><trkpt lat="43.2853583" lon="11.5885423"><ele>245.0</ele><time>2026-05-03T06:19:52.766Z</time></trkpt><trkpt lat="43.2853924" lon="11.5886265"><ele>245.0</ele><time>2026-05-03T06:19:54.755Z</time></trkpt><trkpt lat="43.2854224" lon="11.5887356"><ele>245.0</ele><time>2026-05-03T06:19:57.762Z</time></trkpt><trkpt lat="43.2854324" lon="11.5888376"><ele>245.00000000000003</ele><time>2026-05-03T06:20:00.754Z</time></trkpt><trkpt lat="43.2854265" lon="11.5889468"><ele>245.0</ele><time>2026-05-03T06:20:03.75Z</time></trkpt><trkpt lat="43.2854233" lon="11.5890704"><ele>244.85714285714286</ele><time>2026-05-03T06:20:06.755Z</time></trkpt><trkpt lat="43.2854479" lon="11.58917"><ele>244.71428571428572</ele><time>2026-05-03T06:20:09.763Z</time></trkpt><trkpt lat="43.2855022" lon="11.5892541"><ele>244.57142857142856</ele><time>2026-05-03T06:20:13.796Z</time></trkpt><trkpt lat="43.2855206" lon="11.5893394"><ele>244.42857142857142</ele><time>2026-05-03T06:20:16.759Z</time></trkpt><trkpt lat="43.2855734" lon="11.5894196"><ele>244.28571428571428</ele><time>2026-05-03T06:20:19.795Z</time></trkpt><trkpt lat="43.2856258" lon="11.5894803"><ele>244.1428571428571</ele><time>2026-05-03T06:20:22.705Z</time></trkpt><trkpt lat="43.2856665" lon="11.5895564"><ele>243.99999999999997</ele><time>2026-05-03T06:20:25.768Z</time></trkpt><trkpt lat="43.2857145" lon="11.5896149"><ele>243.99999999999997</ele><time>2026-05-03T06:20:28.8Z</time></trkpt><trkpt lat="43.2857676" lon="11.5896733"><ele>244.0</ele><time>2026-05-03T06:20:32.755Z</time></trkpt><trkpt lat="43.2858313" lon="11.5897343"><ele>244.0</ele><time>2026-05-03T06:20:36.77Z</time></trkpt><trkpt lat="43.2858976" lon="11.5897913"><ele>244.0</ele><time>2026-05-03T06:20:40.768Z</time></trkpt><trkpt lat="43.2859659" lon="11.5898513"><ele>243.99999999999997</ele><time>2026-05-03T06:20:44.759Z</time></trkpt><trkpt lat="43.2860332" lon="11.5899046"><ele>244.0</ele><time>2026-05-03T06:20:48.815Z</time></trkpt><trkpt lat="43.2860901" lon="11.5899849"><ele>243.99999999999997</ele><time>2026-05-03T06:20:52.772Z</time></trkpt><trkpt lat="43.2861508" lon="11.5900613"><ele>244.0</ele><time>2026-05-03T06:20:56.735Z</time></trkpt><trkpt lat="43.2862036" lon="11.5901515"><ele>244.0</ele><time>2026-05-03T06:21:00.749Z</time></trkpt><trkpt lat="43.2862379" lon="11.5902369"><ele>244.0</ele><time>2026-05-03T06:21:03.775Z</time></trkpt><trkpt lat="43.2862913" lon="11.5903147"><ele>243.99999999999997</ele><time>2026-05-03T06:21:06.768Z</time></trkpt><trkpt lat="43.286346" lon="11.5903874"><ele>244.0</ele><time>2026-05-03T06:21:09.782Z</time></trkpt><trkpt lat="43.286399" lon="11.5904623"><ele>244.85714285714283</ele><time>2026-05-03T06:21:12.773Z</time></trkpt><trkpt lat="43.2864551" lon="11.590531"><ele>245.71428571428572</ele><time>2026-05-03T06:21:15.766Z</time></trkpt><trkpt lat="43.2864999" lon="11.5905953"><ele>246.57142857142856</ele><time>2026-05-03T06:21:18.745Z</time></trkpt><trkpt lat="43.2865538" lon="11.5906803"><ele>247.42857142857142</ele><time>2026-05-03T06:21:22.753Z</time></trkpt><trkpt lat="43.2866085" lon="11.590733"><ele>248.28571428571428</ele><time>2026-05-03T06:21:25.767Z</time></trkpt><trkpt lat="43.2866581" lon="11.5907933"><ele>249.14285714285714</ele><time>2026-05-03T06:21:28.816Z</time></trkpt><trkpt lat="43.2867185" lon="11.5908563"><ele>250.0</ele><time>2026-05-03T06:21:31.79Z</time></trkpt><trkpt lat="43.2867825" lon="11.5909209"><ele>249.99999999999997</ele><time>2026-05-03T06:21:34.759Z</time></trkpt><trkpt lat="43.2868498" lon="11.5909799"><ele>250.0</ele><time>2026-05-03T06:21:37.714Z</time></trkpt><trkpt lat="43.2869176" lon="11.591048"><ele>250.0</ele><time>2026-05-03T06:21:41.789Z</time></trkpt><trkpt lat="43.2869724" lon="11.5910963"><ele>250.0</ele><time>2026-05-03T06:21:45.743Z</time></trkpt><trkpt lat="43.287049" lon="11.5911505"><ele>249.99999999999997</ele><time>2026-05-03T06:21:49.782Z</time></trkpt><trkpt lat="43.2871113" lon="11.5912167"><ele>250.0</ele><time>2026-05-03T06:21:53.733Z</time></trkpt><trkpt lat="43.2871452" lon="11.5913181"><ele>250.42857142857142</ele><time>2026-05-03T06:21:57.781Z</time></trkpt><trkpt lat="43.2871806" lon="11.5913897"><ele>250.8571428571429</ele><time>2026-05-03T06:22:00.736Z</time></trkpt><trkpt lat="43.2872274" lon="11.5914545"><ele>251.2857142857143</ele><time>2026-05-03T06:22:03.695Z</time></trkpt><trkpt lat="43.2872569" lon="11.5915337"><ele>251.71428571428572</ele><time>2026-05-03T06:22:06.749Z</time></trkpt><trkpt lat="43.2872869" lon="11.5916347"><ele>252.14285714285717</ele><time>2026-05-03T06:22:10.698Z</time></trkpt><trkpt lat="43.287314" lon="11.5917189"><ele>252.5714285714286</ele><time>2026-05-03T06:22:13.78Z</time></trkpt><trkpt lat="43.2873409" lon="11.5918308"><ele>253.00000000000003</ele><time>2026-05-03T06:22:17.774Z</time></trkpt><trkpt lat="43.2873667" lon="11.5919311"><ele>256.42857142857144</ele><time>2026-05-03T06:22:21.734Z</time></trkpt><trkpt lat="43.287394" lon="11.5920136"><ele>259.8571428571429</ele><time>2026-05-03T06:22:25.759Z</time></trkpt><trkpt lat="43.2874196" lon="11.5921085"><ele>263.2857142857143</ele><time>2026-05-03T06:22:29.736Z</time></trkpt><trkpt lat="43.2874465" lon="11.5921928"><ele>266.7142857142857</ele><time>2026-05-03T06:22:32.796Z</time></trkpt><trkpt lat="43.2874815" lon="11.592289"><ele>270.1428571428571</ele><time>2026-05-03T06:22:36.686Z</time></trkpt><trkpt lat="43.2875048" lon="11.5923998"><ele>273.57142857142856</ele><time>2026-05-03T06:22:40.739Z</time></trkpt><trkpt lat="43.2875051" lon="11.5924882"><ele>277.0</ele><time>2026-05-03T06:22:43.672Z</time></trkpt><trkpt lat="43.2875058" lon="11.5925924"><ele>277.0</ele><time>2026-05-03T06:22:47.771Z</time></trkpt><trkpt lat="43.2875137" lon="11.5926819"><ele>277.0</ele><time>2026-05-03T06:22:50.761Z</time></trkpt><trkpt lat="43.2875063" lon="11.5927813"><ele>277.0</ele><time>2026-05-03T06:22:53.767Z</time></trkpt><trkpt lat="43.2875043" lon="11.5928742"><ele>277.0</ele><time>2026-05-03T06:22:56.776Z</time></trkpt><trkpt lat="43.287506" lon="11.5929608"><ele>277.0</ele><time>2026-05-03T06:22:59.701Z</time></trkpt><trkpt lat="43.287516" lon="11.5930492"><ele>277.0</ele><time>2026-05-03T06:23:02.769Z</time></trkpt><trkpt lat="43.2875354" lon="11.593146"><ele>277.0</ele><time>2026-05-03T06:23:05.762Z</time></trkpt><trkpt lat="43.2875504" lon="11.5932425"><ele>277.57142857142856</ele><time>2026-05-03T06:23:08.761Z</time></trkpt><trkpt lat="43.287562" lon="11.5933392"><ele>278.1428571428571</ele><time>2026-05-03T06:23:11.688Z</time></trkpt><trkpt lat="43.2875714" lon="11.5934536"><ele>278.7142857142857</ele><time>2026-05-03T06:23:15.776Z</time></trkpt><trkpt lat="43.2875735" lon="11.5935442"><ele>279.2857142857143</ele><time>2026-05-03T06:23:19.777Z</time></trkpt><trkpt lat="43.2876084" lon="11.5936309"><ele>279.8571428571429</ele><time>2026-05-03T06:23:24.768Z</time></trkpt><trkpt lat="43.2876465" lon="11.5937096"><ele>280.42857142857144</ele><time>2026-05-03T06:23:29.769Z</time></trkpt><trkpt lat="43.2876921" lon="11.593792"><ele>281.0</ele><time>2026-05-03T06:23:34.77Z</time></trkpt><trkpt lat="43.2877236" lon="11.5938761"><ele>281.5714285714286</ele><time>2026-05-03T06:23:39.769Z</time></trkpt><trkpt lat="43.287726" lon="11.5939719"><ele>282.14285714285717</ele><time>2026-05-03T06:23:43.709Z</time></trkpt><trkpt lat="43.2877088" lon="11.594071"><ele>282.7142857142857</ele><time>2026-05-03T06:23:46.782Z</time></trkpt><trkpt lat="43.2876809" lon="11.5941698"><ele>283.28571428571433</ele><time>2026-05-03T06:23:49.72Z</time></trkpt><trkpt lat="43.2876564" lon="11.5942708"><ele>283.8571428571429</ele><time>2026-05-03T06:23:52.708Z</time></trkpt><trkpt lat="43.2876491" lon="11.5943728"><ele>284.42857142857144</ele><time>2026-05-03T06:23:55.764Z</time></trkpt><trkpt lat="43.2876667" lon="11.594466"><ele>285.0</ele><time>2026-05-03T06:23:58.741Z</time></trkpt><trkpt lat="43.2876867" lon="11.5945634"><ele>285.6666666666667</ele><time>2026-05-03T06:24:01.736Z</time></trkpt><trkpt lat="43.2877085" lon="11.5946532"><ele>286.3333333333333</ele><time>2026-05-03T06:24:04.794Z</time></trkpt><trkpt lat="43.2877121" lon="11.5947546"><ele>287.0</ele><time>2026-05-03T06:24:07.799Z</time></trkpt><trkpt lat="43.2877236" lon="11.5948492"><ele>287.66666666666663</ele><time>2026-05-03T06:24:10.676Z</time></trkpt><trkpt lat="43.2877455" lon="11.5949642"><ele>288.3333333333333</ele><time>2026-05-03T06:24:13.754Z</time></trkpt><trkpt lat="43.2877786" lon="11.5950693"><ele>289.0</ele><time>2026-05-03T06:24:16.793Z</time></trkpt><trkpt lat="43.2878552" lon="11.5950737"><ele>289.0</ele><time>2026-05-03T06:24:19.765Z</time></trkpt><trkpt lat="43.2879396" lon="11.5950438"><ele>289.0</ele><time>2026-05-03T06:24:22.777Z</time></trkpt><trkpt lat="43.2880223" lon="11.5950426"><ele>289.0</ele><time>2026-05-03T06:24:25.768Z</time></trkpt><trkpt lat="43.2880887" lon="11.5950262"><ele>289.0</ele><time>2026-05-03T06:24:28.73Z</time></trkpt><trkpt lat="43.2881571" lon="11.5949656"><ele>289.0</ele><time>2026-05-03T06:24:32.651Z</time></trkpt><trkpt lat="43.2882264" lon="11.5949071"><ele>289.0</ele><time>2026-05-03T06:24:35.765Z</time></trkpt><trkpt lat="43.288292" lon="11.5948411"><ele>288.8333333333333</ele><time>2026-05-03T06:24:38.786Z</time></trkpt><trkpt lat="43.2883355" lon="11.5947747"><ele>288.66666666666663</ele><time>2026-05-03T06:24:41.693Z</time></trkpt><trkpt lat="43.2883912" lon="11.5946927"><ele>288.5</ele><time>2026-05-03T06:24:44.764Z</time></trkpt><trkpt lat="43.2884621" lon="11.5946156"><ele>288.3333333333333</ele><time>2026-05-03T06:24:47.765Z</time></trkpt><trkpt lat="43.2885334" lon="11.5945435"><ele>288.1666666666667</ele><time>2026-05-03T06:24:50.71Z</time></trkpt><trkpt lat="43.2886075" lon="11.5944632"><ele>288.0</ele><time>2026-05-03T06:24:53.768Z</time></trkpt><trkpt lat="43.2886837" lon="11.5943829"><ele>288.0</ele><time>2026-05-03T06:24:56.768Z</time></trkpt><trkpt lat="43.2887521" lon="11.594302"><ele>288.0</ele><time>2026-05-03T06:24:59.708Z</time></trkpt><trkpt lat="43.2888011" lon="11.5942262"><ele>288.0</ele><time>2026-05-03T06:25:02.758Z</time></trkpt><trkpt lat="43.2888449" lon="11.5941566"><ele>288.0</ele><time>2026-05-03T06:25:05.771Z</time></trkpt><trkpt lat="43.2888969" lon="11.5940698"><ele>288.0</ele><time>2026-05-03T06:25:08.769Z</time></trkpt><trkpt lat="43.2889355" lon="11.5939986"><ele>288.0</ele><time>2026-05-03T06:25:10.75Z</time></trkpt><trkpt lat="43.2889825" lon="11.5938902"><ele>288.0</ele><time>2026-05-03T06:25:13.749Z</time></trkpt><trkpt lat="43.2890235" lon="11.5937821"><ele>288.0</ele><time>2026-05-03T06:25:16.735Z</time></trkpt><trkpt lat="43.2890733" lon="11.5936749"><ele>288.0</ele><time>2026-05-03T06:25:19.775Z</time></trkpt><trkpt lat="43.2891067" lon="11.5935967"><ele>288.0</ele><time>2026-05-03T06:25:21.775Z</time></trkpt><trkpt lat="43.2891412" lon="11.5935232"><ele>288.0</ele><time>2026-05-03T06:25:23.748Z</time></trkpt><trkpt lat="43.2891825" lon="11.5934506"><ele>288.0</ele><time>2026-05-03T06:25:25.767Z</time></trkpt><trkpt lat="43.2892406" lon="11.5933494"><ele>288.0</ele><time>2026-05-03T06:25:28.824Z</time></trkpt><trkpt lat="43.2892968" lon="11.5932558"><ele>288.0</ele><time>2026-05-03T06:25:31.731Z</time></trkpt><trkpt lat="43.2893497" lon="11.5931616"><ele>288.0</ele><time>2026-05-03T06:25:34.747Z</time></trkpt><trkpt lat="43.2893999" lon="11.5930683"><ele>288.0</ele><time>2026-05-03T06:25:37.748Z</time></trkpt><trkpt lat="43.2894427" lon="11.5929729"><ele>288.0</ele><time>2026-05-03T06:25:40.787Z</time></trkpt><trkpt lat="43.2894784" lon="11.5928831"><ele>288.0</ele><time>2026-05-03T06:25:43.736Z</time></trkpt><trkpt lat="43.2895122" lon="11.5927893"><ele>287.8333333333333</ele><time>2026-05-03T06:25:46.759Z</time></trkpt><trkpt lat="43.2895478" lon="11.5926787"><ele>287.6666666666667</ele><time>2026-05-03T06:25:49.803Z</time></trkpt><trkpt lat="43.2895858" lon="11.5925642"><ele>287.5</ele><time>2026-05-03T06:25:52.747Z</time></trkpt><trkpt lat="43.2896286" lon="11.5924581"><ele>287.33333333333337</ele><time>2026-05-03T06:25:55.738Z</time></trkpt><trkpt lat="43.2896684" lon="11.5923605"><ele>287.1666666666667</ele><time>2026-05-03T06:25:58.515Z</time></trkpt><trkpt lat="43.2897003" lon="11.5922786"><ele>287.0</ele><time>2026-05-03T06:26:00.697Z</time></trkpt><trkpt lat="43.2897436" lon="11.5921699"><ele>287.1666666666667</ele><time>2026-05-03T06:26:03.747Z</time></trkpt><trkpt lat="43.2898015" lon="11.5921148"><ele>287.33333333333337</ele><time>2026-05-03T06:26:06.737Z</time></trkpt><trkpt lat="43.28987" lon="11.5921826"><ele>287.5</ele><time>2026-05-03T06:26:09.753Z</time></trkpt><trkpt lat="43.2899452" lon="11.5922453"><ele>287.6666666666667</ele><time>2026-05-03T06:26:12.755Z</time></trkpt><trkpt lat="43.2900011" lon="11.5922876"><ele>287.8333333333333</ele><time>2026-05-03T06:26:14.795Z</time></trkpt><trkpt lat="43.2900692" lon="11.5923598"><ele>288.0</ele><time>2026-05-03T06:26:17.695Z</time></trkpt><trkpt lat="43.2901368" lon="11.5924366"><ele>288.0</ele><time>2026-05-03T06:26:20.751Z</time></trkpt><trkpt lat="43.2902047" lon="11.5925112"><ele>288.0</ele><time>2026-05-03T06:26:23.831Z</time></trkpt><trkpt lat="43.2902731" lon="11.5925805"><ele>288.0</ele><time>2026-05-03T06:26:26.75Z</time></trkpt><trkpt lat="43.2903285" lon="11.592652"><ele>288.0</ele><time>2026-05-03T06:26:29.765Z</time></trkpt><trkpt lat="43.2903884" lon="11.5927215"><ele>288.0</ele><time>2026-05-03T06:26:32.767Z</time></trkpt><trkpt lat="43.2904457" lon="11.5927933"><ele>288.0</ele><time>2026-05-03T06:26:35.755Z</time></trkpt><trkpt lat="43.2905014" lon="11.5928614"><ele>288.0</ele><time>2026-05-03T06:26:38.759Z</time></trkpt><trkpt lat="43.290561" lon="11.5929335"><ele>288.0</ele><time>2026-05-03T06:26:41.723Z</time></trkpt><trkpt lat="43.2906208" lon="11.5930028"><ele>288.0</ele><time>2026-05-03T06:26:44.777Z</time></trkpt><trkpt lat="43.2906753" lon="11.5930714"><ele>288.0</ele><time>2026-05-03T06:26:47.748Z</time></trkpt><trkpt lat="43.2907292" lon="11.5931438"><ele>288.0</ele><time>2026-05-03T06:26:50.686Z</time></trkpt><trkpt lat="43.2907865" lon="11.5932174"><ele>288.0</ele><time>2026-05-03T06:26:53.754Z</time></trkpt><trkpt lat="43.2908439" lon="11.5932831"><ele>288.0</ele><time>2026-05-03T06:26:56.77Z</time></trkpt><trkpt lat="43.2909044" lon="11.5933474"><ele>288.0</ele><time>2026-05-03T06:26:59.774Z</time></trkpt><trkpt lat="43.2909652" lon="11.5934144"><ele>288.0</ele><time>2026-05-03T06:27:02.783Z</time></trkpt><trkpt lat="43.2910253" lon="11.5934818"><ele>288.0</ele><time>2026-05-03T06:27:05.751Z</time></trkpt><trkpt lat="43.2910784" lon="11.5935573"><ele>288.0</ele><time>2026-05-03T06:27:08.672Z</time></trkpt><trkpt lat="43.2911443" lon="11.59364"><ele>288.0</ele><time>2026-05-03T06:27:11.78Z</time></trkpt><trkpt lat="43.2912042" lon="11.5937203"><ele>288.0</ele><time>2026-05-03T06:27:14.785Z</time></trkpt><trkpt lat="43.2912682" lon="11.5937934"><ele>288.0</ele><time>2026-05-03T06:27:17.777Z</time></trkpt><trkpt lat="43.2913257" lon="11.5938591"><ele>288.0</ele><time>2026-05-03T06:27:20.698Z</time></trkpt><trkpt lat="43.291386" lon="11.5939349"><ele>288.0</ele><time>2026-05-03T06:27:23.758Z</time></trkpt><trkpt lat="43.2914416" lon="11.5940009"><ele>288.0</ele><time>2026-05-03T06:27:26.779Z</time></trkpt><trkpt lat="43.291504" lon="11.594067"><ele>288.0</ele><time>2026-05-03T06:27:29.77Z</time></trkpt><trkpt lat="43.2915655" lon="11.5941314"><ele>287.8333333333333</ele><time>2026-05-03T06:27:32.734Z</time></trkpt><trkpt lat="43.2916161" lon="11.5941944"><ele>287.6666666666667</ele><time>2026-05-03T06:27:37.775Z</time></trkpt><trkpt lat="43.2916916" lon="11.5942563"><ele>287.5</ele><time>2026-05-03T06:27:41.828Z</time></trkpt><trkpt lat="43.291759" lon="11.5943216"><ele>287.33333333333337</ele><time>2026-05-03T06:27:44.759Z</time></trkpt><trkpt lat="43.2918252" lon="11.5943683"><ele>287.1666666666667</ele><time>2026-05-03T06:27:50.7Z</time></trkpt><trkpt lat="43.2918905" lon="11.5944302"><ele>287.0</ele><time>2026-05-03T06:27:53.761Z</time></trkpt><trkpt lat="43.2919688" lon="11.5944977"><ele>287.0</ele><time>2026-05-03T06:27:56.743Z</time></trkpt><trkpt lat="43.2920444" lon="11.5945713"><ele>287.0</ele><time>2026-05-03T06:27:59.775Z</time></trkpt><trkpt lat="43.2920931" lon="11.5946309"><ele>287.0</ele><time>2026-05-03T06:28:01.771Z</time></trkpt><trkpt lat="43.2921612" lon="11.5947202"><ele>287.0</ele><time>2026-05-03T06:28:04.761Z</time></trkpt><trkpt lat="43.2922239" lon="11.5948025"><ele>287.0</ele><time>2026-05-03T06:28:07.75Z</time></trkpt><trkpt lat="43.2922817" lon="11.5948874"><ele>287.0</ele><time>2026-05-03T06:28:10.761Z</time></trkpt><trkpt lat="43.2923322" lon="11.5949889"><ele>287.0</ele><time>2026-05-03T06:28:13.751Z</time></trkpt><trkpt lat="43.2923745" lon="11.5950818"><ele>287.0</ele><time>2026-05-03T06:28:16.67Z</time></trkpt><trkpt lat="43.2924151" lon="11.5951709"><ele>287.0</ele><time>2026-05-03T06:28:19.782Z</time></trkpt><trkpt lat="43.2924515" lon="11.5952639"><ele>287.0</ele><time>2026-05-03T06:28:22.774Z</time></trkpt><trkpt lat="43.2924868" lon="11.5953658"><ele>287.0</ele><time>2026-05-03T06:28:25.689Z</time></trkpt><trkpt lat="43.2925194" lon="11.5954811"><ele>287.0</ele><time>2026-05-03T06:28:28.805Z</time></trkpt><trkpt lat="43.2925485" lon="11.5955795"><ele>287.6666666666667</ele><time>2026-05-03T06:28:31.815Z</time></trkpt><trkpt lat="43.2925779" lon="11.5956735"><ele>288.33333333333337</ele><time>2026-05-03T06:28:34.726Z</time></trkpt><trkpt lat="43.2926088" lon="11.5957667"><ele>289.0</ele><time>2026-05-03T06:28:37.772Z</time></trkpt><trkpt lat="43.292652" lon="11.595852"><ele>289.6666666666667</ele><time>2026-05-03T06:28:40.812Z</time></trkpt><trkpt lat="43.2926889" lon="11.5959432"><ele>290.3333333333333</ele><time>2026-05-03T06:28:43.763Z</time></trkpt><trkpt lat="43.2927235" lon="11.5960559"><ele>291.0</ele><time>2026-05-03T06:28:46.762Z</time></trkpt><trkpt lat="43.2927537" lon="11.5961573"><ele>290.8333333333333</ele><time>2026-05-03T06:28:49.762Z</time></trkpt><trkpt lat="43.2927934" lon="11.5962579"><ele>290.6666666666667</ele><time>2026-05-03T06:28:52.792Z</time></trkpt><trkpt lat="43.2928381" lon="11.5963547"><ele>290.5</ele><time>2026-05-03T06:28:55.745Z</time></trkpt><trkpt lat="43.2928757" lon="11.5964447"><ele>290.33333333333337</ele><time>2026-05-03T06:28:58.789Z</time></trkpt><trkpt lat="43.2929059" lon="11.5965323"><ele>290.1666666666667</ele><time>2026-05-03T06:29:01.746Z</time></trkpt><trkpt lat="43.2929384" lon="11.5966243"><ele>290.0</ele><time>2026-05-03T06:29:04.816Z</time></trkpt><trkpt lat="43.2929772" lon="11.596713"><ele>290.0</ele><time>2026-05-03T06:29:07.768Z</time></trkpt><trkpt lat="43.2930192" lon="11.5968075"><ele>290.0</ele><time>2026-05-03T06:29:10.782Z</time></trkpt><trkpt lat="43.2930599" lon="11.5968967"><ele>290.0</ele><time>2026-05-03T06:29:13.787Z</time></trkpt><trkpt lat="43.2931012" lon="11.5969846"><ele>290.0</ele><time>2026-05-03T06:29:16.667Z</time></trkpt><trkpt lat="43.293145" lon="11.5970956"><ele>290.0</ele><time>2026-05-03T06:29:19.773Z</time></trkpt><trkpt lat="43.2931817" lon="11.5971969"><ele>290.0</ele><time>2026-05-03T06:29:22.669Z</time></trkpt><trkpt lat="43.2932232" lon="11.5972935"><ele>289.83333333333337</ele><time>2026-05-03T06:29:25.758Z</time></trkpt><trkpt lat="43.2932678" lon="11.5973923"><ele>289.6666666666667</ele><time>2026-05-03T06:29:28.802Z</time></trkpt><trkpt lat="43.2933074" lon="11.5974965"><ele>289.5</ele><time>2026-05-03T06:29:31.772Z</time></trkpt><trkpt lat="43.2933381" lon="11.5975908"><ele>289.3333333333333</ele><time>2026-05-03T06:29:34.372Z</time></trkpt><trkpt lat="43.2933641" lon="11.5976727"><ele>289.16666666666663</ele><time>2026-05-03T06:29:36.769Z</time></trkpt><trkpt lat="43.293397" lon="11.5977705"><ele>289.0</ele><time>2026-05-03T06:29:39.795Z</time></trkpt><trkpt lat="43.2934269" lon="11.5978625"><ele>289.3333333333333</ele><time>2026-05-03T06:29:42.755Z</time></trkpt><trkpt lat="43.2934511" lon="11.5979528"><ele>289.66666666666663</ele><time>2026-05-03T06:29:45.679Z</time></trkpt><trkpt lat="43.2934774" lon="11.5980572"><ele>290.0</ele><time>2026-05-03T06:29:48.764Z</time></trkpt><trkpt lat="43.2935036" lon="11.5981586"><ele>290.3333333333333</ele><time>2026-05-03T06:29:51.78Z</time></trkpt><trkpt lat="43.2935325" lon="11.5982612"><ele>290.6666666666667</ele><time>2026-05-03T06:29:54.763Z</time></trkpt><trkpt lat="43.2935576" lon="11.5983696"><ele>291.0</ele><time>2026-05-03T06:29:57.778Z</time></trkpt><trkpt lat="43.2935737" lon="11.5984701"><ele>291.0</ele><time>2026-05-03T06:30:00.713Z</time></trkpt><trkpt lat="43.2935904" lon="11.5985719"><ele>291.0</ele><time>2026-05-03T06:30:03.745Z</time></trkpt><trkpt lat="43.2936148" lon="11.5986738"><ele>291.0</ele><time>2026-05-03T06:30:06.763Z</time></trkpt><trkpt lat="43.2936408" lon="11.5987749"><ele>291.0</ele><time>2026-05-03T06:30:09.753Z</time></trkpt><trkpt lat="43.2936651" lon="11.5988766"><ele>291.0</ele><time>2026-05-03T06:30:12.782Z</time></trkpt><trkpt lat="43.2936898" lon="11.598972"><ele>291.0</ele><time>2026-05-03T06:30:15.673Z</time></trkpt><trkpt lat="43.2937201" lon="11.5990787"><ele>291.3333333333333</ele><time>2026-05-03T06:30:18.775Z</time></trkpt><trkpt lat="43.293758" lon="11.5991832"><ele>291.6666666666667</ele><time>2026-05-03T06:30:21.779Z</time></trkpt><trkpt lat="43.2938166" lon="11.5992603"><ele>292.0</ele><time>2026-05-03T06:30:24.771Z</time></trkpt><trkpt lat="43.2939029" lon="11.5992715"><ele>292.33333333333337</ele><time>2026-05-03T06:30:27.671Z</time></trkpt><trkpt lat="43.2939884" lon="11.5992461"><ele>292.6666666666667</ele><time>2026-05-03T06:30:30.763Z</time></trkpt><trkpt lat="43.2940711" lon="11.5992093"><ele>293.0</ele><time>2026-05-03T06:30:33.814Z</time></trkpt><trkpt lat="43.2941547" lon="11.5991674"><ele>293.0</ele><time>2026-05-03T06:30:36.759Z</time></trkpt><trkpt lat="43.2942404" lon="11.5991274"><ele>293.0</ele><time>2026-05-03T06:30:39.729Z</time></trkpt><trkpt lat="43.2943273" lon="11.5990865"><ele>293.0</ele><time>2026-05-03T06:30:42.778Z</time></trkpt><trkpt lat="43.2944083" lon="11.5990495"><ele>293.0</ele><time>2026-05-03T06:30:45.751Z</time></trkpt><trkpt lat="43.2944937" lon="11.5990139"><ele>293.0</ele><time>2026-05-03T06:30:48.776Z</time></trkpt><trkpt lat="43.2945813" lon="11.5989861"><ele>293.0</ele><time>2026-05-03T06:30:51.763Z</time></trkpt><trkpt lat="43.294673" lon="11.5989602"><ele>293.33333333333337</ele><time>2026-05-03T06:30:54.836Z</time></trkpt><trkpt lat="43.2947601" lon="11.5989355"><ele>293.6666666666667</ele><time>2026-05-03T06:30:57.74Z</time></trkpt><trkpt lat="43.2948232" lon="11.5989154"><ele>294.0</ele><time>2026-05-03T06:30:59.803Z</time></trkpt><trkpt lat="43.2949135" lon="11.5988777"><ele>294.3333333333333</ele><time>2026-05-03T06:31:02.763Z</time></trkpt><trkpt lat="43.2950039" lon="11.5988403"><ele>294.66666666666663</ele><time>2026-05-03T06:31:05.774Z</time></trkpt><trkpt lat="43.2950932" lon="11.5988057"><ele>295.0</ele><time>2026-05-03T06:31:08.756Z</time></trkpt><trkpt lat="43.2951835" lon="11.5987766"><ele>295.0</ele><time>2026-05-03T06:31:11.76Z</time></trkpt><trkpt lat="43.2952584" lon="11.5987373"><ele>295.0</ele><time>2026-05-03T06:31:14.686Z</time></trkpt><trkpt lat="43.2952526" lon="11.5986128"><ele>295.0</ele><time>2026-05-03T06:31:17.794Z</time></trkpt><trkpt lat="43.2952233" lon="11.5985022"><ele>295.0</ele><time>2026-05-03T06:31:20.773Z</time></trkpt><trkpt lat="43.2952068" lon="11.5984006"><ele>295.0</ele><time>2026-05-03T06:31:23.758Z</time></trkpt><trkpt lat="43.2951922" lon="11.5983037"><ele>295.0</ele><time>2026-05-03T06:31:26.694Z</time></trkpt><trkpt lat="43.295178" lon="11.5981956"><ele>294.5</ele><time>2026-05-03T06:31:29.747Z</time></trkpt><trkpt lat="43.2951637" lon="11.5980872"><ele>294.0</ele><time>2026-05-03T06:31:32.775Z</time></trkpt><trkpt lat="43.2951463" lon="11.5979791"><ele>293.5</ele><time>2026-05-03T06:31:35.754Z</time></trkpt><trkpt lat="43.2951378" lon="11.597868"><ele>293.0</ele><time>2026-05-03T06:31:38.673Z</time></trkpt><trkpt lat="43.2951265" lon="11.5977514"><ele>292.5</ele><time>2026-05-03T06:31:41.749Z</time></trkpt><trkpt lat="43.295101" lon="11.5976331"><ele>292.0</ele><time>2026-05-03T06:31:44.762Z</time></trkpt><trkpt lat="43.2950782" lon="11.5975159"><ele>291.5</ele><time>2026-05-03T06:31:47.787Z</time></trkpt><trkpt lat="43.2950528" lon="11.5974099"><ele>291.0</ele><time>2026-05-03T06:31:50.712Z</time></trkpt><trkpt lat="43.2950241" lon="11.5972933"><ele>290.5</ele><time>2026-05-03T06:31:53.797Z</time></trkpt><trkpt lat="43.295002" lon="11.5972095"><ele>290.0</ele><time>2026-05-03T06:31:55.767Z</time></trkpt><trkpt lat="43.2949798" lon="11.5971279"><ele>289.5</ele><time>2026-05-03T06:31:57.759Z</time></trkpt><trkpt lat="43.2949465" lon="11.5970062"><ele>289.0</ele><time>2026-05-03T06:32:00.784Z</time></trkpt><trkpt lat="43.2949129" lon="11.5968915"><ele>288.66666666666663</ele><time>2026-05-03T06:32:03.744Z</time></trkpt><trkpt lat="43.294891" lon="11.5968102"><ele>288.3333333333333</ele><time>2026-05-03T06:32:05.78Z</time></trkpt><trkpt lat="43.294864" lon="11.5966905"><ele>288.0</ele><time>2026-05-03T06:32:08.753Z</time></trkpt><trkpt lat="43.2948508" lon="11.5966052"><ele>287.6666666666667</ele><time>2026-05-03T06:32:10.769Z</time></trkpt><trkpt lat="43.29483" lon="11.5964833"><ele>287.33333333333337</ele><time>2026-05-03T06:32:13.811Z</time></trkpt><trkpt lat="43.2948098" lon="11.5963706"><ele>287.0</ele><time>2026-05-03T06:32:16.692Z</time></trkpt><trkpt lat="43.29479" lon="11.5962877"><ele>287.1666666666667</ele><time>2026-05-03T06:32:18.772Z</time></trkpt><trkpt lat="43.2947756" lon="11.5961676"><ele>287.33333333333337</ele><time>2026-05-03T06:32:21.774Z</time></trkpt><trkpt lat="43.29477" lon="11.5960574"><ele>287.5</ele><time>2026-05-03T06:32:24.653Z</time></trkpt><trkpt lat="43.2947841" lon="11.5959336"><ele>287.6666666666667</ele><time>2026-05-03T06:32:27.778Z</time></trkpt><trkpt lat="43.2948202" lon="11.5958201"><ele>287.8333333333333</ele><time>2026-05-03T06:32:30.761Z</time></trkpt><trkpt lat="43.2948569" lon="11.5957149"><ele>288.0</ele><time>2026-05-03T06:32:33.693Z</time></trkpt><trkpt lat="43.294884" lon="11.5956353"><ele>288.0</ele><time>2026-05-03T06:32:35.743Z</time></trkpt><trkpt lat="43.2949267" lon="11.5955431"><ele>288.0</ele><time>2026-05-03T06:32:38.72Z</time></trkpt><trkpt lat="43.2949726" lon="11.5954627"><ele>288.0</ele><time>2026-05-03T06:32:41.674Z</time></trkpt><trkpt lat="43.29501" lon="11.5953744"><ele>288.0</ele><time>2026-05-03T06:32:44.637Z</time></trkpt><trkpt lat="43.2950467" lon="11.5952815"><ele>288.0</ele><time>2026-05-03T06:32:47.747Z</time></trkpt><trkpt lat="43.2950872" lon="11.5951878"><ele>288.0</ele><time>2026-05-03T06:32:50.773Z</time></trkpt><trkpt lat="43.295151" lon="11.5950793"><ele>288.1666666666667</ele><time>2026-05-03T06:32:53.748Z</time></trkpt><trkpt lat="43.2951925" lon="11.5950068"><ele>288.3333333333333</ele><time>2026-05-03T06:32:55.778Z</time></trkpt><trkpt lat="43.2952327" lon="11.5949371"><ele>288.5</ele><time>2026-05-03T06:32:57.752Z</time></trkpt><trkpt lat="43.2952655" lon="11.5948629"><ele>288.66666666666663</ele><time>2026-05-03T06:32:59.777Z</time></trkpt><trkpt lat="43.2953103" lon="11.5947636"><ele>288.8333333333333</ele><time>2026-05-03T06:33:02.735Z</time></trkpt><trkpt lat="43.2953655" lon="11.59467"><ele>289.0</ele><time>2026-05-03T06:33:05.752Z</time></trkpt><trkpt lat="43.2954296" lon="11.5945988"><ele>289.0</ele><time>2026-05-03T06:33:08.742Z</time></trkpt><trkpt lat="43.2955004" lon="11.5945496"><ele>289.0</ele><time>2026-05-03T06:33:11.757Z</time></trkpt><trkpt lat="43.295568" lon="11.5944899"><ele>289.0</ele><time>2026-05-03T06:33:14.735Z</time></trkpt><trkpt lat="43.2956341" lon="11.5944226"><ele>289.0</ele><time>2026-05-03T06:33:17.671Z</time></trkpt><trkpt lat="43.2956817" lon="11.5943397"><ele>289.0</ele><time>2026-05-03T06:33:20.756Z</time></trkpt><trkpt lat="43.2957109" lon="11.5942344"><ele>289.0</ele><time>2026-05-03T06:33:23.752Z</time></trkpt><trkpt lat="43.2957366" lon="11.5941323"><ele>289.14285714285717</ele><time>2026-05-03T06:33:26.763Z</time></trkpt><trkpt lat="43.2957594" lon="11.5940412"><ele>289.2857142857143</ele><time>2026-05-03T06:33:29.704Z</time></trkpt><trkpt lat="43.295781" lon="11.5939568"><ele>289.42857142857144</ele><time>2026-05-03T06:33:32.762Z</time></trkpt><trkpt lat="43.2958115" lon="11.5938727"><ele>289.57142857142856</ele><time>2026-05-03T06:33:35.776Z</time></trkpt><trkpt lat="43.295859" lon="11.5937937"><ele>289.7142857142857</ele><time>2026-05-03T06:33:38.728Z</time></trkpt><trkpt lat="43.29591" lon="11.593705"><ele>289.8571428571429</ele><time>2026-05-03T06:33:41.734Z</time></trkpt><trkpt lat="43.295963" lon="11.5936117"><ele>290.0</ele><time>2026-05-03T06:33:44.773Z</time></trkpt><trkpt lat="43.2960197" lon="11.5935138"><ele>289.6666666666667</ele><time>2026-05-03T06:33:47.756Z</time></trkpt><trkpt lat="43.2960946" lon="11.5934479"><ele>289.33333333333337</ele><time>2026-05-03T06:33:50.721Z</time></trkpt><trkpt lat="43.2961625" lon="11.5934598"><ele>289.0</ele><time>2026-05-03T06:33:53.641Z</time></trkpt><trkpt lat="43.2962266" lon="11.5934842"><ele>288.6666666666667</ele><time>2026-05-03T06:33:56.776Z</time></trkpt><trkpt lat="43.2963056" lon="11.593526"><ele>288.3333333333333</ele><time>2026-05-03T06:34:00.765Z</time></trkpt><trkpt lat="43.2963692" lon="11.593564"><ele>288.0</ele><time>2026-05-03T06:34:03.719Z</time></trkpt><trkpt lat="43.2964357" lon="11.5936156"><ele>288.3333333333333</ele><time>2026-05-03T06:34:06.771Z</time></trkpt><trkpt lat="43.2964871" lon="11.5936734"><ele>288.6666666666667</ele><time>2026-05-03T06:34:09.751Z</time></trkpt><trkpt lat="43.2965442" lon="11.5937628"><ele>289.0</ele><time>2026-05-03T06:34:13.774Z</time></trkpt><trkpt lat="43.2965928" lon="11.593834"><ele>289.33333333333337</ele><time>2026-05-03T06:34:16.697Z</time></trkpt><trkpt lat="43.2966553" lon="11.5938978"><ele>289.6666666666667</ele><time>2026-05-03T06:34:19.747Z</time></trkpt><trkpt lat="43.2967145" lon="11.5939669"><ele>290.0</ele><time>2026-05-03T06:34:22.783Z</time></trkpt><trkpt lat="43.2967641" lon="11.5940487"><ele>290.0</ele><time>2026-05-03T06:34:25.783Z</time></trkpt><trkpt lat="43.2968071" lon="11.594152"><ele>290.0</ele><time>2026-05-03T06:34:28.747Z</time></trkpt><trkpt lat="43.2968532" lon="11.5942425"><ele>290.0</ele><time>2026-05-03T06:34:31.79Z</time></trkpt><trkpt lat="43.2968935" lon="11.5943259"><ele>290.0</ele><time>2026-05-03T06:34:34.747Z</time></trkpt><trkpt lat="43.2969202" lon="11.5944197"><ele>290.0</ele><time>2026-05-03T06:34:37.75Z</time></trkpt><trkpt lat="43.2969285" lon="11.5945167"><ele>290.0</ele><time>2026-05-03T06:34:40.76Z</time></trkpt><trkpt lat="43.2969488" lon="11.5946042"><ele>290.42857142857144</ele><time>2026-05-03T06:34:43.744Z</time></trkpt><trkpt lat="43.2969773" lon="11.5946982"><ele>290.8571428571429</ele><time>2026-05-03T06:34:46.702Z</time></trkpt><trkpt lat="43.2970046" lon="11.5947949"><ele>291.2857142857143</ele><time>2026-05-03T06:34:49.784Z</time></trkpt><trkpt lat="43.2970314" lon="11.5948824"><ele>291.7142857142857</ele><time>2026-05-03T06:34:52.799Z</time></trkpt><trkpt lat="43.2970656" lon="11.5949824"><ele>292.1428571428571</ele><time>2026-05-03T06:34:56.761Z</time></trkpt><trkpt lat="43.2971013" lon="11.5950615"><ele>292.57142857142856</ele><time>2026-05-03T06:34:59.768Z</time></trkpt><trkpt lat="43.2971295" lon="11.5951447"><ele>293.0</ele><time>2026-05-03T06:35:01.747Z</time></trkpt><trkpt lat="43.2971521" lon="11.5952344"><ele>292.85714285714283</ele><time>2026-05-03T06:35:04.707Z</time></trkpt><trkpt lat="43.2971789" lon="11.5953569"><ele>292.7142857142857</ele><time>2026-05-03T06:35:07.786Z</time></trkpt><trkpt lat="43.2971966" lon="11.5954424"><ele>292.57142857142856</ele><time>2026-05-03T06:35:09.696Z</time></trkpt><trkpt lat="43.2972202" lon="11.5955488"><ele>292.42857142857144</ele><time>2026-05-03T06:35:11.752Z</time></trkpt><trkpt lat="43.297243" lon="11.595644"><ele>292.2857142857143</ele><time>2026-05-03T06:35:13.736Z</time></trkpt><trkpt lat="43.2972621" lon="11.5957296"><ele>292.1428571428571</ele><time>2026-05-03T06:35:15.774Z</time></trkpt><trkpt lat="43.2972798" lon="11.5958231"><ele>292.0</ele><time>2026-05-03T06:35:17.754Z</time></trkpt><trkpt lat="43.2973049" lon="11.5959482"><ele>291.8333333333333</ele><time>2026-05-03T06:35:20.8Z</time></trkpt><trkpt lat="43.297325" lon="11.5960698"><ele>291.66666666666663</ele><time>2026-05-03T06:35:23.751Z</time></trkpt><trkpt lat="43.297342" lon="11.5961881"><ele>291.5</ele><time>2026-05-03T06:35:26.755Z</time></trkpt><trkpt lat="43.2973414" lon="11.5962935"><ele>291.3333333333333</ele><time>2026-05-03T06:35:29.696Z</time></trkpt><trkpt lat="43.2973277" lon="11.5964044"><ele>291.1666666666667</ele><time>2026-05-03T06:35:32.776Z</time></trkpt><trkpt lat="43.2973125" lon="11.5965065"><ele>291.0</ele><time>2026-05-03T06:35:35.778Z</time></trkpt><trkpt lat="43.2973123" lon="11.5966035"><ele>291.0</ele><time>2026-05-03T06:35:38.802Z</time></trkpt><trkpt lat="43.2973059" lon="11.5967024"><ele>291.0</ele><time>2026-05-03T06:35:41.733Z</time></trkpt><trkpt lat="43.297284" lon="11.5967921"><ele>291.0</ele><time>2026-05-03T06:35:43.782Z</time></trkpt><trkpt lat="43.2972665" lon="11.5968833"><ele>291.0</ele><time>2026-05-03T06:35:45.772Z</time></trkpt><trkpt lat="43.2972426" lon="11.5969721"><ele>291.0</ele><time>2026-05-03T06:35:47.771Z</time></trkpt><trkpt lat="43.2972064" lon="11.5970826"><ele>291.0</ele><time>2026-05-03T06:35:50.782Z</time></trkpt><trkpt lat="43.2971738" lon="11.5971829"><ele>291.0</ele><time>2026-05-03T06:35:53.77Z</time></trkpt><trkpt lat="43.2971658" lon="11.5972935"><ele>290.7142857142857</ele><time>2026-05-03T06:35:56.72Z</time></trkpt><trkpt lat="43.2972132" lon="11.5973525"><ele>290.4285714285714</ele><time>2026-05-03T06:35:58.779Z</time></trkpt><trkpt lat="43.2972908" lon="11.5973144"><ele>290.1428571428571</ele><time>2026-05-03T06:36:01.783Z</time></trkpt><trkpt lat="43.2973577" lon="11.5973"><ele>289.85714285714283</ele><time>2026-05-03T06:36:04.678Z</time></trkpt><trkpt lat="43.2974271" lon="11.5972685"><ele>289.57142857142856</ele><time>2026-05-03T06:36:07.787Z</time></trkpt><trkpt lat="43.297497" lon="11.5972412"><ele>289.2857142857143</ele><time>2026-05-03T06:36:10.77Z</time></trkpt><trkpt lat="43.2975728" lon="11.5972287"><ele>289.0</ele><time>2026-05-03T06:36:13.723Z</time></trkpt><trkpt lat="43.2976483" lon="11.5972167"><ele>288.5</ele><time>2026-05-03T06:36:16.78Z</time></trkpt><trkpt lat="43.2977209" lon="11.5972194"><ele>288.0</ele><time>2026-05-03T06:36:19.754Z</time></trkpt><trkpt lat="43.2977996" lon="11.5972261"><ele>287.5</ele><time>2026-05-03T06:36:22.785Z</time></trkpt><trkpt lat="43.2978863" lon="11.5972282"><ele>287.0</ele><time>2026-05-03T06:36:25.78Z</time></trkpt><trkpt lat="43.2979715" lon="11.5972395"><ele>286.5</ele><time>2026-05-03T06:36:28.767Z</time></trkpt><trkpt lat="43.2980586" lon="11.5972605"><ele>286.0</ele><time>2026-05-03T06:36:31.713Z</time></trkpt><trkpt lat="43.2981434" lon="11.5972851"><ele>284.8333333333333</ele><time>2026-05-03T06:36:34.769Z</time></trkpt><trkpt lat="43.2982279" lon="11.5973203"><ele>283.66666666666663</ele><time>2026-05-03T06:36:37.742Z</time></trkpt><trkpt lat="43.2982862" lon="11.5973604"><ele>282.5</ele><time>2026-05-03T06:36:39.705Z</time></trkpt><trkpt lat="43.298353" lon="11.5974082"><ele>281.3333333333333</ele><time>2026-05-03T06:36:41.751Z</time></trkpt><trkpt lat="43.2984172" lon="11.5974441"><ele>280.1666666666667</ele><time>2026-05-03T06:36:43.759Z</time></trkpt><trkpt lat="43.2984984" lon="11.5975023"><ele>279.0</ele><time>2026-05-03T06:36:46.806Z</time></trkpt><trkpt lat="43.2985756" lon="11.5975616"><ele>278.99999999999994</ele><time>2026-05-03T06:36:49.682Z</time></trkpt><trkpt lat="43.2986347" lon="11.5976177"><ele>279.0</ele><time>2026-05-03T06:36:51.761Z</time></trkpt><trkpt lat="43.2986851" lon="11.5976839"><ele>279.0</ele><time>2026-05-03T06:36:53.759Z</time></trkpt><trkpt lat="43.29873" lon="11.5977522"><ele>279.0</ele><time>2026-05-03T06:36:55.76Z</time></trkpt><trkpt lat="43.2987759" lon="11.5978196"><ele>279.0</ele><time>2026-05-03T06:36:57.763Z</time></trkpt><trkpt lat="43.2988397" lon="11.5979122"><ele>278.99999999999994</ele><time>2026-05-03T06:37:00.75Z</time></trkpt><trkpt lat="43.2988874" lon="11.5979772"><ele>279.0</ele><time>2026-05-03T06:37:02.747Z</time></trkpt><trkpt lat="43.2989365" lon="11.598038"><ele>278.85714285714283</ele><time>2026-05-03T06:37:04.764Z</time></trkpt><trkpt lat="43.2989901" lon="11.5980868"><ele>278.7142857142857</ele><time>2026-05-03T06:37:06.755Z</time></trkpt><trkpt lat="43.2990568" lon="11.5981298"><ele>278.57142857142856</ele><time>2026-05-03T06:37:08.799Z</time></trkpt><trkpt lat="43.2991471" lon="11.5981745"><ele>278.42857142857144</ele><time>2026-05-03T06:37:11.781Z</time></trkpt><trkpt lat="43.2992148" lon="11.5981895"><ele>278.2857142857143</ele><time>2026-05-03T06:37:13.746Z</time></trkpt><trkpt lat="43.299281" lon="11.5981905"><ele>278.1428571428571</ele><time>2026-05-03T06:37:15.731Z</time></trkpt><trkpt lat="43.2993458" lon="11.5981821"><ele>278.0</ele><time>2026-05-03T06:37:17.781Z</time></trkpt><trkpt lat="43.2994337" lon="11.5981539"><ele>278.0</ele><time>2026-05-03T06:37:20.675Z</time></trkpt><trkpt lat="43.2994905" lon="11.5981122"><ele>278.0</ele><time>2026-05-03T06:37:22.768Z</time></trkpt><trkpt lat="43.2995452" lon="11.5980633"><ele>278.0</ele><time>2026-05-03T06:37:24.766Z</time></trkpt><trkpt lat="43.2996001" lon="11.598016"><ele>278.0</ele><time>2026-05-03T06:37:26.74Z</time></trkpt><trkpt lat="43.29965" lon="11.5979499"><ele>278.0</ele><time>2026-05-03T06:37:28.786Z</time></trkpt><trkpt lat="43.2997088" lon="11.5978493"><ele>278.0</ele><time>2026-05-03T06:37:31.771Z</time></trkpt><trkpt lat="43.2997478" lon="11.5977802"><ele>278.0</ele><time>2026-05-03T06:37:33.764Z</time></trkpt><trkpt lat="43.2997903" lon="11.5977158"><ele>276.85714285714283</ele><time>2026-05-03T06:37:35.764Z</time></trkpt><trkpt lat="43.2998412" lon="11.5976584"><ele>275.7142857142857</ele><time>2026-05-03T06:37:37.785Z</time></trkpt><trkpt lat="43.2998925" lon="11.5976067"><ele>274.57142857142856</ele><time>2026-05-03T06:37:39.798Z</time></trkpt><trkpt lat="43.2999551" lon="11.5975625"><ele>273.42857142857144</ele><time>2026-05-03T06:37:41.781Z</time></trkpt><trkpt lat="43.3000142" lon="11.5975308"><ele>272.2857142857143</ele><time>2026-05-03T06:37:43.683Z</time></trkpt><trkpt lat="43.3000785" lon="11.5975001"><ele>271.1428571428571</ele><time>2026-05-03T06:37:45.807Z</time></trkpt><trkpt lat="43.3001709" lon="11.5974704"><ele>270.0</ele><time>2026-05-03T06:37:48.764Z</time></trkpt><trkpt lat="43.3002337" lon="11.5974619"><ele>270.0</ele><time>2026-05-03T06:37:50.745Z</time></trkpt><trkpt lat="43.3003016" lon="11.5974537"><ele>270.0</ele><time>2026-05-03T06:37:52.762Z</time></trkpt><trkpt lat="43.3003649" lon="11.5974487"><ele>270.0</ele><time>2026-05-03T06:37:54.764Z</time></trkpt><trkpt lat="43.3004287" lon="11.5974468"><ele>270.0</ele><time>2026-05-03T06:37:56.775Z</time></trkpt><trkpt lat="43.3004959" lon="11.5974406"><ele>270.0</ele><time>2026-05-03T06:37:58.77Z</time></trkpt><trkpt lat="43.3005625" lon="11.5974304"><ele>270.0</ele><time>2026-05-03T06:38:00.736Z</time></trkpt><trkpt lat="43.3006561" lon="11.5974152"><ele>270.0</ele><time>2026-05-03T06:38:03.749Z</time></trkpt><trkpt lat="43.3007235" lon="11.5974041"><ele>269.8333333333333</ele><time>2026-05-03T06:38:05.694Z</time></trkpt><trkpt lat="43.3007925" lon="11.5973893"><ele>269.6666666666667</ele><time>2026-05-03T06:38:07.771Z</time></trkpt><trkpt lat="43.300881" lon="11.5973677"><ele>269.5</ele><time>2026-05-03T06:38:10.785Z</time></trkpt><trkpt lat="43.3009546" lon="11.5973547"><ele>269.33333333333337</ele><time>2026-05-03T06:38:13.738Z</time></trkpt><trkpt lat="43.3010411" lon="11.5973476"><ele>269.1666666666667</ele><time>2026-05-03T06:38:16.766Z</time></trkpt><trkpt lat="43.3011275" lon="11.5973353"><ele>269.0</ele><time>2026-05-03T06:38:19.768Z</time></trkpt><trkpt lat="43.3012054" lon="11.5973214"><ele>269.0</ele><time>2026-05-03T06:38:22.736Z</time></trkpt><trkpt lat="43.3012856" lon="11.5973033"><ele>269.0</ele><time>2026-05-03T06:38:25.791Z</time></trkpt><trkpt lat="43.3013662" lon="11.5972889"><ele>269.0</ele><time>2026-05-03T06:38:28.782Z</time></trkpt><trkpt lat="43.3014472" lon="11.5972759"><ele>269.0</ele><time>2026-05-03T06:38:31.777Z</time></trkpt><trkpt lat="43.3015258" lon="11.5972519"><ele>269.0</ele><time>2026-05-03T06:38:34.678Z</time></trkpt><trkpt lat="43.3016168" lon="11.5972284"><ele>269.0</ele><time>2026-05-03T06:38:37.766Z</time></trkpt><trkpt lat="43.3016814" lon="11.5972125"><ele>268.0</ele><time>2026-05-03T06:38:39.755Z</time></trkpt><trkpt lat="43.3017474" lon="11.5972018"><ele>267.0</ele><time>2026-05-03T06:38:41.756Z</time></trkpt><trkpt lat="43.3018162" lon="11.5971892"><ele>266.0</ele><time>2026-05-03T06:38:43.814Z</time></trkpt><trkpt lat="43.3018851" lon="11.5971701"><ele>265.0</ele><time>2026-05-03T06:38:45.813Z</time></trkpt><trkpt lat="43.3019569" lon="11.5971464"><ele>264.0</ele><time>2026-05-03T06:38:47.787Z</time></trkpt><trkpt lat="43.3020234" lon="11.5971134"><ele>263.0</ele><time>2026-05-03T06:38:49.795Z</time></trkpt><trkpt lat="43.3020931" lon="11.5970847"><ele>262.0</ele><time>2026-05-03T06:38:51.774Z</time></trkpt><trkpt lat="43.3021648" lon="11.5970422"><ele>261.42857142857144</ele><time>2026-05-03T06:38:53.776Z</time></trkpt><trkpt lat="43.3022239" lon="11.5969919"><ele>260.8571428571429</ele><time>2026-05-03T06:38:55.731Z</time></trkpt><trkpt lat="43.3022813" lon="11.5969377"><ele>260.2857142857143</ele><time>2026-05-03T06:38:57.746Z</time></trkpt><trkpt lat="43.3023353" lon="11.5968895"><ele>259.7142857142857</ele><time>2026-05-03T06:38:59.735Z</time></trkpt><trkpt lat="43.3023905" lon="11.5968418"><ele>259.1428571428571</ele><time>2026-05-03T06:39:01.817Z</time></trkpt><trkpt lat="43.3024651" lon="11.5968682"><ele>258.57142857142856</ele><time>2026-05-03T06:39:04.746Z</time></trkpt><trkpt lat="43.3025133" lon="11.5969299"><ele>258.0</ele><time>2026-05-03T06:39:06.739Z</time></trkpt><trkpt lat="43.302581" lon="11.5970079"><ele>257.99999999999994</ele><time>2026-05-03T06:39:09.744Z</time></trkpt><trkpt lat="43.302641" lon="11.597083"><ele>258.0</ele><time>2026-05-03T06:39:12.781Z</time></trkpt><trkpt lat="43.302718" lon="11.5971509"><ele>258.0</ele><time>2026-05-03T06:39:15.758Z</time></trkpt><trkpt lat="43.3027818" lon="11.597168"><ele>258.0</ele><time>2026-05-03T06:39:17.755Z</time></trkpt><trkpt lat="43.3028462" lon="11.5971497"><ele>258.0</ele><time>2026-05-03T06:39:19.792Z</time></trkpt><trkpt lat="43.3029069" lon="11.5971116"><ele>257.99999999999994</ele><time>2026-05-03T06:39:21.746Z</time></trkpt><trkpt lat="43.3029593" lon="11.5970581"><ele>258.0</ele><time>2026-05-03T06:39:23.76Z</time></trkpt><trkpt lat="43.3030195" lon="11.5969769"><ele>257.5</ele><time>2026-05-03T06:39:26.68Z</time></trkpt><trkpt lat="43.3030748" lon="11.5968849"><ele>257.0</ele><time>2026-05-03T06:39:29.799Z</time></trkpt><trkpt lat="43.3031305" lon="11.5968027"><ele>256.5</ele><time>2026-05-03T06:39:32.672Z</time></trkpt><trkpt lat="43.3031833" lon="11.5967083"><ele>256.0</ele><time>2026-05-03T06:39:35.793Z</time></trkpt><trkpt lat="43.3032436" lon="11.5966315"><ele>255.5</ele><time>2026-05-03T06:39:38.643Z</time></trkpt><trkpt lat="43.3033095" lon="11.5965532"><ele>255.0</ele><time>2026-05-03T06:39:41.777Z</time></trkpt><trkpt lat="43.3033694" lon="11.5964895"><ele>255.0</ele><time>2026-05-03T06:39:44.784Z</time></trkpt><trkpt lat="43.3034228" lon="11.59643"><ele>255.0</ele><time>2026-05-03T06:39:47.678Z</time></trkpt><trkpt lat="43.3034815" lon="11.5963606"><ele>255.0</ele><time>2026-05-03T06:39:50.781Z</time></trkpt><trkpt lat="43.3035472" lon="11.5963037"><ele>255.0</ele><time>2026-05-03T06:39:53.77Z</time></trkpt><trkpt lat="43.3036228" lon="11.5962803"><ele>255.0</ele><time>2026-05-03T06:39:56.727Z</time></trkpt><trkpt lat="43.3036998" lon="11.5962867"><ele>255.0</ele><time>2026-05-03T06:39:59.758Z</time></trkpt><trkpt lat="43.3037818" lon="11.5962975"><ele>255.0</ele><time>2026-05-03T06:40:03.78Z</time></trkpt><trkpt lat="43.3038581" lon="11.5962955"><ele>255.00000000000003</ele><time>2026-05-03T06:40:07.782Z</time></trkpt><trkpt lat="43.3039316" lon="11.5963064"><ele>255.0</ele><time>2026-05-03T06:40:11.776Z</time></trkpt><trkpt lat="43.3039817" lon="11.5963868"><ele>255.0</ele><time>2026-05-03T06:40:15.742Z</time></trkpt><trkpt lat="43.3040296" lon="11.5964633"><ele>255.00000000000003</ele><time>2026-05-03T06:40:19.779Z</time></trkpt><trkpt lat="43.3040735" lon="11.5965292"><ele>255.0</ele><time>2026-05-03T06:40:22.782Z</time></trkpt><trkpt lat="43.3041207" lon="11.596594"><ele>255.0</ele><time>2026-05-03T06:40:25.763Z</time></trkpt><trkpt lat="43.304157" lon="11.596671"><ele>257.2857142857143</ele><time>2026-05-03T06:40:28.734Z</time></trkpt><trkpt lat="43.3041845" lon="11.5967587"><ele>259.5714285714286</ele><time>2026-05-03T06:40:32.776Z</time></trkpt><trkpt lat="43.3041884" lon="11.596859"><ele>261.8571428571429</ele><time>2026-05-03T06:40:36.798Z</time></trkpt><trkpt lat="43.3041757" lon="11.5969616"><ele>264.14285714285717</ele><time>2026-05-03T06:40:40.736Z</time></trkpt><trkpt lat="43.3041665" lon="11.5970476"><ele>266.42857142857144</ele><time>2026-05-03T06:40:43.657Z</time></trkpt><trkpt lat="43.3041753" lon="11.5971486"><ele>268.7142857142857</ele><time>2026-05-03T06:40:46.749Z</time></trkpt><trkpt lat="43.3041809" lon="11.5972416"><ele>271.0</ele><time>2026-05-03T06:40:49.775Z</time></trkpt><trkpt lat="43.3041877" lon="11.5973283"><ele>271.5</ele><time>2026-05-03T06:40:52.818Z</time></trkpt><trkpt lat="43.3041987" lon="11.5974266"><ele>272.0</ele><time>2026-05-03T06:40:56.749Z</time></trkpt><trkpt lat="43.304212" lon="11.5975278"><ele>272.5</ele><time>2026-05-03T06:41:00.751Z</time></trkpt><trkpt lat="43.3042304" lon="11.5976314"><ele>273.0</ele><time>2026-05-03T06:41:04.749Z</time></trkpt><trkpt lat="43.3042611" lon="11.5977307"><ele>273.5</ele><time>2026-05-03T06:41:08.698Z</time></trkpt><trkpt lat="43.3042944" lon="11.5978218"><ele>274.0</ele><time>2026-05-03T06:41:12.801Z</time></trkpt><trkpt lat="43.3043224" lon="11.5979201"><ele>275.5</ele><time>2026-05-03T06:41:16.79Z</time></trkpt><trkpt lat="43.3043426" lon="11.5980179"><ele>277.0</ele><time>2026-05-03T06:41:20.776Z</time></trkpt><trkpt lat="43.3043624" lon="11.5981112"><ele>278.5</ele><time>2026-05-03T06:41:24.758Z</time></trkpt><trkpt lat="43.304385" lon="11.5982201"><ele>280.0</ele><time>2026-05-03T06:41:28.784Z</time></trkpt><trkpt lat="43.3043993" lon="11.5983253"><ele>281.5</ele><time>2026-05-03T06:41:32.676Z</time></trkpt><trkpt lat="43.3044134" lon="11.5984279"><ele>283.0</ele><time>2026-05-03T06:41:36.693Z</time></trkpt><trkpt lat="43.304422" lon="11.5985282"><ele>283.0</ele><time>2026-05-03T06:41:40.739Z</time></trkpt><trkpt lat="43.3044162" lon="11.5986328"><ele>283.0</ele><time>2026-05-03T06:41:44.732Z</time></trkpt><trkpt lat="43.3044243" lon="11.5987266"><ele>283.0</ele><time>2026-05-03T06:41:48.744Z</time></trkpt><trkpt lat="43.3044308" lon="11.598832"><ele>283.0</ele><time>2026-05-03T06:41:52.724Z</time></trkpt><trkpt lat="43.3044471" lon="11.598938"><ele>283.0</ele><time>2026-05-03T06:41:56.725Z</time></trkpt><trkpt lat="43.3044601" lon="11.5990514"><ele>283.0</ele><time>2026-05-03T06:42:00.75Z</time></trkpt><trkpt lat="43.3044698" lon="11.5991433"><ele>283.8333333333333</ele><time>2026-05-03T06:42:03.768Z</time></trkpt><trkpt lat="43.3044694" lon="11.5992487"><ele>284.66666666666663</ele><time>2026-05-03T06:42:06.742Z</time></trkpt><trkpt lat="43.3044669" lon="11.5993638"><ele>285.5</ele><time>2026-05-03T06:42:09.74Z</time></trkpt><trkpt lat="43.3045115" lon="11.5994643"><ele>286.3333333333333</ele><time>2026-05-03T06:42:12.75Z</time></trkpt><trkpt lat="43.3045979" lon="11.5994864"><ele>287.1666666666667</ele><time>2026-05-03T06:42:15.777Z</time></trkpt><trkpt lat="43.3046764" lon="11.5995296"><ele>288.0</ele><time>2026-05-03T06:42:18.797Z</time></trkpt><trkpt lat="43.3047399" lon="11.5995662"><ele>288.0</ele><time>2026-05-03T06:42:21.8Z</time></trkpt><trkpt lat="43.3048096" lon="11.59961"><ele>288.0</ele><time>2026-05-03T06:42:24.719Z</time></trkpt><trkpt lat="43.3048744" lon="11.5996467"><ele>288.0</ele><time>2026-05-03T06:42:26.804Z</time></trkpt><trkpt lat="43.3049603" lon="11.5996911"><ele>288.0</ele><time>2026-05-03T06:42:29.775Z</time></trkpt><trkpt lat="43.3050417" lon="11.59973"><ele>288.0</ele><time>2026-05-03T06:42:32.655Z</time></trkpt><trkpt lat="43.3051244" lon="11.5997609"><ele>288.0</ele><time>2026-05-03T06:42:35.767Z</time></trkpt><trkpt lat="43.3052027" lon="11.5997993"><ele>288.0</ele><time>2026-05-03T06:42:38.768Z</time></trkpt><trkpt lat="43.3052841" lon="11.5998477"><ele>288.0</ele><time>2026-05-03T06:42:41.723Z</time></trkpt><trkpt lat="43.3053605" lon="11.5998797"><ele>288.0</ele><time>2026-05-03T06:42:44.77Z</time></trkpt><trkpt lat="43.3054405" lon="11.5999057"><ele>288.0</ele><time>2026-05-03T06:42:47.782Z</time></trkpt><trkpt lat="43.3055207" lon="11.5999342"><ele>288.0</ele><time>2026-05-03T06:42:50.756Z</time></trkpt><trkpt lat="43.3055932" lon="11.5999709"><ele>288.0</ele><time>2026-05-03T06:42:53.741Z</time></trkpt><trkpt lat="43.3056649" lon="11.6000062"><ele>287.8333333333333</ele><time>2026-05-03T06:42:56.77Z</time></trkpt><trkpt lat="43.3057353" lon="11.6000359"><ele>287.6666666666667</ele><time>2026-05-03T06:42:59.79Z</time></trkpt><trkpt lat="43.3057993" lon="11.6000737"><ele>287.5</ele><time>2026-05-03T06:43:02.697Z</time></trkpt><trkpt lat="43.3058655" lon="11.6001284"><ele>287.33333333333337</ele><time>2026-05-03T06:43:05.772Z</time></trkpt><trkpt lat="43.3059356" lon="11.6001724"><ele>287.1666666666667</ele><time>2026-05-03T06:43:08.81Z</time></trkpt><trkpt lat="43.3060006" lon="11.600212"><ele>287.0</ele><time>2026-05-03T06:43:11.677Z</time></trkpt><trkpt lat="43.3060756" lon="11.6002559"><ele>287.0</ele><time>2026-05-03T06:43:14.781Z</time></trkpt><trkpt lat="43.306147" lon="11.600304"><ele>287.0</ele><time>2026-05-03T06:43:17.798Z</time></trkpt><trkpt lat="43.3062217" lon="11.6003609"><ele>287.0</ele><time>2026-05-03T06:43:20.7Z</time></trkpt><trkpt lat="43.3062735" lon="11.6004188"><ele>287.0</ele><time>2026-05-03T06:43:22.766Z</time></trkpt><trkpt lat="43.3063456" lon="11.6005077"><ele>287.0</ele><time>2026-05-03T06:43:25.762Z</time></trkpt><trkpt lat="43.3063917" lon="11.6005681"><ele>287.0</ele><time>2026-05-03T06:43:27.766Z</time></trkpt><trkpt lat="43.3064536" lon="11.6006565"><ele>286.7142857142857</ele><time>2026-05-03T06:43:30.811Z</time></trkpt><trkpt lat="43.3065091" lon="11.600721"><ele>286.42857142857144</ele><time>2026-05-03T06:43:32.753Z</time></trkpt><trkpt lat="43.3065642" lon="11.6007834"><ele>286.1428571428571</ele><time>2026-05-03T06:43:34.78Z</time></trkpt><trkpt lat="43.3066193" lon="11.6008423"><ele>285.8571428571429</ele><time>2026-05-03T06:43:36.756Z</time></trkpt><trkpt lat="43.306669" lon="11.6009026"><ele>285.57142857142856</ele><time>2026-05-03T06:43:38.767Z</time></trkpt><trkpt lat="43.3067161" lon="11.6009605"><ele>285.2857142857143</ele><time>2026-05-03T06:43:40.771Z</time></trkpt><trkpt lat="43.30678" lon="11.6010551"><ele>285.0</ele><time>2026-05-03T06:43:43.785Z</time></trkpt><trkpt lat="43.3068421" lon="11.6011426"><ele>286.0</ele><time>2026-05-03T06:43:46.74Z</time></trkpt><trkpt lat="43.3069141" lon="11.6012249"><ele>287.0</ele><time>2026-05-03T06:43:49.772Z</time></trkpt><trkpt lat="43.3069886" lon="11.6012948"><ele>288.0</ele><time>2026-05-03T06:43:52.773Z</time></trkpt><trkpt lat="43.3070702" lon="11.6013529"><ele>289.0</ele><time>2026-05-03T06:43:55.758Z</time></trkpt><trkpt lat="43.3071405" lon="11.6013909"><ele>290.0</ele><time>2026-05-03T06:43:57.764Z</time></trkpt><trkpt lat="43.3072036" lon="11.6014155"><ele>291.0</ele><time>2026-05-03T06:43:59.676Z</time></trkpt><trkpt lat="43.3072744" lon="11.6014344"><ele>289.1428571428571</ele><time>2026-05-03T06:44:01.773Z</time></trkpt><trkpt lat="43.3073408" lon="11.6014532"><ele>287.2857142857143</ele><time>2026-05-03T06:44:03.7Z</time></trkpt><trkpt lat="43.3074094" lon="11.6014853"><ele>285.42857142857144</ele><time>2026-05-03T06:44:05.778Z</time></trkpt><trkpt lat="43.3074699" lon="11.60152"><ele>283.57142857142856</ele><time>2026-05-03T06:44:07.696Z</time></trkpt><trkpt lat="43.3075402" lon="11.6015642"><ele>281.7142857142857</ele><time>2026-05-03T06:44:09.768Z</time></trkpt><trkpt lat="43.3075981" lon="11.6015982"><ele>279.85714285714283</ele><time>2026-05-03T06:44:11.723Z</time></trkpt><trkpt lat="43.3076614" lon="11.601632"><ele>278.0</ele><time>2026-05-03T06:44:13.784Z</time></trkpt><trkpt lat="43.3077187" lon="11.6016688"><ele>278.0</ele><time>2026-05-03T06:44:15.76Z</time></trkpt><trkpt lat="43.3077913" lon="11.6017061"><ele>278.0</ele><time>2026-05-03T06:44:17.764Z</time></trkpt><trkpt lat="43.3078588" lon="11.6017258"><ele>278.0</ele><time>2026-05-03T06:44:19.792Z</time></trkpt><trkpt lat="43.3079254" lon="11.6017381"><ele>278.0</ele><time>2026-05-03T06:44:21.808Z</time></trkpt><trkpt lat="43.3080158" lon="11.6017163"><ele>278.0</ele><time>2026-05-03T06:44:24.798Z</time></trkpt><trkpt lat="43.3080758" lon="11.6016854"><ele>278.0</ele><time>2026-05-03T06:44:26.787Z</time></trkpt><trkpt lat="43.3081565" lon="11.6016522"><ele>277.1428571428571</ele><time>2026-05-03T06:44:29.781Z</time></trkpt><trkpt lat="43.3082301" lon="11.6016171"><ele>276.2857142857143</ele><time>2026-05-03T06:44:32.79Z</time></trkpt><trkpt lat="43.3083145" lon="11.601575"><ele>275.42857142857144</ele><time>2026-05-03T06:44:35.721Z</time></trkpt><trkpt lat="43.3083863" lon="11.6015411"><ele>274.57142857142856</ele><time>2026-05-03T06:44:37.782Z</time></trkpt><trkpt lat="43.3084451" lon="11.6015007"><ele>273.7142857142857</ele><time>2026-05-03T06:44:39.68Z</time></trkpt><trkpt lat="43.3085012" lon="11.6014354"><ele>272.85714285714283</ele><time>2026-05-03T06:44:41.77Z</time></trkpt><trkpt lat="43.3085458" lon="11.6013725"><ele>272.0</ele><time>2026-05-03T06:44:43.677Z</time></trkpt><trkpt lat="43.3085887" lon="11.601294"><ele>272.0</ele><time>2026-05-03T06:44:45.755Z</time></trkpt><trkpt lat="43.3086355" lon="11.601188"><ele>272.0</ele><time>2026-05-03T06:44:48.729Z</time></trkpt><trkpt lat="43.3086637" lon="11.6010706"><ele>272.0</ele><time>2026-05-03T06:44:51.775Z</time></trkpt><trkpt lat="43.3086918" lon="11.600963"><ele>272.0</ele><time>2026-05-03T06:44:54.773Z</time></trkpt><trkpt lat="43.3087185" lon="11.6008555"><ele>272.0</ele><time>2026-05-03T06:44:57.756Z</time></trkpt><trkpt lat="43.3087394" lon="11.6007444"><ele>272.0</ele><time>2026-05-03T06:45:00.758Z</time></trkpt><trkpt lat="43.3087657" lon="11.6006304"><ele>272.0</ele><time>2026-05-03T06:45:03.683Z</time></trkpt><trkpt lat="43.3087952" lon="11.6005519"><ele>272.0</ele><time>2026-05-03T06:45:05.763Z</time></trkpt><trkpt lat="43.3088321" lon="11.600443"><ele>272.0</ele><time>2026-05-03T06:45:08.762Z</time></trkpt><trkpt lat="43.3088589" lon="11.6003456"><ele>272.0</ele><time>2026-05-03T06:45:11.703Z</time></trkpt><trkpt lat="43.3088793" lon="11.6002477"><ele>272.0</ele><time>2026-05-03T06:45:14.755Z</time></trkpt><trkpt lat="43.3089073" lon="11.6001525"><ele>272.0</ele><time>2026-05-03T06:45:17.779Z</time></trkpt><trkpt lat="43.3089387" lon="11.6000577"><ele>272.2857142857143</ele><time>2026-05-03T06:45:20.787Z</time></trkpt><trkpt lat="43.3089796" lon="11.5999752"><ele>272.57142857142856</ele><time>2026-05-03T06:45:23.681Z</time></trkpt><trkpt lat="43.3090342" lon="11.5999217"><ele>272.8571428571429</ele><time>2026-05-03T06:45:26.783Z</time></trkpt><trkpt lat="43.3091008" lon="11.59991"><ele>273.1428571428571</ele><time>2026-05-03T06:45:29.75Z</time></trkpt><trkpt lat="43.3091766" lon="11.5999023"><ele>273.42857142857144</ele><time>2026-05-03T06:45:32.794Z</time></trkpt><trkpt lat="43.30925" lon="11.5998843"><ele>273.7142857142857</ele><time>2026-05-03T06:45:35.709Z</time></trkpt><trkpt lat="43.3093204" lon="11.5998325"><ele>274.0</ele><time>2026-05-03T06:45:38.795Z</time></trkpt><trkpt lat="43.3093713" lon="11.5997603"><ele>274.00000000000006</ele><time>2026-05-03T06:45:41.774Z</time></trkpt><trkpt lat="43.3094158" lon="11.5996808"><ele>274.0</ele><time>2026-05-03T06:45:44.815Z</time></trkpt><trkpt lat="43.3094593" lon="11.5996092"><ele>274.0</ele><time>2026-05-03T06:45:47.751Z</time></trkpt><trkpt lat="43.3095193" lon="11.5995659"><ele>274.0</ele><time>2026-05-03T06:45:50.694Z</time></trkpt><trkpt lat="43.309583" lon="11.5995555"><ele>274.0</ele><time>2026-05-03T06:45:53.757Z</time></trkpt><trkpt lat="43.3096591" lon="11.5995387"><ele>274.00000000000006</ele><time>2026-05-03T06:45:57.79Z</time></trkpt><trkpt lat="43.3097335" lon="11.5994831"><ele>274.0</ele><time>2026-05-03T06:46:01.763Z</time></trkpt><trkpt lat="43.3097843" lon="11.5994166"><ele>275.00000000000006</ele><time>2026-05-03T06:46:04.799Z</time></trkpt><trkpt lat="43.3098285" lon="11.5993534"><ele>276.0</ele><time>2026-05-03T06:46:07.774Z</time></trkpt><trkpt lat="43.3098789" lon="11.5992873"><ele>277.0</ele><time>2026-05-03T06:46:10.735Z</time></trkpt><trkpt lat="43.3099166" lon="11.5992087"><ele>278.0</ele><time>2026-05-03T06:46:13.748Z</time></trkpt><trkpt lat="43.3099537" lon="11.5991335"><ele>279.0</ele><time>2026-05-03T06:46:16.768Z</time></trkpt><trkpt lat="43.3100101" lon="11.5990806"><ele>280.00000000000006</ele><time>2026-05-03T06:46:19.791Z</time></trkpt><trkpt lat="43.3100721" lon="11.5990327"><ele>281.0</ele><time>2026-05-03T06:46:22.679Z</time></trkpt><trkpt lat="43.3101246" lon="11.5989703"><ele>281.00000000000006</ele><time>2026-05-03T06:46:25.806Z</time></trkpt><trkpt lat="43.3101659" lon="11.598904"><ele>281.0</ele><time>2026-05-03T06:46:28.763Z</time></trkpt><trkpt lat="43.3102395" lon="11.5989"><ele>281.0</ele><time>2026-05-03T06:46:32.783Z</time></trkpt><trkpt lat="43.3102746" lon="11.5988185"><ele>281.0</ele><time>2026-05-03T06:46:53.783Z</time></trkpt><trkpt lat="43.3102902" lon="11.5987231"><ele>281.0</ele><time>2026-05-03T06:47:00.734Z</time></trkpt><trkpt lat="43.3103221" lon="11.5986227"><ele>281.00000000000006</ele><time>2026-05-03T06:47:04.719Z</time></trkpt><trkpt lat="43.3103466" lon="11.5985176"><ele>281.0</ele><time>2026-05-03T06:47:07.802Z</time></trkpt><trkpt lat="43.3103722" lon="11.5984116"><ele>281.00000000000006</ele><time>2026-05-03T06:47:10.761Z</time></trkpt><trkpt lat="43.3103845" lon="11.5983114"><ele>281.0</ele><time>2026-05-03T06:47:13.725Z</time></trkpt><trkpt lat="43.3103976" lon="11.5982198"><ele>281.0</ele><time>2026-05-03T06:47:16.772Z</time></trkpt><trkpt lat="43.310393" lon="11.598132"><ele>281.0</ele><time>2026-05-03T06:47:19.755Z</time></trkpt><trkpt lat="43.3103786" lon="11.5980293"><ele>281.0</ele><time>2026-05-03T06:47:22.757Z</time></trkpt><trkpt lat="43.3103468" lon="11.5979295"><ele>281.00000000000006</ele><time>2026-05-03T06:47:25.789Z</time></trkpt><trkpt lat="43.310304" lon="11.5978282"><ele>281.0</ele><time>2026-05-03T06:47:28.782Z</time></trkpt><trkpt lat="43.3102605" lon="11.5977331"><ele>281.0</ele><time>2026-05-03T06:47:31.775Z</time></trkpt><trkpt lat="43.3102013" lon="11.5976419"><ele>281.0</ele><time>2026-05-03T06:47:34.76Z</time></trkpt><trkpt lat="43.3101815" lon="11.5975275"><ele>281.0</ele><time>2026-05-03T06:47:37.799Z</time></trkpt><trkpt lat="43.3102052" lon="11.5974149"><ele>281.0</ele><time>2026-05-03T06:47:40.735Z</time></trkpt><trkpt lat="43.3102551" lon="11.5973068"><ele>281.0</ele><time>2026-05-03T06:47:43.76Z</time></trkpt><trkpt lat="43.3102779" lon="11.597215"><ele>281.0</ele><time>2026-05-03T06:47:45.725Z</time></trkpt><trkpt lat="43.3103069" lon="11.5970966"><ele>280.1666666666667</ele><time>2026-05-03T06:47:48.763Z</time></trkpt><trkpt lat="43.3103264" lon="11.5969801"><ele>279.33333333333337</ele><time>2026-05-03T06:47:51.763Z</time></trkpt><trkpt lat="43.3103309" lon="11.5968441"><ele>278.5</ele><time>2026-05-03T06:47:54.788Z</time></trkpt><trkpt lat="43.3103253" lon="11.5967172"><ele>277.6666666666667</ele><time>2026-05-03T06:47:57.765Z</time></trkpt><trkpt lat="43.3103307" lon="11.5966109"><ele>276.8333333333333</ele><time>2026-05-03T06:47:59.769Z</time></trkpt><trkpt lat="43.3103264" lon="11.596524"><ele>276.0</ele><time>2026-05-03T06:48:01.715Z</time></trkpt><trkpt lat="43.3103193" lon="11.5964217"><ele>276.0</ele><time>2026-05-03T06:48:03.759Z</time></trkpt><trkpt lat="43.3103068" lon="11.5963272"><ele>276.0</ele><time>2026-05-03T06:48:05.779Z</time></trkpt><trkpt lat="43.3102922" lon="11.5962391"><ele>276.0</ele><time>2026-05-03T06:48:07.779Z</time></trkpt><trkpt lat="43.310277" lon="11.5961499"><ele>276.0</ele><time>2026-05-03T06:48:09.719Z</time></trkpt><trkpt lat="43.310261" lon="11.5960229"><ele>276.0</ele><time>2026-05-03T06:48:12.771Z</time></trkpt><trkpt lat="43.3102457" lon="11.5959328"><ele>276.0</ele><time>2026-05-03T06:48:14.76Z</time></trkpt><trkpt lat="43.3102317" lon="11.5958411"><ele>276.0</ele><time>2026-05-03T06:48:16.68Z</time></trkpt><trkpt lat="43.310208" lon="11.5957225"><ele>275.42857142857144</ele><time>2026-05-03T06:48:19.757Z</time></trkpt><trkpt lat="43.3101897" lon="11.5955985"><ele>274.8571428571429</ele><time>2026-05-03T06:48:22.777Z</time></trkpt><trkpt lat="43.3101762" lon="11.5955121"><ele>274.2857142857143</ele><time>2026-05-03T06:48:24.761Z</time></trkpt><trkpt lat="43.3101646" lon="11.5954253"><ele>273.7142857142857</ele><time>2026-05-03T06:48:26.701Z</time></trkpt><trkpt lat="43.3101574" lon="11.5953296"><ele>273.1428571428571</ele><time>2026-05-03T06:48:28.755Z</time></trkpt><trkpt lat="43.3101535" lon="11.5952364"><ele>272.57142857142856</ele><time>2026-05-03T06:48:30.679Z</time></trkpt><trkpt lat="43.3101454" lon="11.5951302"><ele>272.0</ele><time>2026-05-03T06:48:32.773Z</time></trkpt><trkpt lat="43.3101201" lon="11.5950115"><ele>270.83333333333337</ele><time>2026-05-03T06:48:35.735Z</time></trkpt><trkpt lat="43.3100764" lon="11.5948994"><ele>269.6666666666667</ele><time>2026-05-03T06:48:38.753Z</time></trkpt><trkpt lat="43.310025" lon="11.5948125"><ele>268.5</ele><time>2026-05-03T06:48:41.783Z</time></trkpt><trkpt lat="43.3099686" lon="11.5947417"><ele>267.3333333333333</ele><time>2026-05-03T06:48:44.76Z</time></trkpt><trkpt lat="43.3099046" lon="11.5946792"><ele>266.16666666666663</ele><time>2026-05-03T06:48:47.754Z</time></trkpt><trkpt lat="43.3098481" lon="11.5946102"><ele>265.0</ele><time>2026-05-03T06:48:50.774Z</time></trkpt><trkpt lat="43.3097961" lon="11.594535"><ele>264.8333333333333</ele><time>2026-05-03T06:48:53.771Z</time></trkpt><trkpt lat="43.3097407" lon="11.594465"><ele>264.66666666666663</ele><time>2026-05-03T06:48:56.759Z</time></trkpt><trkpt lat="43.3096849" lon="11.5943944"><ele>264.5</ele><time>2026-05-03T06:48:59.759Z</time></trkpt><trkpt lat="43.3096412" lon="11.5943078"><ele>264.3333333333333</ele><time>2026-05-03T06:49:02.761Z</time></trkpt><trkpt lat="43.3096159" lon="11.5942108"><ele>264.1666666666667</ele><time>2026-05-03T06:49:05.792Z</time></trkpt><trkpt lat="43.3095944" lon="11.5941098"><ele>264.0</ele><time>2026-05-03T06:49:08.775Z</time></trkpt><trkpt lat="43.3095728" lon="11.5940134"><ele>264.0</ele><time>2026-05-03T06:49:11.815Z</time></trkpt><trkpt lat="43.3095399" lon="11.5939146"><ele>264.0</ele><time>2026-05-03T06:49:14.696Z</time></trkpt><trkpt lat="43.3094875" lon="11.5938096"><ele>264.0</ele><time>2026-05-03T06:49:17.755Z</time></trkpt><trkpt lat="43.3094479" lon="11.5937407"><ele>264.0</ele><time>2026-05-03T06:49:19.772Z</time></trkpt><trkpt lat="43.3094062" lon="11.5936723"><ele>264.0</ele><time>2026-05-03T06:49:21.741Z</time></trkpt><trkpt lat="43.3093364" lon="11.5935561"><ele>264.0</ele><time>2026-05-03T06:49:24.729Z</time></trkpt><trkpt lat="43.3092826" lon="11.5934835"><ele>263.5</ele><time>2026-05-03T06:49:26.736Z</time></trkpt><trkpt lat="43.3092086" lon="11.5933991"><ele>263.0</ele><time>2026-05-03T06:49:29.68Z</time></trkpt><trkpt lat="43.3091522" lon="11.5933542"><ele>262.5</ele><time>2026-05-03T06:49:31.734Z</time></trkpt><trkpt lat="43.3090759" lon="11.5932986"><ele>262.0</ele><time>2026-05-03T06:49:34.732Z</time></trkpt><trkpt lat="43.3090022" lon="11.5932269"><ele>261.5</ele><time>2026-05-03T06:49:37.756Z</time></trkpt><trkpt lat="43.3089314" lon="11.593142"><ele>261.0</ele><time>2026-05-03T06:49:40.794Z</time></trkpt><trkpt lat="43.3088704" lon="11.5930794"><ele>261.0</ele><time>2026-05-03T06:49:42.756Z</time></trkpt><trkpt lat="43.3088158" lon="11.5930146"><ele>261.0</ele><time>2026-05-03T06:49:44.768Z</time></trkpt><trkpt lat="43.3087447" lon="11.5929652"><ele>261.0</ele><time>2026-05-03T06:49:46.763Z</time></trkpt><trkpt lat="43.3086892" lon="11.5929215"><ele>261.0</ele><time>2026-05-03T06:49:48.679Z</time></trkpt><trkpt lat="43.3086297" lon="11.5928695"><ele>261.0</ele><time>2026-05-03T06:49:50.757Z</time></trkpt><trkpt lat="43.3085554" lon="11.5927996"><ele>261.0</ele><time>2026-05-03T06:49:53.754Z</time></trkpt><trkpt lat="43.3084975" lon="11.5927482"><ele>261.0</ele><time>2026-05-03T06:49:55.76Z</time></trkpt><trkpt lat="43.3084424" lon="11.5927021"><ele>260.0</ele><time>2026-05-03T06:49:57.753Z</time></trkpt><trkpt lat="43.3083833" lon="11.5926503"><ele>259.0</ele><time>2026-05-03T06:49:59.76Z</time></trkpt><trkpt lat="43.308327" lon="11.5926027"><ele>258.0</ele><time>2026-05-03T06:50:01.729Z</time></trkpt><trkpt lat="43.3082648" lon="11.5925644"><ele>257.0</ele><time>2026-05-03T06:50:03.769Z</time></trkpt><trkpt lat="43.3082054" lon="11.592523"><ele>256.0</ele><time>2026-05-03T06:50:05.751Z</time></trkpt><trkpt lat="43.3081265" lon="11.5924674"><ele>255.0</ele><time>2026-05-03T06:50:08.793Z</time></trkpt><trkpt lat="43.3080602" lon="11.5924041"><ele>254.0</ele><time>2026-05-03T06:50:11.692Z</time></trkpt><trkpt lat="43.3079889" lon="11.5923343"><ele>254.00000000000003</ele><time>2026-05-03T06:50:14.762Z</time></trkpt><trkpt lat="43.3079218" lon="11.5922779"><ele>254.0</ele><time>2026-05-03T06:50:17.755Z</time></trkpt><trkpt lat="43.3078523" lon="11.5922277"><ele>254.0</ele><time>2026-05-03T06:50:20.738Z</time></trkpt><trkpt lat="43.3077848" lon="11.5921669"><ele>254.0</ele><time>2026-05-03T06:50:23.772Z</time></trkpt><trkpt lat="43.3077185" lon="11.5920929"><ele>254.00000000000003</ele><time>2026-05-03T06:50:26.759Z</time></trkpt><trkpt lat="43.3076489" lon="11.5920113"><ele>254.0</ele><time>2026-05-03T06:50:29.789Z</time></trkpt><trkpt lat="43.3075889" lon="11.5919327"><ele>252.66666666666669</ele><time>2026-05-03T06:50:32.768Z</time></trkpt><trkpt lat="43.3075326" lon="11.591852"><ele>251.33333333333334</ele><time>2026-05-03T06:50:35.662Z</time></trkpt><trkpt lat="43.3074853" lon="11.5917555"><ele>250.0</ele><time>2026-05-03T06:50:38.797Z</time></trkpt><trkpt lat="43.3074442" lon="11.5916507"><ele>248.66666666666669</ele><time>2026-05-03T06:50:41.733Z</time></trkpt><trkpt lat="43.307407" lon="11.5915626"><ele>247.33333333333334</ele><time>2026-05-03T06:50:43.785Z</time></trkpt><trkpt lat="43.3073699" lon="11.5914894"><ele>246.0</ele><time>2026-05-03T06:50:45.663Z</time></trkpt><trkpt lat="43.3073267" lon="11.5914071"><ele>246.0</ele><time>2026-05-03T06:50:47.78Z</time></trkpt><trkpt lat="43.3072926" lon="11.5913254"><ele>246.0</ele><time>2026-05-03T06:50:49.75Z</time></trkpt><trkpt lat="43.3072495" lon="11.5912092"><ele>246.0</ele><time>2026-05-03T06:50:52.76Z</time></trkpt><trkpt lat="43.3072184" lon="11.5911177"><ele>246.0</ele><time>2026-05-03T06:50:54.799Z</time></trkpt><trkpt lat="43.3071903" lon="11.5910358"><ele>246.0</ele><time>2026-05-03T06:50:56.696Z</time></trkpt><trkpt lat="43.3071591" lon="11.5909422"><ele>246.0</ele><time>2026-05-03T06:50:58.77Z</time></trkpt><trkpt lat="43.3071291" lon="11.590828"><ele>245.5</ele><time>2026-05-03T06:51:01.757Z</time></trkpt><trkpt lat="43.3070935" lon="11.5907129"><ele>245.0</ele><time>2026-05-03T06:51:04.76Z</time></trkpt><trkpt lat="43.3070446" lon="11.5906182"><ele>244.5</ele><time>2026-05-03T06:51:07.794Z</time></trkpt><trkpt lat="43.3069806" lon="11.590531"><ele>244.0</ele><time>2026-05-03T06:51:10.712Z</time></trkpt><trkpt lat="43.3069354" lon="11.5904425"><ele>243.5</ele><time>2026-05-03T06:51:12.729Z</time></trkpt><trkpt lat="43.3068929" lon="11.5903555"><ele>243.0</ele><time>2026-05-03T06:51:14.738Z</time></trkpt><trkpt lat="43.3068431" lon="11.5902706"><ele>241.66666666666666</ele><time>2026-05-03T06:51:16.781Z</time></trkpt><trkpt lat="43.3067949" lon="11.5901836"><ele>240.33333333333331</ele><time>2026-05-03T06:51:18.757Z</time></trkpt><trkpt lat="43.3067614" lon="11.5900977"><ele>239.0</ele><time>2026-05-03T06:51:20.73Z</time></trkpt><trkpt lat="43.3067657" lon="11.590002"><ele>237.66666666666666</ele><time>2026-05-03T06:51:22.728Z</time></trkpt><trkpt lat="43.3068056" lon="11.5898873"><ele>236.33333333333331</ele><time>2026-05-03T06:51:24.675Z</time></trkpt><trkpt lat="43.3068543" lon="11.5898003"><ele>235.0</ele><time>2026-05-03T06:51:26.594Z</time></trkpt><trkpt lat="43.3069114" lon="11.589684"><ele>234.99999999999997</ele><time>2026-05-03T06:51:28.654Z</time></trkpt><trkpt lat="43.3069574" lon="11.5895575"><ele>235.0</ele><time>2026-05-03T06:51:30.747Z</time></trkpt><trkpt lat="43.3069953" lon="11.5894658"><ele>235.0</ele><time>2026-05-03T06:51:32.762Z</time></trkpt><trkpt lat="43.3070319" lon="11.5893914"><ele>235.0</ele><time>2026-05-03T06:51:34.765Z</time></trkpt><trkpt lat="43.3070782" lon="11.5893194"><ele>234.99999999999997</ele><time>2026-05-03T06:51:36.777Z</time></trkpt><trkpt lat="43.3071313" lon="11.5892438"><ele>235.0</ele><time>2026-05-03T06:51:38.795Z</time></trkpt><trkpt lat="43.3071825" lon="11.5891633"><ele>234.33333333333331</ele><time>2026-05-03T06:51:40.771Z</time></trkpt><trkpt lat="43.3071999" lon="11.5890694"><ele>233.66666666666666</ele><time>2026-05-03T06:51:42.752Z</time></trkpt><trkpt lat="43.3071709" lon="11.5889696"><ele>233.0</ele><time>2026-05-03T06:51:44.701Z</time></trkpt><trkpt lat="43.3071165" lon="11.5888863"><ele>232.33333333333331</ele><time>2026-05-03T06:51:46.723Z</time></trkpt><trkpt lat="43.3070541" lon="11.5888287"><ele>231.66666666666666</ele><time>2026-05-03T06:51:48.796Z</time></trkpt><trkpt lat="43.3069952" lon="11.5887836"><ele>231.0</ele><time>2026-05-03T06:51:50.769Z</time></trkpt><trkpt lat="43.3069245" lon="11.5887011"><ele>229.83333333333334</ele><time>2026-05-03T06:51:53.756Z</time></trkpt><trkpt lat="43.3069149" lon="11.588568"><ele>228.66666666666669</ele><time>2026-05-03T06:51:56.787Z</time></trkpt><trkpt lat="43.3069522" lon="11.5884893"><ele>227.5</ele><time>2026-05-03T06:51:58.737Z</time></trkpt><trkpt lat="43.3070329" lon="11.5884115"><ele>226.33333333333334</ele><time>2026-05-03T06:52:01.715Z</time></trkpt><trkpt lat="43.3071037" lon="11.5883605"><ele>225.16666666666669</ele><time>2026-05-03T06:52:03.765Z</time></trkpt><trkpt lat="43.3071659" lon="11.5883008"><ele>224.0</ele><time>2026-05-03T06:52:05.746Z</time></trkpt><trkpt lat="43.3072253" lon="11.5882476"><ele>223.28571428571428</ele><time>2026-05-03T06:52:07.713Z</time></trkpt><trkpt lat="43.3072914" lon="11.5882091"><ele>222.57142857142856</ele><time>2026-05-03T06:52:09.761Z</time></trkpt><trkpt lat="43.3073552" lon="11.5881734"><ele>221.85714285714286</ele><time>2026-05-03T06:52:11.769Z</time></trkpt><trkpt lat="43.3074317" lon="11.5881452"><ele>221.14285714285714</ele><time>2026-05-03T06:52:13.75Z</time></trkpt><trkpt lat="43.3074953" lon="11.5881076"><ele>220.42857142857142</ele><time>2026-05-03T06:52:15.699Z</time></trkpt><trkpt lat="43.3075632" lon="11.5880625"><ele>219.71428571428572</ele><time>2026-05-03T06:52:17.756Z</time></trkpt><trkpt lat="43.3076275" lon="11.5880202"><ele>219.0</ele><time>2026-05-03T06:52:19.781Z</time></trkpt><trkpt lat="43.3077107" lon="11.5879617"><ele>219.0</ele><time>2026-05-03T06:52:22.7Z</time></trkpt><trkpt lat="43.3077629" lon="11.587902"><ele>219.0</ele><time>2026-05-03T06:52:24.741Z</time></trkpt><trkpt lat="43.3078055" lon="11.5878306"><ele>219.0</ele><time>2026-05-03T06:52:26.776Z</time></trkpt><trkpt lat="43.3078503" lon="11.5877168"><ele>219.0</ele><time>2026-05-03T06:52:29.796Z</time></trkpt><trkpt lat="43.3078551" lon="11.5876191"><ele>219.0</ele><time>2026-05-03T06:52:31.762Z</time></trkpt><trkpt lat="43.307824" lon="11.5875123"><ele>219.0</ele><time>2026-05-03T06:52:34.757Z</time></trkpt><trkpt lat="43.3077904" lon="11.5874135"><ele>218.33333333333334</ele><time>2026-05-03T06:52:37.696Z</time></trkpt><trkpt lat="43.3077525" lon="11.5873016"><ele>217.66666666666669</ele><time>2026-05-03T06:52:40.763Z</time></trkpt><trkpt lat="43.3077748" lon="11.5871978"><ele>217.0</ele><time>2026-05-03T06:52:43.798Z</time></trkpt><trkpt lat="43.3078413" lon="11.5871219"><ele>216.33333333333334</ele><time>2026-05-03T06:52:46.77Z</time></trkpt><trkpt lat="43.3078994" lon="11.5870421"><ele>215.66666666666669</ele><time>2026-05-03T06:52:49.812Z</time></trkpt><trkpt lat="43.30796" lon="11.5869727"><ele>215.0</ele><time>2026-05-03T06:52:52.68Z</time></trkpt><trkpt lat="43.3080254" lon="11.5868886"><ele>215.00000000000003</ele><time>2026-05-03T06:52:55.769Z</time></trkpt><trkpt lat="43.3080901" lon="11.5868093"><ele>215.0</ele><time>2026-05-03T06:52:58.842Z</time></trkpt><trkpt lat="43.3081458" lon="11.5867337"><ele>215.0</ele><time>2026-05-03T06:53:01.695Z</time></trkpt><trkpt lat="43.3082093" lon="11.5866454"><ele>215.0</ele><time>2026-05-03T06:53:04.79Z</time></trkpt><trkpt lat="43.3082755" lon="11.5865668"><ele>215.00000000000003</ele><time>2026-05-03T06:53:07.769Z</time></trkpt><trkpt lat="43.3083322" lon="11.5864954"><ele>215.0</ele><time>2026-05-03T06:53:10.768Z</time></trkpt><trkpt lat="43.3083862" lon="11.5864192"><ele>215.00000000000003</ele><time>2026-05-03T06:53:13.74Z</time></trkpt><trkpt lat="43.3084438" lon="11.5863314"><ele>215.0</ele><time>2026-05-03T06:53:16.772Z</time></trkpt><trkpt lat="43.3085005" lon="11.5862561"><ele>215.0</ele><time>2026-05-03T06:53:19.755Z</time></trkpt><trkpt lat="43.3085653" lon="11.5861908"><ele>215.0</ele><time>2026-05-03T06:53:22.751Z</time></trkpt><trkpt lat="43.3086222" lon="11.5861245"><ele>215.00000000000003</ele><time>2026-05-03T06:53:25.723Z</time></trkpt><trkpt lat="43.3086723" lon="11.5860462"><ele>215.0</ele><time>2026-05-03T06:53:28.754Z</time></trkpt><trkpt lat="43.308732" lon="11.5859693"><ele>215.16666666666669</ele><time>2026-05-03T06:53:31.8Z</time></trkpt><trkpt lat="43.3087936" lon="11.5859032"><ele>215.33333333333334</ele><time>2026-05-03T06:53:34.683Z</time></trkpt><trkpt lat="43.308855" lon="11.5858246"><ele>215.5</ele><time>2026-05-03T06:53:37.774Z</time></trkpt><trkpt lat="43.3089172" lon="11.5857397"><ele>215.66666666666669</ele><time>2026-05-03T06:53:40.817Z</time></trkpt><trkpt lat="43.3089743" lon="11.5856668"><ele>215.83333333333334</ele><time>2026-05-03T06:53:43.699Z</time></trkpt><trkpt lat="43.309031" lon="11.585599"><ele>216.0</ele><time>2026-05-03T06:53:46.771Z</time></trkpt><trkpt lat="43.309087" lon="11.5855329"><ele>216.5</ele><time>2026-05-03T06:53:49.774Z</time></trkpt><trkpt lat="43.3091462" lon="11.585463"><ele>217.0</ele><time>2026-05-03T06:53:52.773Z</time></trkpt><trkpt lat="43.3092045" lon="11.5854009"><ele>217.5</ele><time>2026-05-03T06:53:55.682Z</time></trkpt><trkpt lat="43.3092628" lon="11.5853304"><ele>218.0</ele><time>2026-05-03T06:53:58.792Z</time></trkpt><trkpt lat="43.3093155" lon="11.5852577"><ele>218.5</ele><time>2026-05-03T06:54:01.76Z</time></trkpt><trkpt lat="43.3093723" lon="11.5851771"><ele>219.0</ele><time>2026-05-03T06:54:04.764Z</time></trkpt><trkpt lat="43.3094228" lon="11.5850969"><ele>219.42857142857144</ele><time>2026-05-03T06:54:07.777Z</time></trkpt><trkpt lat="43.3094645" lon="11.585013"><ele>219.85714285714283</ele><time>2026-05-03T06:54:10.801Z</time></trkpt><trkpt lat="43.3094952" lon="11.5849338"><ele>220.28571428571428</ele><time>2026-05-03T06:54:13.726Z</time></trkpt><trkpt lat="43.3095242" lon="11.584844"><ele>220.71428571428572</ele><time>2026-05-03T06:54:16.766Z</time></trkpt><trkpt lat="43.3095598" lon="11.5847584"><ele>221.14285714285717</ele><time>2026-05-03T06:54:19.8Z</time></trkpt><trkpt lat="43.3095992" lon="11.5846754"><ele>221.57142857142856</ele><time>2026-05-03T06:54:22.679Z</time></trkpt><trkpt lat="43.3096358" lon="11.5845736"><ele>222.0</ele><time>2026-05-03T06:54:25.78Z</time></trkpt><trkpt lat="43.3096699" lon="11.5844808"><ele>222.33333333333334</ele><time>2026-05-03T06:54:28.72Z</time></trkpt><trkpt lat="43.3097048" lon="11.5843868"><ele>222.66666666666669</ele><time>2026-05-03T06:54:31.763Z</time></trkpt><trkpt lat="43.3097428" lon="11.584289"><ele>223.0</ele><time>2026-05-03T06:54:34.792Z</time></trkpt><trkpt lat="43.3097726" lon="11.5841875"><ele>223.33333333333334</ele><time>2026-05-03T06:54:37.765Z</time></trkpt><trkpt lat="43.3098094" lon="11.5840889"><ele>223.66666666666669</ele><time>2026-05-03T06:54:40.772Z</time></trkpt><trkpt lat="43.3098469" lon="11.5839991"><ele>224.0</ele><time>2026-05-03T06:54:43.754Z</time></trkpt><trkpt lat="43.3098836" lon="11.5839039"><ele>224.00000000000003</ele><time>2026-05-03T06:54:46.774Z</time></trkpt><trkpt lat="43.3099201" lon="11.5837956"><ele>224.0</ele><time>2026-05-03T06:54:49.782Z</time></trkpt><trkpt lat="43.309953" lon="11.5836776"><ele>224.0</ele><time>2026-05-03T06:54:52.763Z</time></trkpt><trkpt lat="43.3099755" lon="11.5835639"><ele>224.0</ele><time>2026-05-03T06:54:55.777Z</time></trkpt><trkpt lat="43.3099835" lon="11.5834553"><ele>224.00000000000003</ele><time>2026-05-03T06:54:58.734Z</time></trkpt><trkpt lat="43.3099977" lon="11.5833517"><ele>224.0</ele><time>2026-05-03T06:55:01.766Z</time></trkpt><trkpt lat="43.3100193" lon="11.5832518"><ele>223.28571428571428</ele><time>2026-05-03T06:55:04.758Z</time></trkpt><trkpt lat="43.3100501" lon="11.5831356"><ele>222.57142857142856</ele><time>2026-05-03T06:55:07.761Z</time></trkpt><trkpt lat="43.3100771" lon="11.583051"><ele>221.85714285714286</ele><time>2026-05-03T06:55:09.732Z</time></trkpt><trkpt lat="43.3101132" lon="11.5829623"><ele>221.14285714285714</ele><time>2026-05-03T06:55:11.717Z</time></trkpt><trkpt lat="43.3101445" lon="11.5828774"><ele>220.42857142857142</ele><time>2026-05-03T06:55:13.697Z</time></trkpt><trkpt lat="43.3101734" lon="11.5827826"><ele>219.71428571428572</ele><time>2026-05-03T06:55:15.727Z</time></trkpt><trkpt lat="43.3101994" lon="11.5827036"><ele>219.0</ele><time>2026-05-03T06:55:17.674Z</time></trkpt><trkpt lat="43.3102268" lon="11.5826184"><ele>218.42857142857144</ele><time>2026-05-03T06:55:19.763Z</time></trkpt><trkpt lat="43.3102544" lon="11.5825402"><ele>217.85714285714283</ele><time>2026-05-03T06:55:21.752Z</time></trkpt><trkpt lat="43.310283" lon="11.5824582"><ele>217.28571428571428</ele><time>2026-05-03T06:55:23.806Z</time></trkpt><trkpt lat="43.3103096" lon="11.5823765"><ele>216.71428571428572</ele><time>2026-05-03T06:55:25.758Z</time></trkpt><trkpt lat="43.3103363" lon="11.5822938"><ele>216.14285714285717</ele><time>2026-05-03T06:55:27.753Z</time></trkpt><trkpt lat="43.310365" lon="11.5822069"><ele>215.57142857142856</ele><time>2026-05-03T06:55:29.776Z</time></trkpt><trkpt lat="43.3103905" lon="11.5821262"><ele>215.0</ele><time>2026-05-03T06:55:31.682Z</time></trkpt><trkpt lat="43.3104265" lon="11.5820062"><ele>215.16666666666669</ele><time>2026-05-03T06:55:34.772Z</time></trkpt><trkpt lat="43.310462" lon="11.5818872"><ele>215.33333333333334</ele><time>2026-05-03T06:55:37.745Z</time></trkpt><trkpt lat="43.3104928" lon="11.5817734"><ele>215.5</ele><time>2026-05-03T06:55:40.683Z</time></trkpt><trkpt lat="43.3105285" lon="11.5816531"><ele>215.66666666666669</ele><time>2026-05-03T06:55:43.753Z</time></trkpt><trkpt lat="43.3105621" lon="11.5815464"><ele>215.83333333333334</ele><time>2026-05-03T06:55:46.773Z</time></trkpt><trkpt lat="43.3106001" lon="11.581441"><ele>216.0</ele><time>2026-05-03T06:55:49.764Z</time></trkpt><trkpt lat="43.3106282" lon="11.5813625"><ele>216.0</ele><time>2026-05-03T06:55:51.776Z</time></trkpt><trkpt lat="43.3106532" lon="11.5812522"><ele>216.0</ele><time>2026-05-03T06:55:54.781Z</time></trkpt><trkpt lat="43.3106647" lon="11.5811267"><ele>216.0</ele><time>2026-05-03T06:55:57.746Z</time></trkpt><trkpt lat="43.3106751" lon="11.5810356"><ele>216.0</ele><time>2026-05-03T06:55:59.778Z</time></trkpt><trkpt lat="43.3107008" lon="11.5809177"><ele>216.0</ele><time>2026-05-03T06:56:02.757Z</time></trkpt><trkpt lat="43.3107291" lon="11.580811"><ele>216.0</ele><time>2026-05-03T06:56:05.776Z</time></trkpt><trkpt lat="43.3107633" lon="11.5807032"><ele>214.83333333333334</ele><time>2026-05-03T06:56:08.745Z</time></trkpt><trkpt lat="43.3108035" lon="11.5805934"><ele>213.66666666666669</ele><time>2026-05-03T06:56:11.738Z</time></trkpt><trkpt lat="43.3108414" lon="11.5804866"><ele>212.5</ele><time>2026-05-03T06:56:14.774Z</time></trkpt><trkpt lat="43.3108916" lon="11.5803919"><ele>211.33333333333334</ele><time>2026-05-03T06:56:17.742Z</time></trkpt><trkpt lat="43.3109528" lon="11.5803088"><ele>210.16666666666669</ele><time>2026-05-03T06:56:20.746Z</time></trkpt><trkpt lat="43.3110151" lon="11.5802357"><ele>209.0</ele><time>2026-05-03T06:56:23.771Z</time></trkpt><trkpt lat="43.3110911" lon="11.580177"><ele>208.66666666666669</ele><time>2026-05-03T06:56:26.715Z</time></trkpt><trkpt lat="43.3111726" lon="11.5801276"><ele>208.33333333333334</ele><time>2026-05-03T06:56:29.77Z</time></trkpt><trkpt lat="43.3112559" lon="11.5800866"><ele>208.0</ele><time>2026-05-03T06:56:32.77Z</time></trkpt><trkpt lat="43.3113486" lon="11.5800709"><ele>207.66666666666669</ele><time>2026-05-03T06:56:35.771Z</time></trkpt><trkpt lat="43.3114181" lon="11.5800589"><ele>207.33333333333334</ele><time>2026-05-03T06:56:37.774Z</time></trkpt><trkpt lat="43.3114836" lon="11.5800506"><ele>207.0</ele><time>2026-05-03T06:56:39.764Z</time></trkpt><trkpt lat="43.3115491" lon="11.5800358"><ele>207.00000000000003</ele><time>2026-05-03T06:56:41.768Z</time></trkpt><trkpt lat="43.3116153" lon="11.5800203"><ele>207.0</ele><time>2026-05-03T06:56:43.765Z</time></trkpt><trkpt lat="43.3116855" lon="11.5800077"><ele>207.0</ele><time>2026-05-03T06:56:45.786Z</time></trkpt><trkpt lat="43.3117619" lon="11.5799809"><ele>207.0</ele><time>2026-05-03T06:56:47.772Z</time></trkpt><trkpt lat="43.3118396" lon="11.5799472"><ele>207.0</ele><time>2026-05-03T06:56:49.774Z</time></trkpt><trkpt lat="43.3119103" lon="11.5799027"><ele>207.00000000000003</ele><time>2026-05-03T06:56:51.754Z</time></trkpt><trkpt lat="43.3119684" lon="11.5798519"><ele>207.0</ele><time>2026-05-03T06:56:53.709Z</time></trkpt><trkpt lat="43.3120266" lon="11.5797964"><ele>207.0</ele><time>2026-05-03T06:56:55.773Z</time></trkpt><trkpt lat="43.3120918" lon="11.5797191"><ele>207.0</ele><time>2026-05-03T06:56:58.74Z</time></trkpt><trkpt lat="43.3121501" lon="11.5796399"><ele>207.0</ele><time>2026-05-03T06:57:01.679Z</time></trkpt><trkpt lat="43.3122101" lon="11.5795489"><ele>207.0</ele><time>2026-05-03T06:57:04.763Z</time></trkpt><trkpt lat="43.3122796" lon="11.5794743"><ele>207.0</ele><time>2026-05-03T06:57:07.77Z</time></trkpt><trkpt lat="43.3123502" lon="11.5794199"><ele>207.0</ele><time>2026-05-03T06:57:10.782Z</time></trkpt><trkpt lat="43.3124177" lon="11.579356"><ele>206.83333333333334</ele><time>2026-05-03T06:57:13.773Z</time></trkpt><trkpt lat="43.3124848" lon="11.5792859"><ele>206.66666666666669</ele><time>2026-05-03T06:57:16.762Z</time></trkpt><trkpt lat="43.3125529" lon="11.5792126"><ele>206.5</ele><time>2026-05-03T06:57:19.779Z</time></trkpt><trkpt lat="43.3126221" lon="11.5791385"><ele>206.33333333333334</ele><time>2026-05-03T06:57:22.696Z</time></trkpt><trkpt lat="43.3126739" lon="11.5790794"><ele>206.16666666666669</ele><time>2026-05-03T06:57:24.761Z</time></trkpt><trkpt lat="43.3127403" lon="11.5790047"><ele>206.0</ele><time>2026-05-03T06:57:27.748Z</time></trkpt><trkpt lat="43.3128112" lon="11.578932"><ele>206.00000000000003</ele><time>2026-05-03T06:57:30.772Z</time></trkpt><trkpt lat="43.3128624" lon="11.5788761"><ele>206.0</ele><time>2026-05-03T06:57:32.712Z</time></trkpt><trkpt lat="43.3129189" lon="11.5787989"><ele>206.0</ele><time>2026-05-03T06:57:34.78Z</time></trkpt><trkpt lat="43.3129888" lon="11.5787038"><ele>206.0</ele><time>2026-05-03T06:57:37.715Z</time></trkpt><trkpt lat="43.313041" lon="11.5786399"><ele>206.00000000000003</ele><time>2026-05-03T06:57:39.776Z</time></trkpt><trkpt lat="43.3130891" lon="11.578584"><ele>206.0</ele><time>2026-05-03T06:57:41.745Z</time></trkpt><trkpt lat="43.3131591" lon="11.5785053"><ele>205.33333333333334</ele><time>2026-05-03T06:57:44.773Z</time></trkpt><trkpt lat="43.3132266" lon="11.5784292"><ele>204.66666666666669</ele><time>2026-05-03T06:57:47.797Z</time></trkpt><trkpt lat="43.3132916" lon="11.5783463"><ele>204.0</ele><time>2026-05-03T06:57:50.759Z</time></trkpt><trkpt lat="43.3133616" lon="11.5782521"><ele>203.33333333333331</ele><time>2026-05-03T06:57:53.758Z</time></trkpt><trkpt lat="43.3134116" lon="11.5781789"><ele>202.66666666666666</ele><time>2026-05-03T06:57:55.776Z</time></trkpt><trkpt lat="43.3134711" lon="11.5780909"><ele>202.0</ele><time>2026-05-03T06:57:58.776Z</time></trkpt><trkpt lat="43.3135278" lon="11.5780179"><ele>201.99999999999997</ele><time>2026-05-03T06:58:01.763Z</time></trkpt><trkpt lat="43.3135893" lon="11.5779462"><ele>202.0</ele><time>2026-05-03T06:58:04.758Z</time></trkpt><trkpt lat="43.313645" lon="11.5778734"><ele>202.0</ele><time>2026-05-03T06:58:07.702Z</time></trkpt><trkpt lat="43.3137075" lon="11.5777911"><ele>202.0</ele><time>2026-05-03T06:58:10.773Z</time></trkpt><trkpt lat="43.3137743" lon="11.5777133"><ele>201.99999999999997</ele><time>2026-05-03T06:58:13.716Z</time></trkpt><trkpt lat="43.3138318" lon="11.5776285"><ele>202.0</ele><time>2026-05-03T06:58:16.767Z</time></trkpt><trkpt lat="43.3138886" lon="11.5775504"><ele>201.66666666666666</ele><time>2026-05-03T06:58:19.779Z</time></trkpt><trkpt lat="43.3139484" lon="11.5774804"><ele>201.33333333333331</ele><time>2026-05-03T06:58:22.695Z</time></trkpt><trkpt lat="43.3140067" lon="11.5773973"><ele>201.0</ele><time>2026-05-03T06:58:25.68Z</time></trkpt><trkpt lat="43.3140526" lon="11.5772963"><ele>200.66666666666669</ele><time>2026-05-03T06:58:28.743Z</time></trkpt><trkpt lat="43.3141005" lon="11.5772103"><ele>200.33333333333334</ele><time>2026-05-03T06:58:31.699Z</time></trkpt><trkpt lat="43.3141615" lon="11.577122"><ele>200.0</ele><time>2026-05-03T06:58:34.776Z</time></trkpt><trkpt lat="43.3142109" lon="11.5770391"><ele>200.00000000000003</ele><time>2026-05-03T06:58:37.649Z</time></trkpt><trkpt lat="43.3142539" lon="11.5769734"><ele>200.0</ele><time>2026-05-03T06:58:39.786Z</time></trkpt><trkpt lat="43.314311" lon="11.5768983"><ele>200.0</ele><time>2026-05-03T06:58:42.764Z</time></trkpt><trkpt lat="43.314362" lon="11.5768121"><ele>200.0</ele><time>2026-05-03T06:58:45.691Z</time></trkpt><trkpt lat="43.3144216" lon="11.576717"><ele>200.00000000000003</ele><time>2026-05-03T06:58:48.785Z</time></trkpt><trkpt lat="43.3144784" lon="11.5766369"><ele>200.0</ele><time>2026-05-03T06:58:51.769Z</time></trkpt><trkpt lat="43.3145307" lon="11.5765656"><ele>200.00000000000003</ele><time>2026-05-03T06:58:54.719Z</time></trkpt><trkpt lat="43.3145786" lon="11.5764822"><ele>200.0</ele><time>2026-05-03T06:58:57.775Z</time></trkpt><trkpt lat="43.3146162" lon="11.5764112"><ele>200.0</ele><time>2026-05-03T06:59:01.775Z</time></trkpt><trkpt lat="43.3146684" lon="11.5763307"><ele>200.0</ele><time>2026-05-03T06:59:12.773Z</time></trkpt><trkpt lat="43.3146872" lon="11.5762319"><ele>200.0</ele><time>2026-05-03T06:59:15.711Z</time></trkpt><trkpt lat="43.3147257" lon="11.576144"><ele>200.00000000000003</ele><time>2026-05-03T06:59:18.771Z</time></trkpt><trkpt lat="43.3147712" lon="11.576064"><ele>200.0</ele><time>2026-05-03T06:59:21.793Z</time></trkpt><trkpt lat="43.3148301" lon="11.5759923"><ele>200.33333333333334</ele><time>2026-05-03T06:59:24.657Z</time></trkpt><trkpt lat="43.3148976" lon="11.5759094"><ele>200.66666666666669</ele><time>2026-05-03T06:59:27.774Z</time></trkpt><trkpt lat="43.3149417" lon="11.5758449"><ele>201.0</ele><time>2026-05-03T06:59:29.768Z</time></trkpt><trkpt lat="43.3150128" lon="11.5757639"><ele>201.33333333333331</ele><time>2026-05-03T06:59:32.761Z</time></trkpt><trkpt lat="43.3150814" lon="11.5756941"><ele>201.66666666666666</ele><time>2026-05-03T06:59:35.779Z</time></trkpt><trkpt lat="43.3151395" lon="11.5756114"><ele>202.0</ele><time>2026-05-03T06:59:38.766Z</time></trkpt><trkpt lat="43.3151896" lon="11.5755242"><ele>201.99999999999997</ele><time>2026-05-03T06:59:41.776Z</time></trkpt><trkpt lat="43.3152424" lon="11.5754403"><ele>202.0</ele><time>2026-05-03T06:59:44.749Z</time></trkpt><trkpt lat="43.3153122" lon="11.575357"><ele>202.0</ele><time>2026-05-03T06:59:47.781Z</time></trkpt><trkpt lat="43.3153712" lon="11.5752802"><ele>202.0</ele><time>2026-05-03T06:59:50.711Z</time></trkpt><trkpt lat="43.3154268" lon="11.575202"><ele>201.99999999999997</ele><time>2026-05-03T06:59:53.764Z</time></trkpt><trkpt lat="43.3154744" lon="11.575145"><ele>202.0</ele><time>2026-05-03T06:59:55.715Z</time></trkpt><trkpt lat="43.3155262" lon="11.5750704"><ele>202.49999999999997</ele><time>2026-05-03T06:59:58.782Z</time></trkpt><trkpt lat="43.3155871" lon="11.5749938"><ele>203.0</ele><time>2026-05-03T07:00:01.824Z</time></trkpt><trkpt lat="43.3156473" lon="11.5749258"><ele>203.5</ele><time>2026-05-03T07:00:04.696Z</time></trkpt><trkpt lat="43.3157101" lon="11.5748688"><ele>204.0</ele><time>2026-05-03T07:00:07.766Z</time></trkpt><trkpt lat="43.3157661" lon="11.5748113"><ele>204.49999999999997</ele><time>2026-05-03T07:00:10.755Z</time></trkpt><trkpt lat="43.3158236" lon="11.5747499"><ele>205.0</ele><time>2026-05-03T07:00:13.75Z</time></trkpt><trkpt lat="43.3158914" lon="11.5746799"><ele>204.99999999999997</ele><time>2026-05-03T07:00:16.773Z</time></trkpt><trkpt lat="43.3159558" lon="11.5746003"><ele>205.0</ele><time>2026-05-03T07:00:19.785Z</time></trkpt><trkpt lat="43.3160085" lon="11.5745274"><ele>205.0</ele><time>2026-05-03T07:00:22.734Z</time></trkpt><trkpt lat="43.316053" lon="11.5744397"><ele>205.0</ele><time>2026-05-03T07:00:25.754Z</time></trkpt><trkpt lat="43.3160904" lon="11.5743541"><ele>204.99999999999997</ele><time>2026-05-03T07:00:28.782Z</time></trkpt><trkpt lat="43.3161289" lon="11.5742727"><ele>205.0</ele><time>2026-05-03T07:00:31.673Z</time></trkpt><trkpt lat="43.3161838" lon="11.5741904"><ele>204.83333333333331</ele><time>2026-05-03T07:00:34.758Z</time></trkpt><trkpt lat="43.316239" lon="11.574107"><ele>204.66666666666666</ele><time>2026-05-03T07:00:37.771Z</time></trkpt><trkpt lat="43.3162942" lon="11.5740231"><ele>204.5</ele><time>2026-05-03T07:00:40.734Z</time></trkpt><trkpt lat="43.3163524" lon="11.5739359"><ele>204.33333333333331</ele><time>2026-05-03T07:00:43.76Z</time></trkpt><trkpt lat="43.3163978" lon="11.5738448"><ele>204.16666666666666</ele><time>2026-05-03T07:00:46.764Z</time></trkpt><trkpt lat="43.3164537" lon="11.57376"><ele>204.0</ele><time>2026-05-03T07:00:49.698Z</time></trkpt><trkpt lat="43.3164994" lon="11.5736844"><ele>204.42857142857144</ele><time>2026-05-03T07:00:51.765Z</time></trkpt><trkpt lat="43.3165503" lon="11.5736065"><ele>204.85714285714286</ele><time>2026-05-03T07:00:54.693Z</time></trkpt><trkpt lat="43.3165924" lon="11.5735369"><ele>205.28571428571428</ele><time>2026-05-03T07:00:56.774Z</time></trkpt><trkpt lat="43.3166355" lon="11.573469"><ele>205.71428571428572</ele><time>2026-05-03T07:00:58.676Z</time></trkpt><trkpt lat="43.3166903" lon="11.5734057"><ele>206.14285714285714</ele><time>2026-05-03T07:01:00.781Z</time></trkpt><trkpt lat="43.3167355" lon="11.573337"><ele>206.57142857142858</ele><time>2026-05-03T07:01:02.783Z</time></trkpt><trkpt lat="43.3167968" lon="11.5732459"><ele>207.0</ele><time>2026-05-03T07:01:05.84Z</time></trkpt><trkpt lat="43.3168424" lon="11.5731619"><ele>207.0</ele><time>2026-05-03T07:01:08.712Z</time></trkpt><trkpt lat="43.3168921" lon="11.5731023"><ele>207.0</ele><time>2026-05-03T07:01:11.775Z</time></trkpt><trkpt lat="43.316948" lon="11.5730567"><ele>207.0</ele><time>2026-05-03T07:01:14.753Z</time></trkpt><trkpt lat="43.3170097" lon="11.5730224"><ele>207.0</ele><time>2026-05-03T07:01:17.822Z</time></trkpt><trkpt lat="43.3170734" lon="11.5729783"><ele>207.0</ele><time>2026-05-03T07:01:20.757Z</time></trkpt><trkpt lat="43.3171565" lon="11.5729343"><ele>207.0</ele><time>2026-05-03T07:01:23.766Z</time></trkpt><trkpt lat="43.3172446" lon="11.5728983"><ele>206.66666666666666</ele><time>2026-05-03T07:01:26.751Z</time></trkpt><trkpt lat="43.3173164" lon="11.5728435"><ele>206.33333333333331</ele><time>2026-05-03T07:01:29.733Z</time></trkpt><trkpt lat="43.3173526" lon="11.5727491"><ele>206.0</ele><time>2026-05-03T07:01:32.772Z</time></trkpt><trkpt lat="43.3173533" lon="11.5726294"><ele>205.66666666666666</ele><time>2026-05-03T07:01:36.79Z</time></trkpt><trkpt lat="43.317356" lon="11.5725237"><ele>205.33333333333331</ele><time>2026-05-03T07:01:39.815Z</time></trkpt><trkpt lat="43.3173559" lon="11.5724065"><ele>205.0</ele><time>2026-05-03T07:01:42.753Z</time></trkpt><trkpt lat="43.317347" lon="11.5722955"><ele>205.0</ele><time>2026-05-03T07:01:45.763Z</time></trkpt><trkpt lat="43.3173242" lon="11.5722019"><ele>205.0</ele><time>2026-05-03T07:01:48.715Z</time></trkpt><trkpt lat="43.3172884" lon="11.5721097"><ele>205.0</ele><time>2026-05-03T07:01:51.756Z</time></trkpt><trkpt lat="43.3172506" lon="11.5720032"><ele>205.0</ele><time>2026-05-03T07:01:54.755Z</time></trkpt><trkpt lat="43.3172207" lon="11.5719252"><ele>205.0</ele><time>2026-05-03T07:01:56.752Z</time></trkpt><trkpt lat="43.3171916" lon="11.5718456"><ele>205.0</ele><time>2026-05-03T07:01:58.758Z</time></trkpt><trkpt lat="43.3171611" lon="11.5717611"><ele>205.0</ele><time>2026-05-03T07:02:00.764Z</time></trkpt><trkpt lat="43.3171274" lon="11.5716811"><ele>204.57142857142858</ele><time>2026-05-03T07:02:02.771Z</time></trkpt><trkpt lat="43.3170906" lon="11.5715952"><ele>204.14285714285714</ele><time>2026-05-03T07:02:04.775Z</time></trkpt><trkpt lat="43.3170528" lon="11.5715106"><ele>203.71428571428572</ele><time>2026-05-03T07:02:06.781Z</time></trkpt><trkpt lat="43.3170178" lon="11.571434"><ele>203.28571428571428</ele><time>2026-05-03T07:02:08.688Z</time></trkpt><trkpt lat="43.3169784" lon="11.5713523"><ele>202.85714285714283</ele><time>2026-05-03T07:02:10.816Z</time></trkpt><trkpt lat="43.3169446" lon="11.5712768"><ele>202.42857142857142</ele><time>2026-05-03T07:02:12.782Z</time></trkpt><trkpt lat="43.3169028" lon="11.5711724"><ele>202.0</ele><time>2026-05-03T07:02:15.762Z</time></trkpt><trkpt lat="43.3168615" lon="11.5710636"><ele>201.99999999999997</ele><time>2026-05-03T07:02:18.711Z</time></trkpt><trkpt lat="43.3168129" lon="11.5709603"><ele>202.0</ele><time>2026-05-03T07:02:21.745Z</time></trkpt><trkpt lat="43.3167651" lon="11.5708611"><ele>202.0</ele><time>2026-05-03T07:02:24.771Z</time></trkpt><trkpt lat="43.3167219" lon="11.5707652"><ele>202.0</ele><time>2026-05-03T07:02:27.711Z</time></trkpt><trkpt lat="43.3166825" lon="11.5706575"><ele>201.99999999999997</ele><time>2026-05-03T07:02:30.759Z</time></trkpt><trkpt lat="43.3166408" lon="11.5705578"><ele>202.0</ele><time>2026-05-03T07:02:33.823Z</time></trkpt><trkpt lat="43.3165913" lon="11.5704702"><ele>201.99999999999997</ele><time>2026-05-03T07:02:36.762Z</time></trkpt><trkpt lat="43.3165304" lon="11.5703998"><ele>202.0</ele><time>2026-05-03T07:02:39.778Z</time></trkpt><trkpt lat="43.3164699" lon="11.5703338"><ele>202.0</ele><time>2026-05-03T07:02:42.75Z</time></trkpt><trkpt lat="43.3164044" lon="11.570246"><ele>202.0</ele><time>2026-05-03T07:02:45.752Z</time></trkpt><trkpt lat="43.3163377" lon="11.5701653"><ele>201.99999999999997</ele><time>2026-05-03T07:02:48.736Z</time></trkpt><trkpt lat="43.316289" lon="11.5701091"><ele>202.0</ele><time>2026-05-03T07:02:50.774Z</time></trkpt><trkpt lat="43.3162297" lon="11.5700255"><ele>201.99999999999997</ele><time>2026-05-03T07:02:53.78Z</time></trkpt><trkpt lat="43.316165" lon="11.5699543"><ele>202.0</ele><time>2026-05-03T07:02:56.773Z</time></trkpt><trkpt lat="43.3160923" lon="11.5698833"><ele>202.0</ele><time>2026-05-03T07:02:59.79Z</time></trkpt><trkpt lat="43.3160224" lon="11.5698132"><ele>202.0</ele><time>2026-05-03T07:03:02.733Z</time></trkpt><trkpt lat="43.3159593" lon="11.5697448"><ele>201.99999999999997</ele><time>2026-05-03T07:03:05.769Z</time></trkpt><trkpt lat="43.3158976" lon="11.5696862"><ele>202.0</ele><time>2026-05-03T07:03:08.778Z</time></trkpt><trkpt lat="43.3158339" lon="11.5696326"><ele>202.0</ele><time>2026-05-03T07:03:11.736Z</time></trkpt><trkpt lat="43.3157798" lon="11.5695763"><ele>202.0</ele><time>2026-05-03T07:03:14.765Z</time></trkpt><trkpt lat="43.3157216" lon="11.5695283"><ele>202.0</ele><time>2026-05-03T07:03:17.783Z</time></trkpt><trkpt lat="43.3156612" lon="11.5694851"><ele>202.0</ele><time>2026-05-03T07:03:20.793Z</time></trkpt><trkpt lat="43.3156043" lon="11.5694405"><ele>202.0</ele><time>2026-05-03T07:03:23.768Z</time></trkpt><trkpt lat="43.3155319" lon="11.5693955"><ele>202.0</ele><time>2026-05-03T07:03:26.754Z</time></trkpt><trkpt lat="43.3154656" lon="11.5693548"><ele>202.0</ele><time>2026-05-03T07:03:29.779Z</time></trkpt><trkpt lat="43.315394" lon="11.5693161"><ele>202.71428571428572</ele><time>2026-05-03T07:03:32.83Z</time></trkpt><trkpt lat="43.3153306" lon="11.5692784"><ele>203.42857142857142</ele><time>2026-05-03T07:03:36.777Z</time></trkpt><trkpt lat="43.3152696" lon="11.5692362"><ele>204.14285714285717</ele><time>2026-05-03T07:03:39.73Z</time></trkpt><trkpt lat="43.3151954" lon="11.5691924"><ele>204.85714285714286</ele><time>2026-05-03T07:03:42.759Z</time></trkpt><trkpt lat="43.3151236" lon="11.5691465"><ele>205.57142857142858</ele><time>2026-05-03T07:03:45.763Z</time></trkpt><trkpt lat="43.3150583" lon="11.5691075"><ele>206.2857142857143</ele><time>2026-05-03T07:03:48.751Z</time></trkpt><trkpt lat="43.314993" lon="11.5690806"><ele>207.0</ele><time>2026-05-03T07:03:51.767Z</time></trkpt><trkpt lat="43.3149255" lon="11.5690554"><ele>207.00000000000003</ele><time>2026-05-03T07:03:54.762Z</time></trkpt><trkpt lat="43.3148511" lon="11.5690541"><ele>207.0</ele><time>2026-05-03T07:03:57.766Z</time></trkpt><trkpt lat="43.3147777" lon="11.5690668"><ele>207.0</ele><time>2026-05-03T07:04:00.775Z</time></trkpt><trkpt lat="43.3147132" lon="11.569085"><ele>207.0</ele><time>2026-05-03T07:04:03.772Z</time></trkpt><trkpt lat="43.3146521" lon="11.5691227"><ele>207.0</ele><time>2026-05-03T07:04:06.839Z</time></trkpt><trkpt lat="43.3145843" lon="11.5691652"><ele>207.00000000000003</ele><time>2026-05-03T07:04:10.795Z</time></trkpt><trkpt lat="43.3145132" lon="11.569199"><ele>207.0</ele><time>2026-05-03T07:04:14.755Z</time></trkpt><trkpt lat="43.3144468" lon="11.5692238"><ele>208.14285714285717</ele><time>2026-05-03T07:04:17.749Z</time></trkpt><trkpt lat="43.3143837" lon="11.5692261"><ele>209.28571428571428</ele><time>2026-05-03T07:04:20.771Z</time></trkpt><trkpt lat="43.31432" lon="11.5692299"><ele>210.42857142857144</ele><time>2026-05-03T07:04:23.673Z</time></trkpt><trkpt lat="43.3142521" lon="11.569224"><ele>211.57142857142858</ele><time>2026-05-03T07:04:26.786Z</time></trkpt><trkpt lat="43.3141755" lon="11.5692259"><ele>212.71428571428572</ele><time>2026-05-03T07:04:29.827Z</time></trkpt><trkpt lat="43.3140972" lon="11.5692176"><ele>213.85714285714286</ele><time>2026-05-03T07:04:32.688Z</time></trkpt><trkpt lat="43.3140098" lon="11.5692133"><ele>215.0</ele><time>2026-05-03T07:04:35.776Z</time></trkpt><trkpt lat="43.3139328" lon="11.5692105"><ele>216.00000000000003</ele><time>2026-05-03T07:04:38.799Z</time></trkpt><trkpt lat="43.3138549" lon="11.5692151"><ele>217.0</ele><time>2026-05-03T07:04:41.743Z</time></trkpt><trkpt lat="43.3137801" lon="11.5692017"><ele>218.0</ele><time>2026-05-03T07:04:44.799Z</time></trkpt><trkpt lat="43.3137085" lon="11.5691936"><ele>219.0</ele><time>2026-05-03T07:04:47.751Z</time></trkpt><trkpt lat="43.31364" lon="11.5691797"><ele>220.00000000000003</ele><time>2026-05-03T07:04:50.761Z</time></trkpt><trkpt lat="43.3135617" lon="11.5691709"><ele>221.0</ele><time>2026-05-03T07:04:53.772Z</time></trkpt><trkpt lat="43.3134816" lon="11.5691662"><ele>221.00000000000003</ele><time>2026-05-03T07:04:56.715Z</time></trkpt><trkpt lat="43.3134049" lon="11.5691549"><ele>221.0</ele><time>2026-05-03T07:04:59.758Z</time></trkpt><trkpt lat="43.3133421" lon="11.5691392"><ele>221.0</ele><time>2026-05-03T07:05:02.754Z</time></trkpt><trkpt lat="43.313262" lon="11.5691158"><ele>221.0</ele><time>2026-05-03T07:05:06.746Z</time></trkpt><trkpt lat="43.3131986" lon="11.5691024"><ele>221.0</ele><time>2026-05-03T07:05:09.75Z</time></trkpt><trkpt lat="43.3131315" lon="11.5690922"><ele>221.00000000000003</ele><time>2026-05-03T07:05:12.778Z</time></trkpt><trkpt lat="43.313068" lon="11.5690746"><ele>221.0</ele><time>2026-05-03T07:05:15.764Z</time></trkpt><trkpt lat="43.3129926" lon="11.5690371"><ele>223.33333333333334</ele><time>2026-05-03T07:05:19.775Z</time></trkpt><trkpt lat="43.3129201" lon="11.5689844"><ele>225.66666666666669</ele><time>2026-05-03T07:05:23.778Z</time></trkpt><trkpt lat="43.3128382" lon="11.5689597"><ele>228.0</ele><time>2026-05-03T07:05:27.762Z</time></trkpt><trkpt lat="43.3127628" lon="11.5689363"><ele>230.33333333333331</ele><time>2026-05-03T07:05:30.757Z</time></trkpt><trkpt lat="43.3126858" lon="11.5688953"><ele>232.66666666666666</ele><time>2026-05-03T07:05:33.778Z</time></trkpt><trkpt lat="43.3126129" lon="11.5688442"><ele>235.0</ele><time>2026-05-03T07:05:36.768Z</time></trkpt><trkpt lat="43.3125451" lon="11.5688016"><ele>235.0</ele><time>2026-05-03T07:05:39.762Z</time></trkpt><trkpt lat="43.3124872" lon="11.5687563"><ele>234.99999999999997</ele><time>2026-05-03T07:05:42.733Z</time></trkpt><trkpt lat="43.3124357" lon="11.5686945"><ele>235.0</ele><time>2026-05-03T07:05:45.778Z</time></trkpt><trkpt lat="43.3123802" lon="11.568652"><ele>235.0</ele><time>2026-05-03T07:05:48.781Z</time></trkpt><trkpt lat="43.3123231" lon="11.5686024"><ele>234.99999999999997</ele><time>2026-05-03T07:05:51.76Z</time></trkpt><trkpt lat="43.3122687" lon="11.5685583"><ele>235.0</ele><time>2026-05-03T07:05:54.749Z</time></trkpt><trkpt lat="43.3122108" lon="11.568516"><ele>235.0</ele><time>2026-05-03T07:05:57.762Z</time></trkpt><trkpt lat="43.3121526" lon="11.5684668"><ele>236.57142857142856</ele><time>2026-05-03T07:06:00.77Z</time></trkpt><trkpt lat="43.3120892" lon="11.5684005"><ele>238.1428571428571</ele><time>2026-05-03T07:06:04.769Z</time></trkpt><trkpt lat="43.3120318" lon="11.5683267"><ele>239.71428571428572</ele><time>2026-05-03T07:06:08.801Z</time></trkpt><trkpt lat="43.3119686" lon="11.56826"><ele>241.28571428571428</ele><time>2026-05-03T07:06:12.775Z</time></trkpt><trkpt lat="43.3119122" lon="11.5682064"><ele>242.85714285714286</ele><time>2026-05-03T07:06:15.774Z</time></trkpt><trkpt lat="43.311855" lon="11.5681604"><ele>244.42857142857144</ele><time>2026-05-03T07:06:18.768Z</time></trkpt><trkpt lat="43.3118001" lon="11.5681169"><ele>246.00000000000003</ele><time>2026-05-03T07:06:21.714Z</time></trkpt><trkpt lat="43.3117299" lon="11.5680627"><ele>246.00000000000003</ele><time>2026-05-03T07:06:25.734Z</time></trkpt><trkpt lat="43.3116695" lon="11.5680126"><ele>246.0</ele><time>2026-05-03T07:06:29.739Z</time></trkpt><trkpt lat="43.3115982" lon="11.567969"><ele>246.00000000000003</ele><time>2026-05-03T07:06:33.775Z</time></trkpt><trkpt lat="43.3115387" lon="11.5679377"><ele>246.00000000000003</ele><time>2026-05-03T07:06:36.726Z</time></trkpt><trkpt lat="43.3114758" lon="11.5679164"><ele>246.0</ele><time>2026-05-03T07:06:39.733Z</time></trkpt><trkpt lat="43.3114114" lon="11.5679057"><ele>246.00000000000003</ele><time>2026-05-03T07:06:42.739Z</time></trkpt><trkpt lat="43.3113467" lon="11.5678959"><ele>246.00000000000003</ele><time>2026-05-03T07:06:45.776Z</time></trkpt><trkpt lat="43.3112655" lon="11.5679021"><ele>247.83333333333334</ele><time>2026-05-03T07:06:49.759Z</time></trkpt><trkpt lat="43.3111842" lon="11.5679118"><ele>249.66666666666669</ele><time>2026-05-03T07:06:53.772Z</time></trkpt><trkpt lat="43.3111037" lon="11.5679111"><ele>251.5</ele><time>2026-05-03T07:06:57.763Z</time></trkpt><trkpt lat="43.3110311" lon="11.5678804"><ele>253.33333333333334</ele><time>2026-05-03T07:07:01.773Z</time></trkpt><trkpt lat="43.3109717" lon="11.567814"><ele>255.16666666666669</ele><time>2026-05-03T07:07:05.802Z</time></trkpt><trkpt lat="43.3109228" lon="11.5677388"><ele>257.0</ele><time>2026-05-03T07:07:09.765Z</time></trkpt><trkpt lat="43.3108798" lon="11.5676754"><ele>257.0</ele><time>2026-05-03T07:07:12.766Z</time></trkpt><trkpt lat="43.3108246" lon="11.5676075"><ele>257.0</ele><time>2026-05-03T07:07:16.767Z</time></trkpt><trkpt lat="43.3107663" lon="11.5675671"><ele>257.0</ele><time>2026-05-03T07:07:20.774Z</time></trkpt><trkpt lat="43.3107012" lon="11.5675305"><ele>257.0</ele><time>2026-05-03T07:07:24.744Z</time></trkpt><trkpt lat="43.3106332" lon="11.5675137"><ele>257.0</ele><time>2026-05-03T07:07:29.78Z</time></trkpt><trkpt lat="43.3105666" lon="11.5675027"><ele>257.0</ele><time>2026-05-03T07:07:34.798Z</time></trkpt><trkpt lat="43.3104961" lon="11.5674727"><ele>257.0</ele><time>2026-05-03T07:07:38.752Z</time></trkpt><trkpt lat="43.3104289" lon="11.5673966"><ele>258.85714285714283</ele><time>2026-05-03T07:07:42.745Z</time></trkpt><trkpt lat="43.3103664" lon="11.5673517"><ele>260.7142857142857</ele><time>2026-05-03T07:07:45.75Z</time></trkpt><trkpt lat="43.3102905" lon="11.567309"><ele>262.57142857142856</ele><time>2026-05-03T07:07:49.764Z</time></trkpt><trkpt lat="43.3102335" lon="11.5672649"><ele>264.42857142857144</ele><time>2026-05-03T07:07:52.768Z</time></trkpt><trkpt lat="43.3101768" lon="11.5672192"><ele>266.2857142857143</ele><time>2026-05-03T07:07:55.753Z</time></trkpt><trkpt lat="43.3101261" lon="11.5671671"><ele>268.1428571428571</ele><time>2026-05-03T07:07:58.79Z</time></trkpt><trkpt lat="43.3100888" lon="11.5670796"><ele>270.0</ele><time>2026-05-03T07:08:02.767Z</time></trkpt><trkpt lat="43.3100874" lon="11.5669746"><ele>270.0</ele><time>2026-05-03T07:08:06.79Z</time></trkpt><trkpt lat="43.3100813" lon="11.566888"><ele>270.0</ele><time>2026-05-03T07:08:10.745Z</time></trkpt><trkpt lat="43.3100811" lon="11.5667942"><ele>270.0</ele><time>2026-05-03T07:08:14.714Z</time></trkpt><trkpt lat="43.31008" lon="11.5667004"><ele>270.0</ele><time>2026-05-03T07:08:18.768Z</time></trkpt><trkpt lat="43.3100711" lon="11.5666073"><ele>270.0</ele><time>2026-05-03T07:08:23.742Z</time></trkpt><trkpt lat="43.3100346" lon="11.5665273"><ele>270.0</ele><time>2026-05-03T07:08:27.714Z</time></trkpt><trkpt lat="43.3099922" lon="11.5664511"><ele>270.0</ele><time>2026-05-03T07:08:31.715Z</time></trkpt><trkpt lat="43.3099529" lon="11.5663755"><ele>270.0</ele><time>2026-05-03T07:08:35.738Z</time></trkpt><trkpt lat="43.309913" lon="11.5662867"><ele>270.0</ele><time>2026-05-03T07:08:39.763Z</time></trkpt><trkpt lat="43.3098829" lon="11.5661792"><ele>270.0</ele><time>2026-05-03T07:08:43.776Z</time></trkpt><trkpt lat="43.3098432" lon="11.5660781"><ele>270.0</ele><time>2026-05-03T07:08:47.786Z</time></trkpt><trkpt lat="43.3098084" lon="11.5660058"><ele>270.0</ele><time>2026-05-03T07:08:50.759Z</time></trkpt><trkpt lat="43.3097703" lon="11.565913"><ele>270.0</ele><time>2026-05-03T07:08:54.767Z</time></trkpt><trkpt lat="43.3097469" lon="11.5658133"><ele>271.1666666666667</ele><time>2026-05-03T07:08:58.782Z</time></trkpt><trkpt lat="43.3097373" lon="11.5657201"><ele>272.3333333333333</ele><time>2026-05-03T07:09:02.793Z</time></trkpt><trkpt lat="43.3097204" lon="11.5656106"><ele>273.5</ele><time>2026-05-03T07:09:06.774Z</time></trkpt><trkpt lat="43.3096873" lon="11.5655307"><ele>274.66666666666663</ele><time>2026-05-03T07:09:09.772Z</time></trkpt><trkpt lat="43.3096373" lon="11.5654627"><ele>275.8333333333333</ele><time>2026-05-03T07:09:12.686Z</time></trkpt><trkpt lat="43.3095574" lon="11.5654088"><ele>277.0</ele><time>2026-05-03T07:09:15.784Z</time></trkpt><trkpt lat="43.3094776" lon="11.5653811"><ele>276.8333333333333</ele><time>2026-05-03T07:09:18.773Z</time></trkpt><trkpt lat="43.3093994" lon="11.5653532"><ele>276.66666666666663</ele><time>2026-05-03T07:09:21.773Z</time></trkpt><trkpt lat="43.3093209" lon="11.5653382"><ele>276.5</ele><time>2026-05-03T07:09:24.76Z</time></trkpt><trkpt lat="43.3092474" lon="11.5653319"><ele>276.3333333333333</ele><time>2026-05-03T07:09:27.762Z</time></trkpt><trkpt lat="43.3091708" lon="11.5653259"><ele>276.1666666666667</ele><time>2026-05-03T07:09:30.805Z</time></trkpt><trkpt lat="43.3090959" lon="11.5653286"><ele>276.0</ele><time>2026-05-03T07:09:33.791Z</time></trkpt><trkpt lat="43.3090203" lon="11.5653237"><ele>276.0</ele><time>2026-05-03T07:09:36.769Z</time></trkpt><trkpt lat="43.3089412" lon="11.5653017"><ele>276.0</ele><time>2026-05-03T07:09:39.786Z</time></trkpt><trkpt lat="43.3088611" lon="11.5652616"><ele>276.0</ele><time>2026-05-03T07:09:42.768Z</time></trkpt><trkpt lat="43.3087877" lon="11.5652026"><ele>276.0</ele><time>2026-05-03T07:09:45.754Z</time></trkpt><trkpt lat="43.3087262" lon="11.5651195"><ele>276.0</ele><time>2026-05-03T07:09:48.787Z</time></trkpt><trkpt lat="43.3086855" lon="11.565026"><ele>276.0</ele><time>2026-05-03T07:09:51.675Z</time></trkpt><trkpt lat="43.3086552" lon="11.5649214"><ele>275.5</ele><time>2026-05-03T07:09:54.77Z</time></trkpt><trkpt lat="43.3086201" lon="11.5648264"><ele>275.0</ele><time>2026-05-03T07:09:57.777Z</time></trkpt><trkpt lat="43.308575" lon="11.5647411"><ele>274.5</ele><time>2026-05-03T07:10:00.736Z</time></trkpt><trkpt lat="43.3085384" lon="11.5646422"><ele>274.0</ele><time>2026-05-03T07:10:03.775Z</time></trkpt><trkpt lat="43.3085048" lon="11.5645398"><ele>273.5</ele><time>2026-05-03T07:10:06.768Z</time></trkpt><trkpt lat="43.3084765" lon="11.5644373"><ele>273.0</ele><time>2026-05-03T07:10:09.785Z</time></trkpt><trkpt lat="43.3084474" lon="11.5643378"><ele>273.0</ele><time>2026-05-03T07:10:12.718Z</time></trkpt><trkpt lat="43.3084097" lon="11.5642285"><ele>273.0</ele><time>2026-05-03T07:10:15.783Z</time></trkpt><trkpt lat="43.308373" lon="11.5641277"><ele>273.0</ele><time>2026-05-03T07:10:18.769Z</time></trkpt><trkpt lat="43.3083359" lon="11.5640256"><ele>273.0</ele><time>2026-05-03T07:10:21.781Z</time></trkpt><trkpt lat="43.3082992" lon="11.5639242"><ele>273.0</ele><time>2026-05-03T07:10:24.779Z</time></trkpt><trkpt lat="43.3082615" lon="11.563831"><ele>273.0</ele><time>2026-05-03T07:10:27.753Z</time></trkpt><trkpt lat="43.3082251" lon="11.5637428"><ele>273.3333333333333</ele><time>2026-05-03T07:10:30.78Z</time></trkpt><trkpt lat="43.3081813" lon="11.5636616"><ele>273.6666666666667</ele><time>2026-05-03T07:10:33.798Z</time></trkpt><trkpt lat="43.3081305" lon="11.5636023"><ele>274.0</ele><time>2026-05-03T07:10:36.752Z</time></trkpt><trkpt lat="43.3080686" lon="11.5635434"><ele>274.33333333333337</ele><time>2026-05-03T07:10:39.814Z</time></trkpt><trkpt lat="43.3079976" lon="11.5634842"><ele>274.6666666666667</ele><time>2026-05-03T07:10:42.776Z</time></trkpt><trkpt lat="43.3079243" lon="11.5634094"><ele>275.0</ele><time>2026-05-03T07:10:45.677Z</time></trkpt><trkpt lat="43.3078722" lon="11.5633604"><ele>275.0</ele><time>2026-05-03T07:10:47.781Z</time></trkpt><trkpt lat="43.3078032" lon="11.5632987"><ele>275.0</ele><time>2026-05-03T07:10:50.747Z</time></trkpt><trkpt lat="43.3077301" lon="11.563226"><ele>275.0</ele><time>2026-05-03T07:10:53.75Z</time></trkpt><trkpt lat="43.307651" lon="11.5631565"><ele>275.0</ele><time>2026-05-03T07:10:56.777Z</time></trkpt><trkpt lat="43.3075773" lon="11.5630952"><ele>275.0</ele><time>2026-05-03T07:10:59.755Z</time></trkpt><trkpt lat="43.307509" lon="11.5630303"><ele>275.0</ele><time>2026-05-03T07:11:02.789Z</time></trkpt><trkpt lat="43.3074445" lon="11.5629716"><ele>275.0</ele><time>2026-05-03T07:11:05.693Z</time></trkpt><trkpt lat="43.3073705" lon="11.5629111"><ele>275.0</ele><time>2026-05-03T07:11:08.766Z</time></trkpt><trkpt lat="43.3072996" lon="11.5628483"><ele>275.0</ele><time>2026-05-03T07:11:11.766Z</time></trkpt><trkpt lat="43.3072322" lon="11.5627855"><ele>275.0</ele><time>2026-05-03T07:11:14.761Z</time></trkpt><trkpt lat="43.3071697" lon="11.5627224"><ele>275.0</ele><time>2026-05-03T07:11:17.769Z</time></trkpt><trkpt lat="43.3071049" lon="11.5626646"><ele>275.0</ele><time>2026-05-03T07:11:20.75Z</time></trkpt><trkpt lat="43.3070304" lon="11.5626137"><ele>275.83333333333337</ele><time>2026-05-03T07:11:23.781Z</time></trkpt><trkpt lat="43.3069529" lon="11.5625855"><ele>276.6666666666667</ele><time>2026-05-03T07:11:26.837Z</time></trkpt><trkpt lat="43.3068706" lon="11.5625784"><ele>277.5</ele><time>2026-05-03T07:11:29.731Z</time></trkpt><trkpt lat="43.3067772" lon="11.562571"><ele>278.3333333333333</ele><time>2026-05-03T07:11:32.772Z</time></trkpt><trkpt lat="43.3066868" lon="11.5625647"><ele>279.16666666666663</ele><time>2026-05-03T07:11:35.726Z</time></trkpt><trkpt lat="43.306595" lon="11.5625608"><ele>280.0</ele><time>2026-05-03T07:11:38.77Z</time></trkpt><trkpt lat="43.3065018" lon="11.5625674"><ele>280.3333333333333</ele><time>2026-05-03T07:11:41.792Z</time></trkpt><trkpt lat="43.3064087" lon="11.5625805"><ele>280.66666666666663</ele><time>2026-05-03T07:11:44.785Z</time></trkpt><trkpt lat="43.3063192" lon="11.5625817"><ele>281.0</ele><time>2026-05-03T07:11:47.804Z</time></trkpt><trkpt lat="43.3062313" lon="11.5625847"><ele>281.3333333333333</ele><time>2026-05-03T07:11:50.655Z</time></trkpt><trkpt lat="43.3061683" lon="11.5625896"><ele>281.6666666666667</ele><time>2026-05-03T07:11:52.746Z</time></trkpt><trkpt lat="43.3060814" lon="11.5625907"><ele>282.0</ele><time>2026-05-03T07:11:55.774Z</time></trkpt><trkpt lat="43.3060061" lon="11.5625846"><ele>282.0</ele><time>2026-05-03T07:11:58.78Z</time></trkpt><trkpt lat="43.3059339" lon="11.5625692"><ele>282.0</ele><time>2026-05-03T07:12:01.672Z</time></trkpt><trkpt lat="43.3058724" lon="11.562521"><ele>282.0</ele><time>2026-05-03T07:12:04.785Z</time></trkpt><trkpt lat="43.3058204" lon="11.5624687"><ele>282.0</ele><time>2026-05-03T07:12:07.785Z</time></trkpt><trkpt lat="43.3057584" lon="11.5624112"><ele>282.0</ele><time>2026-05-03T07:12:10.68Z</time></trkpt><trkpt lat="43.3056904" lon="11.5623391"><ele>282.0</ele><time>2026-05-03T07:12:13.78Z</time></trkpt><trkpt lat="43.3056343" lon="11.5622599"><ele>282.0</ele><time>2026-05-03T07:12:16.761Z</time></trkpt><trkpt lat="43.3055779" lon="11.5621675"><ele>282.0</ele><time>2026-05-03T07:12:19.791Z</time></trkpt><trkpt lat="43.3055182" lon="11.5620751"><ele>282.0</ele><time>2026-05-03T07:12:22.755Z</time></trkpt><trkpt lat="43.3054655" lon="11.5619788"><ele>282.0</ele><time>2026-05-03T07:12:25.755Z</time></trkpt><trkpt lat="43.305422" lon="11.5618892"><ele>282.0</ele><time>2026-05-03T07:12:28.787Z</time></trkpt><trkpt lat="43.3053892" lon="11.5617958"><ele>282.0</ele><time>2026-05-03T07:12:31.79Z</time></trkpt><trkpt lat="43.3053665" lon="11.5617026"><ele>282.0</ele><time>2026-05-03T07:12:34.709Z</time></trkpt><trkpt lat="43.3053452" lon="11.5616043"><ele>282.0</ele><time>2026-05-03T07:12:37.756Z</time></trkpt><trkpt lat="43.3053236" lon="11.5614944"><ele>282.0</ele><time>2026-05-03T07:12:40.797Z</time></trkpt><trkpt lat="43.3053109" lon="11.5613913"><ele>282.0</ele><time>2026-05-03T07:12:43.75Z</time></trkpt><trkpt lat="43.3052905" lon="11.5612831"><ele>282.0</ele><time>2026-05-03T07:12:46.774Z</time></trkpt><trkpt lat="43.3052545" lon="11.5611789"><ele>282.0</ele><time>2026-05-03T07:12:49.762Z</time></trkpt><trkpt lat="43.3052077" lon="11.5610832"><ele>282.0</ele><time>2026-05-03T07:12:52.691Z</time></trkpt><trkpt lat="43.3051606" lon="11.5610099"><ele>282.0</ele><time>2026-05-03T07:12:54.838Z</time></trkpt><trkpt lat="43.3051173" lon="11.5609443"><ele>282.0</ele><time>2026-05-03T07:12:56.741Z</time></trkpt><trkpt lat="43.3050527" lon="11.560867"><ele>282.0</ele><time>2026-05-03T07:12:59.775Z</time></trkpt><trkpt lat="43.3050015" lon="11.5608151"><ele>282.0</ele><time>2026-05-03T07:13:01.761Z</time></trkpt><trkpt lat="43.3049209" lon="11.5607496"><ele>282.0</ele><time>2026-05-03T07:13:04.766Z</time></trkpt><trkpt lat="43.304851" lon="11.5607022"><ele>282.0</ele><time>2026-05-03T07:13:07.691Z</time></trkpt><trkpt lat="43.3047808" lon="11.560642"><ele>282.0</ele><time>2026-05-03T07:13:10.759Z</time></trkpt><trkpt lat="43.3047237" lon="11.5606047"><ele>282.0</ele><time>2026-05-03T07:13:12.753Z</time></trkpt><trkpt lat="43.3046446" lon="11.5605419"><ele>282.0</ele><time>2026-05-03T07:13:15.779Z</time></trkpt><trkpt lat="43.30458" lon="11.5604772"><ele>282.0</ele><time>2026-05-03T07:13:18.735Z</time></trkpt><trkpt lat="43.3045034" lon="11.5604165"><ele>282.0</ele><time>2026-05-03T07:13:21.768Z</time></trkpt><trkpt lat="43.3044215" lon="11.5603592"><ele>282.0</ele><time>2026-05-03T07:13:24.742Z</time></trkpt><trkpt lat="43.304352" lon="11.5602909"><ele>282.0</ele><time>2026-05-03T07:13:27.765Z</time></trkpt><trkpt lat="43.3042836" lon="11.5602219"><ele>282.0</ele><time>2026-05-03T07:13:30.772Z</time></trkpt><trkpt lat="43.3042166" lon="11.5601636"><ele>282.0</ele><time>2026-05-03T07:13:33.753Z</time></trkpt><trkpt lat="43.3041468" lon="11.5601123"><ele>282.0</ele><time>2026-05-03T07:13:36.776Z</time></trkpt><trkpt lat="43.3040759" lon="11.5600566"><ele>282.0</ele><time>2026-05-03T07:13:39.776Z</time></trkpt><trkpt lat="43.3040042" lon="11.5599941"><ele>282.0</ele><time>2026-05-03T07:13:42.795Z</time></trkpt><trkpt lat="43.3039352" lon="11.5599308"><ele>280.3333333333333</ele><time>2026-05-03T07:13:45.732Z</time></trkpt><trkpt lat="43.303865" lon="11.5598583"><ele>278.6666666666667</ele><time>2026-05-03T07:13:48.773Z</time></trkpt><trkpt lat="43.3038047" lon="11.5597831"><ele>277.0</ele><time>2026-05-03T07:13:51.746Z</time></trkpt><trkpt lat="43.303762" lon="11.559693"><ele>275.33333333333337</ele><time>2026-05-03T07:13:54.694Z</time></trkpt><trkpt lat="43.3037327" lon="11.5595869"><ele>273.6666666666667</ele><time>2026-05-03T07:13:57.731Z</time></trkpt><trkpt lat="43.3037099" lon="11.5594802"><ele>272.0</ele><time>2026-05-03T07:14:00.753Z</time></trkpt><trkpt lat="43.3036894" lon="11.5593709"><ele>272.0</ele><time>2026-05-03T07:14:03.765Z</time></trkpt><trkpt lat="43.3036646" lon="11.5592581"><ele>272.0</ele><time>2026-05-03T07:14:06.776Z</time></trkpt><trkpt lat="43.3036395" lon="11.5591394"><ele>272.0</ele><time>2026-05-03T07:14:09.754Z</time></trkpt><trkpt lat="43.3036204" lon="11.5590498"><ele>272.0</ele><time>2026-05-03T07:14:11.747Z</time></trkpt><trkpt lat="43.3035927" lon="11.5589331"><ele>272.0</ele><time>2026-05-03T07:14:14.77Z</time></trkpt><trkpt lat="43.3035694" lon="11.5588194"><ele>272.0</ele><time>2026-05-03T07:14:17.743Z</time></trkpt><trkpt lat="43.3035511" lon="11.5586977"><ele>272.5</ele><time>2026-05-03T07:14:20.808Z</time></trkpt><trkpt lat="43.303533" lon="11.5585873"><ele>273.0</ele><time>2026-05-03T07:14:23.783Z</time></trkpt><trkpt lat="43.3035125" lon="11.5584723"><ele>273.5</ele><time>2026-05-03T07:14:26.716Z</time></trkpt><trkpt lat="43.3035028" lon="11.5583812"><ele>274.0</ele><time>2026-05-03T07:14:28.745Z</time></trkpt><trkpt lat="43.3034812" lon="11.5582578"><ele>274.5</ele><time>2026-05-03T07:14:31.772Z</time></trkpt><trkpt lat="43.3034565" lon="11.5581329"><ele>275.0</ele><time>2026-05-03T07:14:34.789Z</time></trkpt><trkpt lat="43.303429" lon="11.5580332"><ele>275.0</ele><time>2026-05-03T07:14:37.349Z</time></trkpt><trkpt lat="43.3034095" lon="11.5579381"><ele>275.0</ele><time>2026-05-03T07:14:39.794Z</time></trkpt><trkpt lat="43.303389" lon="11.5578153"><ele>275.0</ele><time>2026-05-03T07:14:42.772Z</time></trkpt><trkpt lat="43.3033695" lon="11.5576985"><ele>275.0</ele><time>2026-05-03T07:14:45.715Z</time></trkpt><trkpt lat="43.3033584" lon="11.5576117"><ele>275.0</ele><time>2026-05-03T07:14:47.769Z</time></trkpt><trkpt lat="43.3033419" lon="11.5574954"><ele>275.0</ele><time>2026-05-03T07:14:50.789Z</time></trkpt><trkpt lat="43.3033189" lon="11.557388"><ele>275.6666666666667</ele><time>2026-05-03T07:14:53.735Z</time></trkpt><trkpt lat="43.3032943" lon="11.5573078"><ele>276.33333333333337</ele><time>2026-05-03T07:14:55.776Z</time></trkpt><trkpt lat="43.3032425" lon="11.5571991"><ele>277.0</ele><time>2026-05-03T07:14:58.79Z</time></trkpt><trkpt lat="43.3031764" lon="11.5571191"><ele>277.6666666666667</ele><time>2026-05-03T07:15:01.755Z</time></trkpt><trkpt lat="43.3031024" lon="11.5570602"><ele>278.3333333333333</ele><time>2026-05-03T07:15:04.792Z</time></trkpt><trkpt lat="43.3030151" lon="11.5570124"><ele>279.0</ele><time>2026-05-03T07:15:07.789Z</time></trkpt><trkpt lat="43.3029514" lon="11.5569989"><ele>277.5</ele><time>2026-05-03T07:15:09.81Z</time></trkpt><trkpt lat="43.3028624" lon="11.5569861"><ele>276.0</ele><time>2026-05-03T07:15:12.792Z</time></trkpt><trkpt lat="43.3027715" lon="11.5569828"><ele>274.5</ele><time>2026-05-03T07:15:15.781Z</time></trkpt><trkpt lat="43.3026882" lon="11.5570006"><ele>273.0</ele><time>2026-05-03T07:15:18.755Z</time></trkpt><trkpt lat="43.3026066" lon="11.5570268"><ele>271.5</ele><time>2026-05-03T07:15:21.803Z</time></trkpt><trkpt lat="43.3025267" lon="11.5570328"><ele>270.0</ele><time>2026-05-03T07:15:24.808Z</time></trkpt><trkpt lat="43.3024493" lon="11.5570379"><ele>269.8333333333333</ele><time>2026-05-03T07:15:27.776Z</time></trkpt><trkpt lat="43.3023704" lon="11.5570378"><ele>269.6666666666667</ele><time>2026-05-03T07:15:30.779Z</time></trkpt><trkpt lat="43.3022864" lon="11.5570471"><ele>269.5</ele><time>2026-05-03T07:15:33.764Z</time></trkpt><trkpt lat="43.3021989" lon="11.5570587"><ele>269.33333333333337</ele><time>2026-05-03T07:15:36.707Z</time></trkpt><trkpt lat="43.3021334" lon="11.5570581"><ele>269.1666666666667</ele><time>2026-05-03T07:15:38.858Z</time></trkpt><trkpt lat="43.3020494" lon="11.5570398"><ele>269.0</ele><time>2026-05-03T07:15:41.773Z</time></trkpt><trkpt lat="43.3019714" lon="11.5570237"><ele>270.5</ele><time>2026-05-03T07:15:44.784Z</time></trkpt><trkpt lat="43.3018922" lon="11.5569732"><ele>272.0</ele><time>2026-05-03T07:15:47.79Z</time></trkpt><trkpt lat="43.3018159" lon="11.5569183"><ele>273.5</ele><time>2026-05-03T07:15:50.694Z</time></trkpt><trkpt lat="43.3017603" lon="11.556873"><ele>275.0</ele><time>2026-05-03T07:15:52.789Z</time></trkpt><trkpt lat="43.3016794" lon="11.5568156"><ele>276.5</ele><time>2026-05-03T07:15:55.807Z</time></trkpt><trkpt lat="43.3016183" lon="11.5567891"><ele>278.0</ele><time>2026-05-03T07:15:57.792Z</time></trkpt><trkpt lat="43.3015385" lon="11.556744"><ele>278.0</ele><time>2026-05-03T07:16:00.692Z</time></trkpt><trkpt lat="43.3014708" lon="11.5566801"><ele>278.0</ele><time>2026-05-03T07:16:03.778Z</time></trkpt><trkpt lat="43.3014168" lon="11.5566028"><ele>278.0</ele><time>2026-05-03T07:16:07.764Z</time></trkpt><trkpt lat="43.3013576" lon="11.5565483"><ele>278.0</ele><time>2026-05-03T07:16:12.768Z</time></trkpt><trkpt lat="43.3013069" lon="11.5564909"><ele>278.0</ele><time>2026-05-03T07:16:16.769Z</time></trkpt><trkpt lat="43.3012442" lon="11.5564281"><ele>278.0</ele><time>2026-05-03T07:16:20.771Z</time></trkpt><trkpt lat="43.3011968" lon="11.5563657"><ele>278.0</ele><time>2026-05-03T07:16:23.83Z</time></trkpt><trkpt lat="43.3011544" lon="11.5562768"><ele>278.83333333333337</ele><time>2026-05-03T07:16:26.759Z</time></trkpt><trkpt lat="43.3011027" lon="11.5561868"><ele>279.6666666666667</ele><time>2026-05-03T07:16:29.827Z</time></trkpt><trkpt lat="43.3010449" lon="11.5561054"><ele>280.5</ele><time>2026-05-03T07:16:32.806Z</time></trkpt><trkpt lat="43.3009899" lon="11.5560291"><ele>281.3333333333333</ele><time>2026-05-03T07:16:35.763Z</time></trkpt><trkpt lat="43.3009328" lon="11.5559484"><ele>282.16666666666663</ele><time>2026-05-03T07:16:38.776Z</time></trkpt><trkpt lat="43.3008617" lon="11.5558859"><ele>283.0</ele><time>2026-05-03T07:16:41.809Z</time></trkpt><trkpt lat="43.3007829" lon="11.5558303"><ele>283.0</ele><time>2026-05-03T07:16:44.692Z</time></trkpt><trkpt lat="43.3007214" lon="11.5557932"><ele>283.0</ele><time>2026-05-03T07:16:46.769Z</time></trkpt><trkpt lat="43.3006486" lon="11.5557487"><ele>283.0</ele><time>2026-05-03T07:16:49.717Z</time></trkpt><trkpt lat="43.3005796" lon="11.5557007"><ele>283.0</ele><time>2026-05-03T07:16:52.781Z</time></trkpt><trkpt lat="43.3005093" lon="11.5556371"><ele>283.0</ele><time>2026-05-03T07:16:55.78Z</time></trkpt><trkpt lat="43.3004348" lon="11.5555686"><ele>283.0</ele><time>2026-05-03T07:16:58.776Z</time></trkpt><trkpt lat="43.3003622" lon="11.5554984"><ele>283.5</ele><time>2026-05-03T07:17:01.764Z</time></trkpt><trkpt lat="43.3002956" lon="11.5554361"><ele>284.0</ele><time>2026-05-03T07:17:04.785Z</time></trkpt><trkpt lat="43.3002269" lon="11.5553713"><ele>284.5</ele><time>2026-05-03T07:17:07.784Z</time></trkpt><trkpt lat="43.3001564" lon="11.5553066"><ele>285.0</ele><time>2026-05-03T07:17:10.761Z</time></trkpt><trkpt lat="43.3000854" lon="11.5552285"><ele>285.5</ele><time>2026-05-03T07:17:13.782Z</time></trkpt><trkpt lat="43.3000177" lon="11.5551515"><ele>286.0</ele><time>2026-05-03T07:17:16.779Z</time></trkpt><trkpt lat="43.2999454" lon="11.5550772"><ele>286.16666666666663</ele><time>2026-05-03T07:17:19.783Z</time></trkpt><trkpt lat="43.2998821" lon="11.5550072"><ele>286.3333333333333</ele><time>2026-05-03T07:17:22.786Z</time></trkpt><trkpt lat="43.2998129" lon="11.5549352"><ele>286.5</ele><time>2026-05-03T07:17:25.767Z</time></trkpt><trkpt lat="43.2997428" lon="11.5548696"><ele>286.6666666666667</ele><time>2026-05-03T07:17:28.756Z</time></trkpt><trkpt lat="43.2996809" lon="11.5548107"><ele>286.83333333333337</ele><time>2026-05-03T07:17:31.791Z</time></trkpt><trkpt lat="43.2996193" lon="11.5547585"><ele>287.0</ele><time>2026-05-03T07:17:34.693Z</time></trkpt><trkpt lat="43.2995555" lon="11.5546927"><ele>287.0</ele><time>2026-05-03T07:17:37.782Z</time></trkpt><trkpt lat="43.2994889" lon="11.5546268"><ele>287.0</ele><time>2026-05-03T07:17:40.794Z</time></trkpt><trkpt lat="43.2994238" lon="11.5545694"><ele>287.0</ele><time>2026-05-03T07:17:43.695Z</time></trkpt><trkpt lat="43.2993551" lon="11.5545087"><ele>287.0</ele><time>2026-05-03T07:17:46.775Z</time></trkpt><trkpt lat="43.2992931" lon="11.5544498"><ele>287.0</ele><time>2026-05-03T07:17:49.789Z</time></trkpt><trkpt lat="43.2992309" lon="11.5543869"><ele>287.0</ele><time>2026-05-03T07:17:52.751Z</time></trkpt><trkpt lat="43.2991657" lon="11.5543151"><ele>287.1666666666667</ele><time>2026-05-03T07:17:55.788Z</time></trkpt><trkpt lat="43.2990915" lon="11.5542437"><ele>287.33333333333337</ele><time>2026-05-03T07:17:58.789Z</time></trkpt><trkpt lat="43.2990223" lon="11.5541782"><ele>287.5</ele><time>2026-05-03T07:18:01.764Z</time></trkpt><trkpt lat="43.2989558" lon="11.5541136"><ele>287.6666666666667</ele><time>2026-05-03T07:18:04.756Z</time></trkpt><trkpt lat="43.2988871" lon="11.5540583"><ele>287.8333333333333</ele><time>2026-05-03T07:18:07.796Z</time></trkpt><trkpt lat="43.2988168" lon="11.5540092"><ele>288.0</ele><time>2026-05-03T07:18:10.674Z</time></trkpt><trkpt lat="43.2987519" lon="11.5539512"><ele>288.0</ele><time>2026-05-03T07:18:13.788Z</time></trkpt><trkpt lat="43.298687" lon="11.5538936"><ele>288.0</ele><time>2026-05-03T07:18:16.753Z</time></trkpt><trkpt lat="43.2986238" lon="11.5538243"><ele>288.0</ele><time>2026-05-03T07:18:19.753Z</time></trkpt><trkpt lat="43.2985599" lon="11.5537606"><ele>288.0</ele><time>2026-05-03T07:18:22.814Z</time></trkpt><trkpt lat="43.2985016" lon="11.5536995"><ele>288.0</ele><time>2026-05-03T07:18:25.803Z</time></trkpt><trkpt lat="43.2984299" lon="11.5536364"><ele>288.0</ele><time>2026-05-03T07:18:28.785Z</time></trkpt><trkpt lat="43.2983611" lon="11.5535767"><ele>288.1666666666667</ele><time>2026-05-03T07:18:31.708Z</time></trkpt><trkpt lat="43.2982969" lon="11.553489"><ele>288.3333333333333</ele><time>2026-05-03T07:18:34.778Z</time></trkpt><trkpt lat="43.2982348" lon="11.5534005"><ele>288.5</ele><time>2026-05-03T07:18:37.731Z</time></trkpt><trkpt lat="43.2981967" lon="11.5533275"><ele>288.66666666666663</ele><time>2026-05-03T07:18:39.78Z</time></trkpt><trkpt lat="43.2981491" lon="11.553231"><ele>288.8333333333333</ele><time>2026-05-03T07:18:42.772Z</time></trkpt><trkpt lat="43.2981038" lon="11.5531354"><ele>289.0</ele><time>2026-05-03T07:18:45.769Z</time></trkpt><trkpt lat="43.2980497" lon="11.5530525"><ele>289.0</ele><time>2026-05-03T07:18:48.813Z</time></trkpt><trkpt lat="43.2979952" lon="11.5529767"><ele>289.0</ele><time>2026-05-03T07:18:51.79Z</time></trkpt><trkpt lat="43.2979286" lon="11.5529112"><ele>289.0</ele><time>2026-05-03T07:18:54.768Z</time></trkpt><trkpt lat="43.2978597" lon="11.5528647"><ele>289.0</ele><time>2026-05-03T07:18:57.736Z</time></trkpt><trkpt lat="43.2977914" lon="11.5528265"><ele>289.0</ele><time>2026-05-03T07:19:00.777Z</time></trkpt><trkpt lat="43.2977172" lon="11.5527938"><ele>289.0</ele><time>2026-05-03T07:19:03.811Z</time></trkpt><trkpt lat="43.297645" lon="11.5527574"><ele>289.3333333333333</ele><time>2026-05-03T07:19:06.798Z</time></trkpt><trkpt lat="43.2975721" lon="11.552718"><ele>289.66666666666663</ele><time>2026-05-03T07:19:09.811Z</time></trkpt><trkpt lat="43.2974958" lon="11.5526783"><ele>290.0</ele><time>2026-05-03T07:19:12.696Z</time></trkpt><trkpt lat="43.2974143" lon="11.5526336"><ele>290.3333333333333</ele><time>2026-05-03T07:19:15.772Z</time></trkpt><trkpt lat="43.2973453" lon="11.5525797"><ele>290.6666666666667</ele><time>2026-05-03T07:19:18.73Z</time></trkpt><trkpt lat="43.2972739" lon="11.5525135"><ele>291.0</ele><time>2026-05-03T07:19:21.773Z</time></trkpt><trkpt lat="43.2972162" lon="11.5524571"><ele>291.3333333333333</ele><time>2026-05-03T07:19:24.431Z</time></trkpt><trkpt lat="43.2971549" lon="11.552372"><ele>291.6666666666667</ele><time>2026-05-03T07:19:27.758Z</time></trkpt><trkpt lat="43.2971076" lon="11.5522867"><ele>292.0</ele><time>2026-05-03T07:19:30.761Z</time></trkpt><trkpt lat="43.2970577" lon="11.5522094"><ele>292.33333333333337</ele><time>2026-05-03T07:19:33.729Z</time></trkpt><trkpt lat="43.296998" lon="11.552132"><ele>292.6666666666667</ele><time>2026-05-03T07:19:36.777Z</time></trkpt><trkpt lat="43.2969362" lon="11.5520595"><ele>293.0</ele><time>2026-05-03T07:19:39.731Z</time></trkpt><trkpt lat="43.2968848" lon="11.5520087"><ele>293.1666666666667</ele><time>2026-05-03T07:19:41.788Z</time></trkpt><trkpt lat="43.2968116" lon="11.5519438"><ele>293.33333333333337</ele><time>2026-05-03T07:19:44.778Z</time></trkpt><trkpt lat="43.2967366" lon="11.5518851"><ele>293.5</ele><time>2026-05-03T07:19:47.764Z</time></trkpt><trkpt lat="43.2966712" lon="11.5518257"><ele>293.6666666666667</ele><time>2026-05-03T07:19:50.738Z</time></trkpt><trkpt lat="43.2966016" lon="11.5517681"><ele>293.8333333333333</ele><time>2026-05-03T07:19:53.673Z</time></trkpt><trkpt lat="43.296547" lon="11.5517202"><ele>294.0</ele><time>2026-05-03T07:19:55.815Z</time></trkpt><trkpt lat="43.2964915" lon="11.5516773"><ele>293.5</ele><time>2026-05-03T07:19:57.812Z</time></trkpt><trkpt lat="43.2964133" lon="11.5516107"><ele>293.0</ele><time>2026-05-03T07:20:00.806Z</time></trkpt><trkpt lat="43.2963443" lon="11.5515409"><ele>292.5</ele><time>2026-05-03T07:20:03.758Z</time></trkpt><trkpt lat="43.2962828" lon="11.5514596"><ele>292.0</ele><time>2026-05-03T07:20:06.807Z</time></trkpt><trkpt lat="43.2962208" lon="11.5513893"><ele>291.5</ele><time>2026-05-03T07:20:09.769Z</time></trkpt><trkpt lat="43.2961582" lon="11.5513242"><ele>291.0</ele><time>2026-05-03T07:20:12.781Z</time></trkpt><trkpt lat="43.2960999" lon="11.5512541"><ele>291.1666666666667</ele><time>2026-05-03T07:20:15.803Z</time></trkpt><trkpt lat="43.296033" lon="11.5511795"><ele>291.3333333333333</ele><time>2026-05-03T07:20:18.758Z</time></trkpt><trkpt lat="43.2959668" lon="11.5511078"><ele>291.5</ele><time>2026-05-03T07:20:21.775Z</time></trkpt><trkpt lat="43.295899" lon="11.5510215"><ele>291.66666666666663</ele><time>2026-05-03T07:20:24.788Z</time></trkpt><trkpt lat="43.2958387" lon="11.5509418"><ele>291.8333333333333</ele><time>2026-05-03T07:20:27.706Z</time></trkpt><trkpt lat="43.2957885" lon="11.5508642"><ele>292.0</ele><time>2026-05-03T07:20:30.732Z</time></trkpt><trkpt lat="43.2957386" lon="11.5507761"><ele>292.0</ele><time>2026-05-03T07:20:33.769Z</time></trkpt><trkpt lat="43.2956865" lon="11.5506963"><ele>292.0</ele><time>2026-05-03T07:20:36.749Z</time></trkpt><trkpt lat="43.2956231" lon="11.5506183"><ele>292.0</ele><time>2026-05-03T07:20:39.751Z</time></trkpt><trkpt lat="43.2955497" lon="11.5505363"><ele>292.0</ele><time>2026-05-03T07:20:42.758Z</time></trkpt><trkpt lat="43.2954867" lon="11.5504687"><ele>292.0</ele><time>2026-05-03T07:20:44.769Z</time></trkpt><trkpt lat="43.2954268" lon="11.5504111"><ele>292.0</ele><time>2026-05-03T07:20:46.767Z</time></trkpt><trkpt lat="43.2953566" lon="11.550331"><ele>291.16666666666663</ele><time>2026-05-03T07:20:49.77Z</time></trkpt><trkpt lat="43.2952865" lon="11.5502444"><ele>290.3333333333333</ele><time>2026-05-03T07:20:52.748Z</time></trkpt><trkpt lat="43.2952189" lon="11.5501546"><ele>289.5</ele><time>2026-05-03T07:20:55.758Z</time></trkpt><trkpt lat="43.295152" lon="11.5500839"><ele>288.6666666666667</ele><time>2026-05-03T07:20:58.696Z</time></trkpt><trkpt lat="43.2951003" lon="11.5500263"><ele>287.83333333333337</ele><time>2026-05-03T07:21:00.771Z</time></trkpt><trkpt lat="43.2950432" lon="11.5499518"><ele>287.0</ele><time>2026-05-03T07:21:03.71Z</time></trkpt><trkpt lat="43.294988" lon="11.5498757"><ele>287.0</ele><time>2026-05-03T07:21:06.752Z</time></trkpt><trkpt lat="43.2949366" lon="11.5498005"><ele>287.0</ele><time>2026-05-03T07:21:09.755Z</time></trkpt><trkpt lat="43.294888" lon="11.5497226"><ele>287.0</ele><time>2026-05-03T07:21:12.687Z</time></trkpt><trkpt lat="43.2948315" lon="11.5496285"><ele>287.0</ele><time>2026-05-03T07:21:15.774Z</time></trkpt><trkpt lat="43.2947747" lon="11.5495436"><ele>287.0</ele><time>2026-05-03T07:21:18.776Z</time></trkpt><trkpt lat="43.2947044" lon="11.5494611"><ele>287.0</ele><time>2026-05-03T07:21:21.793Z</time></trkpt><trkpt lat="43.2946393" lon="11.5493843"><ele>289.0</ele><time>2026-05-03T07:21:24.794Z</time></trkpt><trkpt lat="43.2945746" lon="11.5493256"><ele>291.0</ele><time>2026-05-03T07:21:27.734Z</time></trkpt><trkpt lat="43.2945051" lon="11.5492659"><ele>293.0</ele><time>2026-05-03T07:21:30.745Z</time></trkpt><trkpt lat="43.2944357" lon="11.54921"><ele>295.0</ele><time>2026-05-03T07:21:33.831Z</time></trkpt><trkpt lat="43.2943725" lon="11.5491656"><ele>297.0</ele><time>2026-05-03T07:21:36.733Z</time></trkpt><trkpt lat="43.294316" lon="11.5491117"><ele>299.0</ele><time>2026-05-03T07:21:39.781Z</time></trkpt><trkpt lat="43.2942551" lon="11.5490498"><ele>299.0</ele><time>2026-05-03T07:21:43.779Z</time></trkpt><trkpt lat="43.2941716" lon="11.5489719"><ele>299.0</ele><time>2026-05-03T07:22:03.772Z</time></trkpt><trkpt lat="43.2941274" lon="11.54889"><ele>299.0</ele><time>2026-05-03T07:22:08.808Z</time></trkpt><trkpt lat="43.2940752" lon="11.5488301"><ele>299.0</ele><time>2026-05-03T07:22:12.755Z</time></trkpt><trkpt lat="43.2940196" lon="11.5487628"><ele>299.0</ele><time>2026-05-03T07:22:15.773Z</time></trkpt><trkpt lat="43.2939637" lon="11.5487067"><ele>299.0</ele><time>2026-05-03T07:22:18.766Z</time></trkpt><trkpt lat="43.2939106" lon="11.5486539"><ele>300.1666666666667</ele><time>2026-05-03T07:22:21.768Z</time></trkpt><trkpt lat="43.2938481" lon="11.5485885"><ele>301.33333333333337</ele><time>2026-05-03T07:22:25.655Z</time></trkpt><trkpt lat="43.2937928" lon="11.548503"><ele>302.5</ele><time>2026-05-03T07:22:29.763Z</time></trkpt><trkpt lat="43.2937506" lon="11.5484174"><ele>303.6666666666667</ele><time>2026-05-03T07:22:32.755Z</time></trkpt><trkpt lat="43.2937176" lon="11.5483072"><ele>304.8333333333333</ele><time>2026-05-03T07:22:35.831Z</time></trkpt><trkpt lat="43.2936788" lon="11.5482035"><ele>306.0</ele><time>2026-05-03T07:22:38.769Z</time></trkpt><trkpt lat="43.2936508" lon="11.548125"><ele>306.0</ele><time>2026-05-03T07:22:40.756Z</time></trkpt><trkpt lat="43.2936226" lon="11.5480459"><ele>306.0</ele><time>2026-05-03T07:22:42.712Z</time></trkpt><trkpt lat="43.2935933" lon="11.5479596"><ele>306.0</ele><time>2026-05-03T07:22:44.811Z</time></trkpt><trkpt lat="43.2935416" lon="11.5478514"><ele>306.0</ele><time>2026-05-03T07:22:47.792Z</time></trkpt><trkpt lat="43.2934871" lon="11.5477556"><ele>306.0</ele><time>2026-05-03T07:22:50.79Z</time></trkpt><trkpt lat="43.2934321" lon="11.5476675"><ele>306.0</ele><time>2026-05-03T07:22:53.787Z</time></trkpt><trkpt lat="43.293372" lon="11.5475923"><ele>305.6666666666667</ele><time>2026-05-03T07:22:56.777Z</time></trkpt><trkpt lat="43.2933176" lon="11.5475231"><ele>305.3333333333333</ele><time>2026-05-03T07:22:59.74Z</time></trkpt><trkpt lat="43.2932443" lon="11.5474626"><ele>305.0</ele><time>2026-05-03T07:23:02.759Z</time></trkpt><trkpt lat="43.2931595" lon="11.5474096"><ele>304.66666666666663</ele><time>2026-05-03T07:23:05.775Z</time></trkpt><trkpt lat="43.2930761" lon="11.5473818"><ele>304.3333333333333</ele><time>2026-05-03T07:23:08.769Z</time></trkpt><trkpt lat="43.2929933" lon="11.5473645"><ele>304.0</ele><time>2026-05-03T07:23:11.772Z</time></trkpt><trkpt lat="43.2929018" lon="11.5473602"><ele>304.0</ele><time>2026-05-03T07:23:14.75Z</time></trkpt><trkpt lat="43.2928142" lon="11.5473497"><ele>304.0</ele><time>2026-05-03T07:23:17.751Z</time></trkpt><trkpt lat="43.2927317" lon="11.5473413"><ele>304.0</ele><time>2026-05-03T07:23:20.787Z</time></trkpt><trkpt lat="43.2926508" lon="11.5473365"><ele>304.0</ele><time>2026-05-03T07:23:23.733Z</time></trkpt><trkpt lat="43.2925677" lon="11.5473313"><ele>304.0</ele><time>2026-05-03T07:23:26.77Z</time></trkpt><trkpt lat="43.2924825" lon="11.5473221"><ele>304.0</ele><time>2026-05-03T07:23:29.787Z</time></trkpt><trkpt lat="43.2924182" lon="11.5473074"><ele>304.0</ele><time>2026-05-03T07:23:31.759Z</time></trkpt><trkpt lat="43.2923325" lon="11.5472772"><ele>304.0</ele><time>2026-05-03T07:23:34.785Z</time></trkpt><trkpt lat="43.2922482" lon="11.5472572"><ele>304.0</ele><time>2026-05-03T07:23:37.78Z</time></trkpt><trkpt lat="43.2921634" lon="11.5472161"><ele>304.0</ele><time>2026-05-03T07:23:40.774Z</time></trkpt><trkpt lat="43.2920895" lon="11.5471605"><ele>304.0</ele><time>2026-05-03T07:23:43.696Z</time></trkpt><trkpt lat="43.2920146" lon="11.5470871"><ele>304.0</ele><time>2026-05-03T07:23:46.782Z</time></trkpt><trkpt lat="43.2919514" lon="11.5470094"><ele>302.16666666666663</ele><time>2026-05-03T07:23:49.689Z</time></trkpt><trkpt lat="43.2918946" lon="11.5469252"><ele>300.3333333333333</ele><time>2026-05-03T07:23:52.768Z</time></trkpt><trkpt lat="43.2918423" lon="11.5468468"><ele>298.5</ele><time>2026-05-03T07:23:55.788Z</time></trkpt><trkpt lat="43.2917913" lon="11.5467664"><ele>296.6666666666667</ele><time>2026-05-03T07:23:58.755Z</time></trkpt><trkpt lat="43.2917359" lon="11.5466858"><ele>294.83333333333337</ele><time>2026-05-03T07:24:01.776Z</time></trkpt><trkpt lat="43.2916766" lon="11.5466073"><ele>293.0</ele><time>2026-05-03T07:24:04.734Z</time></trkpt><trkpt lat="43.2916165" lon="11.5465225"><ele>293.0</ele><time>2026-05-03T07:24:07.786Z</time></trkpt><trkpt lat="43.2915572" lon="11.5464332"><ele>293.0</ele><time>2026-05-03T07:24:10.795Z</time></trkpt><trkpt lat="43.2914967" lon="11.5463409"><ele>293.0</ele><time>2026-05-03T07:24:13.76Z</time></trkpt><trkpt lat="43.2914362" lon="11.5462492"><ele>293.0</ele><time>2026-05-03T07:24:16.774Z</time></trkpt><trkpt lat="43.2913862" lon="11.5461695"><ele>293.0</ele><time>2026-05-03T07:24:19.768Z</time></trkpt><trkpt lat="43.291336" lon="11.5461"><ele>293.0</ele><time>2026-05-03T07:24:22.758Z</time></trkpt><trkpt lat="43.2912765" lon="11.5460461"><ele>294.85714285714283</ele><time>2026-05-03T07:24:25.764Z</time></trkpt><trkpt lat="43.2912261" lon="11.5459921"><ele>296.7142857142857</ele><time>2026-05-03T07:24:28.792Z</time></trkpt><trkpt lat="43.2911778" lon="11.5459014"><ele>298.57142857142856</ele><time>2026-05-03T07:24:32.811Z</time></trkpt><trkpt lat="43.2911473" lon="11.5458216"><ele>300.42857142857144</ele><time>2026-05-03T07:24:35.694Z</time></trkpt><trkpt lat="43.2911124" lon="11.5457327"><ele>302.2857142857143</ele><time>2026-05-03T07:24:38.754Z</time></trkpt><trkpt lat="43.291076" lon="11.5456436"><ele>304.1428571428571</ele><time>2026-05-03T07:24:41.776Z</time></trkpt><trkpt lat="43.2910469" lon="11.5455577"><ele>306.0</ele><time>2026-05-03T07:24:44.758Z</time></trkpt><trkpt lat="43.2910174" lon="11.5454768"><ele>306.0</ele><time>2026-05-03T07:24:47.754Z</time></trkpt><trkpt lat="43.2909793" lon="11.5453915"><ele>306.0</ele><time>2026-05-03T07:24:50.838Z</time></trkpt><trkpt lat="43.2909416" lon="11.5453175"><ele>306.0</ele><time>2026-05-03T07:24:53.75Z</time></trkpt><trkpt lat="43.2909041" lon="11.5452473"><ele>306.0</ele><time>2026-05-03T07:24:56.751Z</time></trkpt><trkpt lat="43.2908711" lon="11.5451676"><ele>306.0</ele><time>2026-05-03T07:24:59.774Z</time></trkpt><trkpt lat="43.2908399" lon="11.5450869"><ele>306.0</ele><time>2026-05-03T07:25:02.769Z</time></trkpt><trkpt lat="43.2908005" lon="11.5449794"><ele>306.0</ele><time>2026-05-03T07:25:06.737Z</time></trkpt><trkpt lat="43.2907658" lon="11.5448978"><ele>306.57142857142856</ele><time>2026-05-03T07:25:09.755Z</time></trkpt><trkpt lat="43.2907321" lon="11.5448143"><ele>307.14285714285717</ele><time>2026-05-03T07:25:12.791Z</time></trkpt><trkpt lat="43.2906955" lon="11.5447311"><ele>307.7142857142857</ele><time>2026-05-03T07:25:15.788Z</time></trkpt><trkpt lat="43.2906588" lon="11.5446464"><ele>308.2857142857143</ele><time>2026-05-03T07:25:18.788Z</time></trkpt><trkpt lat="43.2906213" lon="11.5445427"><ele>308.85714285714283</ele><time>2026-05-03T07:25:22.785Z</time></trkpt><trkpt lat="43.2905924" lon="11.5444638"><ele>309.42857142857144</ele><time>2026-05-03T07:25:25.686Z</time></trkpt><trkpt lat="43.290559" lon="11.5443855"><ele>310.0</ele><time>2026-05-03T07:25:28.785Z</time></trkpt><trkpt lat="43.2905224" lon="11.5443083"><ele>310.5</ele><time>2026-05-03T07:25:31.785Z</time></trkpt><trkpt lat="43.2904903" lon="11.5442332"><ele>311.0</ele><time>2026-05-03T07:25:34.809Z</time></trkpt><trkpt lat="43.2904464" lon="11.5441456"><ele>311.5</ele><time>2026-05-03T07:25:38.77Z</time></trkpt><trkpt lat="43.2904014" lon="11.5440603"><ele>312.0</ele><time>2026-05-03T07:25:42.745Z</time></trkpt><trkpt lat="43.2903621" lon="11.5439871"><ele>312.5</ele><time>2026-05-03T07:25:45.771Z</time></trkpt><trkpt lat="43.2903148" lon="11.5438877"><ele>313.0</ele><time>2026-05-03T07:25:49.792Z</time></trkpt><trkpt lat="43.2902712" lon="11.5437918"><ele>313.0</ele><time>2026-05-03T07:25:53.8Z</time></trkpt><trkpt lat="43.2902373" lon="11.5437143"><ele>313.0</ele><time>2026-05-03T07:25:56.773Z</time></trkpt><trkpt lat="43.2902126" lon="11.5436333"><ele>313.0</ele><time>2026-05-03T07:25:59.757Z</time></trkpt><trkpt lat="43.2902012" lon="11.5435263"><ele>313.0</ele><time>2026-05-03T07:26:03.715Z</time></trkpt><trkpt lat="43.2902066" lon="11.5434323"><ele>313.0</ele><time>2026-05-03T07:26:06.759Z</time></trkpt><trkpt lat="43.2902243" lon="11.5433238"><ele>313.0</ele><time>2026-05-03T07:26:09.802Z</time></trkpt><trkpt lat="43.2902412" lon="11.543226"><ele>313.0</ele><time>2026-05-03T07:26:12.672Z</time></trkpt><trkpt lat="43.2902588" lon="11.5431219"><ele>312.8333333333333</ele><time>2026-05-03T07:26:15.778Z</time></trkpt><trkpt lat="43.2902866" lon="11.5430234"><ele>312.66666666666663</ele><time>2026-05-03T07:26:18.812Z</time></trkpt><trkpt lat="43.2903162" lon="11.5429286"><ele>312.5</ele><time>2026-05-03T07:26:21.764Z</time></trkpt><trkpt lat="43.2903533" lon="11.5428322"><ele>312.3333333333333</ele><time>2026-05-03T07:26:24.75Z</time></trkpt><trkpt lat="43.2903946" lon="11.5427268"><ele>312.1666666666667</ele><time>2026-05-03T07:26:27.786Z</time></trkpt><trkpt lat="43.2904463" lon="11.5426209"><ele>312.0</ele><time>2026-05-03T07:26:30.775Z</time></trkpt><trkpt lat="43.2904841" lon="11.5425512"><ele>312.0</ele><time>2026-05-03T07:26:32.788Z</time></trkpt><trkpt lat="43.2905243" lon="11.5424844"><ele>312.0</ele><time>2026-05-03T07:26:34.779Z</time></trkpt><trkpt lat="43.29058" lon="11.542388"><ele>312.0</ele><time>2026-05-03T07:26:37.727Z</time></trkpt><trkpt lat="43.2906197" lon="11.5423159"><ele>312.0</ele><time>2026-05-03T07:26:39.795Z</time></trkpt><trkpt lat="43.2906728" lon="11.5422136"><ele>312.0</ele><time>2026-05-03T07:26:42.728Z</time></trkpt><trkpt lat="43.2907173" lon="11.5421163"><ele>312.0</ele><time>2026-05-03T07:26:45.779Z</time></trkpt><trkpt lat="43.2907641" lon="11.5420258"><ele>311.6666666666667</ele><time>2026-05-03T07:26:48.789Z</time></trkpt><trkpt lat="43.2908158" lon="11.5419348"><ele>311.3333333333333</ele><time>2026-05-03T07:26:51.795Z</time></trkpt><trkpt lat="43.2908708" lon="11.5418449"><ele>311.0</ele><time>2026-05-03T07:26:54.764Z</time></trkpt><trkpt lat="43.2909203" lon="11.5417493"><ele>310.66666666666663</ele><time>2026-05-03T07:26:57.689Z</time></trkpt><trkpt lat="43.2909702" lon="11.5416503"><ele>310.3333333333333</ele><time>2026-05-03T07:27:00.763Z</time></trkpt><trkpt lat="43.2910274" lon="11.5415591"><ele>310.0</ele><time>2026-05-03T07:27:03.75Z</time></trkpt><trkpt lat="43.2910782" lon="11.5414721"><ele>310.0</ele><time>2026-05-03T07:27:06.767Z</time></trkpt><trkpt lat="43.2911278" lon="11.541393"><ele>310.0</ele><time>2026-05-03T07:27:09.513Z</time></trkpt><trkpt lat="43.2911826" lon="11.5413048"><ele>310.0</ele><time>2026-05-03T07:27:12.695Z</time></trkpt><trkpt lat="43.2912081" lon="11.5412044"><ele>310.0</ele><time>2026-05-03T07:27:15.787Z</time></trkpt><trkpt lat="43.2911413" lon="11.5412113"><ele>310.0</ele><time>2026-05-03T07:27:18.717Z</time></trkpt><trkpt lat="43.2910967" lon="11.541285"><ele>310.0</ele><time>2026-05-03T07:27:20.767Z</time></trkpt><trkpt lat="43.2910301" lon="11.5413507"><ele>310.0</ele><time>2026-05-03T07:27:23.804Z</time></trkpt><trkpt lat="43.290958" lon="11.5413863"><ele>310.0</ele><time>2026-05-03T07:27:26.784Z</time></trkpt><trkpt lat="43.2908877" lon="11.5414024"><ele>310.0</ele><time>2026-05-03T07:27:29.797Z</time></trkpt><trkpt lat="43.2908129" lon="11.5414029"><ele>310.0</ele><time>2026-05-03T07:27:32.782Z</time></trkpt><trkpt lat="43.2907379" lon="11.5413875"><ele>310.0</ele><time>2026-05-03T07:27:35.815Z</time></trkpt><trkpt lat="43.2906685" lon="11.5413657"><ele>310.0</ele><time>2026-05-03T07:27:38.711Z</time></trkpt><trkpt lat="43.2906034" lon="11.5413423"><ele>310.0</ele><time>2026-05-03T07:27:41.765Z</time></trkpt><trkpt lat="43.2905381" lon="11.5413247"><ele>310.7142857142857</ele><time>2026-05-03T07:27:44.778Z</time></trkpt><trkpt lat="43.2904691" lon="11.5413044"><ele>311.42857142857144</ele><time>2026-05-03T07:27:47.774Z</time></trkpt><trkpt lat="43.2903931" lon="11.5412853"><ele>312.1428571428571</ele><time>2026-05-03T07:27:50.777Z</time></trkpt><trkpt lat="43.2903194" lon="11.541272"><ele>312.8571428571429</ele><time>2026-05-03T07:27:53.808Z</time></trkpt><trkpt lat="43.2902496" lon="11.5412583"><ele>313.57142857142856</ele><time>2026-05-03T07:27:56.689Z</time></trkpt><trkpt lat="43.2901762" lon="11.5412525"><ele>314.2857142857143</ele><time>2026-05-03T07:27:59.749Z</time></trkpt><trkpt lat="43.2900978" lon="11.5412494"><ele>315.0</ele><time>2026-05-03T07:28:02.708Z</time></trkpt><trkpt lat="43.2900157" lon="11.5412382"><ele>315.0</ele><time>2026-05-03T07:28:05.786Z</time></trkpt><trkpt lat="43.2899314" lon="11.5412422"><ele>315.0</ele><time>2026-05-03T07:28:08.711Z</time></trkpt><trkpt lat="43.289841" lon="11.5412447"><ele>315.0</ele><time>2026-05-03T07:28:11.828Z</time></trkpt><trkpt lat="43.2897524" lon="11.5412373"><ele>315.0</ele><time>2026-05-03T07:28:14.795Z</time></trkpt><trkpt lat="43.2896696" lon="11.5412262"><ele>315.0</ele><time>2026-05-03T07:28:17.774Z</time></trkpt><trkpt lat="43.2895887" lon="11.5412025"><ele>315.0</ele><time>2026-05-03T07:28:20.776Z</time></trkpt><trkpt lat="43.2895111" lon="11.5411743"><ele>312.4</ele><time>2026-05-03T07:28:23.737Z</time></trkpt><trkpt lat="43.2894299" lon="11.5411482"><ele>309.8</ele><time>2026-05-03T07:28:26.77Z</time></trkpt><trkpt lat="43.2893367" lon="11.5411366"><ele>307.2</ele><time>2026-05-03T07:28:29.797Z</time></trkpt><trkpt lat="43.2892435" lon="11.5411426"><ele>304.6</ele><time>2026-05-03T07:28:32.741Z</time></trkpt><trkpt lat="43.2891522" lon="11.5411592"><ele>302.0</ele><time>2026-05-03T07:28:35.778Z</time></trkpt><trkpt lat="43.2890599" lon="11.5411773"><ele>302.00000000000006</ele><time>2026-05-03T07:28:38.781Z</time></trkpt><trkpt lat="43.288998" lon="11.5411956"><ele>302.0</ele><time>2026-05-03T07:28:40.762Z</time></trkpt><trkpt lat="43.2889349" lon="11.5412112"><ele>302.0</ele><time>2026-05-03T07:28:42.763Z</time></trkpt><trkpt lat="43.2888717" lon="11.5412214"><ele>302.0</ele><time>2026-05-03T07:28:44.785Z</time></trkpt><trkpt lat="43.2888058" lon="11.5412374"><ele>302.0</ele><time>2026-05-03T07:28:46.789Z</time></trkpt><trkpt lat="43.2887412" lon="11.5412534"><ele>302.00000000000006</ele><time>2026-05-03T07:28:48.786Z</time></trkpt><trkpt lat="43.2886505" lon="11.5412819"><ele>302.0</ele><time>2026-05-03T07:28:51.769Z</time></trkpt><trkpt lat="43.2885912" lon="11.5413118"><ele>302.0</ele><time>2026-05-03T07:28:53.775Z</time></trkpt><trkpt lat="43.2885066" lon="11.5413632"><ele>302.0</ele><time>2026-05-03T07:28:56.762Z</time></trkpt><trkpt lat="43.2884408" lon="11.5414287"><ele>302.0</ele><time>2026-05-03T07:28:59.752Z</time></trkpt><trkpt lat="43.2883833" lon="11.5415139"><ele>302.0</ele><time>2026-05-03T07:29:02.755Z</time></trkpt><trkpt lat="43.2883288" lon="11.5416066"><ele>302.0</ele><time>2026-05-03T07:29:05.671Z</time></trkpt><trkpt lat="43.288273" lon="11.541709"><ele>302.0</ele><time>2026-05-03T07:29:08.764Z</time></trkpt><trkpt lat="43.2882318" lon="11.5418036"><ele>302.0</ele><time>2026-05-03T07:29:11.696Z</time></trkpt><trkpt lat="43.2881925" lon="11.5419131"><ele>302.0</ele><time>2026-05-03T07:29:14.762Z</time></trkpt><trkpt lat="43.2881402" lon="11.5420211"><ele>302.0</ele><time>2026-05-03T07:29:17.788Z</time></trkpt><trkpt lat="43.288081" lon="11.5421177"><ele>302.0</ele><time>2026-05-03T07:29:20.765Z</time></trkpt><trkpt lat="43.2880298" lon="11.5422257"><ele>302.0</ele><time>2026-05-03T07:29:23.766Z</time></trkpt><trkpt lat="43.2879869" lon="11.542299"><ele>302.0</ele><time>2026-05-03T07:29:25.788Z</time></trkpt><trkpt lat="43.2879308" lon="11.5423885"><ele>300.8571428571429</ele><time>2026-05-03T07:29:28.769Z</time></trkpt><trkpt lat="43.2878825" lon="11.5424825"><ele>299.7142857142857</ele><time>2026-05-03T07:29:31.762Z</time></trkpt><trkpt lat="43.2878345" lon="11.5425931"><ele>298.57142857142856</ele><time>2026-05-03T07:29:34.793Z</time></trkpt><trkpt lat="43.2878041" lon="11.542672"><ele>297.42857142857144</ele><time>2026-05-03T07:29:36.742Z</time></trkpt><trkpt lat="43.2877776" lon="11.5427573"><ele>296.2857142857143</ele><time>2026-05-03T07:29:38.702Z</time></trkpt><trkpt lat="43.2877508" lon="11.542847"><ele>295.14285714285717</ele><time>2026-05-03T07:29:40.776Z</time></trkpt><trkpt lat="43.2877278" lon="11.5429306"><ele>294.0</ele><time>2026-05-03T07:29:42.775Z</time></trkpt><trkpt lat="43.2876964" lon="11.5430554"><ele>294.0</ele><time>2026-05-03T07:29:45.776Z</time></trkpt><trkpt lat="43.2876725" lon="11.5431383"><ele>294.0</ele><time>2026-05-03T07:29:47.782Z</time></trkpt><trkpt lat="43.2876542" lon="11.5432259"><ele>294.0</ele><time>2026-05-03T07:29:49.755Z</time></trkpt><trkpt lat="43.2876441" lon="11.5433161"><ele>294.0</ele><time>2026-05-03T07:29:51.787Z</time></trkpt><trkpt lat="43.2876362" lon="11.5434286"><ele>294.0</ele><time>2026-05-03T07:29:54.671Z</time></trkpt><trkpt lat="43.287639" lon="11.5435331"><ele>294.0</ele><time>2026-05-03T07:29:57.76Z</time></trkpt><trkpt lat="43.2876416" lon="11.5436338"><ele>294.0</ele><time>2026-05-03T07:30:00.769Z</time></trkpt><trkpt lat="43.287637" lon="11.5437343"><ele>294.8333333333333</ele><time>2026-05-03T07:30:03.768Z</time></trkpt><trkpt lat="43.2876349" lon="11.5438303"><ele>295.6666666666667</ele><time>2026-05-03T07:30:06.768Z</time></trkpt><trkpt lat="43.2876166" lon="11.54393"><ele>296.5</ele><time>2026-05-03T07:30:09.776Z</time></trkpt><trkpt lat="43.2875934" lon="11.544023"><ele>297.33333333333337</ele><time>2026-05-03T07:30:12.779Z</time></trkpt><trkpt lat="43.2875654" lon="11.5441137"><ele>298.1666666666667</ele><time>2026-05-03T07:30:15.773Z</time></trkpt><trkpt lat="43.2875288" lon="11.5442158"><ele>299.0</ele><time>2026-05-03T07:30:18.794Z</time></trkpt><trkpt lat="43.287487" lon="11.5443082"><ele>299.0</ele><time>2026-05-03T07:30:21.782Z</time></trkpt><trkpt lat="43.2874585" lon="11.5443993"><ele>299.0</ele><time>2026-05-03T07:30:24.772Z</time></trkpt><trkpt lat="43.2874272" lon="11.5444915"><ele>299.0</ele><time>2026-05-03T07:30:27.828Z</time></trkpt><trkpt lat="43.2874008" lon="11.5445929"><ele>299.0</ele><time>2026-05-03T07:30:30.67Z</time></trkpt><trkpt lat="43.2873866" lon="11.5447023"><ele>299.0</ele><time>2026-05-03T07:30:33.818Z</time></trkpt><trkpt lat="43.2873826" lon="11.5447944"><ele>299.0</ele><time>2026-05-03T07:30:36.474Z</time></trkpt><trkpt lat="43.2873767" lon="11.5448981"><ele>299.0</ele><time>2026-05-03T07:30:39.741Z</time></trkpt><trkpt lat="43.2873711" lon="11.5449882"><ele>299.2857142857143</ele><time>2026-05-03T07:30:42.737Z</time></trkpt><trkpt lat="43.287362" lon="11.5450965"><ele>299.57142857142856</ele><time>2026-05-03T07:30:46.719Z</time></trkpt><trkpt lat="43.2873532" lon="11.5451891"><ele>299.8571428571429</ele><time>2026-05-03T07:30:49.754Z</time></trkpt><trkpt lat="43.2873566" lon="11.5452822"><ele>300.1428571428571</ele><time>2026-05-03T07:30:52.766Z</time></trkpt><trkpt lat="43.2873521" lon="11.5453718"><ele>300.42857142857144</ele><time>2026-05-03T07:30:55.786Z</time></trkpt><trkpt lat="43.2873338" lon="11.5454626"><ele>300.7142857142857</ele><time>2026-05-03T07:30:58.751Z</time></trkpt><trkpt lat="43.28732" lon="11.5455502"><ele>301.0</ele><time>2026-05-03T07:31:01.74Z</time></trkpt><trkpt lat="43.2873049" lon="11.5456363"><ele>300.16666666666663</ele><time>2026-05-03T07:31:04.778Z</time></trkpt><trkpt lat="43.2872835" lon="11.5457479"><ele>299.3333333333333</ele><time>2026-05-03T07:31:08.789Z</time></trkpt><trkpt lat="43.287241" lon="11.5458449"><ele>298.5</ele><time>2026-05-03T07:31:12.79Z</time></trkpt><trkpt lat="43.2871982" lon="11.5459091"><ele>297.6666666666667</ele><time>2026-05-03T07:31:15.787Z</time></trkpt><trkpt lat="43.2871274" lon="11.5459687"><ele>296.83333333333337</ele><time>2026-05-03T07:31:19.79Z</time></trkpt><trkpt lat="43.2870658" lon="11.5460044"><ele>296.0</ele><time>2026-05-03T07:31:22.713Z</time></trkpt><trkpt lat="43.286998" lon="11.5460315"><ele>298.2857142857143</ele><time>2026-05-03T07:31:25.656Z</time></trkpt><trkpt lat="43.286919" lon="11.5460449"><ele>300.57142857142856</ele><time>2026-05-03T07:31:29.761Z</time></trkpt><trkpt lat="43.2868427" lon="11.5460378"><ele>302.8571428571429</ele><time>2026-05-03T07:31:33.758Z</time></trkpt><trkpt lat="43.2867764" lon="11.5460165"><ele>305.1428571428571</ele><time>2026-05-03T07:31:36.79Z</time></trkpt><trkpt lat="43.2867123" lon="11.5459873"><ele>307.4285714285714</ele><time>2026-05-03T07:31:39.768Z</time></trkpt><trkpt lat="43.2866412" lon="11.5459373"><ele>309.7142857142857</ele><time>2026-05-03T07:31:43.755Z</time></trkpt><trkpt lat="43.2865725" lon="11.5458927"><ele>312.0</ele><time>2026-05-03T07:31:47.676Z</time></trkpt><trkpt lat="43.2865105" lon="11.5458715"><ele>312.0</ele><time>2026-05-03T07:31:50.766Z</time></trkpt><trkpt lat="43.2864392" lon="11.5458804"><ele>312.0</ele><time>2026-05-03T07:31:53.759Z</time></trkpt><trkpt lat="43.2863642" lon="11.5459067"><ele>312.0</ele><time>2026-05-03T07:31:56.75Z</time></trkpt><trkpt lat="43.2862959" lon="11.5459348"><ele>312.0</ele><time>2026-05-03T07:31:59.791Z</time></trkpt><trkpt lat="43.2862292" lon="11.5459455"><ele>312.0</ele><time>2026-05-03T07:32:02.765Z</time></trkpt><trkpt lat="43.2861648" lon="11.5459702"><ele>312.0</ele><time>2026-05-03T07:32:05.758Z</time></trkpt><trkpt lat="43.2860955" lon="11.5460013"><ele>312.0</ele><time>2026-05-03T07:32:08.762Z</time></trkpt><trkpt lat="43.2860328" lon="11.546042"><ele>312.3333333333333</ele><time>2026-05-03T07:32:11.738Z</time></trkpt><trkpt lat="43.2859633" lon="11.5460964"><ele>312.6666666666667</ele><time>2026-05-03T07:32:14.757Z</time></trkpt><trkpt lat="43.2859002" lon="11.5461466"><ele>313.0</ele><time>2026-05-03T07:32:17.755Z</time></trkpt><trkpt lat="43.2858322" lon="11.5461902"><ele>313.33333333333337</ele><time>2026-05-03T07:32:20.768Z</time></trkpt><trkpt lat="43.285761" lon="11.5462385"><ele>313.6666666666667</ele><time>2026-05-03T07:32:23.775Z</time></trkpt><trkpt lat="43.2856945" lon="11.5462805"><ele>314.0</ele><time>2026-05-03T07:32:26.686Z</time></trkpt><trkpt lat="43.2856198" lon="11.5463297"><ele>313.33333333333337</ele><time>2026-05-03T07:32:29.761Z</time></trkpt><trkpt lat="43.2855427" lon="11.5463783"><ele>312.6666666666667</ele><time>2026-05-03T07:32:32.774Z</time></trkpt><trkpt lat="43.2854574" lon="11.5464213"><ele>312.0</ele><time>2026-05-03T07:32:35.782Z</time></trkpt><trkpt lat="43.2853663" lon="11.5464519"><ele>311.3333333333333</ele><time>2026-05-03T07:32:38.795Z</time></trkpt><trkpt lat="43.2852857" lon="11.5464888"><ele>310.66666666666663</ele><time>2026-05-03T07:32:41.678Z</time></trkpt><trkpt lat="43.2852063" lon="11.5465428"><ele>310.0</ele><time>2026-05-03T07:32:44.778Z</time></trkpt><trkpt lat="43.2851286" lon="11.5465969"><ele>310.0</ele><time>2026-05-03T07:32:47.759Z</time></trkpt><trkpt lat="43.2850519" lon="11.5466635"><ele>310.0</ele><time>2026-05-03T07:32:50.767Z</time></trkpt><trkpt lat="43.2849817" lon="11.5467434"><ele>310.0</ele><time>2026-05-03T07:32:53.772Z</time></trkpt><trkpt lat="43.2849119" lon="11.5468268"><ele>310.0</ele><time>2026-05-03T07:32:56.776Z</time></trkpt><trkpt lat="43.2848554" lon="11.5469216"><ele>310.0</ele><time>2026-05-03T07:32:59.76Z</time></trkpt><trkpt lat="43.2848144" lon="11.5470277"><ele>309.5</ele><time>2026-05-03T07:33:02.768Z</time></trkpt><trkpt lat="43.2847906" lon="11.5471286"><ele>309.0</ele><time>2026-05-03T07:33:05.663Z</time></trkpt><trkpt lat="43.2847744" lon="11.547238"><ele>308.5</ele><time>2026-05-03T07:33:08.767Z</time></trkpt><trkpt lat="43.2847607" lon="11.5473491"><ele>308.0</ele><time>2026-05-03T07:33:11.742Z</time></trkpt><trkpt lat="43.2847479" lon="11.547462"><ele>307.5</ele><time>2026-05-03T07:33:14.761Z</time></trkpt><trkpt lat="43.284728" lon="11.5475762"><ele>307.0</ele><time>2026-05-03T07:33:17.763Z</time></trkpt><trkpt lat="43.2847084" lon="11.5476811"><ele>305.0</ele><time>2026-05-03T07:33:20.703Z</time></trkpt><trkpt lat="43.2846867" lon="11.5477695"><ele>303.0</ele><time>2026-05-03T07:33:22.776Z</time></trkpt><trkpt lat="43.2846622" lon="11.547851"><ele>301.0</ele><time>2026-05-03T07:33:24.766Z</time></trkpt><trkpt lat="43.2846217" lon="11.5479653"><ele>299.0</ele><time>2026-05-03T07:33:27.816Z</time></trkpt><trkpt lat="43.2845738" lon="11.5480686"><ele>297.0</ele><time>2026-05-03T07:33:30.676Z</time></trkpt><trkpt lat="43.2845308" lon="11.548136"><ele>295.0</ele><time>2026-05-03T07:33:32.756Z</time></trkpt><trkpt lat="43.2844814" lon="11.548234"><ele>295.0</ele><time>2026-05-03T07:33:35.696Z</time></trkpt><trkpt lat="43.2844307" lon="11.548334"><ele>295.0</ele><time>2026-05-03T07:33:38.759Z</time></trkpt><trkpt lat="43.2843827" lon="11.5484248"><ele>295.0</ele><time>2026-05-03T07:33:41.757Z</time></trkpt><trkpt lat="43.2843313" lon="11.5485232"><ele>295.0</ele><time>2026-05-03T07:33:44.77Z</time></trkpt><trkpt lat="43.2842758" lon="11.5486072"><ele>295.0</ele><time>2026-05-03T07:33:47.763Z</time></trkpt><trkpt lat="43.2842184" lon="11.5486745"><ele>295.0</ele><time>2026-05-03T07:33:50.699Z</time></trkpt><trkpt lat="43.2841538" lon="11.5487311"><ele>295.3333333333333</ele><time>2026-05-03T07:33:53.754Z</time></trkpt><trkpt lat="43.2840824" lon="11.5487691"><ele>295.66666666666663</ele><time>2026-05-03T07:33:57.76Z</time></trkpt><trkpt lat="43.2840048" lon="11.5487893"><ele>296.0</ele><time>2026-05-03T07:34:01.805Z</time></trkpt><trkpt lat="43.2839263" lon="11.5487915"><ele>296.3333333333333</ele><time>2026-05-03T07:34:05.809Z</time></trkpt><trkpt lat="43.2838501" lon="11.5487904"><ele>296.6666666666667</ele><time>2026-05-03T07:34:09.79Z</time></trkpt><trkpt lat="43.2837727" lon="11.548784"><ele>297.0</ele><time>2026-05-03T07:34:13.804Z</time></trkpt><trkpt lat="43.2836969" lon="11.5487656"><ele>297.2857142857143</ele><time>2026-05-03T07:34:17.77Z</time></trkpt><trkpt lat="43.283611" lon="11.5487357"><ele>297.5714285714286</ele><time>2026-05-03T07:34:21.779Z</time></trkpt><trkpt lat="43.2835452" lon="11.5487109"><ele>297.8571428571429</ele><time>2026-05-03T07:34:24.745Z</time></trkpt><trkpt lat="43.2834805" lon="11.5486925"><ele>298.14285714285717</ele><time>2026-05-03T07:34:27.768Z</time></trkpt><trkpt lat="43.2834062" lon="11.5486661"><ele>298.42857142857144</ele><time>2026-05-03T07:34:31.775Z</time></trkpt><trkpt lat="43.2833444" lon="11.5486464"><ele>298.7142857142857</ele><time>2026-05-03T07:34:34.759Z</time></trkpt><trkpt lat="43.2832772" lon="11.5486135"><ele>299.0</ele><time>2026-05-03T07:34:37.787Z</time></trkpt><trkpt lat="43.2832048" lon="11.5485675"><ele>299.0</ele><time>2026-05-03T07:34:40.792Z</time></trkpt><trkpt lat="43.2831305" lon="11.5485108"><ele>299.0</ele><time>2026-05-03T07:34:43.716Z</time></trkpt><trkpt lat="43.2830738" lon="11.5484694"><ele>299.0</ele><time>2026-05-03T07:34:45.775Z</time></trkpt><trkpt lat="43.2829975" lon="11.5484133"><ele>299.0</ele><time>2026-05-03T07:34:48.755Z</time></trkpt><trkpt lat="43.2829152" lon="11.5483729"><ele>299.0</ele><time>2026-05-03T07:34:51.802Z</time></trkpt><trkpt lat="43.2828346" lon="11.5483483"><ele>299.0</ele><time>2026-05-03T07:34:54.775Z</time></trkpt><trkpt lat="43.2827461" lon="11.5483356"><ele>300.5</ele><time>2026-05-03T07:34:57.77Z</time></trkpt><trkpt lat="43.2826658" lon="11.5483245"><ele>302.0</ele><time>2026-05-03T07:35:00.813Z</time></trkpt><trkpt lat="43.2825881" lon="11.5483124"><ele>303.5</ele><time>2026-05-03T07:35:03.679Z</time></trkpt><trkpt lat="43.282505" lon="11.5482883"><ele>305.0</ele><time>2026-05-03T07:35:06.763Z</time></trkpt><trkpt lat="43.2824336" lon="11.5482635"><ele>306.5</ele><time>2026-05-03T07:35:09.76Z</time></trkpt><trkpt lat="43.2823569" lon="11.5482272"><ele>308.0</ele><time>2026-05-03T07:35:12.82Z</time></trkpt><trkpt lat="43.2822748" lon="11.5481987"><ele>306.83333333333337</ele><time>2026-05-03T07:35:15.77Z</time></trkpt><trkpt lat="43.282201" lon="11.5481896"><ele>305.6666666666667</ele><time>2026-05-03T07:35:18.697Z</time></trkpt><trkpt lat="43.2821247" lon="11.5481955"><ele>304.5</ele><time>2026-05-03T07:35:21.753Z</time></trkpt><trkpt lat="43.2820467" lon="11.5482122"><ele>303.3333333333333</ele><time>2026-05-03T07:35:24.767Z</time></trkpt><trkpt lat="43.2819871" lon="11.5481693"><ele>302.16666666666663</ele><time>2026-05-03T07:35:26.799Z</time></trkpt><trkpt lat="43.2818994" lon="11.5481375"><ele>301.0</ele><time>2026-05-03T07:35:29.773Z</time></trkpt><trkpt lat="43.2818156" lon="11.5481528"><ele>301.0</ele><time>2026-05-03T07:35:32.739Z</time></trkpt><trkpt lat="43.2817413" lon="11.548191"><ele>301.0</ele><time>2026-05-03T07:35:35.66Z</time></trkpt><trkpt lat="43.2816667" lon="11.5482498"><ele>301.0</ele><time>2026-05-03T07:35:38.777Z</time></trkpt><trkpt lat="43.2816077" lon="11.5482923"><ele>301.0</ele><time>2026-05-03T07:35:40.778Z</time></trkpt><trkpt lat="43.2815472" lon="11.5483331"><ele>301.0</ele><time>2026-05-03T07:35:42.78Z</time></trkpt><trkpt lat="43.281488" lon="11.5483762"><ele>301.0</ele><time>2026-05-03T07:35:44.706Z</time></trkpt><trkpt lat="43.2814224" lon="11.5484315"><ele>301.0</ele><time>2026-05-03T07:35:46.793Z</time></trkpt><trkpt lat="43.2813665" lon="11.548493"><ele>297.66666666666663</ele><time>2026-05-03T07:35:48.785Z</time></trkpt><trkpt lat="43.2812981" lon="11.5485632"><ele>294.3333333333333</ele><time>2026-05-03T07:35:51.714Z</time></trkpt><trkpt lat="43.2812312" lon="11.5486373"><ele>291.0</ele><time>2026-05-03T07:35:54.769Z</time></trkpt><trkpt lat="43.2811798" lon="11.5486888"><ele>287.6666666666667</ele><time>2026-05-03T07:35:56.783Z</time></trkpt><trkpt lat="43.2811186" lon="11.5487648"><ele>284.33333333333337</ele><time>2026-05-03T07:35:59.698Z</time></trkpt><trkpt lat="43.2810555" lon="11.5488446"><ele>281.0</ele><time>2026-05-03T07:36:02.746Z</time></trkpt><trkpt lat="43.2810085" lon="11.5489063"><ele>281.0</ele><time>2026-05-03T07:36:04.753Z</time></trkpt><trkpt lat="43.2809646" lon="11.5489731"><ele>281.0</ele><time>2026-05-03T07:36:06.79Z</time></trkpt><trkpt lat="43.2809114" lon="11.5490653"><ele>281.0</ele><time>2026-05-03T07:36:08.733Z</time></trkpt><trkpt lat="43.2808605" lon="11.5491426"><ele>281.0</ele><time>2026-05-03T07:36:10.563Z</time></trkpt><trkpt lat="43.2808038" lon="11.5492173"><ele>281.0</ele><time>2026-05-03T07:36:12.423Z</time></trkpt><trkpt lat="43.2807505" lon="11.5493016"><ele>281.0</ele><time>2026-05-03T07:36:14.294Z</time></trkpt><trkpt lat="43.2806884" lon="11.5493799"><ele>281.0</ele><time>2026-05-03T07:36:16.178Z</time></trkpt><trkpt lat="43.2806278" lon="11.5494445"><ele>281.0</ele><time>2026-05-03T07:36:18.098Z</time></trkpt><trkpt lat="43.2805675" lon="11.5494959"><ele>281.0</ele><time>2026-05-03T07:36:20.118Z</time></trkpt><trkpt lat="43.2805163" lon="11.5495509"><ele>281.0</ele><time>2026-05-03T07:36:22.199Z</time></trkpt><trkpt lat="43.2804637" lon="11.5496037"><ele>281.0</ele><time>2026-05-03T07:36:24.299Z</time></trkpt><trkpt lat="43.2803891" lon="11.5496731"><ele>281.0</ele><time>2026-05-03T07:36:27.382Z</time></trkpt><trkpt lat="43.2802983" lon="11.5497239"><ele>279.28571428571433</ele><time>2026-05-03T07:36:30.496Z</time></trkpt><trkpt lat="43.280238" lon="11.5497605"><ele>277.57142857142856</ele><time>2026-05-03T07:36:32.565Z</time></trkpt><trkpt lat="43.2801748" lon="11.549787"><ele>275.8571428571429</ele><time>2026-05-03T07:36:34.677Z</time></trkpt><trkpt lat="43.2801173" lon="11.5498352"><ele>274.14285714285717</ele><time>2026-05-03T07:36:36.777Z</time></trkpt><trkpt lat="43.2800318" lon="11.5498755"><ele>272.42857142857144</ele><time>2026-05-03T07:36:39.776Z</time></trkpt><trkpt lat="43.2799555" lon="11.5499034"><ele>270.7142857142857</ele><time>2026-05-03T07:36:42.773Z</time></trkpt><trkpt lat="43.2798801" lon="11.549931"><ele>269.0</ele><time>2026-05-03T07:36:45.815Z</time></trkpt><trkpt lat="43.2798066" lon="11.5499309"><ele>269.5</ele><time>2026-05-03T07:36:48.771Z</time></trkpt><trkpt lat="43.2797332" lon="11.5499384"><ele>270.0</ele><time>2026-05-03T07:36:51.789Z</time></trkpt><trkpt lat="43.2796513" lon="11.5499214"><ele>270.5</ele><time>2026-05-03T07:36:54.657Z</time></trkpt><trkpt lat="43.279564" lon="11.5498997"><ele>271.0</ele><time>2026-05-03T07:36:57.775Z</time></trkpt><trkpt lat="43.2794909" lon="11.5498792"><ele>271.5</ele><time>2026-05-03T07:37:00.741Z</time></trkpt><trkpt lat="43.2794176" lon="11.5498571"><ele>272.0</ele><time>2026-05-03T07:37:03.773Z</time></trkpt><trkpt lat="43.2793486" lon="11.5498378"><ele>271.99999999999994</ele><time>2026-05-03T07:37:06.786Z</time></trkpt><trkpt lat="43.2792726" lon="11.5497949"><ele>272.0</ele><time>2026-05-03T07:37:10.792Z</time></trkpt><trkpt lat="43.2792097" lon="11.5497328"><ele>272.0</ele><time>2026-05-03T07:37:14.776Z</time></trkpt><trkpt lat="43.2791445" lon="11.5497034"><ele>272.0</ele><time>2026-05-03T07:37:17.8Z</time></trkpt><trkpt lat="43.2790877" lon="11.5496595"><ele>272.0</ele><time>2026-05-03T07:37:20.809Z</time></trkpt><trkpt lat="43.2790298" lon="11.549623"><ele>271.99999999999994</ele><time>2026-05-03T07:37:23.754Z</time></trkpt><trkpt lat="43.2789648" lon="11.5495873"><ele>272.0</ele><time>2026-05-03T07:37:26.767Z</time></trkpt><trkpt lat="43.2788985" lon="11.5495451"><ele>272.33333333333337</ele><time>2026-05-03T07:37:29.763Z</time></trkpt><trkpt lat="43.2788297" lon="11.549511"><ele>272.6666666666667</ele><time>2026-05-03T07:37:32.774Z</time></trkpt><trkpt lat="43.2787529" lon="11.5494911"><ele>273.0</ele><time>2026-05-03T07:37:35.799Z</time></trkpt><trkpt lat="43.2786768" lon="11.5494746"><ele>273.3333333333333</ele><time>2026-05-03T07:37:38.7Z</time></trkpt><trkpt lat="43.2785908" lon="11.5494625"><ele>273.66666666666663</ele><time>2026-05-03T07:37:41.818Z</time></trkpt><trkpt lat="43.2785203" lon="11.5494489"><ele>274.0</ele><time>2026-05-03T07:37:44.761Z</time></trkpt><trkpt lat="43.2784505" lon="11.5494415"><ele>274.00000000000006</ele><time>2026-05-03T07:37:47.678Z</time></trkpt><trkpt lat="43.278374" lon="11.5494363"><ele>274.0</ele><time>2026-05-03T07:37:50.78Z</time></trkpt><trkpt lat="43.2783016" lon="11.5494349"><ele>274.0</ele><time>2026-05-03T07:37:53.79Z</time></trkpt><trkpt lat="43.2782338" lon="11.5494297"><ele>274.0</ele><time>2026-05-03T07:37:56.735Z</time></trkpt><trkpt lat="43.2781594" lon="11.5494275"><ele>274.0</ele><time>2026-05-03T07:37:59.769Z</time></trkpt><trkpt lat="43.2780859" lon="11.5494323"><ele>274.00000000000006</ele><time>2026-05-03T07:38:02.783Z</time></trkpt><trkpt lat="43.2780166" lon="11.5494288"><ele>274.0</ele><time>2026-05-03T07:38:05.78Z</time></trkpt><trkpt lat="43.27793" lon="11.5494218"><ele>276.14285714285717</ele><time>2026-05-03T07:38:09.791Z</time></trkpt><trkpt lat="43.277867" lon="11.5494082"><ele>278.2857142857143</ele><time>2026-05-03T07:38:12.681Z</time></trkpt><trkpt lat="43.2778029" lon="11.5493893"><ele>280.42857142857144</ele><time>2026-05-03T07:38:15.791Z</time></trkpt><trkpt lat="43.2777424" lon="11.5493616"><ele>282.57142857142856</ele><time>2026-05-03T07:38:18.801Z</time></trkpt><trkpt lat="43.2776837" lon="11.5493266"><ele>284.7142857142857</ele><time>2026-05-03T07:38:21.787Z</time></trkpt><trkpt lat="43.2776235" lon="11.5492753"><ele>286.8571428571429</ele><time>2026-05-03T07:38:25.756Z</time></trkpt><trkpt lat="43.277552" lon="11.5492249"><ele>289.0</ele><time>2026-05-03T07:38:30.684Z</time></trkpt><trkpt lat="43.277488" lon="11.5491667"><ele>289.0</ele><time>2026-05-03T07:38:34.778Z</time></trkpt><trkpt lat="43.2774328" lon="11.5491161"><ele>289.0</ele><time>2026-05-03T07:38:38.751Z</time></trkpt><trkpt lat="43.2773694" lon="11.5490688"><ele>289.0</ele><time>2026-05-03T07:38:42.756Z</time></trkpt><trkpt lat="43.2773133" lon="11.5490237"><ele>289.0</ele><time>2026-05-03T07:38:45.738Z</time></trkpt><trkpt lat="43.2772513" lon="11.548975"><ele>289.0</ele><time>2026-05-03T07:38:48.74Z</time></trkpt><trkpt lat="43.2771851" lon="11.5489201"><ele>289.0</ele><time>2026-05-03T07:38:51.774Z</time></trkpt><trkpt lat="43.2771203" lon="11.5488734"><ele>289.0</ele><time>2026-05-03T07:38:54.729Z</time></trkpt><trkpt lat="43.2770547" lon="11.5488136"><ele>289.7142857142857</ele><time>2026-05-03T07:38:57.75Z</time></trkpt><trkpt lat="43.2770026" lon="11.5487475"><ele>290.42857142857144</ele><time>2026-05-03T07:39:00.764Z</time></trkpt><trkpt lat="43.2769435" lon="11.5486921"><ele>291.1428571428571</ele><time>2026-05-03T07:39:03.758Z</time></trkpt><trkpt lat="43.2768916" lon="11.5486343"><ele>291.8571428571429</ele><time>2026-05-03T07:39:06.76Z</time></trkpt><trkpt lat="43.2768398" lon="11.5485821"><ele>292.57142857142856</ele><time>2026-05-03T07:39:09.776Z</time></trkpt><trkpt lat="43.2767824" lon="11.5485325"><ele>293.2857142857143</ele><time>2026-05-03T07:39:12.728Z</time></trkpt><trkpt lat="43.2767253" lon="11.5484906"><ele>294.0</ele><time>2026-05-03T07:39:15.702Z</time></trkpt><trkpt lat="43.2766637" lon="11.5484676"><ele>294.0</ele><time>2026-05-03T07:39:19.637Z</time></trkpt><trkpt lat="43.2765979" lon="11.5484362"><ele>294.0</ele><time>2026-05-03T07:39:25.764Z</time></trkpt><trkpt lat="43.2765411" lon="11.5483961"><ele>294.0</ele><time>2026-05-03T07:39:45.782Z</time></trkpt><trkpt lat="43.2764852" lon="11.5483545"><ele>294.0</ele><time>2026-05-03T07:39:50.761Z</time></trkpt><trkpt lat="43.2764242" lon="11.5483291"><ele>294.0</ele><time>2026-05-03T07:39:55.769Z</time></trkpt><trkpt lat="43.2763594" lon="11.5483004"><ele>294.0</ele><time>2026-05-03T07:40:00.75Z</time></trkpt><trkpt lat="43.2763025" lon="11.5482509"><ele>294.0</ele><time>2026-05-03T07:40:05.736Z</time></trkpt><trkpt lat="43.2762198" lon="11.5482246"><ele>295.1666666666667</ele><time>2026-05-03T07:40:09.794Z</time></trkpt><trkpt lat="43.2761414" lon="11.5482242"><ele>296.3333333333333</ele><time>2026-05-03T07:40:12.695Z</time></trkpt><trkpt lat="43.2760562" lon="11.5481879"><ele>297.5</ele><time>2026-05-03T07:40:15.748Z</time></trkpt><trkpt lat="43.2759741" lon="11.5481428"><ele>298.66666666666663</ele><time>2026-05-03T07:40:18.756Z</time></trkpt><trkpt lat="43.2758981" lon="11.5480982"><ele>299.8333333333333</ele><time>2026-05-03T07:40:21.765Z</time></trkpt><trkpt lat="43.2758271" lon="11.5480596"><ele>301.0</ele><time>2026-05-03T07:40:24.464Z</time></trkpt><trkpt lat="43.2757461" lon="11.5480123"><ele>301.0</ele><time>2026-05-03T07:40:27.802Z</time></trkpt><trkpt lat="43.2756686" lon="11.5479739"><ele>301.0</ele><time>2026-05-03T07:40:30.815Z</time></trkpt><trkpt lat="43.2755987" lon="11.5479368"><ele>301.0</ele><time>2026-05-03T07:40:33.659Z</time></trkpt><trkpt lat="43.2755171" lon="11.5478891"><ele>301.0</ele><time>2026-05-03T07:40:36.815Z</time></trkpt><trkpt lat="43.2754695" lon="11.5478317"><ele>301.0</ele><time>2026-05-03T07:40:38.838Z</time></trkpt><trkpt lat="43.2753964" lon="11.5477649"><ele>301.0</ele><time>2026-05-03T07:40:41.685Z</time></trkpt><trkpt lat="43.2753437" lon="11.5477173"><ele>298.85714285714283</ele><time>2026-05-03T07:40:43.778Z</time></trkpt><trkpt lat="43.2752697" lon="11.5476448"><ele>296.7142857142857</ele><time>2026-05-03T07:40:46.753Z</time></trkpt><trkpt lat="43.2752168" lon="11.5475878"><ele>294.57142857142856</ele><time>2026-05-03T07:40:48.784Z</time></trkpt><trkpt lat="43.2751614" lon="11.5475363"><ele>292.42857142857144</ele><time>2026-05-03T07:40:50.77Z</time></trkpt><trkpt lat="43.2750987" lon="11.5474796"><ele>290.2857142857143</ele><time>2026-05-03T07:40:52.801Z</time></trkpt><trkpt lat="43.275035" lon="11.5474323"><ele>288.1428571428571</ele><time>2026-05-03T07:40:54.795Z</time></trkpt><trkpt lat="43.2749769" lon="11.5473842"><ele>286.0</ele><time>2026-05-03T07:40:56.756Z</time></trkpt><trkpt lat="43.2749202" lon="11.5473342"><ele>286.0</ele><time>2026-05-03T07:40:58.755Z</time></trkpt><trkpt lat="43.2748652" lon="11.5472758"><ele>286.0</ele><time>2026-05-03T07:41:00.701Z</time></trkpt><trkpt lat="43.2748104" lon="11.5472277"><ele>286.0</ele><time>2026-05-03T07:41:02.641Z</time></trkpt><trkpt lat="43.2747504" lon="11.5471884"><ele>286.0</ele><time>2026-05-03T07:41:04.701Z</time></trkpt><trkpt lat="43.2746681" lon="11.5471317"><ele>286.0</ele><time>2026-05-03T07:41:07.778Z</time></trkpt><trkpt lat="43.2745782" lon="11.5470949"><ele>286.0</ele><time>2026-05-03T07:41:10.744Z</time></trkpt><trkpt lat="43.2745145" lon="11.5470989"><ele>284.99999999999994</ele><time>2026-05-03T07:41:12.819Z</time></trkpt><trkpt lat="43.2744274" lon="11.5470921"><ele>284.0</ele><time>2026-05-03T07:41:15.772Z</time></trkpt><trkpt lat="43.2743619" lon="11.547098"><ele>283.0</ele><time>2026-05-03T07:41:17.748Z</time></trkpt><trkpt lat="43.2742999" lon="11.5471135"><ele>282.0</ele><time>2026-05-03T07:41:19.68Z</time></trkpt><trkpt lat="43.2742382" lon="11.5471328"><ele>281.0</ele><time>2026-05-03T07:41:21.799Z</time></trkpt><trkpt lat="43.2741601" lon="11.5471501"><ele>279.99999999999994</ele><time>2026-05-03T07:41:24.77Z</time></trkpt><trkpt lat="43.2740765" lon="11.5471636"><ele>279.0</ele><time>2026-05-03T07:41:27.744Z</time></trkpt><trkpt lat="43.2739861" lon="11.5471505"><ele>277.1666666666667</ele><time>2026-05-03T07:41:30.762Z</time></trkpt><trkpt lat="43.2739216" lon="11.5471334"><ele>275.3333333333333</ele><time>2026-05-03T07:41:32.695Z</time></trkpt><trkpt lat="43.273833" lon="11.5471021"><ele>273.5</ele><time>2026-05-03T07:41:35.717Z</time></trkpt><trkpt lat="43.273745" lon="11.5470601"><ele>271.66666666666663</ele><time>2026-05-03T07:41:38.764Z</time></trkpt><trkpt lat="43.2736836" lon="11.5470302"><ele>269.8333333333333</ele><time>2026-05-03T07:41:40.763Z</time></trkpt><trkpt lat="43.2736081" lon="11.5469725"><ele>268.0</ele><time>2026-05-03T07:41:43.721Z</time></trkpt><trkpt lat="43.2735375" lon="11.5469036"><ele>266.8333333333333</ele><time>2026-05-03T07:41:46.78Z</time></trkpt><trkpt lat="43.2734818" lon="11.5468144"><ele>265.66666666666663</ele><time>2026-05-03T07:41:49.718Z</time></trkpt><trkpt lat="43.2734333" lon="11.5467208"><ele>264.5</ele><time>2026-05-03T07:41:52.77Z</time></trkpt><trkpt lat="43.2733957" lon="11.5466151"><ele>263.3333333333333</ele><time>2026-05-03T07:41:55.722Z</time></trkpt><trkpt lat="43.2733599" lon="11.5465435"><ele>262.1666666666667</ele><time>2026-05-03T07:41:57.774Z</time></trkpt><trkpt lat="43.2733208" lon="11.546427"><ele>261.0</ele><time>2026-05-03T07:42:00.783Z</time></trkpt><trkpt lat="43.2732865" lon="11.5463132"><ele>259.7142857142857</ele><time>2026-05-03T07:42:03.762Z</time></trkpt><trkpt lat="43.2732572" lon="11.5461984"><ele>258.42857142857144</ele><time>2026-05-03T07:42:06.777Z</time></trkpt><trkpt lat="43.2732393" lon="11.5461124"><ele>257.1428571428571</ele><time>2026-05-03T07:42:08.764Z</time></trkpt><trkpt lat="43.2732273" lon="11.5460257"><ele>255.85714285714286</ele><time>2026-05-03T07:42:10.744Z</time></trkpt><trkpt lat="43.2732096" lon="11.5459355"><ele>254.57142857142856</ele><time>2026-05-03T07:42:12.761Z</time></trkpt><trkpt lat="43.2731912" lon="11.5458442"><ele>253.28571428571428</ele><time>2026-05-03T07:42:14.811Z</time></trkpt><trkpt lat="43.2731658" lon="11.545749"><ele>252.0</ele><time>2026-05-03T07:42:16.78Z</time></trkpt><trkpt lat="43.273153" lon="11.5456637"><ele>252.0</ele><time>2026-05-03T07:42:18.714Z</time></trkpt><trkpt lat="43.2731514" lon="11.5455727"><ele>252.0</ele><time>2026-05-03T07:42:20.77Z</time></trkpt><trkpt lat="43.2731498" lon="11.5454845"><ele>252.0</ele><time>2026-05-03T07:42:22.779Z</time></trkpt><trkpt lat="43.2731489" lon="11.5453701"><ele>252.0</ele><time>2026-05-03T07:42:25.758Z</time></trkpt><trkpt lat="43.2731432" lon="11.5452504"><ele>252.0</ele><time>2026-05-03T07:42:28.803Z</time></trkpt><trkpt lat="43.2731439" lon="11.5451331"><ele>252.0</ele><time>2026-05-03T07:42:31.683Z</time></trkpt><trkpt lat="43.2731498" lon="11.5450465"><ele>250.83333333333334</ele><time>2026-05-03T07:42:33.785Z</time></trkpt><trkpt lat="43.2731559" lon="11.5449585"><ele>249.66666666666669</ele><time>2026-05-03T07:42:35.803Z</time></trkpt><trkpt lat="43.2731572" lon="11.5448348"><ele>248.5</ele><time>2026-05-03T07:42:38.78Z</time></trkpt><trkpt lat="43.2731623" lon="11.5447293"><ele>247.33333333333334</ele><time>2026-05-03T07:42:41.433Z</time></trkpt><trkpt lat="43.2731735" lon="11.5446338"><ele>246.16666666666669</ele><time>2026-05-03T07:42:43.744Z</time></trkpt><trkpt lat="43.2731808" lon="11.5445114"><ele>245.0</ele><time>2026-05-03T07:42:46.657Z</time></trkpt><trkpt lat="43.2732071" lon="11.5443972"><ele>244.16666666666669</ele><time>2026-05-03T07:42:49.781Z</time></trkpt><trkpt lat="43.2732389" lon="11.5443223"><ele>243.33333333333334</ele><time>2026-05-03T07:42:51.778Z</time></trkpt><trkpt lat="43.2732753" lon="11.5442415"><ele>242.5</ele><time>2026-05-03T07:42:53.791Z</time></trkpt><trkpt lat="43.2733253" lon="11.5441719"><ele>241.66666666666669</ele><time>2026-05-03T07:42:55.784Z</time></trkpt><trkpt lat="43.2733907" lon="11.5440811"><ele>240.83333333333334</ele><time>2026-05-03T07:42:58.772Z</time></trkpt><trkpt lat="43.2734526" lon="11.5440033"><ele>240.0</ele><time>2026-05-03T07:43:01.777Z</time></trkpt><trkpt lat="43.2735074" lon="11.5439222"><ele>240.0</ele><time>2026-05-03T07:43:04.701Z</time></trkpt><trkpt lat="43.2735472" lon="11.5438482"><ele>240.0</ele><time>2026-05-03T07:43:06.775Z</time></trkpt><trkpt lat="43.2735896" lon="11.5437377"><ele>240.0</ele><time>2026-05-03T07:43:09.794Z</time></trkpt><trkpt lat="43.2736147" lon="11.543621"><ele>240.0</ele><time>2026-05-03T07:43:12.773Z</time></trkpt><trkpt lat="43.2736186" lon="11.543502"><ele>240.0</ele><time>2026-05-03T07:43:15.762Z</time></trkpt><trkpt lat="43.2735973" lon="11.5433814"><ele>240.0</ele><time>2026-05-03T07:43:18.781Z</time></trkpt><trkpt lat="43.2735524" lon="11.5432849"><ele>238.66666666666666</ele><time>2026-05-03T07:43:21.762Z</time></trkpt><trkpt lat="43.2735017" lon="11.5432044"><ele>237.33333333333331</ele><time>2026-05-03T07:43:24.678Z</time></trkpt><trkpt lat="43.2734464" lon="11.5431164"><ele>236.0</ele><time>2026-05-03T07:43:27.701Z</time></trkpt><trkpt lat="43.2733867" lon="11.5430488"><ele>234.66666666666666</ele><time>2026-05-03T07:43:30.764Z</time></trkpt><trkpt lat="43.2733182" lon="11.543007"><ele>233.33333333333331</ele><time>2026-05-03T07:43:33.779Z</time></trkpt><trkpt lat="43.273242" lon="11.542967"><ele>232.0</ele><time>2026-05-03T07:43:36.754Z</time></trkpt><trkpt lat="43.2731516" lon="11.5429257"><ele>230.2857142857143</ele><time>2026-05-03T07:43:39.686Z</time></trkpt><trkpt lat="43.2730873" lon="11.5429052"><ele>228.57142857142858</ele><time>2026-05-03T07:43:41.626Z</time></trkpt><trkpt lat="43.2730228" lon="11.5429022"><ele>226.85714285714286</ele><time>2026-05-03T07:43:43.635Z</time></trkpt><trkpt lat="43.2729601" lon="11.5429126"><ele>225.14285714285717</ele><time>2026-05-03T07:43:45.679Z</time></trkpt><trkpt lat="43.2728943" lon="11.5429311"><ele>223.42857142857144</ele><time>2026-05-03T07:43:47.728Z</time></trkpt><trkpt lat="43.2728071" lon="11.5429456"><ele>221.7142857142857</ele><time>2026-05-03T07:43:50.719Z</time></trkpt><trkpt lat="43.2727157" lon="11.5429421"><ele>220.0</ele><time>2026-05-03T07:43:53.759Z</time></trkpt><trkpt lat="43.2726609" lon="11.5428763"><ele>218.49999999999997</ele><time>2026-05-03T07:43:56.781Z</time></trkpt><trkpt lat="43.2726254" lon="11.5427673"><ele>217.0</ele><time>2026-05-03T07:43:59.757Z</time></trkpt><trkpt lat="43.272589" lon="11.5426498"><ele>215.5</ele><time>2026-05-03T07:44:02.769Z</time></trkpt><trkpt lat="43.2725768" lon="11.54253"><ele>214.0</ele><time>2026-05-03T07:44:05.737Z</time></trkpt><trkpt lat="43.2725556" lon="11.5424024"><ele>212.49999999999997</ele><time>2026-05-03T07:44:08.786Z</time></trkpt><trkpt lat="43.2725445" lon="11.5423007"><ele>211.0</ele><time>2026-05-03T07:44:10.762Z</time></trkpt><trkpt lat="43.2725319" lon="11.5421957"><ele>211.0</ele><time>2026-05-03T07:44:12.788Z</time></trkpt><trkpt lat="43.2725124" lon="11.5421057"><ele>211.0</ele><time>2026-05-03T07:44:14.664Z</time></trkpt><trkpt lat="43.2725015" lon="11.542009"><ele>211.0</ele><time>2026-05-03T07:44:16.694Z</time></trkpt><trkpt lat="43.2724891" lon="11.5419138"><ele>211.0</ele><time>2026-05-03T07:44:18.698Z</time></trkpt><trkpt lat="43.2724815" lon="11.5417875"><ele>211.0</ele><time>2026-05-03T07:44:21.752Z</time></trkpt><trkpt lat="43.2724763" lon="11.5417004"><ele>211.0</ele><time>2026-05-03T07:44:23.759Z</time></trkpt><trkpt lat="43.2724646" lon="11.5416077"><ele>211.0</ele><time>2026-05-03T07:44:25.739Z</time></trkpt><trkpt lat="43.2724488" lon="11.5415069"><ele>209.66666666666666</ele><time>2026-05-03T07:44:27.681Z</time></trkpt><trkpt lat="43.2724356" lon="11.5413998"><ele>208.33333333333331</ele><time>2026-05-03T07:44:29.623Z</time></trkpt><trkpt lat="43.2724244" lon="11.5413047"><ele>207.0</ele><time>2026-05-03T07:44:31.506Z</time></trkpt><trkpt lat="43.2724061" lon="11.5412187"><ele>205.66666666666669</ele><time>2026-05-03T07:44:33.506Z</time></trkpt><trkpt lat="43.2723684" lon="11.541086"><ele>204.33333333333334</ele><time>2026-05-03T07:44:36.796Z</time></trkpt><trkpt lat="43.2723271" lon="11.5409944"><ele>203.0</ele><time>2026-05-03T07:44:39.742Z</time></trkpt><trkpt lat="43.2722836" lon="11.5409083"><ele>201.00000000000003</ele><time>2026-05-03T07:44:42.73Z</time></trkpt><trkpt lat="43.2722436" lon="11.5408155"><ele>199.0</ele><time>2026-05-03T07:44:45.791Z</time></trkpt><trkpt lat="43.2722103" lon="11.540724"><ele>197.0</ele><time>2026-05-03T07:44:48.701Z</time></trkpt><trkpt lat="43.2721612" lon="11.5406281"><ele>195.0</ele><time>2026-05-03T07:44:51.821Z</time></trkpt><trkpt lat="43.2721262" lon="11.5405308"><ele>193.0</ele><time>2026-05-03T07:44:54.75Z</time></trkpt><trkpt lat="43.2720852" lon="11.5404335"><ele>191.0</ele><time>2026-05-03T07:44:57.783Z</time></trkpt><trkpt lat="43.2720441" lon="11.5403312"><ele>190.66666666666666</ele><time>2026-05-03T07:45:00.787Z</time></trkpt><trkpt lat="43.2720002" lon="11.5402217"><ele>190.33333333333331</ele><time>2026-05-03T07:45:03.801Z</time></trkpt><trkpt lat="43.2719702" lon="11.5401446"><ele>190.0</ele><time>2026-05-03T07:45:05.762Z</time></trkpt><trkpt lat="43.2719285" lon="11.5400444"><ele>189.66666666666666</ele><time>2026-05-03T07:45:08.68Z</time></trkpt><trkpt lat="43.2718927" lon="11.5399654"><ele>189.33333333333334</ele><time>2026-05-03T07:45:10.755Z</time></trkpt><trkpt lat="43.271862" lon="11.5398874"><ele>189.0</ele><time>2026-05-03T07:45:12.793Z</time></trkpt><trkpt lat="43.2718177" lon="11.5397758"><ele>189.0</ele><time>2026-05-03T07:45:15.71Z</time></trkpt><trkpt lat="43.2717882" lon="11.5396977"><ele>189.0</ele><time>2026-05-03T07:45:17.774Z</time></trkpt><trkpt lat="43.2717589" lon="11.5396172"><ele>189.0</ele><time>2026-05-03T07:45:19.787Z</time></trkpt><trkpt lat="43.2717193" lon="11.5395134"><ele>189.0</ele><time>2026-05-03T07:45:22.678Z</time></trkpt><trkpt lat="43.2716878" lon="11.5394356"><ele>189.0</ele><time>2026-05-03T07:45:24.761Z</time></trkpt><trkpt lat="43.2716593" lon="11.5393499"><ele>189.0</ele><time>2026-05-03T07:45:26.76Z</time></trkpt><trkpt lat="43.2716266" lon="11.539272"><ele>189.0</ele><time>2026-05-03T07:45:28.812Z</time></trkpt><trkpt lat="43.2715911" lon="11.5391894"><ele>188.71428571428572</ele><time>2026-05-03T07:45:30.765Z</time></trkpt><trkpt lat="43.2715599" lon="11.5391138"><ele>188.42857142857144</ele><time>2026-05-03T07:45:32.718Z</time></trkpt><trkpt lat="43.2715221" lon="11.5390371"><ele>188.14285714285714</ele><time>2026-05-03T07:45:34.78Z</time></trkpt><trkpt lat="43.2714886" lon="11.5389605"><ele>187.85714285714286</ele><time>2026-05-03T07:45:36.783Z</time></trkpt><trkpt lat="43.2714553" lon="11.538884"><ele>187.57142857142858</ele><time>2026-05-03T07:45:38.771Z</time></trkpt><trkpt lat="43.2714098" lon="11.5387713"><ele>187.28571428571428</ele><time>2026-05-03T07:45:41.693Z</time></trkpt><trkpt lat="43.2713784" lon="11.5386889"><ele>187.0</ele><time>2026-05-03T07:45:43.775Z</time></trkpt><trkpt lat="43.271338" lon="11.5385759"><ele>186.33333333333334</ele><time>2026-05-03T07:45:46.787Z</time></trkpt><trkpt lat="43.2712967" lon="11.5384746"><ele>185.66666666666669</ele><time>2026-05-03T07:45:49.758Z</time></trkpt><trkpt lat="43.271247" lon="11.538373"><ele>185.0</ele><time>2026-05-03T07:45:52.785Z</time></trkpt><trkpt lat="43.2711955" lon="11.5382708"><ele>184.33333333333334</ele><time>2026-05-03T07:45:55.698Z</time></trkpt><trkpt lat="43.2711525" lon="11.5381967"><ele>183.66666666666666</ele><time>2026-05-03T07:45:57.773Z</time></trkpt><trkpt lat="43.2711091" lon="11.5381318"><ele>183.0</ele><time>2026-05-03T07:45:59.767Z</time></trkpt><trkpt lat="43.2710511" lon="11.538044"><ele>183.0</ele><time>2026-05-03T07:46:02.796Z</time></trkpt><trkpt lat="43.2709922" lon="11.5379744"><ele>183.0</ele><time>2026-05-03T07:46:05.717Z</time></trkpt><trkpt lat="43.2709289" lon="11.5379125"><ele>183.0</ele><time>2026-05-03T07:46:08.772Z</time></trkpt><trkpt lat="43.2708774" lon="11.5378572"><ele>183.0</ele><time>2026-05-03T07:46:11.788Z</time></trkpt><trkpt lat="43.2708169" lon="11.5378093"><ele>183.0</ele><time>2026-05-03T07:46:15.777Z</time></trkpt><trkpt lat="43.2707553" lon="11.5377568"><ele>183.0</ele><time>2026-05-03T07:46:21.771Z</time></trkpt><trkpt lat="43.2706967" lon="11.5377082"><ele>183.0</ele><time>2026-05-03T07:46:36.765Z</time></trkpt><trkpt lat="43.2706229" lon="11.5377017"><ele>184.0</ele><time>2026-05-03T07:46:42.789Z</time></trkpt><trkpt lat="43.2705598" lon="11.5376913"><ele>185.0</ele><time>2026-05-03T07:46:51.776Z</time></trkpt><trkpt lat="43.2704861" lon="11.5376701"><ele>186.0</ele><time>2026-05-03T07:47:01.794Z</time></trkpt><trkpt lat="43.2704213" lon="11.5376534"><ele>187.0</ele><time>2026-05-03T07:47:06.763Z</time></trkpt><trkpt lat="43.2703535" lon="11.5376387"><ele>188.0</ele><time>2026-05-03T07:47:11.781Z</time></trkpt><trkpt lat="43.2702735" lon="11.5376219"><ele>189.0</ele><time>2026-05-03T07:47:15.679Z</time></trkpt><trkpt lat="43.2702102" lon="11.5376005"><ele>190.0</ele><time>2026-05-03T07:47:18.771Z</time></trkpt><trkpt lat="43.2701486" lon="11.5375734"><ele>190.0</ele><time>2026-05-03T07:47:21.772Z</time></trkpt><trkpt lat="43.270081" lon="11.5375606"><ele>190.0</ele><time>2026-05-03T07:47:24.679Z</time></trkpt><trkpt lat="43.2700085" lon="11.5375634"><ele>190.0</ele><time>2026-05-03T07:47:27.778Z</time></trkpt><trkpt lat="43.269927" lon="11.5375797"><ele>190.0</ele><time>2026-05-03T07:47:31.782Z</time></trkpt><trkpt lat="43.2698529" lon="11.5376257"><ele>190.0</ele><time>2026-05-03T07:47:35.76Z</time></trkpt><trkpt lat="43.2697811" lon="11.5376769"><ele>190.0</ele><time>2026-05-03T07:47:39.766Z</time></trkpt><trkpt lat="43.2697184" lon="11.5377128"><ele>191.85714285714286</ele><time>2026-05-03T07:47:43.782Z</time></trkpt><trkpt lat="43.2696536" lon="11.5377438"><ele>193.71428571428572</ele><time>2026-05-03T07:47:47.769Z</time></trkpt><trkpt lat="43.2695812" lon="11.5377592"><ele>195.57142857142856</ele><time>2026-05-03T07:47:51.694Z</time></trkpt><trkpt lat="43.2695066" lon="11.5377905"><ele>197.42857142857144</ele><time>2026-05-03T07:47:55.755Z</time></trkpt><trkpt lat="43.2694311" lon="11.5378082"><ele>199.28571428571428</ele><time>2026-05-03T07:47:59.761Z</time></trkpt><trkpt lat="43.2693623" lon="11.5378047"><ele>201.14285714285714</ele><time>2026-05-03T07:48:03.769Z</time></trkpt><trkpt lat="43.2692896" lon="11.5378235"><ele>203.0</ele><time>2026-05-03T07:48:07.766Z</time></trkpt><trkpt lat="43.2692157" lon="11.5378261"><ele>203.0</ele><time>2026-05-03T07:48:11.787Z</time></trkpt><trkpt lat="43.2691454" lon="11.5378167"><ele>203.0</ele><time>2026-05-03T07:48:15.788Z</time></trkpt><trkpt lat="43.2690766" lon="11.5377918"><ele>203.0</ele><time>2026-05-03T07:48:19.762Z</time></trkpt><trkpt lat="43.269007" lon="11.5377786"><ele>203.0</ele><time>2026-05-03T07:48:23.766Z</time></trkpt><trkpt lat="43.268934" lon="11.537772"><ele>203.0</ele><time>2026-05-03T07:48:27.752Z</time></trkpt><trkpt lat="43.268865" lon="11.5377444"><ele>203.0</ele><time>2026-05-03T07:48:31.779Z</time></trkpt><trkpt lat="43.2687882" lon="11.5377129"><ele>203.0</ele><time>2026-05-03T07:48:35.808Z</time></trkpt><trkpt lat="43.2687135" lon="11.5377152"><ele>205.0</ele><time>2026-05-03T07:48:39.78Z</time></trkpt><trkpt lat="43.2686358" lon="11.5377316"><ele>207.0</ele><time>2026-05-03T07:48:43.775Z</time></trkpt><trkpt lat="43.2685728" lon="11.5377583"><ele>209.0</ele><time>2026-05-03T07:48:47.737Z</time></trkpt><trkpt lat="43.2685164" lon="11.5378003"><ele>211.0</ele><time>2026-05-03T07:48:52.681Z</time></trkpt><trkpt lat="43.2684604" lon="11.5378429"><ele>213.0</ele><time>2026-05-03T07:48:57.768Z</time></trkpt><trkpt lat="43.2683994" lon="11.537881"><ele>215.0</ele><time>2026-05-03T07:49:03.775Z</time></trkpt><trkpt lat="43.2683389" lon="11.5379153"><ele>217.0</ele><time>2026-05-03T07:49:09.76Z</time></trkpt><trkpt lat="43.2682831" lon="11.5379619"><ele>217.42857142857142</ele><time>2026-05-03T07:49:14.788Z</time></trkpt><trkpt lat="43.2682275" lon="11.5380027"><ele>217.85714285714286</ele><time>2026-05-03T07:49:20.752Z</time></trkpt><trkpt lat="43.2681669" lon="11.538039"><ele>218.28571428571428</ele><time>2026-05-03T07:49:25.78Z</time></trkpt><trkpt lat="43.2681072" lon="11.5380806"><ele>218.71428571428572</ele><time>2026-05-03T07:49:30.776Z</time></trkpt><trkpt lat="43.2680421" lon="11.5381153"><ele>219.14285714285714</ele><time>2026-05-03T07:49:35.741Z</time></trkpt><trkpt lat="43.2679786" lon="11.5381661"><ele>219.57142857142856</ele><time>2026-05-03T07:49:40.79Z</time></trkpt><trkpt lat="43.2679081" lon="11.5382118"><ele>220.0</ele><time>2026-05-03T07:49:47.76Z</time></trkpt><trkpt lat="43.2678477" lon="11.5382577"><ele>222.16666666666666</ele><time>2026-05-03T07:49:53.792Z</time></trkpt><trkpt lat="43.2677827" lon="11.5383114"><ele>224.33333333333331</ele><time>2026-05-03T07:50:00.775Z</time></trkpt><trkpt lat="43.2677224" lon="11.5383489"><ele>226.5</ele><time>2026-05-03T07:50:05.741Z</time></trkpt><trkpt lat="43.2676582" lon="11.5383877"><ele>228.66666666666669</ele><time>2026-05-03T07:50:09.72Z</time></trkpt><trkpt lat="43.2675839" lon="11.5384316"><ele>230.83333333333334</ele><time>2026-05-03T07:50:13.762Z</time></trkpt><trkpt lat="43.267507" lon="11.5384665"><ele>233.0</ele><time>2026-05-03T07:50:17.794Z</time></trkpt><trkpt lat="43.2674322" lon="11.5385268"><ele>233.0</ele><time>2026-05-03T07:50:21.732Z</time></trkpt><trkpt lat="43.2673673" lon="11.5385755"><ele>233.0</ele><time>2026-05-03T07:50:24.757Z</time></trkpt><trkpt lat="43.2673081" lon="11.5386178"><ele>233.0</ele><time>2026-05-03T07:50:27.741Z</time></trkpt><trkpt lat="43.2672428" lon="11.5386607"><ele>233.0</ele><time>2026-05-03T07:50:31.773Z</time></trkpt><trkpt lat="43.267175" lon="11.5387163"><ele>233.0</ele><time>2026-05-03T07:50:35.75Z</time></trkpt><trkpt lat="43.2671151" lon="11.5387616"><ele>233.0</ele><time>2026-05-03T07:50:39.679Z</time></trkpt><trkpt lat="43.2670461" lon="11.538783"><ele>233.0</ele><time>2026-05-03T07:50:43.699Z</time></trkpt><trkpt lat="43.2669737" lon="11.5388128"><ele>233.71428571428572</ele><time>2026-05-03T07:50:47.703Z</time></trkpt><trkpt lat="43.2669015" lon="11.5388558"><ele>234.42857142857142</ele><time>2026-05-03T07:50:51.723Z</time></trkpt><trkpt lat="43.2668417" lon="11.5388881"><ele>235.14285714285714</ele><time>2026-05-03T07:50:54.786Z</time></trkpt><trkpt lat="43.2667794" lon="11.5389252"><ele>235.85714285714286</ele><time>2026-05-03T07:50:57.791Z</time></trkpt><trkpt lat="43.2667192" lon="11.5389569"><ele>236.57142857142856</ele><time>2026-05-03T07:51:00.799Z</time></trkpt><trkpt lat="43.2666571" lon="11.5389864"><ele>237.28571428571428</ele><time>2026-05-03T07:51:03.764Z</time></trkpt><trkpt lat="43.2665943" lon="11.5390168"><ele>238.0</ele><time>2026-05-03T07:51:06.752Z</time></trkpt><trkpt lat="43.2665368" lon="11.5390636"><ele>237.99999999999997</ele><time>2026-05-03T07:51:09.806Z</time></trkpt><trkpt lat="43.2664842" lon="11.5391363"><ele>238.0</ele><time>2026-05-03T07:51:12.742Z</time></trkpt><trkpt lat="43.2664356" lon="11.5392235"><ele>238.0</ele><time>2026-05-03T07:51:15.768Z</time></trkpt><trkpt lat="43.2663904" lon="11.5393108"><ele>238.0</ele><time>2026-05-03T07:51:18.789Z</time></trkpt><trkpt lat="43.266347" lon="11.5394043"><ele>237.99999999999997</ele><time>2026-05-03T07:51:22.822Z</time></trkpt><trkpt lat="43.2663028" lon="11.5394836"><ele>238.0</ele><time>2026-05-03T07:51:26.788Z</time></trkpt><trkpt lat="43.2662559" lon="11.5395553"><ele>239.28571428571428</ele><time>2026-05-03T07:51:30.802Z</time></trkpt><trkpt lat="43.2662114" lon="11.53963"><ele>240.57142857142856</ele><time>2026-05-03T07:51:34.774Z</time></trkpt><trkpt lat="43.2661754" lon="11.5397119"><ele>241.85714285714286</ele><time>2026-05-03T07:51:38.684Z</time></trkpt><trkpt lat="43.26613" lon="11.5397934"><ele>243.14285714285714</ele><time>2026-05-03T07:51:42.7Z</time></trkpt><trkpt lat="43.266079" lon="11.5398788"><ele>244.42857142857142</ele><time>2026-05-03T07:51:46.733Z</time></trkpt><trkpt lat="43.2660266" lon="11.5399493"><ele>245.71428571428572</ele><time>2026-05-03T07:51:50.771Z</time></trkpt><trkpt lat="43.2659808" lon="11.5400182"><ele>247.0</ele><time>2026-05-03T07:51:54.678Z</time></trkpt><trkpt lat="43.2659288" lon="11.5400987"><ele>247.0</ele><time>2026-05-03T07:51:58.732Z</time></trkpt><trkpt lat="43.265875" lon="11.5401795"><ele>247.0</ele><time>2026-05-03T07:52:02.787Z</time></trkpt><trkpt lat="43.2658227" lon="11.5402513"><ele>247.0</ele><time>2026-05-03T07:52:06.774Z</time></trkpt><trkpt lat="43.2657697" lon="11.5403257"><ele>247.0</ele><time>2026-05-03T07:52:10.755Z</time></trkpt><trkpt lat="43.2657233" lon="11.5403941"><ele>247.0</ele><time>2026-05-03T07:52:14.686Z</time></trkpt><trkpt lat="43.2656804" lon="11.5404615"><ele>247.0</ele><time>2026-05-03T07:52:18.759Z</time></trkpt><trkpt lat="43.2656185" lon="11.5405066"><ele>247.0</ele><time>2026-05-03T07:52:22.772Z</time></trkpt><trkpt lat="43.2656011" lon="11.540599"><ele>245.49999999999997</ele><time>2026-05-03T07:52:25.754Z</time></trkpt><trkpt lat="43.2655488" lon="11.5406603"><ele>244.0</ele><time>2026-05-03T07:52:28.781Z</time></trkpt><trkpt lat="43.2655024" lon="11.5407398"><ele>242.5</ele><time>2026-05-03T07:52:33.789Z</time></trkpt><trkpt lat="43.2655328" lon="11.5408301"><ele>241.0</ele><time>2026-05-03T07:52:36.762Z</time></trkpt><trkpt lat="43.2655482" lon="11.5409331"><ele>239.49999999999997</ele><time>2026-05-03T07:52:39.805Z</time></trkpt><trkpt lat="43.2655529" lon="11.5410477"><ele>238.0</ele><time>2026-05-03T07:52:42.768Z</time></trkpt><trkpt lat="43.2655279" lon="11.5411637"><ele>237.33333333333331</ele><time>2026-05-03T07:52:45.783Z</time></trkpt><trkpt lat="43.2655135" lon="11.5412761"><ele>236.66666666666666</ele><time>2026-05-03T07:52:48.798Z</time></trkpt><trkpt lat="43.2655" lon="11.5413967"><ele>236.0</ele><time>2026-05-03T07:52:51.8Z</time></trkpt><trkpt lat="43.2654833" lon="11.5415036"><ele>235.33333333333331</ele><time>2026-05-03T07:52:54.393Z</time></trkpt><trkpt lat="43.2654636" lon="11.5416043"><ele>234.66666666666666</ele><time>2026-05-03T07:52:56.811Z</time></trkpt><trkpt lat="43.2654418" lon="11.5417239"><ele>234.0</ele><time>2026-05-03T07:52:59.787Z</time></trkpt><trkpt lat="43.2654128" lon="11.5418297"><ele>234.0</ele><time>2026-05-03T07:53:02.774Z</time></trkpt><trkpt lat="43.2653821" lon="11.5419308"><ele>234.0</ele><time>2026-05-03T07:53:05.778Z</time></trkpt><trkpt lat="43.2653536" lon="11.5420319"><ele>234.0</ele><time>2026-05-03T07:53:08.676Z</time></trkpt><trkpt lat="43.2653181" lon="11.5421411"><ele>234.0</ele><time>2026-05-03T07:53:11.835Z</time></trkpt><trkpt lat="43.2652718" lon="11.5422479"><ele>234.0</ele><time>2026-05-03T07:53:14.738Z</time></trkpt><trkpt lat="43.2652489" lon="11.5423292"><ele>234.0</ele><time>2026-05-03T07:53:16.787Z</time></trkpt><trkpt lat="43.2652214" lon="11.5424446"><ele>234.5</ele><time>2026-05-03T07:53:19.724Z</time></trkpt><trkpt lat="43.2652073" lon="11.5425295"><ele>235.0</ele><time>2026-05-03T07:53:21.791Z</time></trkpt><trkpt lat="43.2651927" lon="11.5426475"><ele>235.5</ele><time>2026-05-03T07:53:24.7Z</time></trkpt><trkpt lat="43.2651886" lon="11.542763"><ele>236.0</ele><time>2026-05-03T07:53:27.797Z</time></trkpt><trkpt lat="43.2651898" lon="11.5428659"><ele>236.5</ele><time>2026-05-03T07:53:30.784Z</time></trkpt><trkpt lat="43.2652033" lon="11.5429529"><ele>237.0</ele><time>2026-05-03T07:53:33.697Z</time></trkpt><trkpt lat="43.2652207" lon="11.5430627"><ele>237.99999999999997</ele><time>2026-05-03T07:53:37.761Z</time></trkpt><trkpt lat="43.2652237" lon="11.5431732"><ele>239.0</ele><time>2026-05-03T07:53:41.767Z</time></trkpt><trkpt lat="43.2652273" lon="11.5432607"><ele>239.99999999999997</ele><time>2026-05-03T07:53:44.769Z</time></trkpt><trkpt lat="43.2652133" lon="11.5433474"><ele>240.99999999999997</ele><time>2026-05-03T07:53:47.787Z</time></trkpt><trkpt lat="43.2652025" lon="11.5434617"><ele>242.0</ele><time>2026-05-03T07:53:51.792Z</time></trkpt><trkpt lat="43.2651809" lon="11.5435488"><ele>242.99999999999997</ele><time>2026-05-03T07:53:54.789Z</time></trkpt><trkpt lat="43.2651553" lon="11.5436286"><ele>243.99999999999997</ele><time>2026-05-03T07:53:57.804Z</time></trkpt><trkpt lat="43.2651214" lon="11.5437256"><ele>245.28571428571425</ele><time>2026-05-03T07:54:01.771Z</time></trkpt><trkpt lat="43.265094" lon="11.5438045"><ele>246.57142857142856</ele><time>2026-05-03T07:54:04.76Z</time></trkpt><trkpt lat="43.2650603" lon="11.5438956"><ele>247.85714285714286</ele><time>2026-05-03T07:54:08.785Z</time></trkpt><trkpt lat="43.2650265" lon="11.5439829"><ele>249.14285714285714</ele><time>2026-05-03T07:54:12.804Z</time></trkpt><trkpt lat="43.2650048" lon="11.5440655"><ele>250.42857142857144</ele><time>2026-05-03T07:54:16.807Z</time></trkpt><trkpt lat="43.2649723" lon="11.5441469"><ele>251.71428571428575</ele><time>2026-05-03T07:54:22.772Z</time></trkpt><trkpt lat="43.2649318" lon="11.5442136"><ele>253.00000000000003</ele><time>2026-05-03T07:54:27.774Z</time></trkpt><trkpt lat="43.2648873" lon="11.5442833"><ele>253.00000000000003</ele><time>2026-05-03T07:54:32.756Z</time></trkpt><trkpt lat="43.2648415" lon="11.5443477"><ele>253.0</ele><time>2026-05-03T07:54:37.762Z</time></trkpt><trkpt lat="43.2648005" lon="11.5444192"><ele>253.00000000000003</ele><time>2026-05-03T07:54:43.779Z</time></trkpt><trkpt lat="43.2647598" lon="11.5444946"><ele>253.00000000000003</ele><time>2026-05-03T07:54:49.762Z</time></trkpt><trkpt lat="43.2647226" lon="11.5445679"><ele>253.0</ele><time>2026-05-03T07:54:54.829Z</time></trkpt><trkpt lat="43.2646908" lon="11.5446577"><ele>253.00000000000003</ele><time>2026-05-03T07:55:00.775Z</time></trkpt><trkpt lat="43.2646731" lon="11.5447417"><ele>253.00000000000003</ele><time>2026-05-03T07:55:06.79Z</time></trkpt><trkpt lat="43.2646597" lon="11.544827"><ele>256.28571428571433</ele><time>2026-05-03T07:55:13.702Z</time></trkpt><trkpt lat="43.2646524" lon="11.5449331"><ele>259.57142857142856</ele><time>2026-05-03T07:55:21.78Z</time></trkpt><trkpt lat="43.2646317" lon="11.5450247"><ele>262.8571428571429</ele><time>2026-05-03T07:55:27.782Z</time></trkpt><trkpt lat="43.2646139" lon="11.5451365"><ele>266.14285714285717</ele><time>2026-05-03T07:55:33.794Z</time></trkpt><trkpt lat="43.2645983" lon="11.5452318"><ele>269.42857142857144</ele><time>2026-05-03T07:55:36.78Z</time></trkpt><trkpt lat="43.2645813" lon="11.5453213"><ele>272.7142857142857</ele><time>2026-05-03T07:55:39.697Z</time></trkpt><trkpt lat="43.2645626" lon="11.5454106"><ele>276.0</ele><time>2026-05-03T07:55:42.777Z</time></trkpt><trkpt lat="43.2645374" lon="11.5455218"><ele>276.0</ele><time>2026-05-03T07:55:45.759Z</time></trkpt><trkpt lat="43.2645194" lon="11.5456164"><ele>276.0</ele><time>2026-05-03T07:55:48.82Z</time></trkpt><trkpt lat="43.2645008" lon="11.5457324"><ele>276.0</ele><time>2026-05-03T07:55:51.781Z</time></trkpt><trkpt lat="43.2644781" lon="11.5458546"><ele>276.0</ele><time>2026-05-03T07:55:54.782Z</time></trkpt><trkpt lat="43.2644466" lon="11.5459883"><ele>276.0</ele><time>2026-05-03T07:55:57.768Z</time></trkpt><trkpt lat="43.2644145" lon="11.5460889"><ele>276.0</ele><time>2026-05-03T07:56:00.768Z</time></trkpt><trkpt lat="43.2643772" lon="11.5461998"><ele>274.0</ele><time>2026-05-03T07:56:03.819Z</time></trkpt><trkpt lat="43.2643317" lon="11.5462854"><ele>272.0</ele><time>2026-05-03T07:56:06.719Z</time></trkpt><trkpt lat="43.264281" lon="11.5463668"><ele>270.0</ele><time>2026-05-03T07:56:09.729Z</time></trkpt><trkpt lat="43.2642384" lon="11.5464381"><ele>268.0</ele><time>2026-05-03T07:56:12.768Z</time></trkpt><trkpt lat="43.2641845" lon="11.5465044"><ele>266.0</ele><time>2026-05-03T07:56:15.787Z</time></trkpt><trkpt lat="43.2641256" lon="11.5465715"><ele>264.0</ele><time>2026-05-03T07:56:18.739Z</time></trkpt><trkpt lat="43.264062" lon="11.5466529"><ele>264.0</ele><time>2026-05-03T07:56:21.794Z</time></trkpt><trkpt lat="43.2640017" lon="11.5467047"><ele>264.0</ele><time>2026-05-03T07:56:24.803Z</time></trkpt><trkpt lat="43.2639359" lon="11.5467515"><ele>264.0</ele><time>2026-05-03T07:56:27.77Z</time></trkpt><trkpt lat="43.2638755" lon="11.546803"><ele>264.0</ele><time>2026-05-03T07:56:30.779Z</time></trkpt><trkpt lat="43.2638207" lon="11.5468596"><ele>264.0</ele><time>2026-05-03T07:56:33.782Z</time></trkpt><trkpt lat="43.2637573" lon="11.5469236"><ele>264.0</ele><time>2026-05-03T07:56:37.786Z</time></trkpt><trkpt lat="43.2637041" lon="11.5469774"><ele>264.0</ele><time>2026-05-03T07:56:40.783Z</time></trkpt><trkpt lat="43.263641" lon="11.5470525"><ele>264.0</ele><time>2026-05-03T07:56:44.805Z</time></trkpt><trkpt lat="43.2635766" lon="11.5471176"><ele>264.0</ele><time>2026-05-03T07:56:48.82Z</time></trkpt><trkpt lat="43.2635151" lon="11.5471784"><ele>264.0</ele><time>2026-05-03T07:56:52.764Z</time></trkpt><trkpt lat="43.263447" lon="11.5472481"><ele>264.0</ele><time>2026-05-03T07:56:56.784Z</time></trkpt><trkpt lat="43.2633894" lon="11.5473143"><ele>264.0</ele><time>2026-05-03T07:56:59.799Z</time></trkpt><trkpt lat="43.2633264" lon="11.547403"><ele>264.0</ele><time>2026-05-03T07:57:02.755Z</time></trkpt><trkpt lat="43.263264" lon="11.5474974"><ele>264.0</ele><time>2026-05-03T07:57:05.787Z</time></trkpt><trkpt lat="43.2632098" lon="11.5475841"><ele>264.0</ele><time>2026-05-03T07:57:08.677Z</time></trkpt><trkpt lat="43.2631693" lon="11.5476872"><ele>264.0</ele><time>2026-05-03T07:57:11.773Z</time></trkpt><trkpt lat="43.2631355" lon="11.5477848"><ele>264.0</ele><time>2026-05-03T07:57:14.72Z</time></trkpt><trkpt lat="43.2631087" lon="11.547882"><ele>264.0</ele><time>2026-05-03T07:57:17.778Z</time></trkpt><trkpt lat="43.2630743" lon="11.547988"><ele>264.0</ele><time>2026-05-03T07:57:20.767Z</time></trkpt><trkpt lat="43.2630289" lon="11.5480898"><ele>262.3333333333333</ele><time>2026-05-03T07:57:23.769Z</time></trkpt><trkpt lat="43.2629631" lon="11.5481853"><ele>260.6666666666667</ele><time>2026-05-03T07:57:26.798Z</time></trkpt><trkpt lat="43.2628941" lon="11.5482502"><ele>259.0</ele><time>2026-05-03T07:57:28.787Z</time></trkpt><trkpt lat="43.2628444" lon="11.548332"><ele>257.33333333333337</ele><time>2026-05-03T07:57:30.787Z</time></trkpt><trkpt lat="43.2628025" lon="11.5484148"><ele>255.66666666666669</ele><time>2026-05-03T07:57:32.798Z</time></trkpt><trkpt lat="43.2627606" lon="11.548485"><ele>254.0</ele><time>2026-05-03T07:57:34.78Z</time></trkpt><trkpt lat="43.2627036" lon="11.5485798"><ele>254.00000000000003</ele><time>2026-05-03T07:57:37.774Z</time></trkpt><trkpt lat="43.2626513" lon="11.5486692"><ele>254.0</ele><time>2026-05-03T07:57:40.769Z</time></trkpt><trkpt lat="43.262613" lon="11.5487607"><ele>254.0</ele><time>2026-05-03T07:57:43.769Z</time></trkpt><trkpt lat="43.2625682" lon="11.5488508"><ele>254.0</ele><time>2026-05-03T07:57:46.787Z</time></trkpt><trkpt lat="43.2625152" lon="11.5489458"><ele>254.00000000000003</ele><time>2026-05-03T07:57:49.743Z</time></trkpt><trkpt lat="43.2624602" lon="11.5490391"><ele>254.0</ele><time>2026-05-03T07:57:52.802Z</time></trkpt><trkpt lat="43.2623995" lon="11.549128"><ele>252.66666666666669</ele><time>2026-05-03T07:57:55.738Z</time></trkpt><trkpt lat="43.2623383" lon="11.5492164"><ele>251.33333333333334</ele><time>2026-05-03T07:57:58.698Z</time></trkpt><trkpt lat="43.2622972" lon="11.5492883"><ele>250.0</ele><time>2026-05-03T07:58:00.738Z</time></trkpt><trkpt lat="43.2622485" lon="11.5493842"><ele>248.66666666666669</ele><time>2026-05-03T07:58:03.791Z</time></trkpt><trkpt lat="43.2621878" lon="11.5494567"><ele>247.33333333333334</ele><time>2026-05-03T07:58:06.753Z</time></trkpt><trkpt lat="43.2621238" lon="11.549514"><ele>246.0</ele><time>2026-05-03T07:58:09.794Z</time></trkpt><trkpt lat="43.262066" lon="11.5496011"><ele>244.16666666666666</ele><time>2026-05-03T07:58:12.776Z</time></trkpt><trkpt lat="43.262012" lon="11.5496801"><ele>242.33333333333331</ele><time>2026-05-03T07:58:15.816Z</time></trkpt><trkpt lat="43.2619514" lon="11.5497357"><ele>240.5</ele><time>2026-05-03T07:58:18.68Z</time></trkpt><trkpt lat="43.2618796" lon="11.5497818"><ele>238.66666666666666</ele><time>2026-05-03T07:58:21.812Z</time></trkpt><trkpt lat="43.2618127" lon="11.5498283"><ele>236.83333333333331</ele><time>2026-05-03T07:58:24.702Z</time></trkpt><trkpt lat="43.2617366" lon="11.5498973"><ele>235.0</ele><time>2026-05-03T07:58:27.822Z</time></trkpt><trkpt lat="43.2616598" lon="11.549927"><ele>234.99999999999997</ele><time>2026-05-03T07:58:30.768Z</time></trkpt><trkpt lat="43.2615821" lon="11.5499603"><ele>235.0</ele><time>2026-05-03T07:58:33.804Z</time></trkpt><trkpt lat="43.2615012" lon="11.5499763"><ele>235.0</ele><time>2026-05-03T07:58:36.79Z</time></trkpt><trkpt lat="43.2614208" lon="11.5499894"><ele>235.0</ele><time>2026-05-03T07:58:39.754Z</time></trkpt><trkpt lat="43.2613377" lon="11.5499899"><ele>234.99999999999997</ele><time>2026-05-03T07:58:42.681Z</time></trkpt><trkpt lat="43.2612544" lon="11.5499886"><ele>235.0</ele><time>2026-05-03T07:58:45.781Z</time></trkpt><trkpt lat="43.261184" lon="11.5499921"><ele>234.66666666666666</ele><time>2026-05-03T07:58:48.785Z</time></trkpt><trkpt lat="43.2611186" lon="11.5499844"><ele>234.33333333333331</ele><time>2026-05-03T07:58:51.795Z</time></trkpt><trkpt lat="43.2610342" lon="11.5499609"><ele>234.0</ele><time>2026-05-03T07:58:55.776Z</time></trkpt><trkpt lat="43.2609581" lon="11.549932"><ele>233.66666666666669</ele><time>2026-05-03T07:58:58.567Z</time></trkpt><trkpt lat="43.2608891" lon="11.5499141"><ele>233.33333333333334</ele><time>2026-05-03T07:59:00.787Z</time></trkpt><trkpt lat="43.2608044" lon="11.5499137"><ele>233.0</ele><time>2026-05-03T07:59:03.79Z</time></trkpt><trkpt lat="43.2607296" lon="11.5499244"><ele>233.0</ele><time>2026-05-03T07:59:06.681Z</time></trkpt><trkpt lat="43.2606606" lon="11.5499562"><ele>233.0</ele><time>2026-05-03T07:59:09.764Z</time></trkpt><trkpt lat="43.2605929" lon="11.5499818"><ele>233.0</ele><time>2026-05-03T07:59:12.797Z</time></trkpt><trkpt lat="43.2605281" lon="11.5500226"><ele>233.0</ele><time>2026-05-03T07:59:15.759Z</time></trkpt><trkpt lat="43.260466" lon="11.5500635"><ele>233.0</ele><time>2026-05-03T07:59:18.814Z</time></trkpt><trkpt lat="43.2604073" lon="11.5501037"><ele>233.0</ele><time>2026-05-03T07:59:21.8Z</time></trkpt><trkpt lat="43.2603579" lon="11.5501608"><ele>233.0</ele><time>2026-05-03T07:59:24.726Z</time></trkpt><trkpt lat="43.2603053" lon="11.5502131"><ele>234.14285714285717</ele><time>2026-05-03T07:59:27.775Z</time></trkpt><trkpt lat="43.260253" lon="11.550262"><ele>235.28571428571428</ele><time>2026-05-03T07:59:30.782Z</time></trkpt><trkpt lat="43.260189" lon="11.5503329"><ele>236.42857142857144</ele><time>2026-05-03T07:59:34.835Z</time></trkpt><trkpt lat="43.2601471" lon="11.5504066"><ele>237.57142857142858</ele><time>2026-05-03T07:59:38.779Z</time></trkpt><trkpt lat="43.2601136" lon="11.5504856"><ele>238.71428571428572</ele><time>2026-05-03T07:59:44.795Z</time></trkpt><trkpt lat="43.2600692" lon="11.5505577"><ele>239.85714285714286</ele><time>2026-05-03T07:59:50.756Z</time></trkpt><trkpt lat="43.2600282" lon="11.5506353"><ele>241.0</ele><time>2026-05-03T07:59:57.785Z</time></trkpt><trkpt lat="43.2599959" lon="11.5507196"><ele>241.71428571428572</ele><time>2026-05-03T08:00:04.746Z</time></trkpt><trkpt lat="43.2599526" lon="11.5507888"><ele>242.42857142857144</ele><time>2026-05-03T08:00:11.789Z</time></trkpt><trkpt lat="43.2599081" lon="11.5508647"><ele>243.14285714285717</ele><time>2026-05-03T08:00:18.8Z</time></trkpt><trkpt lat="43.2598693" lon="11.550945"><ele>243.8571428571429</ele><time>2026-05-03T08:00:24.812Z</time></trkpt><trkpt lat="43.2598333" lon="11.5510362"><ele>244.57142857142858</ele><time>2026-05-03T08:00:30.788Z</time></trkpt><trkpt lat="43.2597939" lon="11.5511242"><ele>245.28571428571433</ele><time>2026-05-03T08:00:36.754Z</time></trkpt><trkpt lat="43.2597738" lon="11.5512076"><ele>246.00000000000003</ele><time>2026-05-03T08:00:41.772Z</time></trkpt><trkpt lat="43.25974" lon="11.5513093"><ele>246.0</ele><time>2026-05-03T08:00:48.762Z</time></trkpt><trkpt lat="43.2597163" lon="11.5514042"><ele>246.0</ele><time>2026-05-03T08:00:54.775Z</time></trkpt><trkpt lat="43.2597105" lon="11.5514998"><ele>246.0</ele><time>2026-05-03T08:01:00.784Z</time></trkpt><trkpt lat="43.2596821" lon="11.5516047"><ele>246.0</ele><time>2026-05-03T08:01:04.771Z</time></trkpt><trkpt lat="43.259648" lon="11.5516924"><ele>246.0</ele><time>2026-05-03T08:01:07.75Z</time></trkpt><trkpt lat="43.2596285" lon="11.5517933"><ele>246.0</ele><time>2026-05-03T08:01:10.776Z</time></trkpt><trkpt lat="43.2596122" lon="11.551899"><ele>246.0</ele><time>2026-05-03T08:01:13.776Z</time></trkpt><trkpt lat="43.2595787" lon="11.5520109"><ele>246.0</ele><time>2026-05-03T08:01:16.839Z</time></trkpt><trkpt lat="43.2595498" lon="11.5521136"><ele>246.0</ele><time>2026-05-03T08:01:19.711Z</time></trkpt><trkpt lat="43.2595204" lon="11.5522148"><ele>246.0</ele><time>2026-05-03T08:01:22.773Z</time></trkpt><trkpt lat="43.2594877" lon="11.5523171"><ele>246.0</ele><time>2026-05-03T08:01:25.845Z</time></trkpt><trkpt lat="43.2594556" lon="11.5524029"><ele>246.0</ele><time>2026-05-03T08:01:28.695Z</time></trkpt><trkpt lat="43.259415" lon="11.5524965"><ele>246.00000000000003</ele><time>2026-05-03T08:01:31.782Z</time></trkpt><trkpt lat="43.2593696" lon="11.5525757"><ele>246.0</ele><time>2026-05-03T08:01:34.833Z</time></trkpt><trkpt lat="43.2593191" lon="11.5526402"><ele>246.00000000000003</ele><time>2026-05-03T08:01:37.79Z</time></trkpt><trkpt lat="43.2592651" lon="11.5527082"><ele>246.00000000000003</ele><time>2026-05-03T08:01:40.758Z</time></trkpt><trkpt lat="43.2592114" lon="11.5527801"><ele>246.0</ele><time>2026-05-03T08:01:43.798Z</time></trkpt><trkpt lat="43.2591556" lon="11.552852"><ele>246.00000000000003</ele><time>2026-05-03T08:01:46.738Z</time></trkpt><trkpt lat="43.2590938" lon="11.5529169"><ele>246.00000000000003</ele><time>2026-05-03T08:01:49.777Z</time></trkpt><trkpt lat="43.2590293" lon="11.5529827"><ele>245.5</ele><time>2026-05-03T08:01:52.811Z</time></trkpt><trkpt lat="43.258971" lon="11.5530316"><ele>245.0</ele><time>2026-05-03T08:01:55.783Z</time></trkpt><trkpt lat="43.2589044" lon="11.5530789"><ele>244.5</ele><time>2026-05-03T08:01:58.853Z</time></trkpt><trkpt lat="43.2588232" lon="11.5531088"><ele>244.0</ele><time>2026-05-03T08:02:02.79Z</time></trkpt><trkpt lat="43.2587619" lon="11.5531338"><ele>243.5</ele><time>2026-05-03T08:02:05.792Z</time></trkpt><trkpt lat="43.2586844" lon="11.5531631"><ele>243.0</ele><time>2026-05-03T08:02:09.756Z</time></trkpt><trkpt lat="43.2586048" lon="11.5531884"><ele>244.28571428571428</ele><time>2026-05-03T08:02:13.803Z</time></trkpt><trkpt lat="43.258529" lon="11.553205"><ele>245.57142857142858</ele><time>2026-05-03T08:02:17.752Z</time></trkpt><trkpt lat="43.2584636" lon="11.5532168"><ele>246.85714285714286</ele><time>2026-05-03T08:02:20.824Z</time></trkpt><trkpt lat="43.258399" lon="11.5532305"><ele>248.14285714285714</ele><time>2026-05-03T08:02:23.83Z</time></trkpt><trkpt lat="43.2583187" lon="11.553233"><ele>249.42857142857144</ele><time>2026-05-03T08:02:27.756Z</time></trkpt><trkpt lat="43.2582408" lon="11.5532604"><ele>250.71428571428572</ele><time>2026-05-03T08:02:31.794Z</time></trkpt><trkpt lat="43.2581808" lon="11.5532987"><ele>252.0</ele><time>2026-05-03T08:02:34.736Z</time></trkpt><trkpt lat="43.2581173" lon="11.5533128"><ele>252.0</ele><time>2026-05-03T08:02:37.782Z</time></trkpt><trkpt lat="43.2580549" lon="11.5533244"><ele>252.0</ele><time>2026-05-03T08:02:40.785Z</time></trkpt><trkpt lat="43.2579901" lon="11.5533497"><ele>252.0</ele><time>2026-05-03T08:02:43.771Z</time></trkpt><trkpt lat="43.257927" lon="11.5533829"><ele>252.0</ele><time>2026-05-03T08:02:46.761Z</time></trkpt><trkpt lat="43.2578527" lon="11.5534267"><ele>252.0</ele><time>2026-05-03T08:02:50.719Z</time></trkpt><trkpt lat="43.2577917" lon="11.5534567"><ele>252.0</ele><time>2026-05-03T08:02:53.775Z</time></trkpt><trkpt lat="43.2577176" lon="11.5535053"><ele>252.0</ele><time>2026-05-03T08:02:57.781Z</time></trkpt><trkpt lat="43.2576421" lon="11.5535455"><ele>252.0</ele><time>2026-05-03T08:03:01.756Z</time></trkpt><trkpt lat="43.2575783" lon="11.5535829"><ele>252.0</ele><time>2026-05-03T08:03:04.813Z</time></trkpt><trkpt lat="43.2575145" lon="11.5536163"><ele>252.0</ele><time>2026-05-03T08:03:07.717Z</time></trkpt><trkpt lat="43.2574365" lon="11.5536438"><ele>252.0</ele><time>2026-05-03T08:03:10.796Z</time></trkpt><trkpt lat="43.2573566" lon="11.5536594"><ele>252.0</ele><time>2026-05-03T08:03:13.816Z</time></trkpt><trkpt lat="43.2572637" lon="11.5536768"><ele>252.0</ele><time>2026-05-03T08:03:16.786Z</time></trkpt><trkpt lat="43.2571775" lon="11.5537026"><ele>251.83333333333334</ele><time>2026-05-03T08:03:19.789Z</time></trkpt><trkpt lat="43.2570894" lon="11.5537229"><ele>251.66666666666669</ele><time>2026-05-03T08:03:22.95Z</time></trkpt><trkpt lat="43.2569986" lon="11.5537204"><ele>251.5</ele><time>2026-05-03T08:03:26.177Z</time></trkpt><trkpt lat="43.2569269" lon="11.5537162"><ele>251.33333333333334</ele><time>2026-05-03T08:03:29.396Z</time></trkpt><trkpt lat="43.2568461" lon="11.5536964"><ele>251.16666666666669</ele><time>2026-05-03T08:03:32.631Z</time></trkpt><trkpt lat="43.2567665" lon="11.553671"><ele>251.0</ele><time>2026-05-03T08:03:35.763Z</time></trkpt><trkpt lat="43.256695" lon="11.5536426"><ele>251.00000000000003</ele><time>2026-05-03T08:03:38.718Z</time></trkpt><trkpt lat="43.2566106" lon="11.5535969"><ele>251.0</ele><time>2026-05-03T08:03:41.767Z</time></trkpt><trkpt lat="43.256529" lon="11.5535459"><ele>251.0</ele><time>2026-05-03T08:03:44.76Z</time></trkpt><trkpt lat="43.2564567" lon="11.5534911"><ele>251.0</ele><time>2026-05-03T08:03:47.763Z</time></trkpt><trkpt lat="43.2563845" lon="11.5534596"><ele>251.00000000000003</ele><time>2026-05-03T08:03:50.789Z</time></trkpt><trkpt lat="43.2563132" lon="11.5534192"><ele>251.0</ele><time>2026-05-03T08:03:53.763Z</time></trkpt><trkpt lat="43.2562415" lon="11.5533691"><ele>251.16666666666669</ele><time>2026-05-03T08:03:56.776Z</time></trkpt><trkpt lat="43.2561738" lon="11.5533296"><ele>251.33333333333334</ele><time>2026-05-03T08:03:59.809Z</time></trkpt><trkpt lat="43.2561051" lon="11.5532896"><ele>251.5</ele><time>2026-05-03T08:04:02.781Z</time></trkpt><trkpt lat="43.2560303" lon="11.5532475"><ele>251.66666666666669</ele><time>2026-05-03T08:04:05.785Z</time></trkpt><trkpt lat="43.2559591" lon="11.553203"><ele>251.83333333333334</ele><time>2026-05-03T08:04:08.777Z</time></trkpt><trkpt lat="43.2558975" lon="11.5531578"><ele>252.0</ele><time>2026-05-03T08:04:11.792Z</time></trkpt><trkpt lat="43.255832" lon="11.5531148"><ele>252.0</ele><time>2026-05-03T08:04:14.795Z</time></trkpt><trkpt lat="43.2557634" lon="11.5530691"><ele>252.0</ele><time>2026-05-03T08:04:17.772Z</time></trkpt><trkpt lat="43.2556925" lon="11.5530339"><ele>252.0</ele><time>2026-05-03T08:04:20.763Z</time></trkpt><trkpt lat="43.2556213" lon="11.5530063"><ele>252.0</ele><time>2026-05-03T08:04:23.814Z</time></trkpt><trkpt lat="43.2555558" lon="11.5529787"><ele>252.0</ele><time>2026-05-03T08:04:26.771Z</time></trkpt><trkpt lat="43.2554867" lon="11.5529539"><ele>252.0</ele><time>2026-05-03T08:04:29.814Z</time></trkpt><trkpt lat="43.2554238" lon="11.55294"><ele>252.0</ele><time>2026-05-03T08:04:32.758Z</time></trkpt><trkpt lat="43.255357" lon="11.5529392"><ele>251.33333333333334</ele><time>2026-05-03T08:04:35.674Z</time></trkpt><trkpt lat="43.2552791" lon="11.552948"><ele>250.66666666666669</ele><time>2026-05-03T08:04:38.825Z</time></trkpt><trkpt lat="43.2552053" lon="11.5529522"><ele>250.0</ele><time>2026-05-03T08:04:41.735Z</time></trkpt><trkpt lat="43.2551217" lon="11.5529455"><ele>249.33333333333334</ele><time>2026-05-03T08:04:44.766Z</time></trkpt><trkpt lat="43.2550362" lon="11.5529474"><ele>248.66666666666669</ele><time>2026-05-03T08:04:47.796Z</time></trkpt><trkpt lat="43.2549616" lon="11.5529479"><ele>248.0</ele><time>2026-05-03T08:04:50.786Z</time></trkpt><trkpt lat="43.2548871" lon="11.5529429"><ele>248.00000000000003</ele><time>2026-05-03T08:04:53.798Z</time></trkpt><trkpt lat="43.2548008" lon="11.5529402"><ele>248.0</ele><time>2026-05-03T08:04:56.775Z</time></trkpt><trkpt lat="43.2547164" lon="11.552938"><ele>248.0</ele><time>2026-05-03T08:04:59.771Z</time></trkpt><trkpt lat="43.2546373" lon="11.5529361"><ele>248.0</ele><time>2026-05-03T08:05:02.675Z</time></trkpt><trkpt lat="43.2545504" lon="11.5529344"><ele>248.00000000000003</ele><time>2026-05-03T08:05:05.786Z</time></trkpt><trkpt lat="43.2544716" lon="11.5529462"><ele>248.0</ele><time>2026-05-03T08:05:08.69Z</time></trkpt><trkpt lat="43.2543811" lon="11.552963"><ele>247.50000000000003</ele><time>2026-05-03T08:05:11.858Z</time></trkpt><trkpt lat="43.254288" lon="11.5529739"><ele>247.0</ele><time>2026-05-03T08:05:14.788Z</time></trkpt><trkpt lat="43.2542214" lon="11.5530175"><ele>246.5</ele><time>2026-05-03T08:05:16.792Z</time></trkpt><trkpt lat="43.2541529" lon="11.553077"><ele>246.0</ele><time>2026-05-03T08:05:18.798Z</time></trkpt><trkpt lat="43.2540995" lon="11.5531606"><ele>245.50000000000003</ele><time>2026-05-03T08:05:20.75Z</time></trkpt><trkpt lat="43.254063" lon="11.5532538"><ele>245.0</ele><time>2026-05-03T08:05:22.72Z</time></trkpt><trkpt lat="43.2540441" lon="11.5533556"><ele>245.00000000000003</ele><time>2026-05-03T08:05:24.752Z</time></trkpt><trkpt lat="43.2540353" lon="11.5534464"><ele>245.0</ele><time>2026-05-03T08:05:26.814Z</time></trkpt><trkpt lat="43.2540372" lon="11.5535375"><ele>245.0</ele><time>2026-05-03T08:05:28.816Z</time></trkpt><trkpt lat="43.2540326" lon="11.5536473"><ele>245.0</ele><time>2026-05-03T08:05:30.77Z</time></trkpt><trkpt lat="43.2540164" lon="11.5537646"><ele>245.00000000000003</ele><time>2026-05-03T08:05:32.769Z</time></trkpt><trkpt lat="43.2539784" lon="11.5538751"><ele>245.0</ele><time>2026-05-03T08:05:34.774Z</time></trkpt><trkpt lat="43.2539391" lon="11.5539663"><ele>242.83333333333334</ele><time>2026-05-03T08:05:36.676Z</time></trkpt><trkpt lat="43.2538988" lon="11.5540528"><ele>240.66666666666669</ele><time>2026-05-03T08:05:38.716Z</time></trkpt><trkpt lat="43.2538373" lon="11.55414"><ele>238.5</ele><time>2026-05-03T08:05:41.774Z</time></trkpt><trkpt lat="43.2537688" lon="11.5542116"><ele>236.33333333333331</ele><time>2026-05-03T08:05:44.683Z</time></trkpt><trkpt lat="43.2537146" lon="11.5542575"><ele>234.16666666666666</ele><time>2026-05-03T08:05:46.791Z</time></trkpt><trkpt lat="43.2536448" lon="11.5543158"><ele>232.0</ele><time>2026-05-03T08:05:49.801Z</time></trkpt><trkpt lat="43.2535802" lon="11.5543747"><ele>231.99999999999997</ele><time>2026-05-03T08:05:52.769Z</time></trkpt><trkpt lat="43.2535051" lon="11.5544444"><ele>232.0</ele><time>2026-05-03T08:05:55.833Z</time></trkpt><trkpt lat="43.2534404" lon="11.5544822"><ele>232.0</ele><time>2026-05-03T08:05:57.851Z</time></trkpt><trkpt lat="43.2533644" lon="11.5545213"><ele>232.0</ele><time>2026-05-03T08:05:59.772Z</time></trkpt><trkpt lat="43.2532798" lon="11.5545617"><ele>231.99999999999997</ele><time>2026-05-03T08:06:01.762Z</time></trkpt><trkpt lat="43.2531977" lon="11.5546138"><ele>232.0</ele><time>2026-05-03T08:06:03.653Z</time></trkpt><trkpt lat="43.2531141" lon="11.5546595"><ele>229.42857142857147</ele><time>2026-05-03T08:06:05.614Z</time></trkpt><trkpt lat="43.2530387" lon="11.5546875"><ele>226.85714285714286</ele><time>2026-05-03T08:06:07.519Z</time></trkpt><trkpt lat="43.2529675" lon="11.5547045"><ele>224.2857142857143</ele><time>2026-05-03T08:06:09.414Z</time></trkpt><trkpt lat="43.2528947" lon="11.5547208"><ele>221.71428571428572</ele><time>2026-05-03T08:06:11.416Z</time></trkpt><trkpt lat="43.2528244" lon="11.55473"><ele>219.14285714285717</ele><time>2026-05-03T08:06:13.401Z</time></trkpt><trkpt lat="43.2527602" lon="11.554733"><ele>216.57142857142858</ele><time>2026-05-03T08:06:15.371Z</time></trkpt><trkpt lat="43.2526962" lon="11.5547358"><ele>214.0</ele><time>2026-05-03T08:06:17.336Z</time></trkpt><trkpt lat="43.2526318" lon="11.5547341"><ele>214.00000000000003</ele><time>2026-05-03T08:06:19.317Z</time></trkpt><trkpt lat="43.2525661" lon="11.5547231"><ele>214.0</ele><time>2026-05-03T08:06:21.354Z</time></trkpt><trkpt lat="43.2525006" lon="11.5547017"><ele>214.0</ele><time>2026-05-03T08:06:23.416Z</time></trkpt><trkpt lat="43.2524327" lon="11.5546824"><ele>214.0</ele><time>2026-05-03T08:06:25.497Z</time></trkpt><trkpt lat="43.2523655" lon="11.5546664"><ele>214.0</ele><time>2026-05-03T08:06:27.611Z</time></trkpt><trkpt lat="43.2522817" lon="11.5546482"><ele>214.00000000000003</ele><time>2026-05-03T08:06:30.775Z</time></trkpt><trkpt lat="43.2522092" lon="11.5546192"><ele>214.0</ele><time>2026-05-03T08:06:33.773Z</time></trkpt><trkpt lat="43.2521375" lon="11.5546069"><ele>213.85714285714286</ele><time>2026-05-03T08:06:36.762Z</time></trkpt><trkpt lat="43.2520665" lon="11.5546095"><ele>213.71428571428572</ele><time>2026-05-03T08:06:39.796Z</time></trkpt><trkpt lat="43.2520001" lon="11.5546213"><ele>213.57142857142856</ele><time>2026-05-03T08:06:42.772Z</time></trkpt><trkpt lat="43.2519297" lon="11.5546322"><ele>213.42857142857144</ele><time>2026-05-03T08:06:45.794Z</time></trkpt><trkpt lat="43.2518486" lon="11.5546539"><ele>213.28571428571428</ele><time>2026-05-03T08:06:48.76Z</time></trkpt><trkpt lat="43.2517612" lon="11.5546729"><ele>213.14285714285714</ele><time>2026-05-03T08:06:51.742Z</time></trkpt><trkpt lat="43.2516953" lon="11.5547017"><ele>213.0</ele><time>2026-05-03T08:06:53.788Z</time></trkpt><trkpt lat="43.2516227" lon="11.5547308"><ele>213.0</ele><time>2026-05-03T08:06:55.797Z</time></trkpt><trkpt lat="43.2515529" lon="11.5547555"><ele>213.0</ele><time>2026-05-03T08:06:57.736Z</time></trkpt><trkpt lat="43.2514836" lon="11.5547771"><ele>213.0</ele><time>2026-05-03T08:06:59.743Z</time></trkpt><trkpt lat="43.2514042" lon="11.5547909"><ele>213.0</ele><time>2026-05-03T08:07:02.713Z</time></trkpt><trkpt lat="43.2513283" lon="11.5548094"><ele>213.0</ele><time>2026-05-03T08:07:05.79Z</time></trkpt><trkpt lat="43.2512486" lon="11.5548456"><ele>213.0</ele><time>2026-05-03T08:07:08.784Z</time></trkpt><trkpt lat="43.2511883" lon="11.5548818"><ele>213.33333333333334</ele><time>2026-05-03T08:07:10.77Z</time></trkpt><trkpt lat="43.2511132" lon="11.5549156"><ele>213.66666666666669</ele><time>2026-05-03T08:07:12.791Z</time></trkpt><trkpt lat="43.2510488" lon="11.5549593"><ele>214.0</ele><time>2026-05-03T08:07:14.794Z</time></trkpt><trkpt lat="43.2509806" lon="11.5550041"><ele>214.33333333333334</ele><time>2026-05-03T08:07:16.796Z</time></trkpt><trkpt lat="43.2509048" lon="11.5550621"><ele>214.66666666666669</ele><time>2026-05-03T08:07:19.693Z</time></trkpt><trkpt lat="43.2508372" lon="11.5551317"><ele>215.0</ele><time>2026-05-03T08:07:22.763Z</time></trkpt><trkpt lat="43.2507824" lon="11.5552066"><ele>215.0</ele><time>2026-05-03T08:07:25.782Z</time></trkpt><trkpt lat="43.2507271" lon="11.5552607"><ele>215.0</ele><time>2026-05-03T08:07:28.814Z</time></trkpt><trkpt lat="43.2506727" lon="11.5553163"><ele>215.0</ele><time>2026-05-03T08:07:31.772Z</time></trkpt><trkpt lat="43.250612" lon="11.5553745"><ele>215.0</ele><time>2026-05-03T08:07:34.759Z</time></trkpt><trkpt lat="43.2505462" lon="11.5554451"><ele>215.0</ele><time>2026-05-03T08:07:37.777Z</time></trkpt><trkpt lat="43.2504904" lon="11.5555047"><ele>215.0</ele><time>2026-05-03T08:07:39.78Z</time></trkpt><trkpt lat="43.2504311" lon="11.5555641"><ele>215.0</ele><time>2026-05-03T08:07:41.734Z</time></trkpt><trkpt lat="43.250361" lon="11.5556266"><ele>212.33333333333334</ele><time>2026-05-03T08:07:43.715Z</time></trkpt><trkpt lat="43.2502879" lon="11.5556834"><ele>209.66666666666669</ele><time>2026-05-03T08:07:45.698Z</time></trkpt><trkpt lat="43.2502149" lon="11.5557402"><ele>207.0</ele><time>2026-05-03T08:07:47.719Z</time></trkpt><trkpt lat="43.2501403" lon="11.5557948"><ele>204.33333333333331</ele><time>2026-05-03T08:07:49.71Z</time></trkpt><trkpt lat="43.250066" lon="11.5558431"><ele>201.66666666666666</ele><time>2026-05-03T08:07:51.758Z</time></trkpt><trkpt lat="43.2499957" lon="11.5558821"><ele>199.0</ele><time>2026-05-03T08:07:53.805Z</time></trkpt><trkpt lat="43.2499268" lon="11.5559243"><ele>198.99999999999997</ele><time>2026-05-03T08:07:55.794Z</time></trkpt><trkpt lat="43.2498419" lon="11.5559593"><ele>199.0</ele><time>2026-05-03T08:07:58.771Z</time></trkpt><trkpt lat="43.2497634" lon="11.5559844"><ele>199.0</ele><time>2026-05-03T08:08:01.782Z</time></trkpt><trkpt lat="43.249681" lon="11.5559927"><ele>199.0</ele><time>2026-05-03T08:08:04.785Z</time></trkpt><trkpt lat="43.2495945" lon="11.5559769"><ele>198.99999999999997</ele><time>2026-05-03T08:08:07.761Z</time></trkpt><trkpt lat="43.2495063" lon="11.5559773"><ele>199.0</ele><time>2026-05-03T08:08:10.771Z</time></trkpt><trkpt lat="43.2494205" lon="11.555993"><ele>198.49999999999997</ele><time>2026-05-03T08:08:13.679Z</time></trkpt><trkpt lat="43.2493434" lon="11.5560068"><ele>198.0</ele><time>2026-05-03T08:08:16.778Z</time></trkpt><trkpt lat="43.2492654" lon="11.5560349"><ele>197.5</ele><time>2026-05-03T08:08:19.757Z</time></trkpt><trkpt lat="43.2491774" lon="11.5560548"><ele>197.0</ele><time>2026-05-03T08:08:22.801Z</time></trkpt><trkpt lat="43.2490884" lon="11.5560636"><ele>196.49999999999997</ele><time>2026-05-03T08:08:25.775Z</time></trkpt><trkpt lat="43.2489922" lon="11.5560502"><ele>196.0</ele><time>2026-05-03T08:08:28.79Z</time></trkpt><trkpt lat="43.2489282" lon="11.5560468"><ele>194.49999999999997</ele><time>2026-05-03T08:08:30.714Z</time></trkpt><trkpt lat="43.2488361" lon="11.5560243"><ele>193.0</ele><time>2026-05-03T08:08:33.792Z</time></trkpt><trkpt lat="43.2487534" lon="11.5559914"><ele>191.5</ele><time>2026-05-03T08:08:36.78Z</time></trkpt><trkpt lat="43.2486797" lon="11.5559593"><ele>190.0</ele><time>2026-05-03T08:08:39.69Z</time></trkpt><trkpt lat="43.2486164" lon="11.5559251"><ele>188.5</ele><time>2026-05-03T08:08:42.804Z</time></trkpt><trkpt lat="43.2485552" lon="11.5558929"><ele>187.0</ele><time>2026-05-03T08:08:45.789Z</time></trkpt><trkpt lat="43.2484901" lon="11.5558491"><ele>187.0</ele><time>2026-05-03T08:08:48.751Z</time></trkpt><trkpt lat="43.248422" lon="11.5557914"><ele>187.0</ele><time>2026-05-03T08:08:51.77Z</time></trkpt><trkpt lat="43.2483619" lon="11.5557328"><ele>187.0</ele><time>2026-05-03T08:08:54.74Z</time></trkpt><trkpt lat="43.2482976" lon="11.5556744"><ele>187.0</ele><time>2026-05-03T08:08:57.774Z</time></trkpt><trkpt lat="43.2482305" lon="11.5556097"><ele>187.0</ele><time>2026-05-03T08:09:00.758Z</time></trkpt><trkpt lat="43.2481582" lon="11.5555369"><ele>187.0</ele><time>2026-05-03T08:09:03.696Z</time></trkpt><trkpt lat="43.2481067" lon="11.5554867"><ele>185.66666666666669</ele><time>2026-05-03T08:09:05.812Z</time></trkpt><trkpt lat="43.2480487" lon="11.555404"><ele>184.33333333333334</ele><time>2026-05-03T08:09:08.763Z</time></trkpt><trkpt lat="43.2479909" lon="11.5553209"><ele>183.0</ele><time>2026-05-03T08:09:11.77Z</time></trkpt><trkpt lat="43.2479316" lon="11.5552257"><ele>181.66666666666666</ele><time>2026-05-03T08:09:14.694Z</time></trkpt><trkpt lat="43.2478901" lon="11.5551535"><ele>180.33333333333331</ele><time>2026-05-03T08:09:16.796Z</time></trkpt><trkpt lat="43.2478399" lon="11.5550514"><ele>179.0</ele><time>2026-05-03T08:09:19.793Z</time></trkpt><trkpt lat="43.2477821" lon="11.5549595"><ele>179.00000000000003</ele><time>2026-05-03T08:09:22.673Z</time></trkpt><trkpt lat="43.2477303" lon="11.5549048"><ele>179.0</ele><time>2026-05-03T08:09:24.754Z</time></trkpt><trkpt lat="43.2476745" lon="11.5548589"><ele>179.0</ele><time>2026-05-03T08:09:26.799Z</time></trkpt><trkpt lat="43.2476138" lon="11.5548145"><ele>179.0</ele><time>2026-05-03T08:09:28.797Z</time></trkpt><trkpt lat="43.2475311" lon="11.5547555"><ele>179.0</ele><time>2026-05-03T08:09:31.693Z</time></trkpt><trkpt lat="43.2474668" lon="11.5547195"><ele>179.00000000000003</ele><time>2026-05-03T08:09:33.784Z</time></trkpt><trkpt lat="43.2474088" lon="11.5546762"><ele>179.0</ele><time>2026-05-03T08:09:35.786Z</time></trkpt><trkpt lat="43.2473236" lon="11.5546278"><ele>177.83333333333331</ele><time>2026-05-03T08:09:38.788Z</time></trkpt><trkpt lat="43.2472498" lon="11.5545729"><ele>176.66666666666666</ele><time>2026-05-03T08:09:41.755Z</time></trkpt><trkpt lat="43.2471867" lon="11.5545068"><ele>175.5</ele><time>2026-05-03T08:09:44.811Z</time></trkpt><trkpt lat="43.2471225" lon="11.5544502"><ele>174.33333333333334</ele><time>2026-05-03T08:09:47.798Z</time></trkpt><trkpt lat="43.2470546" lon="11.554401"><ele>173.16666666666669</ele><time>2026-05-03T08:09:50.812Z</time></trkpt><trkpt lat="43.2469778" lon="11.5543529"><ele>172.0</ele><time>2026-05-03T08:09:53.762Z</time></trkpt><trkpt lat="43.2468925" lon="11.5542969"><ele>172.0</ele><time>2026-05-03T08:09:56.818Z</time></trkpt><trkpt lat="43.2468325" lon="11.5542652"><ele>172.0</ele><time>2026-05-03T08:09:58.791Z</time></trkpt><trkpt lat="43.2467494" lon="11.5542208"><ele>172.0</ele><time>2026-05-03T08:10:01.809Z</time></trkpt><trkpt lat="43.2466663" lon="11.5541821"><ele>172.0</ele><time>2026-05-03T08:10:04.79Z</time></trkpt><trkpt lat="43.2465776" lon="11.5541462"><ele>172.0</ele><time>2026-05-03T08:10:07.77Z</time></trkpt><trkpt lat="43.2464893" lon="11.554135"><ele>172.0</ele><time>2026-05-03T08:10:10.768Z</time></trkpt><trkpt lat="43.246406" lon="11.5541495"><ele>172.71428571428572</ele><time>2026-05-03T08:10:13.833Z</time></trkpt><trkpt lat="43.2463315" lon="11.5541619"><ele>173.42857142857144</ele><time>2026-05-03T08:10:16.694Z</time></trkpt><trkpt lat="43.2462576" lon="11.5541659"><ele>174.14285714285717</ele><time>2026-05-03T08:10:19.794Z</time></trkpt><trkpt lat="43.2461928" lon="11.5541676"><ele>174.85714285714286</ele><time>2026-05-03T08:10:22.784Z</time></trkpt><trkpt lat="43.2461072" lon="11.5541804"><ele>175.57142857142856</ele><time>2026-05-03T08:10:26.788Z</time></trkpt><trkpt lat="43.2460423" lon="11.5541853"><ele>176.2857142857143</ele><time>2026-05-03T08:10:29.779Z</time></trkpt><trkpt lat="43.2459756" lon="11.5541896"><ele>177.0</ele><time>2026-05-03T08:10:32.806Z</time></trkpt><trkpt lat="43.2459064" lon="11.5541979"><ele>177.0</ele><time>2026-05-03T08:10:35.768Z</time></trkpt><trkpt lat="43.2458318" lon="11.5542071"><ele>177.0</ele><time>2026-05-03T08:10:38.777Z</time></trkpt><trkpt lat="43.2457569" lon="11.5542163"><ele>177.0</ele><time>2026-05-03T08:10:41.773Z</time></trkpt><trkpt lat="43.2456859" lon="11.5542354"><ele>177.0</ele><time>2026-05-03T08:10:44.68Z</time></trkpt><trkpt lat="43.2456124" lon="11.5542466"><ele>177.0</ele><time>2026-05-03T08:10:47.784Z</time></trkpt><trkpt lat="43.2455398" lon="11.5542505"><ele>177.0</ele><time>2026-05-03T08:10:50.839Z</time></trkpt><trkpt lat="43.2454755" lon="11.5542529"><ele>177.0</ele><time>2026-05-03T08:10:53.761Z</time></trkpt><trkpt lat="43.2454093" lon="11.5542567"><ele>178.5</ele><time>2026-05-03T08:10:56.789Z</time></trkpt><trkpt lat="43.2453447" lon="11.5542654"><ele>180.0</ele><time>2026-05-03T08:10:59.792Z</time></trkpt><trkpt lat="43.2452599" lon="11.5542772"><ele>181.5</ele><time>2026-05-03T08:11:03.795Z</time></trkpt><trkpt lat="43.245186" lon="11.5542808"><ele>183.0</ele><time>2026-05-03T08:11:06.763Z</time></trkpt><trkpt lat="43.2451174" lon="11.55429"><ele>184.5</ele><time>2026-05-03T08:11:09.759Z</time></trkpt><trkpt lat="43.2450328" lon="11.5543025"><ele>186.0</ele><time>2026-05-03T08:11:13.774Z</time></trkpt><trkpt lat="43.2449526" lon="11.5543069"><ele>186.0</ele><time>2026-05-03T08:11:17.787Z</time></trkpt><trkpt lat="43.2448755" lon="11.5543182"><ele>186.0</ele><time>2026-05-03T08:11:21.79Z</time></trkpt><trkpt lat="43.2447987" lon="11.5543371"><ele>186.0</ele><time>2026-05-03T08:11:25.789Z</time></trkpt><trkpt lat="43.2447177" lon="11.5543404"><ele>186.0</ele><time>2026-05-03T08:11:29.751Z</time></trkpt><trkpt lat="43.2446528" lon="11.5543468"><ele>186.0</ele><time>2026-05-03T08:11:32.775Z</time></trkpt><trkpt lat="43.2445709" lon="11.5543571"><ele>186.0</ele><time>2026-05-03T08:11:36.745Z</time></trkpt><trkpt lat="43.2444924" lon="11.5543699"><ele>186.66666666666666</ele><time>2026-05-03T08:11:40.793Z</time></trkpt><trkpt lat="43.2444194" lon="11.5543848"><ele>187.33333333333334</ele><time>2026-05-03T08:11:44.788Z</time></trkpt><trkpt lat="43.2443378" lon="11.5543968"><ele>188.0</ele><time>2026-05-03T08:11:48.792Z</time></trkpt><trkpt lat="43.2442748" lon="11.5543991"><ele>188.66666666666669</ele><time>2026-05-03T08:11:51.785Z</time></trkpt><trkpt lat="43.2441924" lon="11.5544011"><ele>189.33333333333334</ele><time>2026-05-03T08:11:55.765Z</time></trkpt><trkpt lat="43.244108" lon="11.5544145"><ele>190.0</ele><time>2026-05-03T08:11:59.773Z</time></trkpt><trkpt lat="43.2440441" lon="11.5544246"><ele>190.0</ele><time>2026-05-03T08:12:02.775Z</time></trkpt><trkpt lat="43.2439801" lon="11.5544282"><ele>190.0</ele><time>2026-05-03T08:12:05.805Z</time></trkpt><trkpt lat="43.2438986" lon="11.5544458"><ele>190.0</ele><time>2026-05-03T08:12:09.809Z</time></trkpt><trkpt lat="43.2438251" lon="11.5544576"><ele>190.0</ele><time>2026-05-03T08:12:13.769Z</time></trkpt><trkpt lat="43.243746" lon="11.5544659"><ele>190.0</ele><time>2026-05-03T08:12:17.761Z</time></trkpt><trkpt lat="43.2436681" lon="11.5544922"><ele>190.0</ele><time>2026-05-03T08:12:21.771Z</time></trkpt><trkpt lat="43.2435857" lon="11.5545073"><ele>190.66666666666669</ele><time>2026-05-03T08:12:25.773Z</time></trkpt><trkpt lat="43.2435021" lon="11.5545113"><ele>191.33333333333334</ele><time>2026-05-03T08:12:29.772Z</time></trkpt><trkpt lat="43.2434346" lon="11.5545206"><ele>192.0</ele><time>2026-05-03T08:12:32.839Z</time></trkpt><trkpt lat="43.2433546" lon="11.5545341"><ele>192.66666666666669</ele><time>2026-05-03T08:12:36.795Z</time></trkpt><trkpt lat="43.243279" lon="11.554533"><ele>193.33333333333334</ele><time>2026-05-03T08:12:40.809Z</time></trkpt><trkpt lat="43.2431961" lon="11.5545306"><ele>194.0</ele><time>2026-05-03T08:12:44.761Z</time></trkpt><trkpt lat="43.2431276" lon="11.5545378"><ele>194.0</ele><time>2026-05-03T08:12:47.697Z</time></trkpt><trkpt lat="43.2430604" lon="11.5545381"><ele>194.0</ele><time>2026-05-03T08:12:50.794Z</time></trkpt><trkpt lat="43.2429952" lon="11.5545237"><ele>194.0</ele><time>2026-05-03T08:12:53.833Z</time></trkpt><trkpt lat="43.2429309" lon="11.5544987"><ele>194.0</ele><time>2026-05-03T08:12:56.677Z</time></trkpt><trkpt lat="43.2428558" lon="11.5544722"><ele>194.0</ele><time>2026-05-03T08:12:59.73Z</time></trkpt><trkpt lat="43.2427836" lon="11.5544395"><ele>194.0</ele><time>2026-05-03T08:13:02.779Z</time></trkpt><trkpt lat="43.2427151" lon="11.5543935"><ele>194.0</ele><time>2026-05-03T08:13:05.8Z</time></trkpt><trkpt lat="43.242658" lon="11.5543358"><ele>194.00000000000003</ele><time>2026-05-03T08:13:08.792Z</time></trkpt><trkpt lat="43.2425992" lon="11.5542847"><ele>194.0</ele><time>2026-05-03T08:13:11.819Z</time></trkpt><trkpt lat="43.242535" lon="11.5542481"><ele>194.0</ele><time>2026-05-03T08:13:14.758Z</time></trkpt><trkpt lat="43.2424639" lon="11.5542038"><ele>194.0</ele><time>2026-05-03T08:13:17.783Z</time></trkpt><trkpt lat="43.2423961" lon="11.554147"><ele>194.00000000000003</ele><time>2026-05-03T08:13:20.818Z</time></trkpt><trkpt lat="43.2423313" lon="11.5541048"><ele>194.0</ele><time>2026-05-03T08:13:23.694Z</time></trkpt><trkpt lat="43.2422542" lon="11.5540412"><ele>191.7142857142857</ele><time>2026-05-03T08:13:26.791Z</time></trkpt><trkpt lat="43.2421914" lon="11.5540006"><ele>189.42857142857144</ele><time>2026-05-03T08:13:28.829Z</time></trkpt><trkpt lat="43.2421196" lon="11.5539572"><ele>187.14285714285714</ele><time>2026-05-03T08:13:30.765Z</time></trkpt><trkpt lat="43.2420428" lon="11.5539319"><ele>184.85714285714283</ele><time>2026-05-03T08:13:32.759Z</time></trkpt><trkpt lat="43.2419734" lon="11.5539092"><ele>182.57142857142856</ele><time>2026-05-03T08:13:34.776Z</time></trkpt><trkpt lat="43.2419004" lon="11.553889"><ele>180.28571428571428</ele><time>2026-05-03T08:13:36.775Z</time></trkpt><trkpt lat="43.241829" lon="11.5538795"><ele>178.0</ele><time>2026-05-03T08:13:38.757Z</time></trkpt><trkpt lat="43.2417616" lon="11.5538734"><ele>177.99999999999997</ele><time>2026-05-03T08:13:40.696Z</time></trkpt><trkpt lat="43.2416852" lon="11.5538724"><ele>178.0</ele><time>2026-05-03T08:13:42.807Z</time></trkpt><trkpt lat="43.2416152" lon="11.553879"><ele>178.0</ele><time>2026-05-03T08:13:44.8Z</time></trkpt><trkpt lat="43.2415285" lon="11.5538684"><ele>178.0</ele><time>2026-05-03T08:13:47.752Z</time></trkpt><trkpt lat="43.2414599" lon="11.5538469"><ele>178.0</ele><time>2026-05-03T08:13:50.797Z</time></trkpt><trkpt lat="43.2413971" lon="11.5538199"><ele>177.99999999999997</ele><time>2026-05-03T08:13:53.697Z</time></trkpt><trkpt lat="43.2413314" lon="11.5537899"><ele>178.0</ele><time>2026-05-03T08:13:56.8Z</time></trkpt><trkpt lat="43.2412687" lon="11.5537467"><ele>177.5</ele><time>2026-05-03T08:13:59.796Z</time></trkpt><trkpt lat="43.2411987" lon="11.5536909"><ele>177.0</ele><time>2026-05-03T08:14:02.766Z</time></trkpt><trkpt lat="43.2411241" lon="11.5536228"><ele>176.5</ele><time>2026-05-03T08:14:05.789Z</time></trkpt><trkpt lat="43.2410456" lon="11.553562"><ele>176.0</ele><time>2026-05-03T08:14:08.79Z</time></trkpt><trkpt lat="43.2409711" lon="11.55349"><ele>175.5</ele><time>2026-05-03T08:14:11.833Z</time></trkpt><trkpt lat="43.2409043" lon="11.5534245"><ele>175.0</ele><time>2026-05-03T08:14:14.795Z</time></trkpt><trkpt lat="43.2408292" lon="11.5533718"><ele>175.0</ele><time>2026-05-03T08:14:17.752Z</time></trkpt><trkpt lat="43.2407604" lon="11.5533255"><ele>175.0</ele><time>2026-05-03T08:14:20.784Z</time></trkpt><trkpt lat="43.2406907" lon="11.5532854"><ele>175.0</ele><time>2026-05-03T08:14:23.757Z</time></trkpt><trkpt lat="43.2406192" lon="11.5532295"><ele>175.0</ele><time>2026-05-03T08:14:26.788Z</time></trkpt><trkpt lat="43.2405432" lon="11.5531866"><ele>175.0</ele><time>2026-05-03T08:14:29.793Z</time></trkpt><trkpt lat="43.2404575" lon="11.553194"><ele>175.0</ele><time>2026-05-03T08:14:32.793Z</time></trkpt><trkpt lat="43.2403957" lon="11.5532818"><ele>174.66666666666669</ele><time>2026-05-03T08:14:35.778Z</time></trkpt><trkpt lat="43.2403188" lon="11.5533338"><ele>174.33333333333334</ele><time>2026-05-03T08:14:38.797Z</time></trkpt><trkpt lat="43.2402395" lon="11.5533647"><ele>174.0</ele><time>2026-05-03T08:14:41.831Z</time></trkpt><trkpt lat="43.2401747" lon="11.5534109"><ele>173.66666666666666</ele><time>2026-05-03T08:14:44.719Z</time></trkpt><trkpt lat="43.2400988" lon="11.5534584"><ele>173.33333333333331</ele><time>2026-05-03T08:14:47.824Z</time></trkpt><trkpt lat="43.2400399" lon="11.553529"><ele>173.0</ele><time>2026-05-03T08:14:50.69Z</time></trkpt><trkpt lat="43.2399827" lon="11.5535918"><ele>173.0</ele><time>2026-05-03T08:14:53.763Z</time></trkpt><trkpt lat="43.2399211" lon="11.5536629"><ele>173.0</ele><time>2026-05-03T08:14:56.695Z</time></trkpt><trkpt lat="43.2398743" lon="11.5537261"><ele>173.0</ele><time>2026-05-03T08:14:58.769Z</time></trkpt><trkpt lat="43.239833" lon="11.5537917"><ele>173.0</ele><time>2026-05-03T08:15:00.772Z</time></trkpt><trkpt lat="43.2397795" lon="11.5538789"><ele>173.0</ele><time>2026-05-03T08:15:03.775Z</time></trkpt><trkpt lat="43.2397236" lon="11.5539573"><ele>173.0</ele><time>2026-05-03T08:15:06.775Z</time></trkpt><trkpt lat="43.239668" lon="11.5540369"><ele>173.0</ele><time>2026-05-03T08:15:09.719Z</time></trkpt><trkpt lat="43.239607" lon="11.5541067"><ele>173.0</ele><time>2026-05-03T08:15:12.774Z</time></trkpt><trkpt lat="43.2395591" lon="11.5541901"><ele>173.0</ele><time>2026-05-03T08:15:15.694Z</time></trkpt><trkpt lat="43.2395278" lon="11.5542952"><ele>173.0</ele><time>2026-05-03T08:15:18.799Z</time></trkpt><trkpt lat="43.2394643" lon="11.5543659"><ele>173.0</ele><time>2026-05-03T08:15:21.797Z</time></trkpt><trkpt lat="43.2394251" lon="11.5544398"><ele>173.0</ele><time>2026-05-03T08:15:24.769Z</time></trkpt><trkpt lat="43.2393497" lon="11.5544985"><ele>173.42857142857142</ele><time>2026-05-03T08:15:28.812Z</time></trkpt><trkpt lat="43.2392901" lon="11.5545546"><ele>173.85714285714286</ele><time>2026-05-03T08:15:31.695Z</time></trkpt><trkpt lat="43.2392217" lon="11.554606"><ele>174.28571428571428</ele><time>2026-05-03T08:15:34.751Z</time></trkpt><trkpt lat="43.2391559" lon="11.5546493"><ele>174.71428571428572</ele><time>2026-05-03T08:15:37.756Z</time></trkpt><trkpt lat="43.2391022" lon="11.554706"><ele>175.14285714285714</ele><time>2026-05-03T08:15:40.772Z</time></trkpt><trkpt lat="43.2390842" lon="11.5548065"><ele>175.57142857142858</ele><time>2026-05-03T08:15:43.773Z</time></trkpt><trkpt lat="43.2391312" lon="11.5548904"><ele>176.0</ele><time>2026-05-03T08:15:46.735Z</time></trkpt><trkpt lat="43.2391562" lon="11.5549877"><ele>176.0</ele><time>2026-05-03T08:15:49.78Z</time></trkpt><trkpt lat="43.2391574" lon="11.5550932"><ele>176.0</ele><time>2026-05-03T08:15:52.789Z</time></trkpt><trkpt lat="43.2391303" lon="11.5551801"><ele>176.0</ele><time>2026-05-03T08:15:55.775Z</time></trkpt><trkpt lat="43.2391017" lon="11.5552656"><ele>176.0</ele><time>2026-05-03T08:15:58.782Z</time></trkpt><trkpt lat="43.2390758" lon="11.5553549"><ele>176.0</ele><time>2026-05-03T08:16:01.723Z</time></trkpt><trkpt lat="43.2390438" lon="11.5554415"><ele>176.0</ele><time>2026-05-03T08:16:04.782Z</time></trkpt><trkpt lat="43.2390119" lon="11.5555328"><ele>176.0</ele><time>2026-05-03T08:16:07.832Z</time></trkpt><trkpt lat="43.2389811" lon="11.5556281"><ele>176.33333333333331</ele><time>2026-05-03T08:16:10.762Z</time></trkpt><trkpt lat="43.2389509" lon="11.5557241"><ele>176.66666666666666</ele><time>2026-05-03T08:16:13.773Z</time></trkpt><trkpt lat="43.238946" lon="11.5558229"><ele>177.0</ele><time>2026-05-03T08:16:16.787Z</time></trkpt><trkpt lat="43.238905" lon="11.5559188"><ele>177.33333333333334</ele><time>2026-05-03T08:16:19.856Z</time></trkpt><trkpt lat="43.2388799" lon="11.5560156"><ele>177.66666666666669</ele><time>2026-05-03T08:16:22.701Z</time></trkpt><trkpt lat="43.238859" lon="11.5561193"><ele>178.0</ele><time>2026-05-03T08:16:25.777Z</time></trkpt><trkpt lat="43.2388419" lon="11.5562196"><ele>177.99999999999997</ele><time>2026-05-03T08:16:28.781Z</time></trkpt><trkpt lat="43.2388417" lon="11.5563222"><ele>178.0</ele><time>2026-05-03T08:16:31.785Z</time></trkpt><trkpt lat="43.2388564" lon="11.5564237"><ele>178.0</ele><time>2026-05-03T08:16:34.811Z</time></trkpt><trkpt lat="43.2388796" lon="11.5565195"><ele>178.0</ele><time>2026-05-03T08:16:37.793Z</time></trkpt><trkpt lat="43.2389084" lon="11.5566083"><ele>178.0</ele><time>2026-05-03T08:16:40.758Z</time></trkpt><trkpt lat="43.2389408" lon="11.5566984"><ele>177.99999999999997</ele><time>2026-05-03T08:16:43.773Z</time></trkpt><trkpt lat="43.2389734" lon="11.5567937"><ele>178.0</ele><time>2026-05-03T08:16:46.812Z</time></trkpt><trkpt lat="43.2389962" lon="11.5568954"><ele>178.0</ele><time>2026-05-03T08:16:49.719Z</time></trkpt><trkpt lat="43.2390354" lon="11.5570086"><ele>178.0</ele><time>2026-05-03T08:16:52.785Z</time></trkpt><trkpt lat="43.239089" lon="11.5571086"><ele>178.0</ele><time>2026-05-03T08:16:55.696Z</time></trkpt><trkpt lat="43.2391508" lon="11.5571988"><ele>178.0</ele><time>2026-05-03T08:16:58.784Z</time></trkpt><trkpt lat="43.2392078" lon="11.5572853"><ele>178.0</ele><time>2026-05-03T08:17:01.782Z</time></trkpt><trkpt lat="43.2392686" lon="11.5573689"><ele>178.0</ele><time>2026-05-03T08:17:04.788Z</time></trkpt><trkpt lat="43.2393351" lon="11.5574549"><ele>178.0</ele><time>2026-05-03T08:17:07.795Z</time></trkpt><trkpt lat="43.2393931" lon="11.5575325"><ele>178.0</ele><time>2026-05-03T08:17:10.76Z</time></trkpt><trkpt lat="43.239445" lon="11.557613"><ele>178.0</ele><time>2026-05-03T08:17:13.779Z</time></trkpt><trkpt lat="43.2394999" lon="11.5576907"><ele>178.0</ele><time>2026-05-03T08:17:16.796Z</time></trkpt><trkpt lat="43.2395601" lon="11.5577583"><ele>178.0</ele><time>2026-05-03T08:17:19.779Z</time></trkpt><trkpt lat="43.2396256" lon="11.55782"><ele>178.0</ele><time>2026-05-03T08:17:22.835Z</time></trkpt><trkpt lat="43.2396881" lon="11.5578927"><ele>178.14285714285714</ele><time>2026-05-03T08:17:26.752Z</time></trkpt><trkpt lat="43.2397547" lon="11.5579604"><ele>178.28571428571428</ele><time>2026-05-03T08:17:30.734Z</time></trkpt><trkpt lat="43.2398222" lon="11.5580031"><ele>178.42857142857144</ele><time>2026-05-03T08:17:33.799Z</time></trkpt><trkpt lat="43.2398842" lon="11.5580349"><ele>178.57142857142856</ele><time>2026-05-03T08:17:36.791Z</time></trkpt><trkpt lat="43.2399366" lon="11.5580867"><ele>178.71428571428572</ele><time>2026-05-03T08:17:39.748Z</time></trkpt><trkpt lat="43.2399697" lon="11.5581668"><ele>178.85714285714286</ele><time>2026-05-03T08:17:42.76Z</time></trkpt><trkpt lat="43.2399863" lon="11.5582684"><ele>179.0</ele><time>2026-05-03T08:17:46.782Z</time></trkpt><trkpt lat="43.2400019" lon="11.5583635"><ele>179.2857142857143</ele><time>2026-05-03T08:17:51.657Z</time></trkpt><trkpt lat="43.2400229" lon="11.5584571"><ele>179.57142857142858</ele><time>2026-05-03T08:17:56.775Z</time></trkpt><trkpt lat="43.240029" lon="11.5585433"><ele>179.85714285714286</ele><time>2026-05-03T08:18:03.785Z</time></trkpt><trkpt lat="43.2400282" lon="11.5586318"><ele>180.14285714285717</ele><time>2026-05-03T08:18:07.802Z</time></trkpt><trkpt lat="43.2400181" lon="11.5587196"><ele>180.42857142857142</ele><time>2026-05-03T08:18:11.79Z</time></trkpt><trkpt lat="43.2400142" lon="11.5588101"><ele>180.71428571428572</ele><time>2026-05-03T08:18:17.674Z</time></trkpt><trkpt lat="43.2400181" lon="11.5589017"><ele>181.0</ele><time>2026-05-03T08:18:21.794Z</time></trkpt><trkpt lat="43.2400268" lon="11.5589954"><ele>182.0</ele><time>2026-05-03T08:18:27.789Z</time></trkpt><trkpt lat="43.2400352" lon="11.559091"><ele>183.0</ele><time>2026-05-03T08:18:34.765Z</time></trkpt><trkpt lat="43.240047" lon="11.5591762"><ele>184.0</ele><time>2026-05-03T08:18:39.816Z</time></trkpt><trkpt lat="43.2400716" lon="11.5592677"><ele>185.0</ele><time>2026-05-03T08:18:44.776Z</time></trkpt><trkpt lat="43.2400932" lon="11.5593541"><ele>186.0</ele><time>2026-05-03T08:18:49.79Z</time></trkpt><trkpt lat="43.2401069" lon="11.5594406"><ele>187.0</ele><time>2026-05-03T08:18:54.795Z</time></trkpt><trkpt lat="43.2401128" lon="11.5595385"><ele>188.0</ele><time>2026-05-03T08:19:00.779Z</time></trkpt><trkpt lat="43.2401245" lon="11.5596366"><ele>188.85714285714286</ele><time>2026-05-03T08:19:06.799Z</time></trkpt><trkpt lat="43.2401367" lon="11.5597345"><ele>189.71428571428572</ele><time>2026-05-03T08:19:12.793Z</time></trkpt><trkpt lat="43.2401511" lon="11.5598313"><ele>190.57142857142856</ele><time>2026-05-03T08:19:18.795Z</time></trkpt><trkpt lat="43.2401585" lon="11.5599238"><ele>191.42857142857144</ele><time>2026-05-03T08:19:23.771Z</time></trkpt><trkpt lat="43.2401668" lon="11.560015"><ele>192.2857142857143</ele><time>2026-05-03T08:19:28.767Z</time></trkpt><trkpt lat="43.2401806" lon="11.5601081"><ele>193.14285714285714</ele><time>2026-05-03T08:19:34.789Z</time></trkpt><trkpt lat="43.2401941" lon="11.5601993"><ele>194.0</ele><time>2026-05-03T08:19:40.827Z</time></trkpt><trkpt lat="43.2402068" lon="11.5602853"><ele>194.42857142857142</ele><time>2026-05-03T08:19:46.785Z</time></trkpt><trkpt lat="43.240218" lon="11.5603838"><ele>194.85714285714286</ele><time>2026-05-03T08:19:52.797Z</time></trkpt><trkpt lat="43.2402396" lon="11.5604766"><ele>195.28571428571428</ele><time>2026-05-03T08:19:58.762Z</time></trkpt><trkpt lat="43.2402672" lon="11.5605551"><ele>195.71428571428572</ele><time>2026-05-03T08:20:03.796Z</time></trkpt><trkpt lat="43.2402975" lon="11.5606363"><ele>196.14285714285717</ele><time>2026-05-03T08:20:08.789Z</time></trkpt><trkpt lat="43.2403265" lon="11.5607232"><ele>196.57142857142858</ele><time>2026-05-03T08:20:14.799Z</time></trkpt><trkpt lat="43.24036" lon="11.5608111"><ele>197.0</ele><time>2026-05-03T08:20:20.787Z</time></trkpt><trkpt lat="43.2404033" lon="11.5608802"><ele>197.0</ele><time>2026-05-03T08:20:25.805Z</time></trkpt><trkpt lat="43.2404503" lon="11.5609438"><ele>197.0</ele><time>2026-05-03T08:20:30.779Z</time></trkpt><trkpt lat="43.240505" lon="11.5610078"><ele>197.0</ele><time>2026-05-03T08:20:36.779Z</time></trkpt><trkpt lat="43.2405586" lon="11.5610613"><ele>197.0</ele><time>2026-05-03T08:20:41.79Z</time></trkpt><trkpt lat="43.2406077" lon="11.5611191"><ele>197.0</ele><time>2026-05-03T08:20:46.793Z</time></trkpt><trkpt lat="43.2406646" lon="11.5611805"><ele>197.0</ele><time>2026-05-03T08:20:51.714Z</time></trkpt><trkpt lat="43.2407236" lon="11.5612406"><ele>197.0</ele><time>2026-05-03T08:20:57.783Z</time></trkpt><trkpt lat="43.2407792" lon="11.5613006"><ele>199.42857142857144</ele><time>2026-05-03T08:21:02.78Z</time></trkpt><trkpt lat="43.2408359" lon="11.5613636"><ele>201.85714285714286</ele><time>2026-05-03T08:21:07.713Z</time></trkpt><trkpt lat="43.2408959" lon="11.5614238"><ele>204.28571428571428</ele><time>2026-05-03T08:21:13.791Z</time></trkpt><trkpt lat="43.2409493" lon="11.5614886"><ele>206.71428571428572</ele><time>2026-05-03T08:21:19.814Z</time></trkpt><trkpt lat="43.2410008" lon="11.5615442"><ele>209.14285714285714</ele><time>2026-05-03T08:21:26.832Z</time></trkpt><trkpt lat="43.2410621" lon="11.5615678"><ele>211.57142857142858</ele><time>2026-05-03T08:21:30.807Z</time></trkpt><trkpt lat="43.2411324" lon="11.5616006"><ele>214.0</ele><time>2026-05-03T08:21:35.797Z</time></trkpt><trkpt lat="43.2412012" lon="11.5616491"><ele>214.00000000000003</ele><time>2026-05-03T08:21:40.777Z</time></trkpt><trkpt lat="43.2412656" lon="11.5616978"><ele>214.0</ele><time>2026-05-03T08:21:45.793Z</time></trkpt><trkpt lat="43.2413262" lon="11.561753"><ele>214.0</ele><time>2026-05-03T08:21:51.793Z</time></trkpt><trkpt lat="43.2413802" lon="11.5618195"><ele>214.0</ele><time>2026-05-03T08:21:57.806Z</time></trkpt><trkpt lat="43.2414297" lon="11.5618784"><ele>214.0</ele><time>2026-05-03T08:22:02.76Z</time></trkpt><trkpt lat="43.2414757" lon="11.5619386"><ele>214.00000000000003</ele><time>2026-05-03T08:22:07.783Z</time></trkpt><trkpt lat="43.2415233" lon="11.5619969"><ele>214.0</ele><time>2026-05-03T08:22:12.796Z</time></trkpt><trkpt lat="43.2415681" lon="11.5620635"><ele>216.0</ele><time>2026-05-03T08:22:17.854Z</time></trkpt><trkpt lat="43.2416262" lon="11.5621126"><ele>218.0</ele><time>2026-05-03T08:22:22.765Z</time></trkpt><trkpt lat="43.2416746" lon="11.5621728"><ele>220.0</ele><time>2026-05-03T08:22:27.788Z</time></trkpt><trkpt lat="43.2417232" lon="11.562231"><ele>222.0</ele><time>2026-05-03T08:22:33.787Z</time></trkpt><trkpt lat="43.2417742" lon="11.5622954"><ele>223.99999999999997</ele><time>2026-05-03T08:22:40.807Z</time></trkpt><trkpt lat="43.2418249" lon="11.5623663"><ele>226.0</ele><time>2026-05-03T08:22:45.77Z</time></trkpt><trkpt lat="43.2418708" lon="11.5624369"><ele>228.0</ele><time>2026-05-03T08:22:50.791Z</time></trkpt><trkpt lat="43.2419128" lon="11.5625176"><ele>228.0</ele><time>2026-05-03T08:22:57.766Z</time></trkpt><trkpt lat="43.2419636" lon="11.5625957"><ele>227.99999999999997</ele><time>2026-05-03T08:23:03.788Z</time></trkpt><trkpt lat="43.2420046" lon="11.5626634"><ele>228.0</ele><time>2026-05-03T08:23:08.787Z</time></trkpt><trkpt lat="43.2420477" lon="11.5627538"><ele>228.0</ele><time>2026-05-03T08:23:13.786Z</time></trkpt><trkpt lat="43.242077" lon="11.562834"><ele>227.99999999999997</ele><time>2026-05-03T08:23:16.802Z</time></trkpt><trkpt lat="43.2421048" lon="11.562914"><ele>228.0</ele><time>2026-05-03T08:23:19.693Z</time></trkpt><trkpt lat="43.2421517" lon="11.5630088"><ele>228.0</ele><time>2026-05-03T08:23:23.762Z</time></trkpt><trkpt lat="43.2421858" lon="11.5630861"><ele>226.7142857142857</ele><time>2026-05-03T08:23:26.767Z</time></trkpt><trkpt lat="43.2422216" lon="11.5631582"><ele>225.4285714285714</ele><time>2026-05-03T08:23:29.825Z</time></trkpt><trkpt lat="43.242254" lon="11.5632425"><ele>224.14285714285714</ele><time>2026-05-03T08:23:32.694Z</time></trkpt><trkpt lat="43.2422936" lon="11.5633332"><ele>222.85714285714283</ele><time>2026-05-03T08:23:35.759Z</time></trkpt><trkpt lat="43.2423298" lon="11.5634256"><ele>221.57142857142856</ele><time>2026-05-03T08:23:38.753Z</time></trkpt><trkpt lat="43.2423717" lon="11.5635098"><ele>220.28571428571428</ele><time>2026-05-03T08:23:41.766Z</time></trkpt><trkpt lat="43.2424183" lon="11.5635841"><ele>219.0</ele><time>2026-05-03T08:23:44.798Z</time></trkpt><trkpt lat="43.2424567" lon="11.5636586"><ele>222.0</ele><time>2026-05-03T08:23:47.802Z</time></trkpt><trkpt lat="43.242493" lon="11.5637373"><ele>225.0</ele><time>2026-05-03T08:23:50.767Z</time></trkpt><trkpt lat="43.2425133" lon="11.5638387"><ele>228.0</ele><time>2026-05-03T08:23:53.756Z</time></trkpt><trkpt lat="43.242526" lon="11.5639556"><ele>231.0</ele><time>2026-05-03T08:23:56.836Z</time></trkpt><trkpt lat="43.2425701" lon="11.5640329"><ele>234.0</ele><time>2026-05-03T08:23:59.691Z</time></trkpt><trkpt lat="43.2426341" lon="11.5640514"><ele>237.0</ele><time>2026-05-03T08:24:02.783Z</time></trkpt><trkpt lat="43.2426993" lon="11.5640436"><ele>240.0</ele><time>2026-05-03T08:24:06.793Z</time></trkpt><trkpt lat="43.2427684" lon="11.5640756"><ele>240.0</ele><time>2026-05-03T08:24:12.781Z</time></trkpt><trkpt lat="43.2428311" lon="11.5641251"><ele>240.0</ele><time>2026-05-03T08:24:18.809Z</time></trkpt><trkpt lat="43.2428902" lon="11.5640804"><ele>240.0</ele><time>2026-05-03T08:24:52.774Z</time></trkpt><trkpt lat="43.2429359" lon="11.5640037"><ele>240.0</ele><time>2026-05-03T08:24:59.798Z</time></trkpt><trkpt lat="43.2429902" lon="11.5639388"><ele>240.0</ele><time>2026-05-03T08:25:04.804Z</time></trkpt><trkpt lat="43.2430608" lon="11.5639031"><ele>240.0</ele><time>2026-05-03T08:25:10.76Z</time></trkpt><trkpt lat="43.2431313" lon="11.5639582"><ele>240.0</ele><time>2026-05-03T08:25:14.694Z</time></trkpt><trkpt lat="43.2431885" lon="11.5640184"><ele>241.0</ele><time>2026-05-03T08:25:17.774Z</time></trkpt><trkpt lat="43.2432575" lon="11.5640595"><ele>242.0</ele><time>2026-05-03T08:25:20.774Z</time></trkpt><trkpt lat="43.2433315" lon="11.5641083"><ele>243.0</ele><time>2026-05-03T08:25:23.722Z</time></trkpt><trkpt lat="43.2434023" lon="11.5641749"><ele>244.0</ele><time>2026-05-03T08:25:26.785Z</time></trkpt><trkpt lat="43.2434775" lon="11.5642356"><ele>245.0</ele><time>2026-05-03T08:25:29.839Z</time></trkpt><trkpt lat="43.2435504" lon="11.5643129"><ele>246.0</ele><time>2026-05-03T08:25:32.753Z</time></trkpt><trkpt lat="43.2436035" lon="11.564365"><ele>246.0</ele><time>2026-05-03T08:25:34.752Z</time></trkpt><trkpt lat="43.2436564" lon="11.5644214"><ele>246.0</ele><time>2026-05-03T08:25:36.817Z</time></trkpt><trkpt lat="43.2437353" lon="11.5644895"><ele>246.0</ele><time>2026-05-03T08:25:39.781Z</time></trkpt><trkpt lat="43.2438076" lon="11.5645651"><ele>246.0</ele><time>2026-05-03T08:25:42.784Z</time></trkpt><trkpt lat="43.2438749" lon="11.5646382"><ele>246.0</ele><time>2026-05-03T08:25:45.754Z</time></trkpt><trkpt lat="43.2439426" lon="11.5647105"><ele>246.0</ele><time>2026-05-03T08:25:48.829Z</time></trkpt><trkpt lat="43.2440022" lon="11.5647777"><ele>245.83333333333334</ele><time>2026-05-03T08:25:51.694Z</time></trkpt><trkpt lat="43.2440614" lon="11.5648639"><ele>245.66666666666669</ele><time>2026-05-03T08:25:54.767Z</time></trkpt><trkpt lat="43.2441133" lon="11.5649427"><ele>245.5</ele><time>2026-05-03T08:25:57.762Z</time></trkpt><trkpt lat="43.2441587" lon="11.5650206"><ele>245.33333333333334</ele><time>2026-05-03T08:26:00.762Z</time></trkpt><trkpt lat="43.2442023" lon="11.5650936"><ele>245.16666666666669</ele><time>2026-05-03T08:26:03.783Z</time></trkpt><trkpt lat="43.2442484" lon="11.5651537"><ele>245.0</ele><time>2026-05-03T08:26:06.778Z</time></trkpt><trkpt lat="43.2443129" lon="11.5652267"><ele>245.0</ele><time>2026-05-03T08:26:10.827Z</time></trkpt><trkpt lat="43.2443677" lon="11.5653049"><ele>245.0</ele><time>2026-05-03T08:26:14.791Z</time></trkpt><trkpt lat="43.2444153" lon="11.5653669"><ele>245.0</ele><time>2026-05-03T08:26:17.779Z</time></trkpt><trkpt lat="43.2444805" lon="11.5654347"><ele>245.0</ele><time>2026-05-03T08:26:21.715Z</time></trkpt><trkpt lat="43.2445316" lon="11.5654892"><ele>245.0</ele><time>2026-05-03T08:26:24.806Z</time></trkpt><trkpt lat="43.244591" lon="11.5655419"><ele>245.0</ele><time>2026-05-03T08:26:27.796Z</time></trkpt><trkpt lat="43.2446614" lon="11.5656089"><ele>245.0</ele><time>2026-05-03T08:26:30.775Z</time></trkpt><trkpt lat="43.2447252" lon="11.5656808"><ele>245.33333333333334</ele><time>2026-05-03T08:26:33.784Z</time></trkpt><trkpt lat="43.2447796" lon="11.565762"><ele>245.66666666666669</ele><time>2026-05-03T08:26:36.844Z</time></trkpt><trkpt lat="43.2448289" lon="11.5658461"><ele>246.0</ele><time>2026-05-03T08:26:39.778Z</time></trkpt><trkpt lat="43.2448766" lon="11.5659326"><ele>246.33333333333331</ele><time>2026-05-03T08:26:42.78Z</time></trkpt><trkpt lat="43.2449152" lon="11.5660202"><ele>246.66666666666666</ele><time>2026-05-03T08:26:45.727Z</time></trkpt><trkpt lat="43.2449614" lon="11.5660944"><ele>247.0</ele><time>2026-05-03T08:26:48.764Z</time></trkpt><trkpt lat="43.2450018" lon="11.566173"><ele>247.0</ele><time>2026-05-03T08:26:51.777Z</time></trkpt><trkpt lat="43.2450322" lon="11.5662601"><ele>247.0</ele><time>2026-05-03T08:26:54.793Z</time></trkpt><trkpt lat="43.2450542" lon="11.5663462"><ele>247.0</ele><time>2026-05-03T08:26:57.754Z</time></trkpt><trkpt lat="43.2450839" lon="11.5664379"><ele>247.0</ele><time>2026-05-03T08:27:00.789Z</time></trkpt><trkpt lat="43.2451087" lon="11.5665277"><ele>247.0</ele><time>2026-05-03T08:27:03.795Z</time></trkpt><trkpt lat="43.2451325" lon="11.5666095"><ele>247.0</ele><time>2026-05-03T08:27:06.8Z</time></trkpt><trkpt lat="43.2451547" lon="11.5667166"><ele>247.0</ele><time>2026-05-03T08:27:10.807Z</time></trkpt><trkpt lat="43.2451751" lon="11.5668117"><ele>247.0</ele><time>2026-05-03T08:27:13.76Z</time></trkpt><trkpt lat="43.2451965" lon="11.5669182"><ele>247.0</ele><time>2026-05-03T08:27:16.775Z</time></trkpt><trkpt lat="43.2452153" lon="11.5670199"><ele>247.0</ele><time>2026-05-03T08:27:19.779Z</time></trkpt><trkpt lat="43.2452271" lon="11.5671085"><ele>247.0</ele><time>2026-05-03T08:27:22.754Z</time></trkpt><trkpt lat="43.2452405" lon="11.567196"><ele>247.0</ele><time>2026-05-03T08:27:25.786Z</time></trkpt><trkpt lat="43.245256" lon="11.5672827"><ele>247.0</ele><time>2026-05-03T08:27:28.787Z</time></trkpt><trkpt lat="43.2452696" lon="11.5673746"><ele>247.0</ele><time>2026-05-03T08:27:31.758Z</time></trkpt><trkpt lat="43.2452844" lon="11.5674737"><ele>246.66666666666666</ele><time>2026-05-03T08:27:34.771Z</time></trkpt><trkpt lat="43.2452954" lon="11.5675808"><ele>246.33333333333331</ele><time>2026-05-03T08:27:37.78Z</time></trkpt><trkpt lat="43.2452994" lon="11.5676878"><ele>246.0</ele><time>2026-05-03T08:27:40.797Z</time></trkpt><trkpt lat="43.2453067" lon="11.5677926"><ele>245.66666666666669</ele><time>2026-05-03T08:27:43.782Z</time></trkpt><trkpt lat="43.2453092" lon="11.5678895"><ele>245.33333333333334</ele><time>2026-05-03T08:27:46.732Z</time></trkpt><trkpt lat="43.245301" lon="11.5679952"><ele>245.0</ele><time>2026-05-03T08:27:49.77Z</time></trkpt><trkpt lat="43.2452889" lon="11.5681049"><ele>244.16666666666669</ele><time>2026-05-03T08:27:52.75Z</time></trkpt><trkpt lat="43.2452807" lon="11.5681989"><ele>243.33333333333334</ele><time>2026-05-03T08:27:55.706Z</time></trkpt><trkpt lat="43.2452731" lon="11.5682927"><ele>242.5</ele><time>2026-05-03T08:27:58.819Z</time></trkpt><trkpt lat="43.2452607" lon="11.5683976"><ele>241.66666666666669</ele><time>2026-05-03T08:28:01.788Z</time></trkpt><trkpt lat="43.2452698" lon="11.5685082"><ele>240.83333333333334</ele><time>2026-05-03T08:28:04.777Z</time></trkpt><trkpt lat="43.2452811" lon="11.5686271"><ele>240.0</ele><time>2026-05-03T08:28:07.78Z</time></trkpt><trkpt lat="43.2452905" lon="11.5687466"><ele>239.66666666666666</ele><time>2026-05-03T08:28:10.764Z</time></trkpt><trkpt lat="43.245307" lon="11.5688678"><ele>239.33333333333331</ele><time>2026-05-03T08:28:13.833Z</time></trkpt><trkpt lat="43.2453238" lon="11.5689848"><ele>239.0</ele><time>2026-05-03T08:28:16.763Z</time></trkpt><trkpt lat="43.2453444" lon="11.5691026"><ele>238.66666666666666</ele><time>2026-05-03T08:28:19.779Z</time></trkpt><trkpt lat="43.2453626" lon="11.5692239"><ele>238.33333333333331</ele><time>2026-05-03T08:28:22.774Z</time></trkpt><trkpt lat="43.2453788" lon="11.5693329"><ele>238.0</ele><time>2026-05-03T08:28:25.78Z</time></trkpt><trkpt lat="43.2453996" lon="11.5694375"><ele>238.99999999999997</ele><time>2026-05-03T08:28:28.792Z</time></trkpt><trkpt lat="43.2454073" lon="11.5695382"><ele>240.0</ele><time>2026-05-03T08:28:31.755Z</time></trkpt><trkpt lat="43.2453953" lon="11.569647"><ele>241.0</ele><time>2026-05-03T08:28:34.759Z</time></trkpt><trkpt lat="43.2453378" lon="11.5697278"><ele>242.0</ele><time>2026-05-03T08:28:38.779Z</time></trkpt><trkpt lat="43.2452724" lon="11.5697669"><ele>242.99999999999997</ele><time>2026-05-03T08:28:41.778Z</time></trkpt><trkpt lat="43.2452037" lon="11.569811"><ele>244.0</ele><time>2026-05-03T08:28:44.752Z</time></trkpt><trkpt lat="43.2451423" lon="11.5698797"><ele>243.99999999999997</ele><time>2026-05-03T08:28:47.832Z</time></trkpt><trkpt lat="43.2451008" lon="11.5699535"><ele>244.0</ele><time>2026-05-03T08:28:50.784Z</time></trkpt><trkpt lat="43.2450663" lon="11.5700326"><ele>243.99999999999997</ele><time>2026-05-03T08:28:53.736Z</time></trkpt><trkpt lat="43.2450427" lon="11.5701242"><ele>243.99999999999997</ele><time>2026-05-03T08:28:56.763Z</time></trkpt><trkpt lat="43.2450178" lon="11.5702123"><ele>244.0</ele><time>2026-05-03T08:28:59.786Z</time></trkpt><trkpt lat="43.2449951" lon="11.5703006"><ele>243.99999999999997</ele><time>2026-05-03T08:29:02.806Z</time></trkpt><trkpt lat="43.2449655" lon="11.570388"><ele>243.99999999999997</ele><time>2026-05-03T08:29:05.78Z</time></trkpt><trkpt lat="43.2449361" lon="11.5704784"><ele>245.16666666666666</ele><time>2026-05-03T08:29:08.792Z</time></trkpt><trkpt lat="43.2449087" lon="11.5705647"><ele>246.33333333333331</ele><time>2026-05-03T08:29:11.791Z</time></trkpt><trkpt lat="43.2448753" lon="11.5706631"><ele>247.5</ele><time>2026-05-03T08:29:15.764Z</time></trkpt><trkpt lat="43.2448106" lon="11.5707264"><ele>248.66666666666669</ele><time>2026-05-03T08:29:19.79Z</time></trkpt><trkpt lat="43.2447516" lon="11.5707638"><ele>249.83333333333334</ele><time>2026-05-03T08:29:23.766Z</time></trkpt><trkpt lat="43.2446755" lon="11.5707848"><ele>251.0</ele><time>2026-05-03T08:29:27.774Z</time></trkpt><trkpt lat="43.2445935" lon="11.5707874"><ele>251.85714285714283</ele><time>2026-05-03T08:29:31.762Z</time></trkpt><trkpt lat="43.2445252" lon="11.570794"><ele>252.71428571428572</ele><time>2026-05-03T08:29:35.758Z</time></trkpt><trkpt lat="43.2444578" lon="11.5707989"><ele>253.57142857142856</ele><time>2026-05-03T08:29:40.763Z</time></trkpt><trkpt lat="43.2443936" lon="11.5707989"><ele>254.42857142857142</ele><time>2026-05-03T08:29:46.782Z</time></trkpt><trkpt lat="43.2443274" lon="11.5708046"><ele>255.28571428571428</ele><time>2026-05-03T08:29:52.788Z</time></trkpt><trkpt lat="43.2442577" lon="11.5708268"><ele>256.1428571428571</ele><time>2026-05-03T08:29:58.791Z</time></trkpt><trkpt lat="43.2441954" lon="11.5708503"><ele>257.0</ele><time>2026-05-03T08:30:04.807Z</time></trkpt><trkpt lat="43.2441333" lon="11.5709065"><ele>257.0</ele><time>2026-05-03T08:30:10.79Z</time></trkpt><trkpt lat="43.2440774" lon="11.5709496"><ele>257.0</ele><time>2026-05-03T08:30:15.8Z</time></trkpt><trkpt lat="43.2440183" lon="11.5709938"><ele>257.0</ele><time>2026-05-03T08:30:20.767Z</time></trkpt><trkpt lat="43.2439555" lon="11.5710459"><ele>257.0</ele><time>2026-05-03T08:30:25.79Z</time></trkpt><trkpt lat="43.243894" lon="11.5710996"><ele>257.0</ele><time>2026-05-03T08:30:30.804Z</time></trkpt><trkpt lat="43.2438303" lon="11.5711379"><ele>257.0</ele><time>2026-05-03T08:30:33.79Z</time></trkpt><trkpt lat="43.2437636" lon="11.5710991"><ele>257.0</ele><time>2026-05-03T08:30:36.685Z</time></trkpt><trkpt lat="43.243691" lon="11.571054"><ele>258.0</ele><time>2026-05-03T08:30:39.786Z</time></trkpt><trkpt lat="43.2436134" lon="11.5710226"><ele>259.0</ele><time>2026-05-03T08:30:42.786Z</time></trkpt><trkpt lat="43.2435331" lon="11.5709929"><ele>260.0</ele><time>2026-05-03T08:30:45.667Z</time></trkpt><trkpt lat="43.2434525" lon="11.570968"><ele>261.0</ele><time>2026-05-03T08:30:48.797Z</time></trkpt><trkpt lat="43.2433855" lon="11.5709423"><ele>262.0</ele><time>2026-05-03T08:30:51.803Z</time></trkpt><trkpt lat="43.2433167" lon="11.5709195"><ele>263.0</ele><time>2026-05-03T08:30:54.804Z</time></trkpt><trkpt lat="43.243248" lon="11.5708962"><ele>263.0</ele><time>2026-05-03T08:30:57.767Z</time></trkpt><trkpt lat="43.2431775" lon="11.5708813"><ele>263.0</ele><time>2026-05-03T08:31:00.771Z</time></trkpt><trkpt lat="43.243108" lon="11.5708747"><ele>263.0</ele><time>2026-05-03T08:31:03.811Z</time></trkpt><trkpt lat="43.2430397" lon="11.570878"><ele>263.0</ele><time>2026-05-03T08:31:06.784Z</time></trkpt><trkpt lat="43.2429742" lon="11.5708908"><ele>263.0</ele><time>2026-05-03T08:31:09.666Z</time></trkpt><trkpt lat="43.242911" lon="11.5709298"><ele>263.0</ele><time>2026-05-03T08:31:12.776Z</time></trkpt><trkpt lat="43.2428494" lon="11.5709703"><ele>263.0</ele><time>2026-05-03T08:31:15.727Z</time></trkpt><trkpt lat="43.2427883" lon="11.5710208"><ele>263.1666666666667</ele><time>2026-05-03T08:31:18.761Z</time></trkpt><trkpt lat="43.242726" lon="11.5710783"><ele>263.33333333333337</ele><time>2026-05-03T08:31:21.761Z</time></trkpt><trkpt lat="43.2426582" lon="11.571141"><ele>263.5</ele><time>2026-05-03T08:31:24.779Z</time></trkpt><trkpt lat="43.2425815" lon="11.5712137"><ele>263.6666666666667</ele><time>2026-05-03T08:31:27.785Z</time></trkpt><trkpt lat="43.2425104" lon="11.5712928"><ele>263.8333333333333</ele><time>2026-05-03T08:31:30.791Z</time></trkpt><trkpt lat="43.2424467" lon="11.5713732"><ele>264.0</ele><time>2026-05-03T08:31:33.799Z</time></trkpt><trkpt lat="43.2423842" lon="11.5714532"><ele>263.5</ele><time>2026-05-03T08:31:36.787Z</time></trkpt><trkpt lat="43.2423267" lon="11.5715372"><ele>263.0</ele><time>2026-05-03T08:31:39.754Z</time></trkpt><trkpt lat="43.2422571" lon="11.5716176"><ele>262.5</ele><time>2026-05-03T08:31:42.792Z</time></trkpt><trkpt lat="43.2421914" lon="11.5716886"><ele>262.0</ele><time>2026-05-03T08:31:45.784Z</time></trkpt><trkpt lat="43.2421235" lon="11.5717543"><ele>261.5</ele><time>2026-05-03T08:31:48.772Z</time></trkpt><trkpt lat="43.2420614" lon="11.5718199"><ele>261.0</ele><time>2026-05-03T08:31:51.441Z</time></trkpt><trkpt lat="43.2419988" lon="11.5718813"><ele>260.3333333333333</ele><time>2026-05-03T08:31:53.791Z</time></trkpt><trkpt lat="43.2419423" lon="11.5719233"><ele>259.6666666666667</ele><time>2026-05-03T08:31:55.784Z</time></trkpt><trkpt lat="43.2418648" lon="11.5719806"><ele>259.0</ele><time>2026-05-03T08:31:58.791Z</time></trkpt><trkpt lat="43.2417839" lon="11.5720161"><ele>258.33333333333337</ele><time>2026-05-03T08:32:01.738Z</time></trkpt><trkpt lat="43.2417233" lon="11.5720462"><ele>257.6666666666667</ele><time>2026-05-03T08:32:03.766Z</time></trkpt><trkpt lat="43.2416401" lon="11.5720903"><ele>257.0</ele><time>2026-05-03T08:32:06.795Z</time></trkpt><trkpt lat="43.2415558" lon="11.5721321"><ele>257.0</ele><time>2026-05-03T08:32:09.725Z</time></trkpt><trkpt lat="43.2414718" lon="11.5721763"><ele>257.0</ele><time>2026-05-03T08:32:12.778Z</time></trkpt><trkpt lat="43.2413866" lon="11.5722094"><ele>257.0</ele><time>2026-05-03T08:32:15.786Z</time></trkpt><trkpt lat="43.2412965" lon="11.5722316"><ele>257.0</ele><time>2026-05-03T08:32:18.758Z</time></trkpt><trkpt lat="43.2412032" lon="11.5722446"><ele>257.0</ele><time>2026-05-03T08:32:21.706Z</time></trkpt><trkpt lat="43.2411102" lon="11.5722518"><ele>256.33333333333337</ele><time>2026-05-03T08:32:24.776Z</time></trkpt><trkpt lat="43.2410202" lon="11.572256"><ele>255.66666666666669</ele><time>2026-05-03T08:32:27.802Z</time></trkpt><trkpt lat="43.2409323" lon="11.5722717"><ele>255.0</ele><time>2026-05-03T08:32:30.812Z</time></trkpt><trkpt lat="43.2408541" lon="11.5722987"><ele>254.33333333333331</ele><time>2026-05-03T08:32:33.782Z</time></trkpt><trkpt lat="43.2407705" lon="11.5723469"><ele>253.66666666666666</ele><time>2026-05-03T08:32:36.775Z</time></trkpt><trkpt lat="43.2407017" lon="11.5724063"><ele>253.0</ele><time>2026-05-03T08:32:39.782Z</time></trkpt><trkpt lat="43.2406514" lon="11.572484"><ele>252.83333333333331</ele><time>2026-05-03T08:32:42.723Z</time></trkpt><trkpt lat="43.240599" lon="11.5725777"><ele>252.66666666666666</ele><time>2026-05-03T08:32:45.779Z</time></trkpt><trkpt lat="43.2405471" lon="11.5726793"><ele>252.5</ele><time>2026-05-03T08:32:48.767Z</time></trkpt><trkpt lat="43.2405008" lon="11.5727835"><ele>252.33333333333331</ele><time>2026-05-03T08:32:51.749Z</time></trkpt><trkpt lat="43.2404644" lon="11.5729"><ele>252.16666666666666</ele><time>2026-05-03T08:32:54.807Z</time></trkpt><trkpt lat="43.2404489" lon="11.5730059"><ele>252.0</ele><time>2026-05-03T08:32:57.687Z</time></trkpt><trkpt lat="43.2405016" lon="11.5731076"><ele>251.85714285714286</ele><time>2026-05-03T08:33:00.778Z</time></trkpt><trkpt lat="43.2405635" lon="11.5731486"><ele>251.71428571428572</ele><time>2026-05-03T08:33:03.708Z</time></trkpt><trkpt lat="43.2406159" lon="11.5732034"><ele>251.57142857142856</ele><time>2026-05-03T08:33:06.782Z</time></trkpt><trkpt lat="43.2406623" lon="11.5732634"><ele>251.42857142857142</ele><time>2026-05-03T08:33:09.781Z</time></trkpt><trkpt lat="43.2407235" lon="11.5733364"><ele>251.28571428571428</ele><time>2026-05-03T08:33:13.784Z</time></trkpt><trkpt lat="43.2407847" lon="11.5734092"><ele>251.1428571428571</ele><time>2026-05-03T08:33:16.795Z</time></trkpt><trkpt lat="43.2408549" lon="11.5734808"><ele>250.99999999999997</ele><time>2026-05-03T08:33:19.757Z</time></trkpt><trkpt lat="43.2409286" lon="11.5735356"><ele>251.00000000000003</ele><time>2026-05-03T08:33:22.849Z</time></trkpt><trkpt lat="43.2410072" lon="11.5735855"><ele>251.0</ele><time>2026-05-03T08:33:25.77Z</time></trkpt><trkpt lat="43.241094" lon="11.5736319"><ele>251.0</ele><time>2026-05-03T08:33:28.822Z</time></trkpt><trkpt lat="43.2411798" lon="11.5736684"><ele>251.0</ele><time>2026-05-03T08:33:31.772Z</time></trkpt><trkpt lat="43.2412533" lon="11.573707"><ele>251.00000000000003</ele><time>2026-05-03T08:33:34.817Z</time></trkpt><trkpt lat="43.2413227" lon="11.5737373"><ele>251.0</ele><time>2026-05-03T08:33:37.703Z</time></trkpt><trkpt lat="43.2414016" lon="11.5737796"><ele>250.66666666666669</ele><time>2026-05-03T08:33:40.784Z</time></trkpt><trkpt lat="43.2414828" lon="11.5738306"><ele>250.33333333333334</ele><time>2026-05-03T08:33:43.771Z</time></trkpt><trkpt lat="43.2415653" lon="11.573878"><ele>250.0</ele><time>2026-05-03T08:33:46.781Z</time></trkpt><trkpt lat="43.241647" lon="11.5739158"><ele>249.66666666666669</ele><time>2026-05-03T08:33:49.81Z</time></trkpt><trkpt lat="43.2417197" lon="11.5739531"><ele>249.33333333333334</ele><time>2026-05-03T08:33:52.762Z</time></trkpt><trkpt lat="43.2417868" lon="11.5739929"><ele>249.0</ele><time>2026-05-03T08:33:55.786Z</time></trkpt><trkpt lat="43.2418544" lon="11.5740316"><ele>249.0</ele><time>2026-05-03T08:33:58.744Z</time></trkpt><trkpt lat="43.2419218" lon="11.5740643"><ele>249.0</ele><time>2026-05-03T08:34:01.78Z</time></trkpt><trkpt lat="43.2420002" lon="11.5740991"><ele>249.0</ele><time>2026-05-03T08:34:04.779Z</time></trkpt><trkpt lat="43.2420771" lon="11.5741352"><ele>249.0</ele><time>2026-05-03T08:34:07.686Z</time></trkpt><trkpt lat="43.2421546" lon="11.5741775"><ele>249.0</ele><time>2026-05-03T08:34:10.802Z</time></trkpt><trkpt lat="43.2422272" lon="11.574218"><ele>249.0</ele><time>2026-05-03T08:34:13.747Z</time></trkpt><trkpt lat="43.2422848" lon="11.5742549"><ele>248.83333333333334</ele><time>2026-05-03T08:34:15.848Z</time></trkpt><trkpt lat="43.2423596" lon="11.5743123"><ele>248.66666666666669</ele><time>2026-05-03T08:34:18.79Z</time></trkpt><trkpt lat="43.2424275" lon="11.5743607"><ele>248.5</ele><time>2026-05-03T08:34:21.795Z</time></trkpt><trkpt lat="43.242498" lon="11.5744014"><ele>248.33333333333334</ele><time>2026-05-03T08:34:24.725Z</time></trkpt><trkpt lat="43.2425725" lon="11.5744463"><ele>248.16666666666669</ele><time>2026-05-03T08:34:27.802Z</time></trkpt><trkpt lat="43.2426433" lon="11.5744917"><ele>248.0</ele><time>2026-05-03T08:34:30.777Z</time></trkpt><trkpt lat="43.2427155" lon="11.5745455"><ele>248.00000000000003</ele><time>2026-05-03T08:34:33.763Z</time></trkpt><trkpt lat="43.2427816" lon="11.5745951"><ele>248.0</ele><time>2026-05-03T08:34:36.743Z</time></trkpt><trkpt lat="43.2428451" lon="11.574639"><ele>248.0</ele><time>2026-05-03T08:34:39.702Z</time></trkpt><trkpt lat="43.2429139" lon="11.5746927"><ele>248.0</ele><time>2026-05-03T08:34:42.781Z</time></trkpt><trkpt lat="43.2429877" lon="11.57475"><ele>248.00000000000003</ele><time>2026-05-03T08:34:45.767Z</time></trkpt><trkpt lat="43.2430674" lon="11.5748115"><ele>248.0</ele><time>2026-05-03T08:34:48.802Z</time></trkpt><trkpt lat="43.2431447" lon="11.574868"><ele>248.16666666666669</ele><time>2026-05-03T08:34:51.805Z</time></trkpt><trkpt lat="43.2432211" lon="11.5749254"><ele>248.33333333333334</ele><time>2026-05-03T08:34:54.777Z</time></trkpt><trkpt lat="43.2432946" lon="11.5749867"><ele>248.5</ele><time>2026-05-03T08:34:57.809Z</time></trkpt><trkpt lat="43.2433671" lon="11.5750517"><ele>248.66666666666669</ele><time>2026-05-03T08:35:00.756Z</time></trkpt><trkpt lat="43.2434415" lon="11.5751139"><ele>248.83333333333334</ele><time>2026-05-03T08:35:03.793Z</time></trkpt><trkpt lat="43.2435122" lon="11.575171"><ele>249.0</ele><time>2026-05-03T08:35:06.77Z</time></trkpt><trkpt lat="43.2435803" lon="11.5752275"><ele>249.0</ele><time>2026-05-03T08:35:09.77Z</time></trkpt><trkpt lat="43.2436459" lon="11.5752915"><ele>249.0</ele><time>2026-05-03T08:35:12.7Z</time></trkpt><trkpt lat="43.2437113" lon="11.5753608"><ele>249.0</ele><time>2026-05-03T08:35:15.798Z</time></trkpt><trkpt lat="43.2437687" lon="11.5754321"><ele>249.0</ele><time>2026-05-03T08:35:18.709Z</time></trkpt><trkpt lat="43.2438275" lon="11.575509"><ele>249.0</ele><time>2026-05-03T08:35:21.783Z</time></trkpt><trkpt lat="43.2438842" lon="11.5755789"><ele>249.0</ele><time>2026-05-03T08:35:24.767Z</time></trkpt><trkpt lat="43.243935" lon="11.5756463"><ele>249.0</ele><time>2026-05-03T08:35:27.793Z</time></trkpt><trkpt lat="43.2439836" lon="11.575728"><ele>249.0</ele><time>2026-05-03T08:35:30.798Z</time></trkpt><trkpt lat="43.2440258" lon="11.5758157"><ele>249.0</ele><time>2026-05-03T08:35:33.707Z</time></trkpt><trkpt lat="43.2440741" lon="11.5759091"><ele>249.0</ele><time>2026-05-03T08:35:36.767Z</time></trkpt><trkpt lat="43.2441164" lon="11.5760104"><ele>249.0</ele><time>2026-05-03T08:35:39.782Z</time></trkpt><trkpt lat="43.2441481" lon="11.5761066"><ele>249.0</ele><time>2026-05-03T08:35:42.816Z</time></trkpt><trkpt lat="43.2441802" lon="11.5762066"><ele>248.83333333333334</ele><time>2026-05-03T08:35:45.781Z</time></trkpt><trkpt lat="43.2442066" lon="11.5763043"><ele>248.66666666666669</ele><time>2026-05-03T08:35:48.687Z</time></trkpt><trkpt lat="43.2442295" lon="11.5764088"><ele>248.5</ele><time>2026-05-03T08:35:51.786Z</time></trkpt><trkpt lat="43.2442396" lon="11.5765086"><ele>248.33333333333334</ele><time>2026-05-03T08:35:54.721Z</time></trkpt><trkpt lat="43.2442745" lon="11.5766133"><ele>248.16666666666669</ele><time>2026-05-03T08:35:57.794Z</time></trkpt><trkpt lat="43.2443044" lon="11.5767207"><ele>248.0</ele><time>2026-05-03T08:36:00.808Z</time></trkpt><trkpt lat="43.2443282" lon="11.5768215"><ele>248.00000000000003</ele><time>2026-05-03T08:36:03.743Z</time></trkpt><trkpt lat="43.2443562" lon="11.5769255"><ele>248.0</ele><time>2026-05-03T08:36:06.764Z</time></trkpt><trkpt lat="43.2443831" lon="11.5770217"><ele>248.0</ele><time>2026-05-03T08:36:09.689Z</time></trkpt><trkpt lat="43.2444108" lon="11.5771217"><ele>248.0</ele><time>2026-05-03T08:36:12.8Z</time></trkpt><trkpt lat="43.2444379" lon="11.577215"><ele>248.00000000000003</ele><time>2026-05-03T08:36:15.767Z</time></trkpt><trkpt lat="43.2444694" lon="11.5773101"><ele>248.0</ele><time>2026-05-03T08:36:18.767Z</time></trkpt><trkpt lat="43.2445004" lon="11.5774024"><ele>248.00000000000003</ele><time>2026-05-03T08:36:21.804Z</time></trkpt><trkpt lat="43.2445377" lon="11.5774979"><ele>248.0</ele><time>2026-05-03T08:36:24.776Z</time></trkpt><trkpt lat="43.2445795" lon="11.5775991"><ele>248.0</ele><time>2026-05-03T08:36:27.792Z</time></trkpt><trkpt lat="43.2446223" lon="11.5776983"><ele>248.0</ele><time>2026-05-03T08:36:30.687Z</time></trkpt><trkpt lat="43.2446669" lon="11.5777953"><ele>248.00000000000003</ele><time>2026-05-03T08:36:33.786Z</time></trkpt><trkpt lat="43.2447178" lon="11.5778683"><ele>248.0</ele><time>2026-05-03T08:36:36.787Z</time></trkpt><trkpt lat="43.2447728" lon="11.577932"><ele>248.33333333333334</ele><time>2026-05-03T08:36:39.748Z</time></trkpt><trkpt lat="43.2448417" lon="11.5779657"><ele>248.66666666666669</ele><time>2026-05-03T08:36:42.797Z</time></trkpt><trkpt lat="43.2449079" lon="11.5779826"><ele>249.0</ele><time>2026-05-03T08:36:45.727Z</time></trkpt><trkpt lat="43.245002" lon="11.5779909"><ele>249.33333333333331</ele><time>2026-05-03T08:36:49.688Z</time></trkpt><trkpt lat="43.2450718" lon="11.5779927"><ele>249.66666666666666</ele><time>2026-05-03T08:36:52.781Z</time></trkpt><trkpt lat="43.245141" lon="11.5779863"><ele>250.0</ele><time>2026-05-03T08:36:55.759Z</time></trkpt><trkpt lat="43.2452169" lon="11.5779752"><ele>249.99999999999997</ele><time>2026-05-03T08:36:58.796Z</time></trkpt><trkpt lat="43.2452958" lon="11.5779719"><ele>250.0</ele><time>2026-05-03T08:37:01.792Z</time></trkpt><trkpt lat="43.2453702" lon="11.577972"><ele>250.0</ele><time>2026-05-03T08:37:04.662Z</time></trkpt><trkpt lat="43.2454454" lon="11.5779772"><ele>250.0</ele><time>2026-05-03T08:37:07.786Z</time></trkpt><trkpt lat="43.2455176" lon="11.5779809"><ele>249.99999999999997</ele><time>2026-05-03T08:37:10.81Z</time></trkpt><trkpt lat="43.2455982" lon="11.5779913"><ele>250.0</ele><time>2026-05-03T08:37:14.809Z</time></trkpt><trkpt lat="43.2456774" lon="11.5779736"><ele>250.85714285714283</ele><time>2026-05-03T08:37:18.787Z</time></trkpt><trkpt lat="43.2457459" lon="11.5780167"><ele>251.71428571428572</ele><time>2026-05-03T08:37:22.815Z</time></trkpt><trkpt lat="43.2458033" lon="11.5780976"><ele>252.57142857142856</ele><time>2026-05-03T08:37:26.766Z</time></trkpt><trkpt lat="43.2458563" lon="11.5781568"><ele>253.42857142857142</ele><time>2026-05-03T08:37:29.772Z</time></trkpt><trkpt lat="43.2459106" lon="11.5782079"><ele>254.28571428571428</ele><time>2026-05-03T08:37:32.723Z</time></trkpt><trkpt lat="43.2459745" lon="11.5782557"><ele>255.14285714285714</ele><time>2026-05-03T08:37:35.785Z</time></trkpt><trkpt lat="43.2460396" lon="11.578309"><ele>256.0</ele><time>2026-05-03T08:37:38.823Z</time></trkpt><trkpt lat="43.2460952" lon="11.5783605"><ele>255.99999999999997</ele><time>2026-05-03T08:37:41.756Z</time></trkpt><trkpt lat="43.2461523" lon="11.578412"><ele>256.0</ele><time>2026-05-03T08:37:44.803Z</time></trkpt><trkpt lat="43.246211" lon="11.5784892"><ele>256.0</ele><time>2026-05-03T08:37:48.777Z</time></trkpt><trkpt lat="43.2462489" lon="11.5785678"><ele>256.0</ele><time>2026-05-03T08:37:51.78Z</time></trkpt><trkpt lat="43.2462775" lon="11.5786661"><ele>255.99999999999997</ele><time>2026-05-03T08:37:54.738Z</time></trkpt><trkpt lat="43.2463009" lon="11.5787833"><ele>256.0</ele><time>2026-05-03T08:37:57.759Z</time></trkpt><trkpt lat="43.2463223" lon="11.5788932"><ele>256.16666666666663</ele><time>2026-05-03T08:38:00.769Z</time></trkpt><trkpt lat="43.2463443" lon="11.5790098"><ele>256.3333333333333</ele><time>2026-05-03T08:38:03.795Z</time></trkpt><trkpt lat="43.2463679" lon="11.5791207"><ele>256.5</ele><time>2026-05-03T08:38:06.749Z</time></trkpt><trkpt lat="43.2463977" lon="11.5792281"><ele>256.6666666666667</ele><time>2026-05-03T08:38:09.773Z</time></trkpt><trkpt lat="43.2464479" lon="11.5793163"><ele>256.83333333333337</ele><time>2026-05-03T08:38:12.808Z</time></trkpt><trkpt lat="43.2465046" lon="11.5793732"><ele>257.0</ele><time>2026-05-03T08:38:15.722Z</time></trkpt><trkpt lat="43.2465601" lon="11.5794279"><ele>257.0</ele><time>2026-05-03T08:38:18.767Z</time></trkpt><trkpt lat="43.2466133" lon="11.5794779"><ele>257.0</ele><time>2026-05-03T08:38:21.792Z</time></trkpt><trkpt lat="43.2466665" lon="11.5795299"><ele>257.0</ele><time>2026-05-03T08:38:24.767Z</time></trkpt><trkpt lat="43.2467271" lon="11.5795879"><ele>257.0</ele><time>2026-05-03T08:38:27.72Z</time></trkpt><trkpt lat="43.2467834" lon="11.5796496"><ele>257.0</ele><time>2026-05-03T08:38:30.784Z</time></trkpt><trkpt lat="43.2468398" lon="11.5796939"><ele>257.0</ele><time>2026-05-03T08:38:33.793Z</time></trkpt><trkpt lat="43.2468994" lon="11.579741"><ele>257.0</ele><time>2026-05-03T08:38:36.746Z</time></trkpt><trkpt lat="43.2469666" lon="11.5797954"><ele>256.83333333333337</ele><time>2026-05-03T08:38:39.781Z</time></trkpt><trkpt lat="43.2470328" lon="11.5798415"><ele>256.6666666666667</ele><time>2026-05-03T08:38:42.811Z</time></trkpt><trkpt lat="43.2470876" lon="11.5798849"><ele>256.5</ele><time>2026-05-03T08:38:45.683Z</time></trkpt><trkpt lat="43.2471571" lon="11.5799396"><ele>256.3333333333333</ele><time>2026-05-03T08:38:48.769Z</time></trkpt><trkpt lat="43.2472283" lon="11.5799961"><ele>256.16666666666663</ele><time>2026-05-03T08:38:51.777Z</time></trkpt><trkpt lat="43.2472968" lon="11.5800472"><ele>256.0</ele><time>2026-05-03T08:38:54.786Z</time></trkpt><trkpt lat="43.2473692" lon="11.5800959"><ele>255.99999999999997</ele><time>2026-05-03T08:38:57.785Z</time></trkpt><trkpt lat="43.2474398" lon="11.5801448"><ele>256.0</ele><time>2026-05-03T08:39:00.754Z</time></trkpt><trkpt lat="43.2475084" lon="11.5802047"><ele>256.0</ele><time>2026-05-03T08:39:03.819Z</time></trkpt><trkpt lat="43.2475767" lon="11.5802605"><ele>256.0</ele><time>2026-05-03T08:39:06.687Z</time></trkpt><trkpt lat="43.2476421" lon="11.5803149"><ele>255.99999999999997</ele><time>2026-05-03T08:39:09.792Z</time></trkpt><trkpt lat="43.2477018" lon="11.5803795"><ele>256.0</ele><time>2026-05-03T08:39:12.732Z</time></trkpt><trkpt lat="43.247749" lon="11.580459"><ele>256.0</ele><time>2026-05-03T08:39:15.763Z</time></trkpt><trkpt lat="43.2477944" lon="11.5805415"><ele>255.99999999999997</ele><time>2026-05-03T08:39:18.79Z</time></trkpt><trkpt lat="43.2478374" lon="11.5806171"><ele>256.0</ele><time>2026-05-03T08:39:21.782Z</time></trkpt><trkpt lat="43.2478821" lon="11.5806859"><ele>256.0</ele><time>2026-05-03T08:39:24.802Z</time></trkpt><trkpt lat="43.247925" lon="11.5807609"><ele>255.99999999999997</ele><time>2026-05-03T08:39:27.783Z</time></trkpt><trkpt lat="43.247967" lon="11.580848"><ele>256.0</ele><time>2026-05-03T08:39:30.757Z</time></trkpt><trkpt lat="43.2480107" lon="11.5809273"><ele>256.0</ele><time>2026-05-03T08:39:33.81Z</time></trkpt><trkpt lat="43.2480512" lon="11.5810037"><ele>256.0</ele><time>2026-05-03T08:39:36.762Z</time></trkpt><trkpt lat="43.2480883" lon="11.5810762"><ele>255.99999999999997</ele><time>2026-05-03T08:39:39.707Z</time></trkpt><trkpt lat="43.2481313" lon="11.581153"><ele>256.0</ele><time>2026-05-03T08:39:42.767Z</time></trkpt><trkpt lat="43.2481732" lon="11.5812242"><ele>256.0</ele><time>2026-05-03T08:39:45.78Z</time></trkpt><trkpt lat="43.2482159" lon="11.5812962"><ele>255.99999999999997</ele><time>2026-05-03T08:39:48.767Z</time></trkpt><trkpt lat="43.2482554" lon="11.5813741"><ele>256.0</ele><time>2026-05-03T08:39:51.777Z</time></trkpt><trkpt lat="43.2482945" lon="11.5814558"><ele>256.0</ele><time>2026-05-03T08:39:54.8Z</time></trkpt><trkpt lat="43.2483427" lon="11.5815349"><ele>256.57142857142856</ele><time>2026-05-03T08:39:57.769Z</time></trkpt><trkpt lat="43.2483862" lon="11.5816075"><ele>257.1428571428571</ele><time>2026-05-03T08:40:00.772Z</time></trkpt><trkpt lat="43.2484275" lon="11.5816812"><ele>257.7142857142857</ele><time>2026-05-03T08:40:03.784Z</time></trkpt><trkpt lat="43.2484764" lon="11.5817546"><ele>258.2857142857143</ele><time>2026-05-03T08:40:06.785Z</time></trkpt><trkpt lat="43.2485241" lon="11.5818134"><ele>258.8571428571429</ele><time>2026-05-03T08:40:09.691Z</time></trkpt><trkpt lat="43.2485669" lon="11.5818856"><ele>259.42857142857144</ele><time>2026-05-03T08:40:12.798Z</time></trkpt><trkpt lat="43.2486123" lon="11.5819613"><ele>260.0</ele><time>2026-05-03T08:40:15.77Z</time></trkpt><trkpt lat="43.2486562" lon="11.5820413"><ele>259.6666666666667</ele><time>2026-05-03T08:40:18.793Z</time></trkpt><trkpt lat="43.2486988" lon="11.5821226"><ele>259.33333333333337</ele><time>2026-05-03T08:40:21.703Z</time></trkpt><trkpt lat="43.2487415" lon="11.5822038"><ele>259.0</ele><time>2026-05-03T08:40:24.788Z</time></trkpt><trkpt lat="43.2487956" lon="11.5822727"><ele>258.6666666666667</ele><time>2026-05-03T08:40:27.761Z</time></trkpt><trkpt lat="43.2488531" lon="11.5823462"><ele>258.3333333333333</ele><time>2026-05-03T08:40:30.804Z</time></trkpt><trkpt lat="43.2489198" lon="11.5824113"><ele>258.0</ele><time>2026-05-03T08:40:33.803Z</time></trkpt><trkpt lat="43.2489709" lon="11.5824803"><ele>257.99999999999994</ele><time>2026-05-03T08:40:36.783Z</time></trkpt><trkpt lat="43.2490197" lon="11.5825553"><ele>258.0</ele><time>2026-05-03T08:40:39.766Z</time></trkpt><trkpt lat="43.2490572" lon="11.5826383"><ele>258.0</ele><time>2026-05-03T08:40:42.778Z</time></trkpt><trkpt lat="43.2490879" lon="11.5827306"><ele>258.0</ele><time>2026-05-03T08:40:45.781Z</time></trkpt><trkpt lat="43.2491031" lon="11.5828331"><ele>258.0</ele><time>2026-05-03T08:40:48.688Z</time></trkpt><trkpt lat="43.2491132" lon="11.5829346"><ele>257.99999999999994</ele><time>2026-05-03T08:40:51.763Z</time></trkpt><trkpt lat="43.2491185" lon="11.58303"><ele>258.0</ele><time>2026-05-03T08:40:54.795Z</time></trkpt><trkpt lat="43.2491338" lon="11.5831178"><ele>258.2857142857143</ele><time>2026-05-03T08:40:57.747Z</time></trkpt><trkpt lat="43.2491443" lon="11.5832133"><ele>258.57142857142856</ele><time>2026-05-03T08:41:00.802Z</time></trkpt><trkpt lat="43.249161" lon="11.5833099"><ele>258.8571428571429</ele><time>2026-05-03T08:41:03.768Z</time></trkpt><trkpt lat="43.2491911" lon="11.5834014"><ele>259.1428571428571</ele><time>2026-05-03T08:41:06.767Z</time></trkpt><trkpt lat="43.2492239" lon="11.5834951"><ele>259.42857142857144</ele><time>2026-05-03T08:41:09.78Z</time></trkpt><trkpt lat="43.2492498" lon="11.5835746"><ele>259.7142857142857</ele><time>2026-05-03T08:41:11.768Z</time></trkpt><trkpt lat="43.2492884" lon="11.5836872"><ele>260.0</ele><time>2026-05-03T08:41:14.8Z</time></trkpt><trkpt lat="43.2493131" lon="11.5837692"><ele>260.0</ele><time>2026-05-03T08:41:16.758Z</time></trkpt><trkpt lat="43.249337" lon="11.5838525"><ele>260.0</ele><time>2026-05-03T08:41:18.769Z</time></trkpt><trkpt lat="43.2493678" lon="11.5839696"><ele>260.0</ele><time>2026-05-03T08:41:21.811Z</time></trkpt><trkpt lat="43.2493968" lon="11.58407"><ele>260.0</ele><time>2026-05-03T08:41:24.712Z</time></trkpt><trkpt lat="43.2494314" lon="11.5841718"><ele>260.0</ele><time>2026-05-03T08:41:27.779Z</time></trkpt><trkpt lat="43.2494594" lon="11.5842741"><ele>260.0</ele><time>2026-05-03T08:41:30.711Z</time></trkpt><trkpt lat="43.2494975" lon="11.5843787"><ele>260.0</ele><time>2026-05-03T08:41:33.783Z</time></trkpt><trkpt lat="43.249549" lon="11.5844814"><ele>260.0</ele><time>2026-05-03T08:41:36.725Z</time></trkpt><trkpt lat="43.2495867" lon="11.5845516"><ele>260.0</ele><time>2026-05-03T08:41:38.827Z</time></trkpt><trkpt lat="43.2496352" lon="11.5846487"><ele>260.0</ele><time>2026-05-03T08:41:41.755Z</time></trkpt><trkpt lat="43.249687" lon="11.5847468"><ele>260.0</ele><time>2026-05-03T08:41:44.844Z</time></trkpt><trkpt lat="43.2497315" lon="11.5848495"><ele>260.0</ele><time>2026-05-03T08:41:47.768Z</time></trkpt><trkpt lat="43.2497765" lon="11.5849547"><ele>259.6666666666667</ele><time>2026-05-03T08:41:50.787Z</time></trkpt><trkpt lat="43.2498244" lon="11.585043"><ele>259.33333333333337</ele><time>2026-05-03T08:41:53.783Z</time></trkpt><trkpt lat="43.2498729" lon="11.5851338"><ele>259.0</ele><time>2026-05-03T08:41:56.809Z</time></trkpt><trkpt lat="43.2499186" lon="11.5852281"><ele>258.6666666666667</ele><time>2026-05-03T08:41:59.799Z</time></trkpt><trkpt lat="43.2499704" lon="11.5853194"><ele>258.3333333333333</ele><time>2026-05-03T08:42:02.732Z</time></trkpt><trkpt lat="43.2500338" lon="11.5854038"><ele>258.0</ele><time>2026-05-03T08:42:05.811Z</time></trkpt><trkpt lat="43.2500871" lon="11.5854837"><ele>258.0</ele><time>2026-05-03T08:42:08.689Z</time></trkpt><trkpt lat="43.2501308" lon="11.5855843"><ele>258.0</ele><time>2026-05-03T08:42:11.823Z</time></trkpt><trkpt lat="43.2501655" lon="11.5856879"><ele>258.0</ele><time>2026-05-03T08:42:14.78Z</time></trkpt><trkpt lat="43.2501941" lon="11.5857884"><ele>258.0</ele><time>2026-05-03T08:42:17.775Z</time></trkpt><trkpt lat="43.2502197" lon="11.5858837"><ele>258.0</ele><time>2026-05-03T08:42:20.799Z</time></trkpt><trkpt lat="43.2502455" lon="11.5859796"><ele>258.0</ele><time>2026-05-03T08:42:23.741Z</time></trkpt><trkpt lat="43.2502805" lon="11.5860838"><ele>258.0</ele><time>2026-05-03T08:42:26.807Z</time></trkpt><trkpt lat="43.2503188" lon="11.5861863"><ele>258.0</ele><time>2026-05-03T08:42:29.749Z</time></trkpt><trkpt lat="43.250364" lon="11.5862917"><ele>258.0</ele><time>2026-05-03T08:42:32.796Z</time></trkpt><trkpt lat="43.2504198" lon="11.586386"><ele>258.0</ele><time>2026-05-03T08:42:35.777Z</time></trkpt><trkpt lat="43.250476" lon="11.5864796"><ele>258.0</ele><time>2026-05-03T08:42:38.79Z</time></trkpt><trkpt lat="43.2505229" lon="11.5865747"><ele>258.0</ele><time>2026-05-03T08:42:41.732Z</time></trkpt><trkpt lat="43.2505718" lon="11.5866706"><ele>258.0</ele><time>2026-05-03T08:42:44.773Z</time></trkpt><trkpt lat="43.2506198" lon="11.586771"><ele>258.0</ele><time>2026-05-03T08:42:47.797Z</time></trkpt><trkpt lat="43.2506662" lon="11.5868729"><ele>258.0</ele><time>2026-05-03T08:42:50.807Z</time></trkpt><trkpt lat="43.2507155" lon="11.5869614"><ele>258.0</ele><time>2026-05-03T08:42:53.789Z</time></trkpt><trkpt lat="43.2507711" lon="11.587047"><ele>258.0</ele><time>2026-05-03T08:42:56.762Z</time></trkpt><trkpt lat="43.2508265" lon="11.5871302"><ele>258.0</ele><time>2026-05-03T08:42:59.807Z</time></trkpt><trkpt lat="43.2508811" lon="11.5871937"><ele>258.1428571428571</ele><time>2026-05-03T08:43:02.783Z</time></trkpt><trkpt lat="43.2509297" lon="11.5872619"><ele>258.2857142857143</ele><time>2026-05-03T08:43:05.768Z</time></trkpt><trkpt lat="43.2509812" lon="11.5873363"><ele>258.42857142857144</ele><time>2026-05-03T08:43:08.749Z</time></trkpt><trkpt lat="43.2510297" lon="11.5874073"><ele>258.57142857142856</ele><time>2026-05-03T08:43:11.759Z</time></trkpt><trkpt lat="43.2510788" lon="11.5874698"><ele>258.7142857142857</ele><time>2026-05-03T08:43:14.69Z</time></trkpt><trkpt lat="43.2511325" lon="11.5875439"><ele>258.85714285714283</ele><time>2026-05-03T08:43:17.798Z</time></trkpt><trkpt lat="43.2511867" lon="11.5876238"><ele>259.0</ele><time>2026-05-03T08:43:20.782Z</time></trkpt><trkpt lat="43.2512373" lon="11.5877053"><ele>259.0</ele><time>2026-05-03T08:43:23.795Z</time></trkpt><trkpt lat="43.251288" lon="11.5877744"><ele>259.0</ele><time>2026-05-03T08:43:26.787Z</time></trkpt><trkpt lat="43.2513407" lon="11.5878397"><ele>259.0</ele><time>2026-05-03T08:43:29.788Z</time></trkpt><trkpt lat="43.2513848" lon="11.5879106"><ele>259.0</ele><time>2026-05-03T08:43:32.807Z</time></trkpt><trkpt lat="43.2514278" lon="11.5879852"><ele>259.0</ele><time>2026-05-03T08:43:35.742Z</time></trkpt><trkpt lat="43.2514772" lon="11.5880668"><ele>259.0</ele><time>2026-05-03T08:43:38.806Z</time></trkpt><trkpt lat="43.2515223" lon="11.5881443"><ele>259.0</ele><time>2026-05-03T08:43:41.783Z</time></trkpt><trkpt lat="43.2515753" lon="11.5882316"><ele>259.57142857142856</ele><time>2026-05-03T08:43:45.818Z</time></trkpt><trkpt lat="43.2516335" lon="11.5883148"><ele>260.1428571428571</ele><time>2026-05-03T08:43:49.72Z</time></trkpt><trkpt lat="43.2516749" lon="11.5883896"><ele>260.7142857142857</ele><time>2026-05-03T08:43:52.752Z</time></trkpt><trkpt lat="43.2517205" lon="11.5884579"><ele>261.2857142857143</ele><time>2026-05-03T08:43:55.76Z</time></trkpt><trkpt lat="43.2517691" lon="11.5885225"><ele>261.85714285714283</ele><time>2026-05-03T08:43:58.773Z</time></trkpt><trkpt lat="43.2518239" lon="11.5885942"><ele>262.42857142857144</ele><time>2026-05-03T08:44:01.783Z</time></trkpt><trkpt lat="43.2518807" lon="11.5886742"><ele>263.0</ele><time>2026-05-03T08:44:04.805Z</time></trkpt><trkpt lat="43.2519367" lon="11.5887621"><ele>263.33333333333337</ele><time>2026-05-03T08:44:07.793Z</time></trkpt><trkpt lat="43.2519836" lon="11.5888569"><ele>263.6666666666667</ele><time>2026-05-03T08:44:10.816Z</time></trkpt><trkpt lat="43.2520344" lon="11.5889299"><ele>264.0</ele><time>2026-05-03T08:44:13.751Z</time></trkpt><trkpt lat="43.2520931" lon="11.5890065"><ele>264.3333333333333</ele><time>2026-05-03T08:44:16.77Z</time></trkpt><trkpt lat="43.2521498" lon="11.5890836"><ele>264.66666666666663</ele><time>2026-05-03T08:44:19.768Z</time></trkpt><trkpt lat="43.2522065" lon="11.5891474"><ele>265.0</ele><time>2026-05-03T08:44:22.791Z</time></trkpt><trkpt lat="43.2522522" lon="11.5892153"><ele>265.1428571428571</ele><time>2026-05-03T08:44:25.811Z</time></trkpt><trkpt lat="43.2522962" lon="11.5892841"><ele>265.2857142857143</ele><time>2026-05-03T08:44:28.765Z</time></trkpt><trkpt lat="43.2523407" lon="11.5893609"><ele>265.42857142857144</ele><time>2026-05-03T08:44:31.776Z</time></trkpt><trkpt lat="43.252383" lon="11.5894412"><ele>265.57142857142856</ele><time>2026-05-03T08:44:34.795Z</time></trkpt><trkpt lat="43.2524227" lon="11.5895219"><ele>265.7142857142857</ele><time>2026-05-03T08:44:37.784Z</time></trkpt><trkpt lat="43.252462" lon="11.5895954"><ele>265.85714285714283</ele><time>2026-05-03T08:44:40.71Z</time></trkpt><trkpt lat="43.2525034" lon="11.5896713"><ele>266.0</ele><time>2026-05-03T08:44:43.799Z</time></trkpt><trkpt lat="43.2525477" lon="11.5897496"><ele>266.2857142857143</ele><time>2026-05-03T08:44:46.783Z</time></trkpt><trkpt lat="43.2525942" lon="11.589829"><ele>266.57142857142856</ele><time>2026-05-03T08:44:49.765Z</time></trkpt><trkpt lat="43.2526365" lon="11.5899167"><ele>266.8571428571429</ele><time>2026-05-03T08:44:52.801Z</time></trkpt><trkpt lat="43.2526808" lon="11.5899997"><ele>267.1428571428571</ele><time>2026-05-03T08:44:55.78Z</time></trkpt><trkpt lat="43.2527296" lon="11.5900801"><ele>267.42857142857144</ele><time>2026-05-03T08:44:58.796Z</time></trkpt><trkpt lat="43.2527799" lon="11.5901506"><ele>267.7142857142857</ele><time>2026-05-03T08:45:01.707Z</time></trkpt><trkpt lat="43.2528245" lon="11.5902217"><ele>268.0</ele><time>2026-05-03T08:45:04.788Z</time></trkpt><trkpt lat="43.2528697" lon="11.5903135"><ele>268.3333333333333</ele><time>2026-05-03T08:45:08.794Z</time></trkpt><trkpt lat="43.252909" lon="11.5903976"><ele>268.66666666666663</ele><time>2026-05-03T08:45:11.785Z</time></trkpt><trkpt lat="43.2529419" lon="11.590481"><ele>269.0</ele><time>2026-05-03T08:45:14.682Z</time></trkpt><trkpt lat="43.2529711" lon="11.5905805"><ele>269.3333333333333</ele><time>2026-05-03T08:45:17.782Z</time></trkpt><trkpt lat="43.253004" lon="11.5906788"><ele>269.6666666666667</ele><time>2026-05-03T08:45:20.747Z</time></trkpt><trkpt lat="43.2530304" lon="11.5907782"><ele>270.0</ele><time>2026-05-03T08:45:23.759Z</time></trkpt><trkpt lat="43.253043" lon="11.590878"><ele>270.0</ele><time>2026-05-03T08:45:26.807Z</time></trkpt><trkpt lat="43.2530412" lon="11.5909721"><ele>270.0</ele><time>2026-05-03T08:45:29.772Z</time></trkpt><trkpt lat="43.2530374" lon="11.5910681"><ele>270.0</ele><time>2026-05-03T08:45:32.805Z</time></trkpt><trkpt lat="43.2530316" lon="11.591164"><ele>270.0</ele><time>2026-05-03T08:45:35.743Z</time></trkpt><trkpt lat="43.2530296" lon="11.5912667"><ele>270.0</ele><time>2026-05-03T08:45:38.756Z</time></trkpt><trkpt lat="43.2530363" lon="11.5913643"><ele>270.0</ele><time>2026-05-03T08:45:41.774Z</time></trkpt><trkpt lat="43.2530432" lon="11.5914798"><ele>270.0</ele><time>2026-05-03T08:45:45.768Z</time></trkpt><trkpt lat="43.2530436" lon="11.5915671"><ele>270.42857142857144</ele><time>2026-05-03T08:45:48.779Z</time></trkpt><trkpt lat="43.253047" lon="11.5916717"><ele>270.85714285714283</ele><time>2026-05-03T08:45:52.759Z</time></trkpt><trkpt lat="43.2530626" lon="11.5917777"><ele>271.2857142857143</ele><time>2026-05-03T08:45:56.789Z</time></trkpt><trkpt lat="43.2530906" lon="11.5918796"><ele>271.7142857142857</ele><time>2026-05-03T08:46:00.825Z</time></trkpt><trkpt lat="43.2531203" lon="11.5919582"><ele>272.1428571428571</ele><time>2026-05-03T08:46:03.787Z</time></trkpt><trkpt lat="43.2531431" lon="11.5920408"><ele>272.57142857142856</ele><time>2026-05-03T08:46:06.707Z</time></trkpt><trkpt lat="43.2531718" lon="11.5921468"><ele>273.0</ele><time>2026-05-03T08:46:10.727Z</time></trkpt><trkpt lat="43.2532129" lon="11.5922419"><ele>274.0</ele><time>2026-05-03T08:46:14.77Z</time></trkpt><trkpt lat="43.2532392" lon="11.5923226"><ele>275.0</ele><time>2026-05-03T08:46:17.799Z</time></trkpt><trkpt lat="43.2532879" lon="11.5924068"><ele>276.0</ele><time>2026-05-03T08:46:21.704Z</time></trkpt><trkpt lat="43.2533502" lon="11.5924683"><ele>277.0</ele><time>2026-05-03T08:46:25.743Z</time></trkpt><trkpt lat="43.2533921" lon="11.5925437"><ele>278.0</ele><time>2026-05-03T08:46:29.795Z</time></trkpt><trkpt lat="43.2534494" lon="11.5926162"><ele>279.0</ele><time>2026-05-03T08:46:33.797Z</time></trkpt><trkpt lat="43.2535133" lon="11.5926901"><ele>279.0</ele><time>2026-05-03T08:46:37.805Z</time></trkpt><trkpt lat="43.2535722" lon="11.5927595"><ele>279.0</ele><time>2026-05-03T08:46:41.772Z</time></trkpt><trkpt lat="43.2536272" lon="11.5928254"><ele>279.0</ele><time>2026-05-03T08:46:45.769Z</time></trkpt><trkpt lat="43.2536827" lon="11.5928917"><ele>279.0</ele><time>2026-05-03T08:46:49.725Z</time></trkpt><trkpt lat="43.2537422" lon="11.5929591"><ele>279.0</ele><time>2026-05-03T08:46:53.769Z</time></trkpt><trkpt lat="43.2538089" lon="11.5930302"><ele>279.0</ele><time>2026-05-03T08:46:57.768Z</time></trkpt><trkpt lat="43.253864" lon="11.5930889"><ele>279.85714285714283</ele><time>2026-05-03T08:47:00.793Z</time></trkpt><trkpt lat="43.2539252" lon="11.5931408"><ele>280.7142857142857</ele><time>2026-05-03T08:47:03.824Z</time></trkpt><trkpt lat="43.2539846" lon="11.5931845"><ele>281.57142857142856</ele><time>2026-05-03T08:47:06.759Z</time></trkpt><trkpt lat="43.2540465" lon="11.5932248"><ele>282.42857142857144</ele><time>2026-05-03T08:47:09.627Z</time></trkpt><trkpt lat="43.2541211" lon="11.5932647"><ele>283.2857142857143</ele><time>2026-05-03T08:47:12.85Z</time></trkpt><trkpt lat="43.2541855" lon="11.5933032"><ele>284.1428571428571</ele><time>2026-05-03T08:47:15.708Z</time></trkpt><trkpt lat="43.254254" lon="11.5933485"><ele>285.0</ele><time>2026-05-03T08:47:18.795Z</time></trkpt><trkpt lat="43.2543153" lon="11.5933958"><ele>285.0</ele><time>2026-05-03T08:47:21.843Z</time></trkpt><trkpt lat="43.2543751" lon="11.5934381"><ele>285.0</ele><time>2026-05-03T08:47:24.745Z</time></trkpt><trkpt lat="43.2544315" lon="11.5934865"><ele>285.0</ele><time>2026-05-03T08:47:27.689Z</time></trkpt><trkpt lat="43.2544961" lon="11.5935367"><ele>285.0</ele><time>2026-05-03T08:47:30.794Z</time></trkpt><trkpt lat="43.254557" lon="11.593589"><ele>285.0</ele><time>2026-05-03T08:47:33.712Z</time></trkpt><trkpt lat="43.25462" lon="11.5936325"><ele>285.0</ele><time>2026-05-03T08:47:36.783Z</time></trkpt><trkpt lat="43.254685" lon="11.5936557"><ele>285.0</ele><time>2026-05-03T08:47:40.781Z</time></trkpt><trkpt lat="43.2547519" lon="11.5937056"><ele>285.57142857142856</ele><time>2026-05-03T08:47:46.767Z</time></trkpt><trkpt lat="43.2548188" lon="11.5937532"><ele>286.14285714285717</ele><time>2026-05-03T08:47:52.806Z</time></trkpt><trkpt lat="43.2548807" lon="11.5938004"><ele>286.7142857142857</ele><time>2026-05-03T08:47:57.793Z</time></trkpt><trkpt lat="43.2549351" lon="11.5938592"><ele>287.2857142857143</ele><time>2026-05-03T08:48:03.806Z</time></trkpt><trkpt lat="43.2549825" lon="11.5939289"><ele>287.85714285714283</ele><time>2026-05-03T08:48:07.782Z</time></trkpt><trkpt lat="43.2550374" lon="11.5939885"><ele>288.42857142857144</ele><time>2026-05-03T08:48:10.766Z</time></trkpt><trkpt lat="43.2550935" lon="11.5940662"><ele>289.0</ele><time>2026-05-03T08:48:13.787Z</time></trkpt><trkpt lat="43.2551508" lon="11.5941448"><ele>289.0</ele><time>2026-05-03T08:48:16.764Z</time></trkpt><trkpt lat="43.2551968" lon="11.594212"><ele>289.0</ele><time>2026-05-03T08:48:19.368Z</time></trkpt><trkpt lat="43.2552422" lon="11.5942801"><ele>289.0</ele><time>2026-05-03T08:48:21.797Z</time></trkpt><trkpt lat="43.2552981" lon="11.5943656"><ele>289.0</ele><time>2026-05-03T08:48:24.706Z</time></trkpt><trkpt lat="43.2553371" lon="11.5944337"><ele>289.0</ele><time>2026-05-03T08:48:26.8Z</time></trkpt><trkpt lat="43.2553942" lon="11.594533"><ele>289.0</ele><time>2026-05-03T08:48:29.764Z</time></trkpt><trkpt lat="43.2554469" lon="11.5946026"><ele>289.0</ele><time>2026-05-03T08:48:32.803Z</time></trkpt><trkpt lat="43.2555047" lon="11.5946754"><ele>288.8333333333333</ele><time>2026-05-03T08:48:35.669Z</time></trkpt><trkpt lat="43.2555665" lon="11.5947591"><ele>288.66666666666663</ele><time>2026-05-03T08:48:38.807Z</time></trkpt><trkpt lat="43.2556285" lon="11.5948393"><ele>288.5</ele><time>2026-05-03T08:48:41.771Z</time></trkpt><trkpt lat="43.2556787" lon="11.5949176"><ele>288.3333333333333</ele><time>2026-05-03T08:48:44.804Z</time></trkpt><trkpt lat="43.2557322" lon="11.5949871"><ele>288.1666666666667</ele><time>2026-05-03T08:48:47.708Z</time></trkpt><trkpt lat="43.2557843" lon="11.5950566"><ele>288.0</ele><time>2026-05-03T08:48:50.777Z</time></trkpt><trkpt lat="43.255837" lon="11.5951271"><ele>288.0</ele><time>2026-05-03T08:48:53.824Z</time></trkpt><trkpt lat="43.2558896" lon="11.5952033"><ele>288.0</ele><time>2026-05-03T08:48:56.772Z</time></trkpt><trkpt lat="43.2559507" lon="11.5952696"><ele>288.0</ele><time>2026-05-03T08:48:59.781Z</time></trkpt><trkpt lat="43.2560061" lon="11.595329"><ele>288.0</ele><time>2026-05-03T08:49:02.742Z</time></trkpt><trkpt lat="43.2560343" lon="11.5954183"><ele>288.0</ele><time>2026-05-03T08:49:05.781Z</time></trkpt><trkpt lat="43.2559445" lon="11.5954467"><ele>288.0</ele><time>2026-05-03T08:49:08.781Z</time></trkpt><trkpt lat="43.2558641" lon="11.5954023"><ele>287.7142857142857</ele><time>2026-05-03T08:49:11.789Z</time></trkpt><trkpt lat="43.255792" lon="11.595373"><ele>287.42857142857144</ele><time>2026-05-03T08:49:14.712Z</time></trkpt><trkpt lat="43.2557209" lon="11.5953672"><ele>287.1428571428571</ele><time>2026-05-03T08:49:17.818Z</time></trkpt><trkpt lat="43.2556492" lon="11.5953544"><ele>286.8571428571429</ele><time>2026-05-03T08:49:20.765Z</time></trkpt><trkpt lat="43.255575" lon="11.5953454"><ele>286.57142857142856</ele><time>2026-05-03T08:49:23.794Z</time></trkpt><trkpt lat="43.2555" lon="11.5953504"><ele>286.2857142857143</ele><time>2026-05-03T08:49:26.786Z</time></trkpt><trkpt lat="43.2554332" lon="11.5953736"><ele>286.0</ele><time>2026-05-03T08:49:29.763Z</time></trkpt><trkpt lat="43.255445" lon="11.5954816"><ele>285.99999999999994</ele><time>2026-05-03T08:49:32.756Z</time></trkpt><trkpt lat="43.2554943" lon="11.5955446"><ele>286.0</ele><time>2026-05-03T08:49:34.766Z</time></trkpt><trkpt lat="43.2555304" lon="11.595621"><ele>286.0</ele><time>2026-05-03T08:49:36.807Z</time></trkpt><trkpt lat="43.2555612" lon="11.5956982"><ele>286.0</ele><time>2026-05-03T08:49:38.82Z</time></trkpt><trkpt lat="43.2555977" lon="11.5957844"><ele>286.0</ele><time>2026-05-03T08:49:41.771Z</time></trkpt><trkpt lat="43.25564" lon="11.5958856"><ele>285.99999999999994</ele><time>2026-05-03T08:49:44.78Z</time></trkpt><trkpt lat="43.2556913" lon="11.5959797"><ele>286.0</ele><time>2026-05-03T08:49:47.78Z</time></trkpt><trkpt lat="43.2557397" lon="11.596068"><ele>286.0</ele><time>2026-05-03T08:49:50.708Z</time></trkpt><trkpt lat="43.25578" lon="11.5961609"><ele>286.0</ele><time>2026-05-03T08:49:53.779Z</time></trkpt><trkpt lat="43.2558151" lon="11.5962475"><ele>286.0</ele><time>2026-05-03T08:49:56.689Z</time></trkpt><trkpt lat="43.2558586" lon="11.5963393"><ele>286.0</ele><time>2026-05-03T08:49:59.762Z</time></trkpt><trkpt lat="43.2558964" lon="11.5964332"><ele>286.0</ele><time>2026-05-03T08:50:02.683Z</time></trkpt><trkpt lat="43.2559458" lon="11.5965399"><ele>286.0</ele><time>2026-05-03T08:50:05.809Z</time></trkpt><trkpt lat="43.2559915" lon="11.5966344"><ele>285.3333333333333</ele><time>2026-05-03T08:50:08.793Z</time></trkpt><trkpt lat="43.2560399" lon="11.596728"><ele>284.66666666666663</ele><time>2026-05-03T08:50:11.802Z</time></trkpt><trkpt lat="43.2560803" lon="11.596822"><ele>284.0</ele><time>2026-05-03T08:50:14.711Z</time></trkpt><trkpt lat="43.2561249" lon="11.5969253"><ele>283.3333333333333</ele><time>2026-05-03T08:50:17.812Z</time></trkpt><trkpt lat="43.2561652" lon="11.597024"><ele>282.6666666666667</ele><time>2026-05-03T08:50:20.73Z</time></trkpt><trkpt lat="43.2562108" lon="11.5971213"><ele>282.0</ele><time>2026-05-03T08:50:23.796Z</time></trkpt><trkpt lat="43.2562551" lon="11.5972178"><ele>281.8333333333333</ele><time>2026-05-03T08:50:26.765Z</time></trkpt><trkpt lat="43.2562966" lon="11.597318"><ele>281.6666666666667</ele><time>2026-05-03T08:50:29.767Z</time></trkpt><trkpt lat="43.2563363" lon="11.5974106"><ele>281.5</ele><time>2026-05-03T08:50:32.803Z</time></trkpt><trkpt lat="43.2563756" lon="11.5974983"><ele>281.33333333333337</ele><time>2026-05-03T08:50:35.73Z</time></trkpt><trkpt lat="43.2564196" lon="11.5976043"><ele>281.1666666666667</ele><time>2026-05-03T08:50:38.804Z</time></trkpt><trkpt lat="43.2564579" lon="11.5977127"><ele>281.0</ele><time>2026-05-03T08:50:41.727Z</time></trkpt><trkpt lat="43.2564916" lon="11.5978173"><ele>280.6666666666667</ele><time>2026-05-03T08:50:44.781Z</time></trkpt><trkpt lat="43.2565243" lon="11.5979138"><ele>280.33333333333337</ele><time>2026-05-03T08:50:47.751Z</time></trkpt><trkpt lat="43.256563" lon="11.5980124"><ele>280.0</ele><time>2026-05-03T08:50:50.814Z</time></trkpt><trkpt lat="43.2566076" lon="11.5981119"><ele>279.6666666666667</ele><time>2026-05-03T08:50:53.795Z</time></trkpt><trkpt lat="43.2566434" lon="11.5982231"><ele>279.3333333333333</ele><time>2026-05-03T08:50:56.763Z</time></trkpt><trkpt lat="43.2566873" lon="11.5983231"><ele>279.0</ele><time>2026-05-03T08:50:59.811Z</time></trkpt><trkpt lat="43.2567269" lon="11.5984197"><ele>279.0</ele><time>2026-05-03T08:51:02.764Z</time></trkpt><trkpt lat="43.2567645" lon="11.5985218"><ele>279.0</ele><time>2026-05-03T08:51:05.759Z</time></trkpt><trkpt lat="43.2568072" lon="11.5986106"><ele>279.0</ele><time>2026-05-03T08:51:08.788Z</time></trkpt><trkpt lat="43.25686" lon="11.5986864"><ele>279.0</ele><time>2026-05-03T08:51:11.782Z</time></trkpt><trkpt lat="43.2569059" lon="11.5987641"><ele>279.0</ele><time>2026-05-03T08:51:14.772Z</time></trkpt><trkpt lat="43.2569495" lon="11.5988468"><ele>279.0</ele><time>2026-05-03T08:51:17.688Z</time></trkpt><trkpt lat="43.256994" lon="11.5989531"><ele>278.6666666666667</ele><time>2026-05-03T08:51:20.79Z</time></trkpt><trkpt lat="43.2570304" lon="11.5990557"><ele>278.3333333333333</ele><time>2026-05-03T08:51:23.725Z</time></trkpt><trkpt lat="43.2570795" lon="11.5991522"><ele>278.0</ele><time>2026-05-03T08:51:26.783Z</time></trkpt><trkpt lat="43.2571251" lon="11.5992513"><ele>277.66666666666663</ele><time>2026-05-03T08:51:29.767Z</time></trkpt><trkpt lat="43.2571734" lon="11.5993532"><ele>277.3333333333333</ele><time>2026-05-03T08:51:32.789Z</time></trkpt><trkpt lat="43.2572225" lon="11.5994475"><ele>277.0</ele><time>2026-05-03T08:51:35.779Z</time></trkpt><trkpt lat="43.2572626" lon="11.5995416"><ele>277.16666666666663</ele><time>2026-05-03T08:51:38.789Z</time></trkpt><trkpt lat="43.2573041" lon="11.5996392"><ele>277.3333333333333</ele><time>2026-05-03T08:51:41.781Z</time></trkpt><trkpt lat="43.2573474" lon="11.5997342"><ele>277.5</ele><time>2026-05-03T08:51:44.79Z</time></trkpt><trkpt lat="43.2573848" lon="11.5998269"><ele>277.6666666666667</ele><time>2026-05-03T08:51:47.792Z</time></trkpt><trkpt lat="43.2574264" lon="11.5999255"><ele>277.83333333333337</ele><time>2026-05-03T08:51:50.778Z</time></trkpt><trkpt lat="43.2574683" lon="11.600011"><ele>278.0</ele><time>2026-05-03T08:51:53.765Z</time></trkpt><trkpt lat="43.2575068" lon="11.6000998"><ele>278.0</ele><time>2026-05-03T08:51:56.691Z</time></trkpt><trkpt lat="43.2575549" lon="11.6001991"><ele>278.0</ele><time>2026-05-03T08:51:59.756Z</time></trkpt><trkpt lat="43.2575885" lon="11.6003027"><ele>278.0</ele><time>2026-05-03T08:52:02.769Z</time></trkpt><trkpt lat="43.2576256" lon="11.600406"><ele>278.0</ele><time>2026-05-03T08:52:05.825Z</time></trkpt><trkpt lat="43.2576726" lon="11.6005019"><ele>278.0</ele><time>2026-05-03T08:52:08.702Z</time></trkpt><trkpt lat="43.257718" lon="11.6006053"><ele>278.0</ele><time>2026-05-03T08:52:11.779Z</time></trkpt><trkpt lat="43.25776" lon="11.6006996"><ele>277.33333333333337</ele><time>2026-05-03T08:52:14.796Z</time></trkpt><trkpt lat="43.2577939" lon="11.6008021"><ele>276.6666666666667</ele><time>2026-05-03T08:52:17.763Z</time></trkpt><trkpt lat="43.2578272" lon="11.6009013"><ele>276.0</ele><time>2026-05-03T08:52:20.799Z</time></trkpt><trkpt lat="43.2578579" lon="11.600998"><ele>275.3333333333333</ele><time>2026-05-03T08:52:23.797Z</time></trkpt><trkpt lat="43.2578938" lon="11.6010842"><ele>274.66666666666663</ele><time>2026-05-03T08:52:26.756Z</time></trkpt><trkpt lat="43.2579252" lon="11.6011812"><ele>274.0</ele><time>2026-05-03T08:52:29.785Z</time></trkpt><trkpt lat="43.2579472" lon="11.6012753"><ele>273.8571428571429</ele><time>2026-05-03T08:52:32.781Z</time></trkpt><trkpt lat="43.2579715" lon="11.6013625"><ele>273.7142857142857</ele><time>2026-05-03T08:52:35.725Z</time></trkpt><trkpt lat="43.257999" lon="11.6014509"><ele>273.57142857142856</ele><time>2026-05-03T08:52:38.796Z</time></trkpt><trkpt lat="43.2580187" lon="11.6015471"><ele>273.42857142857144</ele><time>2026-05-03T08:52:41.802Z</time></trkpt><trkpt lat="43.258041" lon="11.6016457"><ele>273.2857142857143</ele><time>2026-05-03T08:52:44.803Z</time></trkpt><trkpt lat="43.258066" lon="11.6017492"><ele>273.14285714285717</ele><time>2026-05-03T08:52:47.757Z</time></trkpt><trkpt lat="43.2580932" lon="11.6018465"><ele>273.0</ele><time>2026-05-03T08:52:50.747Z</time></trkpt><trkpt lat="43.2581255" lon="11.6019419"><ele>273.2857142857143</ele><time>2026-05-03T08:52:53.731Z</time></trkpt><trkpt lat="43.2581579" lon="11.6020346"><ele>273.57142857142856</ele><time>2026-05-03T08:52:56.745Z</time></trkpt><trkpt lat="43.2581945" lon="11.6021234"><ele>273.8571428571429</ele><time>2026-05-03T08:52:59.732Z</time></trkpt><trkpt lat="43.2582312" lon="11.6022119"><ele>274.1428571428571</ele><time>2026-05-03T08:53:02.708Z</time></trkpt><trkpt lat="43.258264" lon="11.602294"><ele>274.42857142857144</ele><time>2026-05-03T08:53:05.774Z</time></trkpt><trkpt lat="43.2582923" lon="11.6023798"><ele>274.7142857142857</ele><time>2026-05-03T08:53:08.723Z</time></trkpt><trkpt lat="43.2582862" lon="11.6024738"><ele>275.0</ele><time>2026-05-03T08:53:11.767Z</time></trkpt><trkpt lat="43.2582658" lon="11.6025672"><ele>275.0</ele><time>2026-05-03T08:53:14.775Z</time></trkpt><trkpt lat="43.2582447" lon="11.6026532"><ele>275.0</ele><time>2026-05-03T08:53:17.742Z</time></trkpt><trkpt lat="43.2582113" lon="11.602766"><ele>275.0</ele><time>2026-05-03T08:53:20.786Z</time></trkpt><trkpt lat="43.2581775" lon="11.6028793"><ele>275.0</ele><time>2026-05-03T08:53:23.786Z</time></trkpt><trkpt lat="43.2581569" lon="11.6029928"><ele>275.0</ele><time>2026-05-03T08:53:26.746Z</time></trkpt><trkpt lat="43.2581472" lon="11.6031065"><ele>275.0</ele><time>2026-05-03T08:53:29.792Z</time></trkpt><trkpt lat="43.2581282" lon="11.6032111"><ele>274.83333333333337</ele><time>2026-05-03T08:53:32.765Z</time></trkpt><trkpt lat="43.2581325" lon="11.6033207"><ele>274.6666666666667</ele><time>2026-05-03T08:53:35.763Z</time></trkpt><trkpt lat="43.2581346" lon="11.6034258"><ele>274.5</ele><time>2026-05-03T08:53:38.822Z</time></trkpt><trkpt lat="43.2581268" lon="11.6035243"><ele>274.3333333333333</ele><time>2026-05-03T08:53:41.771Z</time></trkpt><trkpt lat="43.2581133" lon="11.6036255"><ele>274.16666666666663</ele><time>2026-05-03T08:53:44.803Z</time></trkpt><trkpt lat="43.2581021" lon="11.6037276"><ele>274.0</ele><time>2026-05-03T08:53:47.788Z</time></trkpt><trkpt lat="43.2580905" lon="11.603828"><ele>274.00000000000006</ele><time>2026-05-03T08:53:50.794Z</time></trkpt><trkpt lat="43.2580821" lon="11.6039311"><ele>274.0</ele><time>2026-05-03T08:53:53.807Z</time></trkpt><trkpt lat="43.2580666" lon="11.6040278"><ele>274.0</ele><time>2026-05-03T08:53:56.772Z</time></trkpt><trkpt lat="43.2580482" lon="11.6041282"><ele>274.0</ele><time>2026-05-03T08:53:59.779Z</time></trkpt><trkpt lat="43.2580302" lon="11.6042286"><ele>274.0</ele><time>2026-05-03T08:54:02.807Z</time></trkpt><trkpt lat="43.2580164" lon="11.6043267"><ele>274.00000000000006</ele><time>2026-05-03T08:54:05.795Z</time></trkpt><trkpt lat="43.2580042" lon="11.6044312"><ele>274.0</ele><time>2026-05-03T08:54:08.778Z</time></trkpt><trkpt lat="43.257999" lon="11.6045329"><ele>273.8571428571429</ele><time>2026-05-03T08:54:11.793Z</time></trkpt><trkpt lat="43.2579928" lon="11.6046299"><ele>273.7142857142857</ele><time>2026-05-03T08:54:14.794Z</time></trkpt><trkpt lat="43.2579878" lon="11.6047223"><ele>273.57142857142856</ele><time>2026-05-03T08:54:17.724Z</time></trkpt><trkpt lat="43.2579635" lon="11.6048091"><ele>273.42857142857144</ele><time>2026-05-03T08:54:20.776Z</time></trkpt><trkpt lat="43.2579537" lon="11.6048954"><ele>273.2857142857143</ele><time>2026-05-03T08:54:23.759Z</time></trkpt><trkpt lat="43.25794" lon="11.604994"><ele>273.14285714285717</ele><time>2026-05-03T08:54:26.769Z</time></trkpt><trkpt lat="43.2579298" lon="11.6050862"><ele>273.0</ele><time>2026-05-03T08:54:29.748Z</time></trkpt><trkpt lat="43.257924" lon="11.6051783"><ele>273.0</ele><time>2026-05-03T08:54:32.703Z</time></trkpt><trkpt lat="43.2579249" lon="11.6052762"><ele>273.0</ele><time>2026-05-03T08:54:35.782Z</time></trkpt><trkpt lat="43.2579477" lon="11.6053681"><ele>273.0</ele><time>2026-05-03T08:54:38.783Z</time></trkpt><trkpt lat="43.2579627" lon="11.6054577"><ele>273.0</ele><time>2026-05-03T08:54:41.783Z</time></trkpt><trkpt lat="43.2579811" lon="11.605549"><ele>273.0</ele><time>2026-05-03T08:54:44.784Z</time></trkpt><trkpt lat="43.2579885" lon="11.6056485"><ele>273.0</ele><time>2026-05-03T08:54:47.768Z</time></trkpt><trkpt lat="43.2580011" lon="11.6057464"><ele>273.0</ele><time>2026-05-03T08:54:50.788Z</time></trkpt><trkpt lat="43.2580089" lon="11.605846"><ele>273.42857142857144</ele><time>2026-05-03T08:54:53.804Z</time></trkpt><trkpt lat="43.2580144" lon="11.6059516"><ele>273.8571428571429</ele><time>2026-05-03T08:54:56.771Z</time></trkpt><trkpt lat="43.2580166" lon="11.6060539"><ele>274.2857142857143</ele><time>2026-05-03T08:54:59.785Z</time></trkpt><trkpt lat="43.2580276" lon="11.6061474"><ele>274.7142857142857</ele><time>2026-05-03T08:55:02.798Z</time></trkpt><trkpt lat="43.2580401" lon="11.6062434"><ele>275.14285714285717</ele><time>2026-05-03T08:55:05.747Z</time></trkpt><trkpt lat="43.2580481" lon="11.6063418"><ele>275.57142857142856</ele><time>2026-05-03T08:55:08.77Z</time></trkpt><trkpt lat="43.2580558" lon="11.6064394"><ele>276.0</ele><time>2026-05-03T08:55:11.791Z</time></trkpt><trkpt lat="43.2580533" lon="11.6065367"><ele>276.2857142857143</ele><time>2026-05-03T08:55:14.789Z</time></trkpt><trkpt lat="43.2580487" lon="11.6066297"><ele>276.5714285714286</ele><time>2026-05-03T08:55:17.72Z</time></trkpt><trkpt lat="43.2580457" lon="11.6067284"><ele>276.8571428571429</ele><time>2026-05-03T08:55:20.787Z</time></trkpt><trkpt lat="43.2580248" lon="11.6068209"><ele>277.14285714285717</ele><time>2026-05-03T08:55:23.802Z</time></trkpt><trkpt lat="43.2580059" lon="11.6069106"><ele>277.42857142857144</ele><time>2026-05-03T08:55:26.788Z</time></trkpt><trkpt lat="43.2579897" lon="11.6069943"><ele>277.7142857142857</ele><time>2026-05-03T08:55:29.691Z</time></trkpt><trkpt lat="43.2579765" lon="11.6070847"><ele>278.0</ele><time>2026-05-03T08:55:32.785Z</time></trkpt><trkpt lat="43.2579712" lon="11.6071729"><ele>278.0</ele><time>2026-05-03T08:55:35.772Z</time></trkpt><trkpt lat="43.2579572" lon="11.6072662"><ele>278.0</ele><time>2026-05-03T08:55:38.808Z</time></trkpt><trkpt lat="43.2579455" lon="11.6073567"><ele>278.0</ele><time>2026-05-03T08:55:41.748Z</time></trkpt><trkpt lat="43.2579337" lon="11.6074439"><ele>278.0</ele><time>2026-05-03T08:55:44.78Z</time></trkpt><trkpt lat="43.2579356" lon="11.6075542"><ele>278.0</ele><time>2026-05-03T08:55:48.688Z</time></trkpt><trkpt lat="43.257946" lon="11.607666"><ele>278.0</ele><time>2026-05-03T08:55:52.761Z</time></trkpt><trkpt lat="43.2579601" lon="11.607771"><ele>278.0</ele><time>2026-05-03T08:55:56.767Z</time></trkpt><trkpt lat="43.2579821" lon="11.607858"><ele>278.1428571428571</ele><time>2026-05-03T08:55:59.766Z</time></trkpt><trkpt lat="43.2579861" lon="11.607954"><ele>278.2857142857143</ele><time>2026-05-03T08:56:02.781Z</time></trkpt><trkpt lat="43.2579831" lon="11.6080514"><ele>278.42857142857144</ele><time>2026-05-03T08:56:05.767Z</time></trkpt><trkpt lat="43.2579715" lon="11.6081468"><ele>278.57142857142856</ele><time>2026-05-03T08:56:08.769Z</time></trkpt><trkpt lat="43.2579596" lon="11.6082343"><ele>278.7142857142857</ele><time>2026-05-03T08:56:11.77Z</time></trkpt><trkpt lat="43.2579577" lon="11.6083208"><ele>278.85714285714283</ele><time>2026-05-03T08:56:14.785Z</time></trkpt><trkpt lat="43.2579606" lon="11.6084349"><ele>279.0</ele><time>2026-05-03T08:56:18.686Z</time></trkpt><trkpt lat="43.2579565" lon="11.6085518"><ele>278.99999999999994</ele><time>2026-05-03T08:56:22.813Z</time></trkpt><trkpt lat="43.2579535" lon="11.6086458"><ele>279.0</ele><time>2026-05-03T08:56:25.782Z</time></trkpt><trkpt lat="43.2579526" lon="11.6087444"><ele>279.0</ele><time>2026-05-03T08:56:28.772Z</time></trkpt><trkpt lat="43.2579488" lon="11.6088399"><ele>279.0</ele><time>2026-05-03T08:56:31.772Z</time></trkpt><trkpt lat="43.2579319" lon="11.6089372"><ele>279.0</ele><time>2026-05-03T08:56:34.776Z</time></trkpt><trkpt lat="43.2579174" lon="11.6090298"><ele>278.99999999999994</ele><time>2026-05-03T08:56:37.802Z</time></trkpt><trkpt lat="43.2579051" lon="11.6091168"><ele>279.0</ele><time>2026-05-03T08:56:40.701Z</time></trkpt><trkpt lat="43.2578873" lon="11.6092032"><ele>279.57142857142856</ele><time>2026-05-03T08:56:43.796Z</time></trkpt><trkpt lat="43.2578529" lon="11.609307"><ele>280.1428571428571</ele><time>2026-05-03T08:56:47.762Z</time></trkpt><trkpt lat="43.2578207" lon="11.6093907"><ele>280.7142857142857</ele><time>2026-05-03T08:56:50.778Z</time></trkpt><trkpt lat="43.2577879" lon="11.6094699"><ele>281.2857142857143</ele><time>2026-05-03T08:56:53.718Z</time></trkpt><trkpt lat="43.2577541" lon="11.6095453"><ele>281.8571428571429</ele><time>2026-05-03T08:56:56.782Z</time></trkpt><trkpt lat="43.2577247" lon="11.6096256"><ele>282.42857142857144</ele><time>2026-05-03T08:56:59.763Z</time></trkpt><trkpt lat="43.2576929" lon="11.6097061"><ele>283.0</ele><time>2026-05-03T08:57:02.773Z</time></trkpt><trkpt lat="43.2576613" lon="11.6097834"><ele>283.42857142857144</ele><time>2026-05-03T08:57:05.778Z</time></trkpt><trkpt lat="43.2576341" lon="11.6098629"><ele>283.8571428571429</ele><time>2026-05-03T08:57:08.797Z</time></trkpt><trkpt lat="43.2575998" lon="11.6099399"><ele>284.2857142857143</ele><time>2026-05-03T08:57:11.779Z</time></trkpt><trkpt lat="43.2575636" lon="11.6100211"><ele>284.7142857142857</ele><time>2026-05-03T08:57:14.783Z</time></trkpt><trkpt lat="43.2575289" lon="11.6100955"><ele>285.1428571428571</ele><time>2026-05-03T08:57:17.668Z</time></trkpt><trkpt lat="43.2574925" lon="11.6101816"><ele>285.57142857142856</ele><time>2026-05-03T08:57:20.783Z</time></trkpt><trkpt lat="43.2574593" lon="11.6102675"><ele>286.0</ele><time>2026-05-03T08:57:23.795Z</time></trkpt><trkpt lat="43.2574251" lon="11.6103493"><ele>286.0</ele><time>2026-05-03T08:57:26.734Z</time></trkpt><trkpt lat="43.257388" lon="11.61044"><ele>286.0</ele><time>2026-05-03T08:57:29.79Z</time></trkpt><trkpt lat="43.2573547" lon="11.6105226"><ele>286.0</ele><time>2026-05-03T08:57:32.794Z</time></trkpt><trkpt lat="43.257312" lon="11.6106211"><ele>286.0</ele><time>2026-05-03T08:57:36.8Z</time></trkpt><trkpt lat="43.2572666" lon="11.6107158"><ele>286.0</ele><time>2026-05-03T08:57:40.829Z</time></trkpt><trkpt lat="43.2572327" lon="11.6108166"><ele>286.0</ele><time>2026-05-03T08:57:44.762Z</time></trkpt><trkpt lat="43.2571921" lon="11.610914"><ele>285.99999999999994</ele><time>2026-05-03T08:57:48.782Z</time></trkpt><trkpt lat="43.257162" lon="11.6109959"><ele>286.0</ele><time>2026-05-03T08:57:51.776Z</time></trkpt><trkpt lat="43.2571357" lon="11.6110827"><ele>286.0</ele><time>2026-05-03T08:57:54.789Z</time></trkpt><trkpt lat="43.2571009" lon="11.6111712"><ele>286.0</ele><time>2026-05-03T08:57:57.806Z</time></trkpt><trkpt lat="43.2570771" lon="11.6112514"><ele>286.0</ele><time>2026-05-03T08:58:00.705Z</time></trkpt><trkpt lat="43.2570759" lon="11.6113463"><ele>285.99999999999994</ele><time>2026-05-03T08:58:03.768Z</time></trkpt><trkpt lat="43.2571248" lon="11.6114508"><ele>286.0</ele><time>2026-05-03T08:58:07.784Z</time></trkpt><trkpt lat="43.2571628" lon="11.6115343"><ele>286.4285714285714</ele><time>2026-05-03T08:58:10.787Z</time></trkpt><trkpt lat="43.2571821" lon="11.6116261"><ele>286.85714285714283</ele><time>2026-05-03T08:58:13.78Z</time></trkpt><trkpt lat="43.2571995" lon="11.6117222"><ele>287.2857142857143</ele><time>2026-05-03T08:58:16.785Z</time></trkpt><trkpt lat="43.257207" lon="11.6118138"><ele>287.71428571428567</ele><time>2026-05-03T08:58:19.807Z</time></trkpt><trkpt lat="43.2572184" lon="11.6119055"><ele>288.1428571428571</ele><time>2026-05-03T08:58:23.818Z</time></trkpt><trkpt lat="43.2572244" lon="11.6120051"><ele>288.57142857142856</ele><time>2026-05-03T08:58:28.806Z</time></trkpt><trkpt lat="43.2572443" lon="11.6121002"><ele>289.0</ele><time>2026-05-03T08:58:33.792Z</time></trkpt><trkpt lat="43.257255" lon="11.6121942"><ele>289.8571428571429</ele><time>2026-05-03T08:58:38.781Z</time></trkpt><trkpt lat="43.2572629" lon="11.6122951"><ele>290.7142857142857</ele><time>2026-05-03T08:58:43.755Z</time></trkpt><trkpt lat="43.2572773" lon="11.612397"><ele>291.57142857142856</ele><time>2026-05-03T08:58:48.761Z</time></trkpt><trkpt lat="43.2572932" lon="11.6124894"><ele>292.42857142857144</ele><time>2026-05-03T08:58:53.693Z</time></trkpt><trkpt lat="43.2573093" lon="11.6125733"><ele>293.2857142857143</ele><time>2026-05-03T08:58:57.782Z</time></trkpt><trkpt lat="43.2573235" lon="11.6126618"><ele>294.14285714285717</ele><time>2026-05-03T08:59:01.788Z</time></trkpt><trkpt lat="43.2573406" lon="11.6127558"><ele>295.0</ele><time>2026-05-03T08:59:06.777Z</time></trkpt><trkpt lat="43.2573622" lon="11.6128432"><ele>296.16666666666663</ele><time>2026-05-03T08:59:11.779Z</time></trkpt><trkpt lat="43.2573877" lon="11.6129406"><ele>297.3333333333333</ele><time>2026-05-03T08:59:16.821Z</time></trkpt><trkpt lat="43.2574001" lon="11.6130446"><ele>298.5</ele><time>2026-05-03T08:59:22.838Z</time></trkpt><trkpt lat="43.257416" lon="11.613145"><ele>299.6666666666667</ele><time>2026-05-03T08:59:29.782Z</time></trkpt><trkpt lat="43.2574199" lon="11.6132429"><ele>300.83333333333337</ele><time>2026-05-03T08:59:34.831Z</time></trkpt><trkpt lat="43.2574287" lon="11.6133423"><ele>302.0</ele><time>2026-05-03T08:59:38.809Z</time></trkpt><trkpt lat="43.2574207" lon="11.6134545"><ele>302.00000000000006</ele><time>2026-05-03T08:59:42.715Z</time></trkpt><trkpt lat="43.2574288" lon="11.6135439"><ele>302.0</ele><time>2026-05-03T08:59:45.752Z</time></trkpt><trkpt lat="43.2574387" lon="11.613639"><ele>302.0</ele><time>2026-05-03T08:59:48.791Z</time></trkpt><trkpt lat="43.2574506" lon="11.613725"><ele>302.0</ele><time>2026-05-03T08:59:51.779Z</time></trkpt><trkpt lat="43.2574633" lon="11.6138157"><ele>302.0</ele><time>2026-05-03T08:59:54.811Z</time></trkpt><trkpt lat="43.25748" lon="11.6139055"><ele>302.00000000000006</ele><time>2026-05-03T08:59:57.771Z</time></trkpt><trkpt lat="43.2574897" lon="11.6140171"><ele>302.0</ele><time>2026-05-03T09:00:01.731Z</time></trkpt><trkpt lat="43.2574953" lon="11.614112"><ele>303.00000000000006</ele><time>2026-05-03T09:00:04.761Z</time></trkpt><trkpt lat="43.2575103" lon="11.6142018"><ele>304.0</ele><time>2026-05-03T09:00:07.796Z</time></trkpt><trkpt lat="43.2575253" lon="11.61431"><ele>305.0</ele><time>2026-05-03T09:00:11.773Z</time></trkpt><trkpt lat="43.2575302" lon="11.6143984"><ele>306.0</ele><time>2026-05-03T09:00:15.803Z</time></trkpt><trkpt lat="43.2575312" lon="11.6144968"><ele>307.0</ele><time>2026-05-03T09:00:20.766Z</time></trkpt><trkpt lat="43.2575218" lon="11.6145932"><ele>308.00000000000006</ele><time>2026-05-03T09:00:25.775Z</time></trkpt><trkpt lat="43.2574926" lon="11.6146882"><ele>309.0</ele><time>2026-05-03T09:00:30.745Z</time></trkpt><trkpt lat="43.2574702" lon="11.614775"><ele>310.42857142857144</ele><time>2026-05-03T09:00:35.741Z</time></trkpt><trkpt lat="43.2574539" lon="11.6148768"><ele>311.8571428571429</ele><time>2026-05-03T09:00:41.766Z</time></trkpt><trkpt lat="43.2574438" lon="11.6149729"><ele>313.28571428571433</ele><time>2026-05-03T09:00:46.788Z</time></trkpt><trkpt lat="43.2574287" lon="11.615069"><ele>314.7142857142857</ele><time>2026-05-03T09:00:51.744Z</time></trkpt><trkpt lat="43.2574043" lon="11.6151527"><ele>316.1428571428571</ele><time>2026-05-03T09:00:55.755Z</time></trkpt><trkpt lat="43.2573829" lon="11.6152387"><ele>317.5714285714286</ele><time>2026-05-03T09:01:00.78Z</time></trkpt><trkpt lat="43.2573767" lon="11.6153351"><ele>319.0</ele><time>2026-05-03T09:01:06.746Z</time></trkpt><trkpt lat="43.2573798" lon="11.6154248"><ele>320.42857142857144</ele><time>2026-05-03T09:01:11.8Z</time></trkpt><trkpt lat="43.2573795" lon="11.6155218"><ele>321.85714285714283</ele><time>2026-05-03T09:01:17.814Z</time></trkpt><trkpt lat="43.2573492" lon="11.615606"><ele>323.2857142857143</ele><time>2026-05-03T09:01:22.786Z</time></trkpt><trkpt lat="43.2573262" lon="11.6156904"><ele>324.7142857142857</ele><time>2026-05-03T09:01:28.769Z</time></trkpt><trkpt lat="43.2573063" lon="11.6157809"><ele>326.1428571428571</ele><time>2026-05-03T09:01:34.767Z</time></trkpt><trkpt lat="43.2572769" lon="11.6158738"><ele>327.57142857142856</ele><time>2026-05-03T09:01:40.8Z</time></trkpt><trkpt lat="43.2572632" lon="11.615963"><ele>329.0</ele><time>2026-05-03T09:01:46.778Z</time></trkpt><trkpt lat="43.2572417" lon="11.6160532"><ele>329.0</ele><time>2026-05-03T09:01:51.833Z</time></trkpt><trkpt lat="43.257206" lon="11.6161422"><ele>329.0</ele><time>2026-05-03T09:01:56.792Z</time></trkpt><trkpt lat="43.2571887" lon="11.6162307"><ele>329.0</ele><time>2026-05-03T09:02:01.775Z</time></trkpt><trkpt lat="43.2571661" lon="11.6163209"><ele>329.0</ele><time>2026-05-03T09:02:06.794Z</time></trkpt><trkpt lat="43.2571358" lon="11.6164139"><ele>329.0</ele><time>2026-05-03T09:02:11.79Z</time></trkpt><trkpt lat="43.2571083" lon="11.6165132"><ele>329.0</ele><time>2026-05-03T09:02:16.831Z</time></trkpt><trkpt lat="43.2570815" lon="11.6165929"><ele>329.0</ele><time>2026-05-03T09:02:20.778Z</time></trkpt><trkpt lat="43.2570576" lon="11.6166879"><ele>330.42857142857144</ele><time>2026-05-03T09:02:25.753Z</time></trkpt><trkpt lat="43.2570462" lon="11.6167868"><ele>331.8571428571429</ele><time>2026-05-03T09:02:30.767Z</time></trkpt><trkpt lat="43.2570377" lon="11.6168865"><ele>333.2857142857143</ele><time>2026-05-03T09:02:35.77Z</time></trkpt><trkpt lat="43.2570135" lon="11.6169808"><ele>334.7142857142857</ele><time>2026-05-03T09:02:40.797Z</time></trkpt><trkpt lat="43.2569871" lon="11.6170717"><ele>336.14285714285717</ele><time>2026-05-03T09:02:45.773Z</time></trkpt><trkpt lat="43.2569987" lon="11.6171716"><ele>337.57142857142856</ele><time>2026-05-03T09:02:51.765Z</time></trkpt><trkpt lat="43.2570218" lon="11.6172602"><ele>339.0</ele><time>2026-05-03T09:02:57.805Z</time></trkpt><trkpt lat="43.2570449" lon="11.6173448"><ele>341.2857142857143</ele><time>2026-05-03T09:03:03.766Z</time></trkpt><trkpt lat="43.2570745" lon="11.6174403"><ele>343.5714285714286</ele><time>2026-05-03T09:03:09.776Z</time></trkpt><trkpt lat="43.2571252" lon="11.6175111"><ele>345.8571428571429</ele><time>2026-05-03T09:03:14.761Z</time></trkpt><trkpt lat="43.2571878" lon="11.6174871"><ele>348.1428571428571</ele><time>2026-05-03T09:03:20.769Z</time></trkpt><trkpt lat="43.2572472" lon="11.6174414"><ele>350.42857142857144</ele><time>2026-05-03T09:03:25.791Z</time></trkpt><trkpt lat="43.2573129" lon="11.6174143"><ele>352.7142857142857</ele><time>2026-05-03T09:03:31.795Z</time></trkpt><trkpt lat="43.2573497" lon="11.6173311"><ele>355.0</ele><time>2026-05-03T09:03:38.772Z</time></trkpt><trkpt lat="43.2573577" lon="11.6172389"><ele>354.42857142857144</ele><time>2026-05-03T09:03:41.774Z</time></trkpt><trkpt lat="43.2573622" lon="11.6171391"><ele>353.8571428571429</ele><time>2026-05-03T09:03:44.821Z</time></trkpt><trkpt lat="43.2573892" lon="11.6170471"><ele>353.28571428571433</ele><time>2026-05-03T09:03:48.783Z</time></trkpt><trkpt lat="43.2574183" lon="11.6169616"><ele>352.7142857142857</ele><time>2026-05-03T09:03:51.81Z</time></trkpt><trkpt lat="43.2574499" lon="11.6168792"><ele>352.14285714285717</ele><time>2026-05-03T09:03:54.764Z</time></trkpt><trkpt lat="43.2574792" lon="11.6167953"><ele>351.5714285714286</ele><time>2026-05-03T09:03:57.72Z</time></trkpt><trkpt lat="43.2574969" lon="11.6167108"><ele>351.0</ele><time>2026-05-03T09:04:00.789Z</time></trkpt><trkpt lat="43.2575273" lon="11.6166351"><ele>351.00000000000006</ele><time>2026-05-03T09:04:03.775Z</time></trkpt><trkpt lat="43.2575713" lon="11.616541"><ele>351.0</ele><time>2026-05-03T09:04:07.776Z</time></trkpt><trkpt lat="43.2576178" lon="11.6164802"><ele>351.0</ele><time>2026-05-03T09:04:10.766Z</time></trkpt><trkpt lat="43.257672" lon="11.6164164"><ele>351.0</ele><time>2026-05-03T09:04:13.708Z</time></trkpt><trkpt lat="43.2577232" lon="11.6163453"><ele>351.0</ele><time>2026-05-03T09:04:16.791Z</time></trkpt><trkpt lat="43.2577789" lon="11.6162921"><ele>351.00000000000006</ele><time>2026-05-03T09:04:19.734Z</time></trkpt><trkpt lat="43.257838" lon="11.6162404"><ele>351.0</ele><time>2026-05-03T09:04:22.769Z</time></trkpt><trkpt lat="43.25789" lon="11.6161903"><ele>351.14285714285717</ele><time>2026-05-03T09:04:25.763Z</time></trkpt><trkpt lat="43.2579467" lon="11.6161418"><ele>351.2857142857143</ele><time>2026-05-03T09:04:28.805Z</time></trkpt><trkpt lat="43.2580083" lon="11.6160948"><ele>351.42857142857144</ele><time>2026-05-03T09:04:31.747Z</time></trkpt><trkpt lat="43.2580645" lon="11.6160499"><ele>351.57142857142856</ele><time>2026-05-03T09:04:34.792Z</time></trkpt><trkpt lat="43.2581251" lon="11.616013"><ele>351.7142857142857</ele><time>2026-05-03T09:04:37.815Z</time></trkpt><trkpt lat="43.2581859" lon="11.6159868"><ele>351.8571428571429</ele><time>2026-05-03T09:04:40.76Z</time></trkpt><trkpt lat="43.2582462" lon="11.6159606"><ele>352.0</ele><time>2026-05-03T09:04:43.807Z</time></trkpt><trkpt lat="43.2583135" lon="11.6159267"><ele>352.0</ele><time>2026-05-03T09:04:47.773Z</time></trkpt><trkpt lat="43.2583694" lon="11.615886"><ele>352.0</ele><time>2026-05-03T09:04:51.769Z</time></trkpt><trkpt lat="43.2584312" lon="11.6159199"><ele>352.0</ele><time>2026-05-03T09:04:57.78Z</time></trkpt><trkpt lat="43.2584418" lon="11.6160195"><ele>352.0</ele><time>2026-05-03T09:05:03.767Z</time></trkpt><trkpt lat="43.2584449" lon="11.6161072"><ele>352.0</ele><time>2026-05-03T09:05:08.779Z</time></trkpt><trkpt lat="43.2584225" lon="11.6161981"><ele>352.0</ele><time>2026-05-03T09:05:14.779Z</time></trkpt><trkpt lat="43.2584004" lon="11.6162891"><ele>352.0</ele><time>2026-05-03T09:05:25.786Z</time></trkpt><trkpt lat="43.2583414" lon="11.6163269"><ele>351.8571428571429</ele><time>2026-05-03T09:05:29.737Z</time></trkpt><trkpt lat="43.2582686" lon="11.6163437"><ele>351.7142857142857</ele><time>2026-05-03T09:05:33.783Z</time></trkpt><trkpt lat="43.2582029" lon="11.6163574"><ele>351.57142857142856</ele><time>2026-05-03T09:05:37.791Z</time></trkpt><trkpt lat="43.2581511" lon="11.6164302"><ele>351.42857142857144</ele><time>2026-05-03T09:05:41.793Z</time></trkpt><trkpt lat="43.2581036" lon="11.6164932"><ele>351.2857142857143</ele><time>2026-05-03T09:05:44.753Z</time></trkpt><trkpt lat="43.2580507" lon="11.6165835"><ele>351.14285714285717</ele><time>2026-05-03T09:05:48.773Z</time></trkpt><trkpt lat="43.2580364" lon="11.6166737"><ele>351.0</ele><time>2026-05-03T09:05:51.819Z</time></trkpt><trkpt lat="43.2579863" lon="11.616753"><ele>351.00000000000006</ele><time>2026-05-03T09:05:55.751Z</time></trkpt><trkpt lat="43.257984" lon="11.6168665"><ele>351.0</ele><time>2026-05-03T09:06:22.795Z</time></trkpt><trkpt lat="43.2579729" lon="11.6169694"><ele>351.0</ele><time>2026-05-03T09:06:26.765Z</time></trkpt><trkpt lat="43.2579513" lon="11.6170549"><ele>351.0</ele><time>2026-05-03T09:06:29.781Z</time></trkpt><trkpt lat="43.2579304" lon="11.6171376"><ele>351.0</ele><time>2026-05-03T09:06:32.807Z</time></trkpt><trkpt lat="43.2579194" lon="11.6172237"><ele>351.00000000000006</ele><time>2026-05-03T09:06:35.741Z</time></trkpt><trkpt lat="43.2579355" lon="11.6173134"><ele>351.0</ele><time>2026-05-03T09:06:40.775Z</time></trkpt><trkpt lat="43.2579424" lon="11.6174111"><ele>352.42857142857144</ele><time>2026-05-03T09:06:46.766Z</time></trkpt><trkpt lat="43.257945" lon="11.6175065"><ele>353.8571428571429</ele><time>2026-05-03T09:06:51.804Z</time></trkpt><trkpt lat="43.2579799" lon="11.6175828"><ele>355.28571428571433</ele><time>2026-05-03T09:06:57.728Z</time></trkpt><trkpt lat="43.257943" lon="11.6176587"><ele>356.7142857142857</ele><time>2026-05-03T09:07:04.75Z</time></trkpt><trkpt lat="43.2578968" lon="11.617736"><ele>358.1428571428571</ele><time>2026-05-03T09:07:08.784Z</time></trkpt><trkpt lat="43.2578587" lon="11.6178185"><ele>359.5714285714286</ele><time>2026-05-03T09:07:13.759Z</time></trkpt><trkpt lat="43.2578478" lon="11.6179121"><ele>361.0</ele><time>2026-05-03T09:07:19.743Z</time></trkpt><trkpt lat="43.2578268" lon="11.6180202"><ele>362.66666666666663</ele><time>2026-05-03T09:07:25.739Z</time></trkpt><trkpt lat="43.2578005" lon="11.6181234"><ele>364.3333333333333</ele><time>2026-05-03T09:07:28.733Z</time></trkpt><trkpt lat="43.2577712" lon="11.6182462"><ele>366.0</ele><time>2026-05-03T09:07:32.756Z</time></trkpt><trkpt lat="43.2578015" lon="11.618329"><ele>367.6666666666667</ele><time>2026-05-03T09:07:34.749Z</time></trkpt><trkpt lat="43.2578106" lon="11.6184209"><ele>369.33333333333337</ele><time>2026-05-03T09:07:36.778Z</time></trkpt><trkpt lat="43.2578046" lon="11.6185449"><ele>371.0</ele><time>2026-05-03T09:07:39.792Z</time></trkpt><trkpt lat="43.2578247" lon="11.6186555"><ele>371.0</ele><time>2026-05-03T09:07:42.727Z</time></trkpt><trkpt lat="43.2578568" lon="11.6187511"><ele>371.0</ele><time>2026-05-03T09:07:45.749Z</time></trkpt><trkpt lat="43.2577844" lon="11.6186904"><ele>371.0</ele><time>2026-05-03T09:07:50.749Z</time></trkpt><trkpt lat="43.2577486" lon="11.6185772"><ele>371.0</ele><time>2026-05-03T09:07:53.716Z</time></trkpt><trkpt lat="43.2576905" lon="11.6184877"><ele>371.0</ele><time>2026-05-03T09:07:56.556Z</time></trkpt><trkpt lat="43.2576408" lon="11.6184092"><ele>371.0</ele><time>2026-05-03T09:07:59.529Z</time></trkpt><trkpt lat="43.2575959" lon="11.6183347"><ele>371.0</ele><time>2026-05-03T09:08:02.547Z</time></trkpt><trkpt lat="43.2575503" lon="11.6182581"><ele>371.0</ele><time>2026-05-03T09:08:05.497Z</time></trkpt><trkpt lat="43.2575154" lon="11.6181806"><ele>371.0</ele><time>2026-05-03T09:08:08.316Z</time></trkpt><trkpt lat="43.2574848" lon="11.6180741"><ele>371.0</ele><time>2026-05-03T09:08:11.455Z</time></trkpt><trkpt lat="43.2574597" lon="11.617988"><ele>371.0</ele><time>2026-05-03T09:08:14.293Z</time></trkpt><trkpt lat="43.2574219" lon="11.6179114"><ele>371.0</ele><time>2026-05-03T09:08:17.132Z</time></trkpt><trkpt lat="43.2573694" lon="11.6178262"><ele>371.0</ele><time>2026-05-03T09:08:19.928Z</time></trkpt><trkpt lat="43.2573338" lon="11.6177324"><ele>369.57142857142856</ele><time>2026-05-03T09:08:22.81Z</time></trkpt><trkpt lat="43.2573227" lon="11.6176322"><ele>368.1428571428571</ele><time>2026-05-03T09:08:25.668Z</time></trkpt><trkpt lat="43.2572691" lon="11.6175836"><ele>366.7142857142857</ele><time>2026-05-03T09:08:28.534Z</time></trkpt><trkpt lat="43.257198" lon="11.6176232"><ele>365.2857142857143</ele><time>2026-05-03T09:08:31.373Z</time></trkpt><trkpt lat="43.2571272" lon="11.6176305"><ele>363.85714285714283</ele><time>2026-05-03T09:08:34.336Z</time></trkpt><trkpt lat="43.2570835" lon="11.6175547"><ele>362.42857142857144</ele><time>2026-05-03T09:08:37.352Z</time></trkpt><trkpt lat="43.2570502" lon="11.6174474"><ele>361.0</ele><time>2026-05-03T09:08:40.393Z</time></trkpt><trkpt lat="43.2570165" lon="11.6173391"><ele>360.0</ele><time>2026-05-03T09:08:43.427Z</time></trkpt><trkpt lat="43.2569795" lon="11.6172446"><ele>359.0</ele><time>2026-05-03T09:08:46.535Z</time></trkpt><trkpt lat="43.2569443" lon="11.6171484"><ele>358.0</ele><time>2026-05-03T09:08:49.615Z</time></trkpt><trkpt lat="43.2569029" lon="11.6170542"><ele>357.0</ele><time>2026-05-03T09:08:52.651Z</time></trkpt><trkpt lat="43.256843" lon="11.6169585"><ele>356.0</ele><time>2026-05-03T09:08:55.63Z</time></trkpt><trkpt lat="43.2567812" lon="11.616876"><ele>355.0</ele><time>2026-05-03T09:08:58.656Z</time></trkpt><trkpt lat="43.2567187" lon="11.6167936"><ele>352.3333333333333</ele><time>2026-05-03T09:09:01.733Z</time></trkpt><trkpt lat="43.2566606" lon="11.6167017"><ele>349.66666666666663</ele><time>2026-05-03T09:09:04.811Z</time></trkpt><trkpt lat="43.2565956" lon="11.6166188"><ele>347.0</ele><time>2026-05-03T09:09:07.787Z</time></trkpt><trkpt lat="43.2565224" lon="11.6165534"><ele>344.3333333333333</ele><time>2026-05-03T09:09:10.766Z</time></trkpt><trkpt lat="43.2564474" lon="11.6165209"><ele>341.6666666666667</ele><time>2026-05-03T09:09:13.749Z</time></trkpt><trkpt lat="43.2563765" lon="11.6165096"><ele>339.0</ele><time>2026-05-03T09:09:16.836Z</time></trkpt><trkpt lat="43.256304" lon="11.6165102"><ele>339.0</ele><time>2026-05-03T09:09:19.777Z</time></trkpt><trkpt lat="43.2562259" lon="11.6165046"><ele>339.0</ele><time>2026-05-03T09:09:22.848Z</time></trkpt><trkpt lat="43.2561451" lon="11.6164874"><ele>339.0</ele><time>2026-05-03T09:09:25.669Z</time></trkpt><trkpt lat="43.2560541" lon="11.6164808"><ele>339.0</ele><time>2026-05-03T09:09:28.769Z</time></trkpt><trkpt lat="43.2559748" lon="11.6164813"><ele>339.0</ele><time>2026-05-03T09:09:31.769Z</time></trkpt><trkpt lat="43.2558961" lon="11.6164778"><ele>339.0</ele><time>2026-05-03T09:09:34.797Z</time></trkpt><trkpt lat="43.2558136" lon="11.6164665"><ele>339.0</ele><time>2026-05-03T09:09:37.758Z</time></trkpt><trkpt lat="43.2557373" lon="11.6164464"><ele>339.0</ele><time>2026-05-03T09:09:40.704Z</time></trkpt><trkpt lat="43.2556598" lon="11.6164226"><ele>339.0</ele><time>2026-05-03T09:09:43.768Z</time></trkpt><trkpt lat="43.2555811" lon="11.6163871"><ele>339.0</ele><time>2026-05-03T09:09:46.765Z</time></trkpt><trkpt lat="43.2555107" lon="11.6163604"><ele>339.0</ele><time>2026-05-03T09:09:49.768Z</time></trkpt><trkpt lat="43.2554378" lon="11.6163501"><ele>339.0</ele><time>2026-05-03T09:09:52.824Z</time></trkpt><trkpt lat="43.2553676" lon="11.6163406"><ele>339.57142857142856</ele><time>2026-05-03T09:09:55.767Z</time></trkpt><trkpt lat="43.2552877" lon="11.6163325"><ele>340.14285714285717</ele><time>2026-05-03T09:09:58.771Z</time></trkpt><trkpt lat="43.2552154" lon="11.6163205"><ele>340.7142857142857</ele><time>2026-05-03T09:10:01.731Z</time></trkpt><trkpt lat="43.2551436" lon="11.6163013"><ele>341.2857142857143</ele><time>2026-05-03T09:10:04.79Z</time></trkpt><trkpt lat="43.2550643" lon="11.6163009"><ele>341.8571428571429</ele><time>2026-05-03T09:10:08.787Z</time></trkpt><trkpt lat="43.254994" lon="11.6163128"><ele>342.42857142857144</ele><time>2026-05-03T09:10:12.688Z</time></trkpt><trkpt lat="43.2549232" lon="11.6163143"><ele>343.0</ele><time>2026-05-03T09:10:15.782Z</time></trkpt><trkpt lat="43.2548528" lon="11.6163019"><ele>343.14285714285717</ele><time>2026-05-03T09:10:18.717Z</time></trkpt><trkpt lat="43.2547843" lon="11.6162909"><ele>343.2857142857143</ele><time>2026-05-03T09:10:21.754Z</time></trkpt><trkpt lat="43.2547158" lon="11.6162919"><ele>343.42857142857144</ele><time>2026-05-03T09:10:24.782Z</time></trkpt><trkpt lat="43.2546495" lon="11.6162889"><ele>343.57142857142856</ele><time>2026-05-03T09:10:27.769Z</time></trkpt><trkpt lat="43.2545807" lon="11.6162813"><ele>343.7142857142857</ele><time>2026-05-03T09:10:30.824Z</time></trkpt><trkpt lat="43.2545115" lon="11.6162624"><ele>343.8571428571429</ele><time>2026-05-03T09:10:33.796Z</time></trkpt><trkpt lat="43.2544478" lon="11.61626"><ele>344.0</ele><time>2026-05-03T09:10:35.785Z</time></trkpt><trkpt lat="43.2543537" lon="11.6162495"><ele>344.0</ele><time>2026-05-03T09:10:38.776Z</time></trkpt><trkpt lat="43.2542909" lon="11.6162328"><ele>344.0</ele><time>2026-05-03T09:10:40.776Z</time></trkpt><trkpt lat="43.2542042" lon="11.6162298"><ele>344.0</ele><time>2026-05-03T09:10:43.759Z</time></trkpt><trkpt lat="43.2541141" lon="11.6162232"><ele>344.0</ele><time>2026-05-03T09:10:46.76Z</time></trkpt><trkpt lat="43.2540278" lon="11.6161983"><ele>344.0</ele><time>2026-05-03T09:10:49.778Z</time></trkpt><trkpt lat="43.2539437" lon="11.616202"><ele>344.0</ele><time>2026-05-03T09:10:52.801Z</time></trkpt><trkpt lat="43.2538625" lon="11.6162139"><ele>343.42857142857144</ele><time>2026-05-03T09:10:55.779Z</time></trkpt><trkpt lat="43.2537755" lon="11.6162383"><ele>342.8571428571429</ele><time>2026-05-03T09:10:58.809Z</time></trkpt><trkpt lat="43.2536884" lon="11.6162353"><ele>342.28571428571433</ele><time>2026-05-03T09:11:01.763Z</time></trkpt><trkpt lat="43.2536223" lon="11.6162265"><ele>341.7142857142857</ele><time>2026-05-03T09:11:03.752Z</time></trkpt><trkpt lat="43.2535542" lon="11.6162231"><ele>341.1428571428571</ele><time>2026-05-03T09:11:05.733Z</time></trkpt><trkpt lat="43.2534851" lon="11.6162172"><ele>340.5714285714286</ele><time>2026-05-03T09:11:07.791Z</time></trkpt><trkpt lat="43.253421" lon="11.6162035"><ele>340.0</ele><time>2026-05-03T09:11:09.809Z</time></trkpt><trkpt lat="43.2533413" lon="11.6162231"><ele>340.0</ele><time>2026-05-03T09:11:12.746Z</time></trkpt><trkpt lat="43.2532703" lon="11.6162508"><ele>340.0</ele><time>2026-05-03T09:11:15.763Z</time></trkpt><trkpt lat="43.2532036" lon="11.6162674"><ele>340.0</ele><time>2026-05-03T09:11:18.787Z</time></trkpt><trkpt lat="43.2531378" lon="11.6162714"><ele>340.0</ele><time>2026-05-03T09:11:21.745Z</time></trkpt><trkpt lat="43.2530648" lon="11.6162905"><ele>340.0</ele><time>2026-05-03T09:11:24.789Z</time></trkpt><trkpt lat="43.252986" lon="11.6163099"><ele>340.0</ele><time>2026-05-03T09:11:27.707Z</time></trkpt><trkpt lat="43.2529146" lon="11.6163126"><ele>340.0</ele><time>2026-05-03T09:11:30.764Z</time></trkpt><trkpt lat="43.252843" lon="11.6162986"><ele>338.8571428571429</ele><time>2026-05-03T09:11:33.755Z</time></trkpt><trkpt lat="43.2527756" lon="11.6162952"><ele>337.71428571428567</ele><time>2026-05-03T09:11:36.773Z</time></trkpt><trkpt lat="43.2527055" lon="11.6163017"><ele>336.57142857142856</ele><time>2026-05-03T09:11:39.761Z</time></trkpt><trkpt lat="43.2526389" lon="11.6163145"><ele>335.42857142857144</ele><time>2026-05-03T09:11:42.784Z</time></trkpt><trkpt lat="43.2525638" lon="11.6163167"><ele>334.28571428571433</ele><time>2026-05-03T09:11:45.777Z</time></trkpt><trkpt lat="43.2524886" lon="11.6163062"><ele>333.1428571428571</ele><time>2026-05-03T09:11:48.77Z</time></trkpt><trkpt lat="43.2524141" lon="11.6163013"><ele>332.0</ele><time>2026-05-03T09:11:51.797Z</time></trkpt><trkpt lat="43.2523398" lon="11.6163009"><ele>331.6666666666667</ele><time>2026-05-03T09:11:54.76Z</time></trkpt><trkpt lat="43.252265" lon="11.616299"><ele>331.33333333333337</ele><time>2026-05-03T09:11:57.758Z</time></trkpt><trkpt lat="43.2521894" lon="11.6162947"><ele>331.0</ele><time>2026-05-03T09:12:00.758Z</time></trkpt><trkpt lat="43.252109" lon="11.6162933"><ele>330.6666666666667</ele><time>2026-05-03T09:12:03.749Z</time></trkpt><trkpt lat="43.2520301" lon="11.6162959"><ele>330.3333333333333</ele><time>2026-05-03T09:12:06.825Z</time></trkpt><trkpt lat="43.2519525" lon="11.6163007"><ele>330.0</ele><time>2026-05-03T09:12:09.712Z</time></trkpt><trkpt lat="43.2518646" lon="11.6162855"><ele>330.0</ele><time>2026-05-03T09:12:12.8Z</time></trkpt><trkpt lat="43.2517847" lon="11.6162697"><ele>330.0</ele><time>2026-05-03T09:12:15.698Z</time></trkpt><trkpt lat="43.2517002" lon="11.6162556"><ele>330.0</ele><time>2026-05-03T09:12:18.786Z</time></trkpt><trkpt lat="43.251625" lon="11.6162435"><ele>330.0</ele><time>2026-05-03T09:12:21.736Z</time></trkpt><trkpt lat="43.2515514" lon="11.6162282"><ele>330.0</ele><time>2026-05-03T09:12:24.767Z</time></trkpt><trkpt lat="43.2514822" lon="11.616213"><ele>330.0</ele><time>2026-05-03T09:12:27.776Z</time></trkpt><trkpt lat="43.2514136" lon="11.6161974"><ele>329.0</ele><time>2026-05-03T09:12:30.788Z</time></trkpt><trkpt lat="43.2513431" lon="11.6161695"><ele>328.0</ele><time>2026-05-03T09:12:33.792Z</time></trkpt><trkpt lat="43.2512626" lon="11.6161406"><ele>327.0</ele><time>2026-05-03T09:12:36.653Z</time></trkpt><trkpt lat="43.2511689" lon="11.6161041"><ele>326.0</ele><time>2026-05-03T09:12:39.807Z</time></trkpt><trkpt lat="43.2510805" lon="11.6160807"><ele>325.0</ele><time>2026-05-03T09:12:42.764Z</time></trkpt><trkpt lat="43.2510029" lon="11.6160569"><ele>324.0</ele><time>2026-05-03T09:12:45.748Z</time></trkpt><trkpt lat="43.2509343" lon="11.616034"><ele>322.1666666666667</ele><time>2026-05-03T09:12:48.76Z</time></trkpt><trkpt lat="43.2508605" lon="11.6160017"><ele>320.3333333333333</ele><time>2026-05-03T09:12:51.841Z</time></trkpt><trkpt lat="43.25079" lon="11.6159659"><ele>318.5</ele><time>2026-05-03T09:12:54.649Z</time></trkpt><trkpt lat="43.2507022" lon="11.6159338"><ele>316.66666666666663</ele><time>2026-05-03T09:12:57.836Z</time></trkpt><trkpt lat="43.2506211" lon="11.6159232"><ele>314.8333333333333</ele><time>2026-05-03T09:13:00.765Z</time></trkpt><trkpt lat="43.250549" lon="11.6159282"><ele>313.0</ele><time>2026-05-03T09:13:03.767Z</time></trkpt><trkpt lat="43.2504695" lon="11.6159406"><ele>312.66666666666663</ele><time>2026-05-03T09:13:06.76Z</time></trkpt><trkpt lat="43.2503843" lon="11.6159547"><ele>312.3333333333333</ele><time>2026-05-03T09:13:09.861Z</time></trkpt><trkpt lat="43.2503021" lon="11.6159768"><ele>312.0</ele><time>2026-05-03T09:13:12.77Z</time></trkpt><trkpt lat="43.2502137" lon="11.615998"><ele>311.6666666666667</ele><time>2026-05-03T09:13:15.815Z</time></trkpt><trkpt lat="43.2501273" lon="11.6160209"><ele>311.33333333333337</ele><time>2026-05-03T09:13:18.779Z</time></trkpt><trkpt lat="43.2500427" lon="11.6160481"><ele>311.0</ele><time>2026-05-03T09:13:21.828Z</time></trkpt><trkpt lat="43.2499715" lon="11.6160731"><ele>311.0</ele><time>2026-05-03T09:13:24.733Z</time></trkpt><trkpt lat="43.2498919" lon="11.6160969"><ele>311.0</ele><time>2026-05-03T09:13:27.799Z</time></trkpt><trkpt lat="43.2498157" lon="11.616129"><ele>311.0</ele><time>2026-05-03T09:13:30.748Z</time></trkpt><trkpt lat="43.2497411" lon="11.6161511"><ele>311.0</ele><time>2026-05-03T09:13:33.773Z</time></trkpt><trkpt lat="43.2496672" lon="11.6161843"><ele>311.0</ele><time>2026-05-03T09:13:36.787Z</time></trkpt><trkpt lat="43.2495978" lon="11.6162187"><ele>311.0</ele><time>2026-05-03T09:13:39.751Z</time></trkpt><trkpt lat="43.2495276" lon="11.6162474"><ele>312.6666666666667</ele><time>2026-05-03T09:13:42.785Z</time></trkpt><trkpt lat="43.2494566" lon="11.6162774"><ele>314.33333333333337</ele><time>2026-05-03T09:13:46.776Z</time></trkpt><trkpt lat="43.2493814" lon="11.6163149"><ele>316.0</ele><time>2026-05-03T09:13:50.793Z</time></trkpt><trkpt lat="43.2493035" lon="11.6163521"><ele>317.6666666666667</ele><time>2026-05-03T09:13:53.814Z</time></trkpt><trkpt lat="43.2492244" lon="11.6163947"><ele>319.3333333333333</ele><time>2026-05-03T09:13:56.779Z</time></trkpt><trkpt lat="43.2491513" lon="11.6164401"><ele>321.0</ele><time>2026-05-03T09:13:59.791Z</time></trkpt><trkpt lat="43.249072" lon="11.6164616"><ele>320.99999999999994</ele><time>2026-05-03T09:14:02.736Z</time></trkpt><trkpt lat="43.2489904" lon="11.6164722"><ele>321.0</ele><time>2026-05-03T09:14:05.799Z</time></trkpt><trkpt lat="43.2489137" lon="11.6164909"><ele>321.0</ele><time>2026-05-03T09:14:08.774Z</time></trkpt><trkpt lat="43.2488361" lon="11.6165097"><ele>321.0</ele><time>2026-05-03T09:14:11.814Z</time></trkpt><trkpt lat="43.248769" lon="11.6165267"><ele>321.0</ele><time>2026-05-03T09:14:14.714Z</time></trkpt><trkpt lat="43.2486999" lon="11.6165517"><ele>320.99999999999994</ele><time>2026-05-03T09:14:17.756Z</time></trkpt><trkpt lat="43.2486351" lon="11.6165793"><ele>321.0</ele><time>2026-05-03T09:14:20.76Z</time></trkpt><trkpt lat="43.2485757" lon="11.6166097"><ele>320.85714285714283</ele><time>2026-05-03T09:14:23.763Z</time></trkpt><trkpt lat="43.2485198" lon="11.6166626"><ele>320.7142857142857</ele><time>2026-05-03T09:14:26.794Z</time></trkpt><trkpt lat="43.2485017" lon="11.6167607"><ele>320.57142857142856</ele><time>2026-05-03T09:14:29.671Z</time></trkpt><trkpt lat="43.2484986" lon="11.6168626"><ele>320.42857142857144</ele><time>2026-05-03T09:14:32.774Z</time></trkpt><trkpt lat="43.2484953" lon="11.6169559"><ele>320.2857142857143</ele><time>2026-05-03T09:14:35.747Z</time></trkpt><trkpt lat="43.2484862" lon="11.6170473"><ele>320.1428571428571</ele><time>2026-05-03T09:14:38.789Z</time></trkpt><trkpt lat="43.2484742" lon="11.617138"><ele>320.0</ele><time>2026-05-03T09:14:41.771Z</time></trkpt><trkpt lat="43.2484455" lon="11.6172172"><ele>320.0</ele><time>2026-05-03T09:14:44.775Z</time></trkpt><trkpt lat="43.2483978" lon="11.6172913"><ele>320.0</ele><time>2026-05-03T09:14:47.773Z</time></trkpt><trkpt lat="43.2483456" lon="11.6173538"><ele>320.0</ele><time>2026-05-03T09:14:50.76Z</time></trkpt><trkpt lat="43.2482973" lon="11.6174175"><ele>320.0</ele><time>2026-05-03T09:14:53.766Z</time></trkpt><trkpt lat="43.2482495" lon="11.6174833"><ele>320.0</ele><time>2026-05-03T09:14:56.754Z</time></trkpt><trkpt lat="43.2481892" lon="11.6175418"><ele>320.0</ele><time>2026-05-03T09:14:59.813Z</time></trkpt><trkpt lat="43.2481329" lon="11.6175988"><ele>320.0</ele><time>2026-05-03T09:15:02.76Z</time></trkpt><trkpt lat="43.2480869" lon="11.6176778"><ele>320.42857142857144</ele><time>2026-05-03T09:15:05.768Z</time></trkpt><trkpt lat="43.24806" lon="11.617764"><ele>320.8571428571429</ele><time>2026-05-03T09:15:08.791Z</time></trkpt><trkpt lat="43.2480988" lon="11.6178629"><ele>321.28571428571433</ele><time>2026-05-03T09:15:12.791Z</time></trkpt><trkpt lat="43.2481288" lon="11.6179394"><ele>321.7142857142857</ele><time>2026-05-03T09:15:15.768Z</time></trkpt><trkpt lat="43.2481523" lon="11.6180283"><ele>322.14285714285717</ele><time>2026-05-03T09:15:19.79Z</time></trkpt><trkpt lat="43.248165" lon="11.6181133"><ele>322.5714285714286</ele><time>2026-05-03T09:15:25.795Z</time></trkpt><trkpt lat="43.248145" lon="11.6182082"><ele>323.0</ele><time>2026-05-03T09:15:33.779Z</time></trkpt><trkpt lat="43.2481264" lon="11.6182975"><ele>323.00000000000006</ele><time>2026-05-03T09:15:38.774Z</time></trkpt><trkpt lat="43.2481054" lon="11.6183835"><ele>323.0</ele><time>2026-05-03T09:15:43.787Z</time></trkpt><trkpt lat="43.2480933" lon="11.6184697"><ele>323.0</ele><time>2026-05-03T09:15:48.71Z</time></trkpt><trkpt lat="43.2480788" lon="11.6185565"><ele>323.0</ele><time>2026-05-03T09:15:53.769Z</time></trkpt><trkpt lat="43.2480564" lon="11.6186381"><ele>323.0</ele><time>2026-05-03T09:15:58.75Z</time></trkpt><trkpt lat="43.2480163" lon="11.6187106"><ele>323.00000000000006</ele><time>2026-05-03T09:16:03.795Z</time></trkpt><trkpt lat="43.247955" lon="11.6187625"><ele>323.0</ele><time>2026-05-03T09:16:08.763Z</time></trkpt><trkpt lat="43.2479051" lon="11.6188161"><ele>324.6666666666667</ele><time>2026-05-03T09:16:27.76Z</time></trkpt><trkpt lat="43.2478402" lon="11.6188754"><ele>326.33333333333337</ele><time>2026-05-03T09:16:33.738Z</time></trkpt><trkpt lat="43.2477884" lon="11.6189276"><ele>328.0</ele><time>2026-05-03T09:16:39.762Z</time></trkpt><trkpt lat="43.2477325" lon="11.6189778"><ele>329.6666666666667</ele><time>2026-05-03T09:16:44.729Z</time></trkpt><trkpt lat="43.2476691" lon="11.619037"><ele>331.3333333333333</ele><time>2026-05-03T09:16:49.746Z</time></trkpt><trkpt lat="43.2476101" lon="11.6191195"><ele>333.0</ele><time>2026-05-03T09:16:54.761Z</time></trkpt><trkpt lat="43.2475447" lon="11.619195"><ele>333.0</ele><time>2026-05-03T09:16:57.783Z</time></trkpt><trkpt lat="43.2474799" lon="11.619262"><ele>333.0</ele><time>2026-05-03T09:17:00.781Z</time></trkpt><trkpt lat="43.2474134" lon="11.6193199"><ele>333.0</ele><time>2026-05-03T09:17:03.755Z</time></trkpt><trkpt lat="43.2473399" lon="11.6193688"><ele>333.0</ele><time>2026-05-03T09:17:06.81Z</time></trkpt><trkpt lat="43.2472727" lon="11.6194301"><ele>333.0</ele><time>2026-05-03T09:17:09.805Z</time></trkpt><trkpt lat="43.2472013" lon="11.6194809"><ele>333.0</ele><time>2026-05-03T09:17:12.735Z</time></trkpt><trkpt lat="43.247127" lon="11.6195473"><ele>333.3333333333333</ele><time>2026-05-03T09:17:15.772Z</time></trkpt><trkpt lat="43.2470673" lon="11.619619"><ele>333.6666666666667</ele><time>2026-05-03T09:17:18.67Z</time></trkpt><trkpt lat="43.2470108" lon="11.6197014"><ele>334.0</ele><time>2026-05-03T09:17:21.782Z</time></trkpt><trkpt lat="43.2469609" lon="11.619774"><ele>334.33333333333337</ele><time>2026-05-03T09:17:24.694Z</time></trkpt><trkpt lat="43.2468989" lon="11.6198447"><ele>334.6666666666667</ele><time>2026-05-03T09:17:27.766Z</time></trkpt><trkpt lat="43.2468291" lon="11.6198986"><ele>335.0</ele><time>2026-05-03T09:17:30.768Z</time></trkpt><trkpt lat="43.246765" lon="11.6199505"><ele>335.0</ele><time>2026-05-03T09:17:33.799Z</time></trkpt><trkpt lat="43.2466993" lon="11.6199897"><ele>335.0</ele><time>2026-05-03T09:17:36.771Z</time></trkpt><trkpt lat="43.2466349" lon="11.6200315"><ele>335.0</ele><time>2026-05-03T09:17:39.777Z</time></trkpt><trkpt lat="43.2465536" lon="11.6200771"><ele>335.0</ele><time>2026-05-03T09:17:42.786Z</time></trkpt><trkpt lat="43.2464663" lon="11.6201188"><ele>335.0</ele><time>2026-05-03T09:17:45.737Z</time></trkpt><trkpt lat="43.2463794" lon="11.6201473"><ele>335.0</ele><time>2026-05-03T09:17:48.802Z</time></trkpt><trkpt lat="43.2462895" lon="11.6201838"><ele>336.1666666666667</ele><time>2026-05-03T09:17:51.81Z</time></trkpt><trkpt lat="43.2462015" lon="11.6202225"><ele>337.33333333333337</ele><time>2026-05-03T09:17:54.779Z</time></trkpt><trkpt lat="43.2461156" lon="11.6202654"><ele>338.5</ele><time>2026-05-03T09:17:57.8Z</time></trkpt><trkpt lat="43.2460386" lon="11.6202987"><ele>339.6666666666667</ele><time>2026-05-03T09:18:00.766Z</time></trkpt><trkpt lat="43.2459623" lon="11.6203308"><ele>340.8333333333333</ele><time>2026-05-03T09:18:03.852Z</time></trkpt><trkpt lat="43.2459011" lon="11.6203639"><ele>342.0</ele><time>2026-05-03T09:18:06.757Z</time></trkpt><trkpt lat="43.245837" lon="11.620399"><ele>341.99999999999994</ele><time>2026-05-03T09:18:09.778Z</time></trkpt><trkpt lat="43.2457794" lon="11.6204423"><ele>342.0</ele><time>2026-05-03T09:18:12.688Z</time></trkpt><trkpt lat="43.2457189" lon="11.6204971"><ele>342.0</ele><time>2026-05-03T09:18:15.797Z</time></trkpt><trkpt lat="43.2456565" lon="11.6205445"><ele>342.0</ele><time>2026-05-03T09:18:18.691Z</time></trkpt><trkpt lat="43.2455875" lon="11.6205898"><ele>342.0</ele><time>2026-05-03T09:18:21.786Z</time></trkpt><trkpt lat="43.2455217" lon="11.6206371"><ele>341.99999999999994</ele><time>2026-05-03T09:18:24.758Z</time></trkpt><trkpt lat="43.2454503" lon="11.6206945"><ele>342.0</ele><time>2026-05-03T09:18:27.799Z</time></trkpt><trkpt lat="43.2453831" lon="11.6207533"><ele>340.85714285714283</ele><time>2026-05-03T09:18:30.769Z</time></trkpt><trkpt lat="43.245312" lon="11.6208001"><ele>339.7142857142857</ele><time>2026-05-03T09:18:33.812Z</time></trkpt><trkpt lat="43.2452438" lon="11.6208401"><ele>338.57142857142856</ele><time>2026-05-03T09:18:36.779Z</time></trkpt><trkpt lat="43.2451743" lon="11.6208886"><ele>337.42857142857144</ele><time>2026-05-03T09:18:40.782Z</time></trkpt><trkpt lat="43.2451165" lon="11.6209299"><ele>336.2857142857143</ele><time>2026-05-03T09:18:43.783Z</time></trkpt><trkpt lat="43.2450635" lon="11.6209801"><ele>335.1428571428571</ele><time>2026-05-03T09:18:46.796Z</time></trkpt><trkpt lat="43.2450131" lon="11.6210345"><ele>334.0</ele><time>2026-05-03T09:18:49.831Z</time></trkpt><trkpt lat="43.2449565" lon="11.6210874"><ele>334.0</ele><time>2026-05-03T09:18:53.798Z</time></trkpt><trkpt lat="43.2448998" lon="11.6211357"><ele>334.0</ele><time>2026-05-03T09:18:58.779Z</time></trkpt><trkpt lat="43.2448449" lon="11.6211845"><ele>334.0</ele><time>2026-05-03T09:19:04.788Z</time></trkpt><trkpt lat="43.244799" lon="11.6212454"><ele>334.0</ele><time>2026-05-03T09:19:10.805Z</time></trkpt><trkpt lat="43.2447421" lon="11.6212989"><ele>334.0</ele><time>2026-05-03T09:19:16.773Z</time></trkpt><trkpt lat="43.244692" lon="11.6213742"><ele>334.0</ele><time>2026-05-03T09:19:22.78Z</time></trkpt><trkpt lat="43.2446494" lon="11.6214544"><ele>334.0</ele><time>2026-05-03T09:19:28.788Z</time></trkpt><trkpt lat="43.2446224" lon="11.6215436"><ele>336.7142857142857</ele><time>2026-05-03T09:19:34.777Z</time></trkpt><trkpt lat="43.2446045" lon="11.6216334"><ele>339.42857142857144</ele><time>2026-05-03T09:19:40.79Z</time></trkpt><trkpt lat="43.2445762" lon="11.6217122"><ele>342.1428571428571</ele><time>2026-05-03T09:19:46.768Z</time></trkpt><trkpt lat="43.2445263" lon="11.6217843"><ele>344.8571428571429</ele><time>2026-05-03T09:19:52.767Z</time></trkpt><trkpt lat="43.2444702" lon="11.6218419"><ele>347.5714285714286</ele><time>2026-05-03T09:19:58.761Z</time></trkpt><trkpt lat="43.2444099" lon="11.6218759"><ele>350.2857142857143</ele><time>2026-05-03T09:20:04.788Z</time></trkpt><trkpt lat="43.2443471" lon="11.6219183"><ele>353.0</ele><time>2026-05-03T09:20:11.79Z</time></trkpt><trkpt lat="43.2442911" lon="11.6219766"><ele>354.0</ele><time>2026-05-03T09:20:17.789Z</time></trkpt><trkpt lat="43.2442649" lon="11.6220619"><ele>355.0</ele><time>2026-05-03T09:20:23.805Z</time></trkpt><trkpt lat="43.2442505" lon="11.6221463"><ele>356.0</ele><time>2026-05-03T09:20:29.825Z</time></trkpt><trkpt lat="43.2442528" lon="11.6222355"><ele>357.0</ele><time>2026-05-03T09:20:36.779Z</time></trkpt><trkpt lat="43.2442593" lon="11.6223229"><ele>358.0</ele><time>2026-05-03T09:20:42.787Z</time></trkpt><trkpt lat="43.2442662" lon="11.6224189"><ele>359.0</ele><time>2026-05-03T09:20:48.787Z</time></trkpt><trkpt lat="43.2442649" lon="11.6225061"><ele>360.0</ele><time>2026-05-03T09:20:54.8Z</time></trkpt><trkpt lat="43.2442423" lon="11.622595"><ele>360.0</ele><time>2026-05-03T09:21:00.774Z</time></trkpt><trkpt lat="43.2442275" lon="11.6226873"><ele>360.0</ele><time>2026-05-03T09:21:06.778Z</time></trkpt><trkpt lat="43.2442015" lon="11.6227811"><ele>360.0</ele><time>2026-05-03T09:21:12.773Z</time></trkpt><trkpt lat="43.2441691" lon="11.6228691"><ele>360.0</ele><time>2026-05-03T09:21:17.762Z</time></trkpt><trkpt lat="43.2441365" lon="11.6229634"><ele>360.0</ele><time>2026-05-03T09:21:20.772Z</time></trkpt><trkpt lat="43.2440977" lon="11.6230509"><ele>360.0</ele><time>2026-05-03T09:21:23.808Z</time></trkpt><trkpt lat="43.2440548" lon="11.6231327"><ele>360.0</ele><time>2026-05-03T09:21:26.729Z</time></trkpt><trkpt lat="43.2440122" lon="11.6232072"><ele>360.85714285714283</ele><time>2026-05-03T09:21:29.794Z</time></trkpt><trkpt lat="43.2439542" lon="11.6232408"><ele>361.7142857142857</ele><time>2026-05-03T09:21:32.814Z</time></trkpt><trkpt lat="43.2438751" lon="11.623273"><ele>362.57142857142856</ele><time>2026-05-03T09:21:36.779Z</time></trkpt><trkpt lat="43.2438081" lon="11.6233059"><ele>363.42857142857144</ele><time>2026-05-03T09:21:39.778Z</time></trkpt><trkpt lat="43.2437423" lon="11.6233447"><ele>364.28571428571433</ele><time>2026-05-03T09:21:42.773Z</time></trkpt><trkpt lat="43.2436807" lon="11.62339"><ele>365.14285714285717</ele><time>2026-05-03T09:21:45.667Z</time></trkpt><trkpt lat="43.2436464" lon="11.6234719"><ele>366.0</ele><time>2026-05-03T09:21:48.763Z</time></trkpt><trkpt lat="43.2436634" lon="11.6235731"><ele>366.0</ele><time>2026-05-03T09:21:52.676Z</time></trkpt><trkpt lat="43.2437185" lon="11.623646"><ele>366.0</ele><time>2026-05-03T09:21:56.779Z</time></trkpt><trkpt lat="43.2437765" lon="11.6236923"><ele>366.0</ele><time>2026-05-03T09:22:00.786Z</time></trkpt><trkpt lat="43.2438476" lon="11.6237445"><ele>366.0</ele><time>2026-05-03T09:22:04.793Z</time></trkpt><trkpt lat="43.2439026" lon="11.6237978"><ele>366.0</ele><time>2026-05-03T09:22:08.748Z</time></trkpt><trkpt lat="43.2439283" lon="11.6238987"><ele>366.0</ele><time>2026-05-03T09:22:13.757Z</time></trkpt><trkpt lat="43.2438679" lon="11.6239332"><ele>366.0</ele><time>2026-05-03T09:22:16.732Z</time></trkpt><trkpt lat="43.2437951" lon="11.6239115"><ele>366.8571428571429</ele><time>2026-05-03T09:22:19.769Z</time></trkpt><trkpt lat="43.2437223" lon="11.6239137"><ele>367.7142857142857</ele><time>2026-05-03T09:22:22.783Z</time></trkpt><trkpt lat="43.243651" lon="11.623923"><ele>368.57142857142856</ele><time>2026-05-03T09:22:25.796Z</time></trkpt><trkpt lat="43.2435826" lon="11.6239343"><ele>369.42857142857144</ele><time>2026-05-03T09:22:28.77Z</time></trkpt><trkpt lat="43.243501" lon="11.6239502"><ele>370.2857142857143</ele><time>2026-05-03T09:22:32.711Z</time></trkpt><trkpt lat="43.2434368" lon="11.6239512"><ele>371.14285714285717</ele><time>2026-05-03T09:22:35.766Z</time></trkpt><trkpt lat="43.2433554" lon="11.6239543"><ele>372.0</ele><time>2026-05-03T09:22:39.796Z</time></trkpt><trkpt lat="43.2432741" lon="11.6239739"><ele>372.00000000000006</ele><time>2026-05-03T09:22:43.806Z</time></trkpt><trkpt lat="43.2432062" lon="11.6239934"><ele>372.0</ele><time>2026-05-03T09:22:46.758Z</time></trkpt><trkpt lat="43.2431353" lon="11.624006"><ele>372.0</ele><time>2026-05-03T09:22:49.812Z</time></trkpt><trkpt lat="43.2430641" lon="11.6240182"><ele>372.0</ele><time>2026-05-03T09:22:53.744Z</time></trkpt><trkpt lat="43.2429945" lon="11.6240424"><ele>372.0</ele><time>2026-05-03T09:22:57.594Z</time></trkpt><trkpt lat="43.2429255" lon="11.6240754"><ele>372.00000000000006</ele><time>2026-05-03T09:23:01.772Z</time></trkpt><trkpt lat="43.2428532" lon="11.6241076"><ele>372.0</ele><time>2026-05-03T09:23:05.771Z</time></trkpt><trkpt lat="43.2427926" lon="11.6241382"><ele>373.5714285714286</ele><time>2026-05-03T09:23:10.786Z</time></trkpt><trkpt lat="43.2427388" lon="11.6241871"><ele>375.14285714285717</ele><time>2026-05-03T09:23:15.799Z</time></trkpt><trkpt lat="43.2426836" lon="11.6242486"><ele>376.7142857142857</ele><time>2026-05-03T09:23:21.771Z</time></trkpt><trkpt lat="43.2426286" lon="11.6242941"><ele>378.28571428571433</ele><time>2026-05-03T09:23:26.834Z</time></trkpt><trkpt lat="43.2425679" lon="11.6243447"><ele>379.85714285714283</ele><time>2026-05-03T09:23:32.784Z</time></trkpt><trkpt lat="43.2425033" lon="11.6243922"><ele>381.42857142857144</ele><time>2026-05-03T09:23:38.778Z</time></trkpt><trkpt lat="43.2424437" lon="11.6244322"><ele>383.0</ele><time>2026-05-03T09:23:43.793Z</time></trkpt><trkpt lat="43.2423771" lon="11.6244679"><ele>383.0</ele><time>2026-05-03T09:23:49.765Z</time></trkpt><trkpt lat="43.2423186" lon="11.6245137"><ele>383.0</ele><time>2026-05-03T09:23:55.782Z</time></trkpt><trkpt lat="43.2422574" lon="11.6245386"><ele>383.0</ele><time>2026-05-03T09:24:01.786Z</time></trkpt><trkpt lat="43.2421766" lon="11.6245418"><ele>383.0</ele><time>2026-05-03T09:24:08.781Z</time></trkpt><trkpt lat="43.2421031" lon="11.6245399"><ele>383.0</ele><time>2026-05-03T09:24:11.672Z</time></trkpt><trkpt lat="43.242025" lon="11.6245288"><ele>383.0</ele><time>2026-05-03T09:24:14.789Z</time></trkpt><trkpt lat="43.2419509" lon="11.6245209"><ele>383.0</ele><time>2026-05-03T09:24:17.788Z</time></trkpt><trkpt lat="43.2418808" lon="11.6245118"><ele>383.0</ele><time>2026-05-03T09:24:20.757Z</time></trkpt><trkpt lat="43.2418088" lon="11.624499"><ele>383.0</ele><time>2026-05-03T09:24:23.758Z</time></trkpt><trkpt lat="43.2417327" lon="11.6244752"><ele>383.0</ele><time>2026-05-03T09:24:26.772Z</time></trkpt><trkpt lat="43.2416661" lon="11.6244623"><ele>383.0</ele><time>2026-05-03T09:24:29.809Z</time></trkpt><trkpt lat="43.2416015" lon="11.6244693"><ele>383.0</ele><time>2026-05-03T09:24:32.816Z</time></trkpt><trkpt lat="43.2415172" lon="11.6244583"><ele>383.0</ele><time>2026-05-03T09:24:36.767Z</time></trkpt><trkpt lat="43.2414541" lon="11.6244525"><ele>383.0</ele><time>2026-05-03T09:24:39.778Z</time></trkpt><trkpt lat="43.2413897" lon="11.6244546"><ele>383.83333333333337</ele><time>2026-05-03T09:24:42.775Z</time></trkpt><trkpt lat="43.2413218" lon="11.6244501"><ele>384.6666666666667</ele><time>2026-05-03T09:24:45.773Z</time></trkpt><trkpt lat="43.241252" lon="11.624448"><ele>385.5</ele><time>2026-05-03T09:24:48.781Z</time></trkpt><trkpt lat="43.2411866" lon="11.6244393"><ele>386.33333333333337</ele><time>2026-05-03T09:24:51.771Z</time></trkpt><trkpt lat="43.2411128" lon="11.6244302"><ele>387.1666666666667</ele><time>2026-05-03T09:24:54.762Z</time></trkpt><trkpt lat="43.2410284" lon="11.6244144"><ele>388.0</ele><time>2026-05-03T09:24:57.779Z</time></trkpt><trkpt lat="43.2409362" lon="11.6244029"><ele>388.00000000000006</ele><time>2026-05-03T09:25:00.809Z</time></trkpt><trkpt lat="43.2408468" lon="11.6243687"><ele>388.0</ele><time>2026-05-03T09:25:03.777Z</time></trkpt><trkpt lat="43.2407582" lon="11.6243247"><ele>388.0</ele><time>2026-05-03T09:25:06.795Z</time></trkpt><trkpt lat="43.2406738" lon="11.6242843"><ele>388.0</ele><time>2026-05-03T09:25:09.775Z</time></trkpt><trkpt lat="43.2405957" lon="11.6242478"><ele>388.00000000000006</ele><time>2026-05-03T09:25:12.76Z</time></trkpt><trkpt lat="43.24052" lon="11.6242244"><ele>388.0</ele><time>2026-05-03T09:25:15.67Z</time></trkpt><trkpt lat="43.2404557" lon="11.6242428"><ele>387.50000000000006</ele><time>2026-05-03T09:25:18.796Z</time></trkpt><trkpt lat="43.2404038" lon="11.6243128"><ele>387.0</ele><time>2026-05-03T09:25:21.678Z</time></trkpt><trkpt lat="43.240362" lon="11.6244137"><ele>386.5</ele><time>2026-05-03T09:25:24.774Z</time></trkpt><trkpt lat="43.2403122" lon="11.6245049"><ele>386.0</ele><time>2026-05-03T09:25:27.775Z</time></trkpt><trkpt lat="43.2402368" lon="11.6245672"><ele>385.50000000000006</ele><time>2026-05-03T09:25:30.794Z</time></trkpt><trkpt lat="43.2401755" lon="11.6246489"><ele>385.0</ele><time>2026-05-03T09:25:33.736Z</time></trkpt><trkpt lat="43.2401243" lon="11.6247478"><ele>383.6666666666667</ele><time>2026-05-03T09:25:36.778Z</time></trkpt><trkpt lat="43.2400842" lon="11.6248435"><ele>382.33333333333337</ele><time>2026-05-03T09:25:39.735Z</time></trkpt><trkpt lat="43.2400486" lon="11.6249353"><ele>381.0</ele><time>2026-05-03T09:25:42.771Z</time></trkpt><trkpt lat="43.2399952" lon="11.6250052"><ele>379.6666666666667</ele><time>2026-05-03T09:25:45.709Z</time></trkpt><trkpt lat="43.2399349" lon="11.6250637"><ele>378.33333333333337</ele><time>2026-05-03T09:25:48.727Z</time></trkpt><trkpt lat="43.2398771" lon="11.6251309"><ele>377.0</ele><time>2026-05-03T09:25:51.739Z</time></trkpt><trkpt lat="43.2398128" lon="11.6251837"><ele>376.71428571428567</ele><time>2026-05-03T09:25:54.813Z</time></trkpt><trkpt lat="43.2397465" lon="11.6252029"><ele>376.42857142857144</ele><time>2026-05-03T09:25:57.692Z</time></trkpt><trkpt lat="43.2396718" lon="11.6251977"><ele>376.1428571428571</ele><time>2026-05-03T09:26:00.787Z</time></trkpt><trkpt lat="43.2396038" lon="11.6251887"><ele>375.85714285714283</ele><time>2026-05-03T09:26:03.822Z</time></trkpt><trkpt lat="43.2395391" lon="11.6251468"><ele>375.57142857142856</ele><time>2026-05-03T09:26:07.752Z</time></trkpt><trkpt lat="43.2394937" lon="11.6250846"><ele>375.2857142857143</ele><time>2026-05-03T09:26:11.715Z</time></trkpt><trkpt lat="43.2394238" lon="11.6250322"><ele>375.0</ele><time>2026-05-03T09:26:16.767Z</time></trkpt><trkpt lat="43.2393567" lon="11.6250259"><ele>375.0</ele><time>2026-05-03T09:26:20.796Z</time></trkpt><trkpt lat="43.2392878" lon="11.6250056"><ele>375.0</ele><time>2026-05-03T09:26:24.738Z</time></trkpt><trkpt lat="43.2392125" lon="11.6249785"><ele>375.0</ele><time>2026-05-03T09:26:28.695Z</time></trkpt><trkpt lat="43.2391526" lon="11.6250318"><ele>375.0</ele><time>2026-05-03T09:26:32.651Z</time></trkpt><trkpt lat="43.2391902" lon="11.6251181"><ele>375.0</ele><time>2026-05-03T09:26:36.753Z</time></trkpt><trkpt lat="43.239235" lon="11.6251884"><ele>375.0</ele><time>2026-05-03T09:26:40.769Z</time></trkpt><trkpt lat="43.2392956" lon="11.6252609"><ele>375.0</ele><time>2026-05-03T09:26:44.732Z</time></trkpt><trkpt lat="43.2393604" lon="11.6253305"><ele>373.0</ele><time>2026-05-03T09:26:48.79Z</time></trkpt><trkpt lat="43.2393863" lon="11.6254164"><ele>371.0</ele><time>2026-05-03T09:26:51.76Z</time></trkpt><trkpt lat="43.2393665" lon="11.6255219"><ele>369.0</ele><time>2026-05-03T09:26:54.73Z</time></trkpt><trkpt lat="43.2393323" lon="11.6256377"><ele>367.0</ele><time>2026-05-03T09:26:57.726Z</time></trkpt><trkpt lat="43.2393281" lon="11.6257255"><ele>365.0</ele><time>2026-05-03T09:26:59.777Z</time></trkpt><trkpt lat="43.2393419" lon="11.6258203"><ele>363.0</ele><time>2026-05-03T09:27:01.789Z</time></trkpt><trkpt lat="43.2393545" lon="11.6259126"><ele>361.0</ele><time>2026-05-03T09:27:03.791Z</time></trkpt><trkpt lat="43.2393781" lon="11.62603"><ele>361.0</ele><time>2026-05-03T09:27:06.792Z</time></trkpt><trkpt lat="43.2394025" lon="11.6261428"><ele>361.0</ele><time>2026-05-03T09:27:09.734Z</time></trkpt><trkpt lat="43.2394096" lon="11.6262613"><ele>361.0</ele><time>2026-05-03T09:27:12.781Z</time></trkpt><trkpt lat="43.239431" lon="11.626365"><ele>361.0</ele><time>2026-05-03T09:27:15.707Z</time></trkpt><trkpt lat="43.2394708" lon="11.6264487"><ele>361.0</ele><time>2026-05-03T09:27:18.78Z</time></trkpt><trkpt lat="43.2395023" lon="11.6265297"><ele>361.0</ele><time>2026-05-03T09:27:21.777Z</time></trkpt><trkpt lat="43.2395313" lon="11.6266402"><ele>359.14285714285717</ele><time>2026-05-03T09:27:25.786Z</time></trkpt><trkpt lat="43.2395354" lon="11.6267289"><ele>357.2857142857143</ele><time>2026-05-03T09:27:28.775Z</time></trkpt><trkpt lat="43.2395127" lon="11.6268275"><ele>355.42857142857144</ele><time>2026-05-03T09:27:31.632Z</time></trkpt><trkpt lat="43.2394826" lon="11.6269298"><ele>353.57142857142856</ele><time>2026-05-03T09:27:34.588Z</time></trkpt><trkpt lat="43.2394399" lon="11.6270347"><ele>351.7142857142857</ele><time>2026-05-03T09:27:37.596Z</time></trkpt><trkpt lat="43.2394157" lon="11.6271146"><ele>349.85714285714283</ele><time>2026-05-03T09:27:39.51Z</time></trkpt><trkpt lat="43.2393797" lon="11.6271946"><ele>348.0</ele><time>2026-05-03T09:27:41.316Z</time></trkpt><trkpt lat="43.239343" lon="11.6272855"><ele>347.5</ele><time>2026-05-03T09:27:43.208Z</time></trkpt><trkpt lat="43.2392945" lon="11.6273831"><ele>347.0</ele><time>2026-05-03T09:27:45.174Z</time></trkpt><trkpt lat="43.2392616" lon="11.6274705"><ele>346.5</ele><time>2026-05-03T09:27:47.29Z</time></trkpt><trkpt lat="43.23922" lon="11.6275628"><ele>346.0</ele><time>2026-05-03T09:27:50.555Z</time></trkpt><trkpt lat="43.2391749" lon="11.6276407"><ele>345.5</ele><time>2026-05-03T09:27:53.823Z</time></trkpt><trkpt lat="43.2391356" lon="11.6277214"><ele>345.0</ele><time>2026-05-03T09:27:56.686Z</time></trkpt><trkpt lat="43.2391038" lon="11.6278109"><ele>345.0</ele><time>2026-05-03T09:27:59.767Z</time></trkpt><trkpt lat="43.2390731" lon="11.6278968"><ele>345.0</ele><time>2026-05-03T09:28:02.778Z</time></trkpt><trkpt lat="43.2390454" lon="11.62798"><ele>345.0</ele><time>2026-05-03T09:28:05.774Z</time></trkpt><trkpt lat="43.2390061" lon="11.6280477"><ele>345.0</ele><time>2026-05-03T09:28:08.793Z</time></trkpt><trkpt lat="43.238954" lon="11.6281441"><ele>345.0</ele><time>2026-05-03T09:28:12.8Z</time></trkpt><trkpt lat="43.2389045" lon="11.6282248"><ele>345.0</ele><time>2026-05-03T09:28:15.69Z</time></trkpt><trkpt lat="43.2388529" lon="11.6283224"><ele>343.42857142857144</ele><time>2026-05-03T09:28:18.777Z</time></trkpt><trkpt lat="43.2387885" lon="11.6283947"><ele>341.85714285714283</ele><time>2026-05-03T09:28:21.65Z</time></trkpt><trkpt lat="43.2387376" lon="11.6284581"><ele>340.2857142857143</ele><time>2026-05-03T09:28:24.767Z</time></trkpt><trkpt lat="43.2386836" lon="11.6285351"><ele>338.7142857142857</ele><time>2026-05-03T09:28:28.781Z</time></trkpt><trkpt lat="43.2386381" lon="11.6286073"><ele>337.14285714285717</ele><time>2026-05-03T09:28:32.712Z</time></trkpt><trkpt lat="43.2386002" lon="11.6287081"><ele>335.57142857142856</ele><time>2026-05-03T09:28:36.789Z</time></trkpt><trkpt lat="43.2385735" lon="11.628789"><ele>334.0</ele><time>2026-05-03T09:28:39.751Z</time></trkpt><trkpt lat="43.2385429" lon="11.6288913"><ele>334.0</ele><time>2026-05-03T09:28:43.81Z</time></trkpt><trkpt lat="43.2385151" lon="11.6289821"><ele>334.0</ele><time>2026-05-03T09:28:47.795Z</time></trkpt><trkpt lat="43.2384908" lon="11.6290824"><ele>334.0</ele><time>2026-05-03T09:28:51.713Z</time></trkpt><trkpt lat="43.2384585" lon="11.6291612"><ele>334.0</ele><time>2026-05-03T09:28:54.768Z</time></trkpt><trkpt lat="43.2384211" lon="11.6292616"><ele>334.0</ele><time>2026-05-03T09:28:58.735Z</time></trkpt><trkpt lat="43.238389" lon="11.6293494"><ele>334.0</ele><time>2026-05-03T09:29:01.767Z</time></trkpt><trkpt lat="43.2383775" lon="11.6294436"><ele>334.0</ele><time>2026-05-03T09:29:04.782Z</time></trkpt><trkpt lat="43.2383934" lon="11.6295444"><ele>333.7142857142857</ele><time>2026-05-03T09:29:07.818Z</time></trkpt><trkpt lat="43.2384097" lon="11.629631"><ele>333.42857142857144</ele><time>2026-05-03T09:29:10.767Z</time></trkpt><trkpt lat="43.2384318" lon="11.6297208"><ele>333.1428571428571</ele><time>2026-05-03T09:29:13.794Z</time></trkpt><trkpt lat="43.2384603" lon="11.6298087"><ele>332.8571428571429</ele><time>2026-05-03T09:29:16.787Z</time></trkpt><trkpt lat="43.2384905" lon="11.6298997"><ele>332.5714285714286</ele><time>2026-05-03T09:29:19.777Z</time></trkpt><trkpt lat="43.2385286" lon="11.6299854"><ele>332.2857142857143</ele><time>2026-05-03T09:29:22.79Z</time></trkpt><trkpt lat="43.2385803" lon="11.6300459"><ele>332.0</ele><time>2026-05-03T09:29:25.815Z</time></trkpt><trkpt lat="43.2386292" lon="11.6301048"><ele>332.0</ele><time>2026-05-03T09:29:28.78Z</time></trkpt><trkpt lat="43.2386816" lon="11.6301649"><ele>332.0</ele><time>2026-05-03T09:29:31.478Z</time></trkpt><trkpt lat="43.2387405" lon="11.6302389"><ele>332.0</ele><time>2026-05-03T09:29:34.767Z</time></trkpt><trkpt lat="43.2387976" lon="11.630312"><ele>332.0</ele><time>2026-05-03T09:29:37.764Z</time></trkpt><trkpt lat="43.2388463" lon="11.6303901"><ele>332.0</ele><time>2026-05-03T09:29:40.747Z</time></trkpt><trkpt lat="43.2389021" lon="11.6304708"><ele>332.0</ele><time>2026-05-03T09:29:43.773Z</time></trkpt><trkpt lat="43.2389537" lon="11.6305504"><ele>331.33333333333337</ele><time>2026-05-03T09:29:46.696Z</time></trkpt><trkpt lat="43.2390048" lon="11.6306281"><ele>330.6666666666667</ele><time>2026-05-03T09:29:49.794Z</time></trkpt><trkpt lat="43.2390509" lon="11.6307176"><ele>330.0</ele><time>2026-05-03T09:29:52.819Z</time></trkpt><trkpt lat="43.2390959" lon="11.6308088"><ele>329.3333333333333</ele><time>2026-05-03T09:29:55.798Z</time></trkpt><trkpt lat="43.2391227" lon="11.6309145"><ele>328.66666666666663</ele><time>2026-05-03T09:29:58.777Z</time></trkpt><trkpt lat="43.239142" lon="11.6310125"><ele>328.0</ele><time>2026-05-03T09:30:01.827Z</time></trkpt><trkpt lat="43.2391649" lon="11.6311028"><ele>326.3333333333333</ele><time>2026-05-03T09:30:04.674Z</time></trkpt><trkpt lat="43.2391577" lon="11.631214"><ele>324.66666666666663</ele><time>2026-05-03T09:30:07.815Z</time></trkpt><trkpt lat="43.2391666" lon="11.6313177"><ele>323.0</ele><time>2026-05-03T09:30:10.76Z</time></trkpt><trkpt lat="43.2391863" lon="11.6314147"><ele>321.3333333333333</ele><time>2026-05-03T09:30:13.739Z</time></trkpt><trkpt lat="43.2392057" lon="11.6315209"><ele>319.6666666666667</ele><time>2026-05-03T09:30:16.537Z</time></trkpt><trkpt lat="43.2392149" lon="11.6316073"><ele>318.0</ele><time>2026-05-03T09:30:18.655Z</time></trkpt><trkpt lat="43.2392351" lon="11.6317242"><ele>318.0</ele><time>2026-05-03T09:30:21.631Z</time></trkpt><trkpt lat="43.239251" lon="11.6318235"><ele>318.0</ele><time>2026-05-03T09:30:23.795Z</time></trkpt><trkpt lat="43.2392645" lon="11.6319162"><ele>318.0</ele><time>2026-05-03T09:30:25.795Z</time></trkpt><trkpt lat="43.2392678" lon="11.6320038"><ele>318.0</ele><time>2026-05-03T09:30:27.798Z</time></trkpt><trkpt lat="43.2392655" lon="11.6321115"><ele>318.0</ele><time>2026-05-03T09:30:30.767Z</time></trkpt><trkpt lat="43.2392625" lon="11.6322171"><ele>318.0</ele><time>2026-05-03T09:30:33.795Z</time></trkpt><trkpt lat="43.239253" lon="11.6323218"><ele>318.0</ele><time>2026-05-03T09:30:36.772Z</time></trkpt><trkpt lat="43.2392351" lon="11.6324267"><ele>317.7142857142857</ele><time>2026-05-03T09:30:39.772Z</time></trkpt><trkpt lat="43.239212" lon="11.632523"><ele>317.42857142857144</ele><time>2026-05-03T09:30:42.781Z</time></trkpt><trkpt lat="43.2391779" lon="11.6326183"><ele>317.14285714285717</ele><time>2026-05-03T09:30:45.793Z</time></trkpt><trkpt lat="43.2390987" lon="11.6326167"><ele>316.8571428571429</ele><time>2026-05-03T09:30:49.813Z</time></trkpt><trkpt lat="43.2390423" lon="11.6325505"><ele>316.57142857142856</ele><time>2026-05-03T09:30:52.781Z</time></trkpt><trkpt lat="43.2389843" lon="11.6324945"><ele>316.28571428571433</ele><time>2026-05-03T09:30:55.808Z</time></trkpt><trkpt lat="43.2389378" lon="11.6324265"><ele>316.0</ele><time>2026-05-03T09:30:58.771Z</time></trkpt><trkpt lat="43.2388791" lon="11.6323731"><ele>316.00000000000006</ele><time>2026-05-03T09:31:01.711Z</time></trkpt><trkpt lat="43.238831" lon="11.6323089"><ele>316.0</ele><time>2026-05-03T09:31:04.738Z</time></trkpt><trkpt lat="43.2387823" lon="11.6322369"><ele>316.0</ele><time>2026-05-03T09:31:07.838Z</time></trkpt><trkpt lat="43.2387294" lon="11.6321458"><ele>316.0</ele><time>2026-05-03T09:31:11.836Z</time></trkpt><trkpt lat="43.238692" lon="11.6320718"><ele>316.0</ele><time>2026-05-03T09:31:14.777Z</time></trkpt><trkpt lat="43.238645" lon="11.6320031"><ele>316.00000000000006</ele><time>2026-05-03T09:31:17.763Z</time></trkpt><trkpt lat="43.2385879" lon="11.6319467"><ele>316.0</ele><time>2026-05-03T09:31:20.791Z</time></trkpt><trkpt lat="43.2385271" lon="11.6318949"><ele>316.14285714285717</ele><time>2026-05-03T09:31:23.778Z</time></trkpt><trkpt lat="43.2384743" lon="11.6318372"><ele>316.2857142857143</ele><time>2026-05-03T09:31:26.801Z</time></trkpt><trkpt lat="43.2384179" lon="11.6317815"><ele>316.42857142857144</ele><time>2026-05-03T09:31:29.761Z</time></trkpt><trkpt lat="43.2383544" lon="11.6317237"><ele>316.57142857142856</ele><time>2026-05-03T09:31:32.773Z</time></trkpt><trkpt lat="43.2382921" lon="11.6316688"><ele>316.7142857142857</ele><time>2026-05-03T09:31:35.779Z</time></trkpt><trkpt lat="43.2382482" lon="11.6315953"><ele>316.8571428571429</ele><time>2026-05-03T09:31:38.763Z</time></trkpt><trkpt lat="43.2382229" lon="11.6315063"><ele>317.0</ele><time>2026-05-03T09:31:41.766Z</time></trkpt><trkpt lat="43.2382088" lon="11.6313965"><ele>317.0</ele><time>2026-05-03T09:31:45.781Z</time></trkpt><trkpt lat="43.2382047" lon="11.6313044"><ele>317.0</ele><time>2026-05-03T09:31:50.78Z</time></trkpt><trkpt lat="43.2381958" lon="11.6312169"><ele>317.0</ele><time>2026-05-03T09:31:55.792Z</time></trkpt><trkpt lat="43.2381851" lon="11.631126"><ele>317.0</ele><time>2026-05-03T09:32:00.8Z</time></trkpt><trkpt lat="43.2381913" lon="11.6310221"><ele>317.0</ele><time>2026-05-03T09:32:06.782Z</time></trkpt><trkpt lat="43.2381834" lon="11.630936"><ele>317.0</ele><time>2026-05-03T09:32:11.835Z</time></trkpt><trkpt lat="43.2381918" lon="11.6308468"><ele>317.0</ele><time>2026-05-03T09:32:17.787Z</time></trkpt><trkpt lat="43.2381939" lon="11.6307521"><ele>317.2857142857143</ele><time>2026-05-03T09:32:24.788Z</time></trkpt><trkpt lat="43.2381722" lon="11.6306605"><ele>317.57142857142856</ele><time>2026-05-03T09:32:32.804Z</time></trkpt><trkpt lat="43.2381098" lon="11.6306951"><ele>317.8571428571429</ele><time>2026-05-03T09:32:39.785Z</time></trkpt><trkpt lat="43.2380676" lon="11.6307748"><ele>318.1428571428571</ele><time>2026-05-03T09:32:42.83Z</time></trkpt><trkpt lat="43.2380197" lon="11.6308401"><ele>318.4285714285714</ele><time>2026-05-03T09:32:45.774Z</time></trkpt><trkpt lat="43.2379715" lon="11.6308977"><ele>318.7142857142857</ele><time>2026-05-03T09:32:48.795Z</time></trkpt><trkpt lat="43.2379239" lon="11.6309578"><ele>319.0</ele><time>2026-05-03T09:32:51.746Z</time></trkpt><trkpt lat="43.2378647" lon="11.631033"><ele>319.0</ele><time>2026-05-03T09:32:55.79Z</time></trkpt><trkpt lat="43.2378127" lon="11.631104"><ele>319.0</ele><time>2026-05-03T09:32:59.776Z</time></trkpt><trkpt lat="43.2377631" lon="11.6311577"><ele>319.0</ele><time>2026-05-03T09:33:02.806Z</time></trkpt><trkpt lat="43.2377149" lon="11.6312399"><ele>319.0</ele><time>2026-05-03T09:33:06.795Z</time></trkpt><trkpt lat="43.237669" lon="11.6313032"><ele>319.0</ele><time>2026-05-03T09:33:09.787Z</time></trkpt><trkpt lat="43.2376186" lon="11.6313939"><ele>319.0</ele><time>2026-05-03T09:33:13.768Z</time></trkpt><trkpt lat="43.2375697" lon="11.631481"><ele>319.0</ele><time>2026-05-03T09:33:17.713Z</time></trkpt><trkpt lat="43.2375221" lon="11.6315491"><ele>319.14285714285717</ele><time>2026-05-03T09:33:20.771Z</time></trkpt><trkpt lat="43.2374728" lon="11.6316156"><ele>319.2857142857143</ele><time>2026-05-03T09:33:23.793Z</time></trkpt><trkpt lat="43.2374223" lon="11.6316737"><ele>319.42857142857144</ele><time>2026-05-03T09:33:26.671Z</time></trkpt><trkpt lat="43.2373738" lon="11.6317424"><ele>319.57142857142856</ele><time>2026-05-03T09:33:29.787Z</time></trkpt><trkpt lat="43.2373292" lon="11.6318089"><ele>319.7142857142857</ele><time>2026-05-03T09:33:32.85Z</time></trkpt><trkpt lat="43.2372701" lon="11.6318949"><ele>319.85714285714283</ele><time>2026-05-03T09:33:36.809Z</time></trkpt><trkpt lat="43.2372277" lon="11.6319639"><ele>320.0</ele><time>2026-05-03T09:33:39.764Z</time></trkpt><trkpt lat="43.2371712" lon="11.6320495"><ele>322.1428571428571</ele><time>2026-05-03T09:33:43.826Z</time></trkpt><trkpt lat="43.2371285" lon="11.6321308"><ele>324.2857142857143</ele><time>2026-05-03T09:33:47.772Z</time></trkpt><trkpt lat="43.2370889" lon="11.632225"><ele>326.42857142857144</ele><time>2026-05-03T09:33:51.81Z</time></trkpt><trkpt lat="43.2370213" lon="11.6322752"><ele>328.57142857142856</ele><time>2026-05-03T09:33:55.777Z</time></trkpt><trkpt lat="43.2369527" lon="11.6322401"><ele>330.7142857142857</ele><time>2026-05-03T09:33:59.783Z</time></trkpt><trkpt lat="43.2369009" lon="11.6321899"><ele>332.85714285714283</ele><time>2026-05-03T09:34:03.751Z</time></trkpt><trkpt lat="43.2369041" lon="11.6320927"><ele>335.0</ele><time>2026-05-03T09:34:09.748Z</time></trkpt><trkpt lat="43.2368594" lon="11.632009"><ele>334.83333333333337</ele><time>2026-05-03T09:34:16.747Z</time></trkpt><trkpt lat="43.2368004" lon="11.6319518"><ele>334.6666666666667</ele><time>2026-05-03T09:34:21.769Z</time></trkpt><trkpt lat="43.236731" lon="11.631899"><ele>334.5</ele><time>2026-05-03T09:34:26.784Z</time></trkpt><trkpt lat="43.2366528" lon="11.631865"><ele>334.3333333333333</ele><time>2026-05-03T09:34:30.788Z</time></trkpt><trkpt lat="43.2365781" lon="11.6318752"><ele>334.16666666666663</ele><time>2026-05-03T09:34:34.8Z</time></trkpt><trkpt lat="43.2365148" lon="11.6318986"><ele>334.0</ele><time>2026-05-03T09:34:38.667Z</time></trkpt><trkpt lat="43.2364407" lon="11.6318628"><ele>334.0</ele><time>2026-05-03T09:34:43.791Z</time></trkpt><trkpt lat="43.2363962" lon="11.6317857"><ele>334.0</ele><time>2026-05-03T09:34:48.775Z</time></trkpt><trkpt lat="43.2363274" lon="11.6317449"><ele>334.0</ele><time>2026-05-03T09:34:53.767Z</time></trkpt><trkpt lat="43.2362656" lon="11.6317199"><ele>334.0</ele><time>2026-05-03T09:34:57.691Z</time></trkpt><trkpt lat="43.2362065" lon="11.6317828"><ele>334.0</ele><time>2026-05-03T09:35:02.792Z</time></trkpt><trkpt lat="43.2362121" lon="11.6318704"><ele>334.0</ele><time>2026-05-03T09:35:06.767Z</time></trkpt><trkpt lat="43.236213" lon="11.6319691"><ele>334.0</ele><time>2026-05-03T09:35:11.825Z</time></trkpt><trkpt lat="43.2361907" lon="11.6320645"><ele>335.42857142857144</ele><time>2026-05-03T09:35:17.767Z</time></trkpt><trkpt lat="43.2361766" lon="11.6321527"><ele>336.8571428571429</ele><time>2026-05-03T09:35:23.751Z</time></trkpt><trkpt lat="43.2361517" lon="11.6322411"><ele>338.28571428571433</ele><time>2026-05-03T09:35:31.763Z</time></trkpt><trkpt lat="43.2361568" lon="11.6323291"><ele>339.7142857142857</ele><time>2026-05-03T09:35:37.795Z</time></trkpt><trkpt lat="43.236195" lon="11.6324236"><ele>341.14285714285717</ele><time>2026-05-03T09:35:42.761Z</time></trkpt><trkpt lat="43.2362469" lon="11.6324942"><ele>342.5714285714286</ele><time>2026-05-03T09:35:46.77Z</time></trkpt><trkpt lat="43.2362963" lon="11.632554"><ele>344.0</ele><time>2026-05-03T09:35:50.772Z</time></trkpt><trkpt lat="43.2363288" lon="11.6326413"><ele>344.00000000000006</ele><time>2026-05-03T09:35:55.776Z</time></trkpt><trkpt lat="43.2363429" lon="11.6327295"><ele>344.0</ele><time>2026-05-03T09:35:59.776Z</time></trkpt><trkpt lat="43.2363071" lon="11.6328073"><ele>344.0</ele><time>2026-05-03T09:36:03.772Z</time></trkpt><trkpt lat="43.2362525" lon="11.6328576"><ele>344.0</ele><time>2026-05-03T09:36:10.776Z</time></trkpt><trkpt lat="43.2361984" lon="11.6329069"><ele>344.0</ele><time>2026-05-03T09:36:17.795Z</time></trkpt><trkpt lat="43.236128" lon="11.6329026"><ele>344.00000000000006</ele><time>2026-05-03T09:36:26.78Z</time></trkpt><trkpt lat="43.2360611" lon="11.632875"><ele>344.0</ele><time>2026-05-03T09:36:35.789Z</time></trkpt><trkpt lat="43.2359975" lon="11.6328732"><ele>345.5714285714286</ele><time>2026-05-03T09:36:42.774Z</time></trkpt><trkpt lat="43.2359096" lon="11.6329104"><ele>347.14285714285717</ele><time>2026-05-03T09:36:50.778Z</time></trkpt><trkpt lat="43.235845" lon="11.6329194"><ele>348.7142857142857</ele><time>2026-05-03T09:36:58.8Z</time></trkpt><trkpt lat="43.2357837" lon="11.6328916"><ele>350.28571428571433</ele><time>2026-05-03T09:37:04.665Z</time></trkpt><trkpt lat="43.2357202" lon="11.6328968"><ele>351.8571428571429</ele><time>2026-05-03T09:37:10.764Z</time></trkpt><trkpt lat="43.2357074" lon="11.6329929"><ele>353.42857142857144</ele><time>2026-05-03T09:37:18.762Z</time></trkpt><trkpt lat="43.235734" lon="11.63308"><ele>355.0</ele><time>2026-05-03T09:37:26.768Z</time></trkpt><trkpt lat="43.2357822" lon="11.633137"><ele>355.0</ele><time>2026-05-03T09:37:35.783Z</time></trkpt><trkpt lat="43.2358125" lon="11.6332186"><ele>355.0</ele><time>2026-05-03T09:37:45.714Z</time></trkpt><trkpt lat="43.2357697" lon="11.6332863"><ele>355.0</ele><time>2026-05-03T09:37:53.503Z</time></trkpt><trkpt lat="43.2357107" lon="11.6333216"><ele>355.0</ele><time>2026-05-03T09:37:59.79Z</time></trkpt><trkpt lat="43.2356438" lon="11.633322"><ele>355.0</ele><time>2026-05-03T09:38:07.783Z</time></trkpt><trkpt lat="43.2355758" lon="11.6333214"><ele>355.0</ele><time>2026-05-03T09:38:19.788Z</time></trkpt><trkpt lat="43.2355156" lon="11.6333539"><ele>355.0</ele><time>2026-05-03T09:38:26.783Z</time></trkpt><trkpt lat="43.2354561" lon="11.6333847"><ele>355.1428571428571</ele><time>2026-05-03T09:38:32.765Z</time></trkpt><trkpt lat="43.2353886" lon="11.6334125"><ele>355.2857142857143</ele><time>2026-05-03T09:38:38.783Z</time></trkpt><trkpt lat="43.235321" lon="11.6334567"><ele>355.42857142857144</ele><time>2026-05-03T09:38:45.726Z</time></trkpt><trkpt lat="43.2352682" lon="11.6335136"><ele>355.57142857142856</ele><time>2026-05-03T09:38:51.801Z</time></trkpt><trkpt lat="43.2352099" lon="11.6335709"><ele>355.7142857142857</ele><time>2026-05-03T09:38:55.819Z</time></trkpt><trkpt lat="43.2351576" lon="11.6336289"><ele>355.85714285714283</ele><time>2026-05-03T09:38:58.776Z</time></trkpt><trkpt lat="43.2351005" lon="11.6336738"><ele>356.0</ele><time>2026-05-03T09:39:01.759Z</time></trkpt><trkpt lat="43.2350356" lon="11.633733"><ele>356.4285714285714</ele><time>2026-05-03T09:39:05.793Z</time></trkpt><trkpt lat="43.2349804" lon="11.6337794"><ele>356.85714285714283</ele><time>2026-05-03T09:39:08.787Z</time></trkpt><trkpt lat="43.2349193" lon="11.6338164"><ele>357.2857142857143</ele><time>2026-05-03T09:39:11.762Z</time></trkpt><trkpt lat="43.2348461" lon="11.6338396"><ele>357.71428571428567</ele><time>2026-05-03T09:39:14.793Z</time></trkpt><trkpt lat="43.2347679" lon="11.6338814"><ele>358.14285714285717</ele><time>2026-05-03T09:39:18.782Z</time></trkpt><trkpt lat="43.2347089" lon="11.633953"><ele>358.57142857142856</ele><time>2026-05-03T09:39:22.79Z</time></trkpt><trkpt lat="43.2346673" lon="11.6340415"><ele>359.0</ele><time>2026-05-03T09:39:26.773Z</time></trkpt><trkpt lat="43.234688" lon="11.6341274"><ele>359.0</ele><time>2026-05-03T09:39:31.816Z</time></trkpt><trkpt lat="43.2347539" lon="11.634162"><ele>359.0</ele><time>2026-05-03T09:39:34.688Z</time></trkpt><trkpt lat="43.2348303" lon="11.6341954"><ele>359.0</ele><time>2026-05-03T09:39:38.775Z</time></trkpt><trkpt lat="43.2348809" lon="11.6342564"><ele>359.0</ele><time>2026-05-03T09:39:42.751Z</time></trkpt><trkpt lat="43.2349143" lon="11.6343298"><ele>359.0</ele><time>2026-05-03T09:39:46.788Z</time></trkpt><trkpt lat="43.2349383" lon="11.6344134"><ele>359.0</ele><time>2026-05-03T09:39:50.764Z</time></trkpt><trkpt lat="43.234998" lon="11.6344675"><ele>359.0</ele><time>2026-05-03T09:39:54.786Z</time></trkpt><trkpt lat="43.2350516" lon="11.6345163"><ele>356.83333333333337</ele><time>2026-05-03T09:39:58.759Z</time></trkpt><trkpt lat="43.2351086" lon="11.6345937"><ele>354.6666666666667</ele><time>2026-05-03T09:40:03.807Z</time></trkpt><trkpt lat="43.2351838" lon="11.6346285"><ele>352.5</ele><time>2026-05-03T09:40:07.786Z</time></trkpt><trkpt lat="43.2352412" lon="11.6346827"><ele>350.3333333333333</ele><time>2026-05-03T09:40:10.825Z</time></trkpt><trkpt lat="43.2352883" lon="11.6347586"><ele>348.16666666666663</ele><time>2026-05-03T09:40:13.817Z</time></trkpt><trkpt lat="43.2353292" lon="11.6348316"><ele>346.0</ele><time>2026-05-03T09:40:16.723Z</time></trkpt><trkpt lat="43.2353791" lon="11.6349201"><ele>346.0</ele><time>2026-05-03T09:40:20.705Z</time></trkpt><trkpt lat="43.2354086" lon="11.6350261"><ele>346.0</ele><time>2026-05-03T09:40:24.761Z</time></trkpt><trkpt lat="43.2354468" lon="11.6351145"><ele>346.0</ele><time>2026-05-03T09:40:28.789Z</time></trkpt><trkpt lat="43.2354982" lon="11.6352089"><ele>346.0</ele><time>2026-05-03T09:40:32.858Z</time></trkpt><trkpt lat="43.2355481" lon="11.6352926"><ele>346.0</ele><time>2026-05-03T09:40:36.725Z</time></trkpt><trkpt lat="43.2355792" lon="11.6353705"><ele>346.0</ele><time>2026-05-03T09:40:39.779Z</time></trkpt><trkpt lat="43.2356101" lon="11.6354482"><ele>346.7142857142857</ele><time>2026-05-03T09:40:42.682Z</time></trkpt><trkpt lat="43.2356461" lon="11.6355286"><ele>347.42857142857144</ele><time>2026-05-03T09:40:45.77Z</time></trkpt><trkpt lat="43.2356866" lon="11.635599"><ele>348.14285714285717</ele><time>2026-05-03T09:40:48.685Z</time></trkpt><trkpt lat="43.2357242" lon="11.6356853"><ele>348.8571428571429</ele><time>2026-05-03T09:40:51.794Z</time></trkpt><trkpt lat="43.235762" lon="11.6357617"><ele>349.57142857142856</ele><time>2026-05-03T09:40:54.815Z</time></trkpt><trkpt lat="43.2357982" lon="11.635845"><ele>350.28571428571433</ele><time>2026-05-03T09:40:57.772Z</time></trkpt><trkpt lat="43.2358245" lon="11.6359458"><ele>351.0</ele><time>2026-05-03T09:41:00.79Z</time></trkpt><trkpt lat="43.2358492" lon="11.6360365"><ele>351.00000000000006</ele><time>2026-05-03T09:41:03.725Z</time></trkpt><trkpt lat="43.2358959" lon="11.6361074"><ele>351.0</ele><time>2026-05-03T09:41:06.749Z</time></trkpt><trkpt lat="43.2359501" lon="11.6361735"><ele>351.0</ele><time>2026-05-03T09:41:09.737Z</time></trkpt><trkpt lat="43.2360055" lon="11.6362484"><ele>351.0</ele><time>2026-05-03T09:41:13.796Z</time></trkpt><trkpt lat="43.236051" lon="11.6363379"><ele>351.0</ele><time>2026-05-03T09:41:17.846Z</time></trkpt><trkpt lat="43.2360619" lon="11.6364331"><ele>351.00000000000006</ele><time>2026-05-03T09:41:20.721Z</time></trkpt><trkpt lat="43.2360734" lon="11.6365356"><ele>351.0</ele><time>2026-05-03T09:41:23.809Z</time></trkpt><trkpt lat="43.2360889" lon="11.6366402"><ele>349.5714285714286</ele><time>2026-05-03T09:41:26.829Z</time></trkpt><trkpt lat="43.2361118" lon="11.6367367"><ele>348.14285714285717</ele><time>2026-05-03T09:41:29.79Z</time></trkpt><trkpt lat="43.2361362" lon="11.6368273"><ele>346.7142857142857</ele><time>2026-05-03T09:41:32.68Z</time></trkpt><trkpt lat="43.2361711" lon="11.6369031"><ele>345.28571428571433</ele><time>2026-05-03T09:41:35.601Z</time></trkpt><trkpt lat="43.2362093" lon="11.6369748"><ele>343.8571428571429</ele><time>2026-05-03T09:41:38.631Z</time></trkpt><trkpt lat="43.2362516" lon="11.6370693"><ele>342.42857142857144</ele><time>2026-05-03T09:41:42.815Z</time></trkpt><trkpt lat="43.2362916" lon="11.6371559"><ele>341.0</ele><time>2026-05-03T09:41:46.784Z</time></trkpt><trkpt lat="43.2363448" lon="11.6372422"><ele>341.85714285714283</ele><time>2026-05-03T09:41:50.744Z</time></trkpt><trkpt lat="43.2364043" lon="11.6372958"><ele>342.7142857142857</ele><time>2026-05-03T09:41:54.822Z</time></trkpt><trkpt lat="43.2364725" lon="11.6373468"><ele>343.57142857142856</ele><time>2026-05-03T09:41:58.8Z</time></trkpt><trkpt lat="43.2365298" lon="11.6373972"><ele>344.42857142857144</ele><time>2026-05-03T09:42:02.764Z</time></trkpt><trkpt lat="43.2365854" lon="11.6374394"><ele>345.2857142857143</ele><time>2026-05-03T09:42:06.784Z</time></trkpt><trkpt lat="43.2366539" lon="11.6374599"><ele>346.14285714285717</ele><time>2026-05-03T09:42:10.8Z</time></trkpt><trkpt lat="43.2367275" lon="11.6374857"><ele>347.0</ele><time>2026-05-03T09:42:15.793Z</time></trkpt><trkpt lat="43.236797" lon="11.6375097"><ele>347.0</ele><time>2026-05-03T09:42:19.804Z</time></trkpt><trkpt lat="43.2368592" lon="11.6375777"><ele>347.0</ele><time>2026-05-03T09:42:24.792Z</time></trkpt><trkpt lat="43.2369246" lon="11.6376301"><ele>347.0</ele><time>2026-05-03T09:42:28.756Z</time></trkpt><trkpt lat="43.2369948" lon="11.6376779"><ele>347.0</ele><time>2026-05-03T09:42:32.814Z</time></trkpt><trkpt lat="43.2370577" lon="11.6377232"><ele>347.0</ele><time>2026-05-03T09:42:36.742Z</time></trkpt><trkpt lat="43.2371202" lon="11.637776"><ele>347.0</ele><time>2026-05-03T09:42:40.769Z</time></trkpt><trkpt lat="43.2371847" lon="11.6378207"><ele>345.7142857142857</ele><time>2026-05-03T09:42:44.77Z</time></trkpt><trkpt lat="43.2372526" lon="11.6378353"><ele>344.4285714285714</ele><time>2026-05-03T09:42:48.827Z</time></trkpt><trkpt lat="43.2373292" lon="11.637843"><ele>343.1428571428571</ele><time>2026-05-03T09:42:52.466Z</time></trkpt><trkpt lat="43.2374092" lon="11.6378316"><ele>341.8571428571429</ele><time>2026-05-03T09:42:55.767Z</time></trkpt><trkpt lat="43.2374853" lon="11.6378316"><ele>340.57142857142856</ele><time>2026-05-03T09:42:59.805Z</time></trkpt><trkpt lat="43.2375529" lon="11.6378528"><ele>339.2857142857143</ele><time>2026-05-03T09:43:04.768Z</time></trkpt><trkpt lat="43.2376011" lon="11.6379089"><ele>338.0</ele><time>2026-05-03T09:43:07.762Z</time></trkpt><trkpt lat="43.2376409" lon="11.637979"><ele>338.0</ele><time>2026-05-03T09:43:10.747Z</time></trkpt><trkpt lat="43.2376914" lon="11.6380518"><ele>338.0</ele><time>2026-05-03T09:43:14.668Z</time></trkpt><trkpt lat="43.2377517" lon="11.638094"><ele>338.0</ele><time>2026-05-03T09:43:18.699Z</time></trkpt><trkpt lat="43.2378242" lon="11.6380914"><ele>338.0</ele><time>2026-05-03T09:43:21.774Z</time></trkpt><trkpt lat="43.2378893" lon="11.6381419"><ele>338.0</ele><time>2026-05-03T09:43:25.787Z</time></trkpt><trkpt lat="43.2379494" lon="11.6381885"><ele>338.0</ele><time>2026-05-03T09:43:28.796Z</time></trkpt><trkpt lat="43.2380137" lon="11.6382292"><ele>338.0</ele><time>2026-05-03T09:43:31.815Z</time></trkpt><trkpt lat="43.2380927" lon="11.6382558"><ele>340.1666666666667</ele><time>2026-05-03T09:43:35.789Z</time></trkpt><trkpt lat="43.2381698" lon="11.6382944"><ele>342.33333333333337</ele><time>2026-05-03T09:43:39.778Z</time></trkpt><trkpt lat="43.2382347" lon="11.6383592"><ele>344.5</ele><time>2026-05-03T09:43:43.758Z</time></trkpt><trkpt lat="43.2382853" lon="11.6384169"><ele>346.6666666666667</ele><time>2026-05-03T09:43:46.831Z</time></trkpt><trkpt lat="43.2383369" lon="11.6384937"><ele>348.8333333333333</ele><time>2026-05-03T09:43:50.739Z</time></trkpt><trkpt lat="43.2384125" lon="11.6385367"><ele>351.0</ele><time>2026-05-03T09:43:54.725Z</time></trkpt><trkpt lat="43.2384734" lon="11.6385735"><ele>351.0</ele><time>2026-05-03T09:43:57.789Z</time></trkpt><trkpt lat="43.2385418" lon="11.6386323"><ele>351.0</ele><time>2026-05-03T09:44:01.798Z</time></trkpt><trkpt lat="43.2386169" lon="11.6386797"><ele>351.0</ele><time>2026-05-03T09:44:04.723Z</time></trkpt><trkpt lat="43.2386884" lon="11.6386938"><ele>351.0</ele><time>2026-05-03T09:44:06.782Z</time></trkpt><trkpt lat="43.2387552" lon="11.6387143"><ele>351.0</ele><time>2026-05-03T09:44:08.774Z</time></trkpt><trkpt lat="43.2388324" lon="11.6387729"><ele>351.0</ele><time>2026-05-03T09:44:11.8Z</time></trkpt><trkpt lat="43.2388928" lon="11.6388456"><ele>350.28571428571433</ele><time>2026-05-03T09:44:14.788Z</time></trkpt><trkpt lat="43.2389453" lon="11.6389197"><ele>349.57142857142856</ele><time>2026-05-03T09:44:17.805Z</time></trkpt><trkpt lat="43.2390016" lon="11.6389992"><ele>348.8571428571429</ele><time>2026-05-03T09:44:20.759Z</time></trkpt><trkpt lat="43.2390491" lon="11.6390895"><ele>348.14285714285717</ele><time>2026-05-03T09:44:23.758Z</time></trkpt><trkpt lat="43.2390856" lon="11.6391739"><ele>347.42857142857144</ele><time>2026-05-03T09:44:26.769Z</time></trkpt><trkpt lat="43.2391275" lon="11.6392575"><ele>346.7142857142857</ele><time>2026-05-03T09:44:30.774Z</time></trkpt><trkpt lat="43.2391738" lon="11.639321"><ele>346.0</ele><time>2026-05-03T09:44:35.786Z</time></trkpt><trkpt lat="43.2392327" lon="11.6393807"><ele>346.16666666666663</ele><time>2026-05-03T09:44:42.809Z</time></trkpt><trkpt lat="43.2392608" lon="11.6394719"><ele>346.3333333333333</ele><time>2026-05-03T09:44:50.831Z</time></trkpt><trkpt lat="43.2393132" lon="11.6395947"><ele>346.5</ele><time>2026-05-03T09:45:19.81Z</time></trkpt><trkpt lat="43.2393484" lon="11.639669"><ele>346.6666666666667</ele><time>2026-05-03T09:45:26.763Z</time></trkpt><trkpt lat="43.2393285" lon="11.6397598"><ele>346.83333333333337</ele><time>2026-05-03T09:45:32.787Z</time></trkpt><trkpt lat="43.2393238" lon="11.6398599"><ele>347.0</ele><time>2026-05-03T09:45:39.776Z</time></trkpt><trkpt lat="43.2393166" lon="11.6399564"><ele>347.0</ele><time>2026-05-03T09:45:46.788Z</time></trkpt><trkpt lat="43.239308" lon="11.6400515"><ele>347.0</ele><time>2026-05-03T09:45:53.762Z</time></trkpt><trkpt lat="43.2392616" lon="11.6401185"><ele>347.0</ele><time>2026-05-03T09:45:59.783Z</time></trkpt><trkpt lat="43.2392168" lon="11.6401887"><ele>347.0</ele><time>2026-05-03T09:46:02.723Z</time></trkpt><trkpt lat="43.2391624" lon="11.6402456"><ele>347.0</ele><time>2026-05-03T09:46:05.785Z</time></trkpt><trkpt lat="43.2391327" lon="11.6403438"><ele>347.0</ele><time>2026-05-03T09:46:09.775Z</time></trkpt><trkpt lat="43.2391468" lon="11.6404437"><ele>347.0</ele><time>2026-05-03T09:46:13.777Z</time></trkpt><trkpt lat="43.2391661" lon="11.6405286"><ele>347.42857142857144</ele><time>2026-05-03T09:46:17.781Z</time></trkpt><trkpt lat="43.2391977" lon="11.6406238"><ele>347.85714285714283</ele><time>2026-05-03T09:46:21.785Z</time></trkpt><trkpt lat="43.2392304" lon="11.6407253"><ele>348.2857142857143</ele><time>2026-05-03T09:46:25.796Z</time></trkpt><trkpt lat="43.2392721" lon="11.6408206"><ele>348.7142857142857</ele><time>2026-05-03T09:46:29.747Z</time></trkpt><trkpt lat="43.2393123" lon="11.640891"><ele>349.1428571428571</ele><time>2026-05-03T09:46:32.722Z</time></trkpt><trkpt lat="43.2393466" lon="11.6409773"><ele>349.57142857142856</ele><time>2026-05-03T09:46:35.782Z</time></trkpt><trkpt lat="43.2393817" lon="11.6410658"><ele>350.0</ele><time>2026-05-03T09:46:38.681Z</time></trkpt><trkpt lat="43.2394185" lon="11.6411596"><ele>348.42857142857144</ele><time>2026-05-03T09:46:41.803Z</time></trkpt><trkpt lat="43.2394593" lon="11.6412434"><ele>346.8571428571429</ele><time>2026-05-03T09:46:44.728Z</time></trkpt><trkpt lat="43.2394956" lon="11.641332"><ele>345.2857142857143</ele><time>2026-05-03T09:46:47.778Z</time></trkpt><trkpt lat="43.239534" lon="11.6414062"><ele>343.7142857142857</ele><time>2026-05-03T09:46:50.78Z</time></trkpt><trkpt lat="43.2395946" lon="11.64146"><ele>342.14285714285717</ele><time>2026-05-03T09:46:53.79Z</time></trkpt><trkpt lat="43.2396623" lon="11.6415003"><ele>340.57142857142856</ele><time>2026-05-03T09:46:56.803Z</time></trkpt><trkpt lat="43.2397247" lon="11.6415599"><ele>339.0</ele><time>2026-05-03T09:46:59.809Z</time></trkpt><trkpt lat="43.2397848" lon="11.6416373"><ele>338.8333333333333</ele><time>2026-05-03T09:47:02.772Z</time></trkpt><trkpt lat="43.2398241" lon="11.64171"><ele>338.6666666666667</ele><time>2026-05-03T09:47:05.378Z</time></trkpt><trkpt lat="43.239857" lon="11.641785"><ele>338.5</ele><time>2026-05-03T09:47:07.805Z</time></trkpt><trkpt lat="43.2399038" lon="11.6418817"><ele>338.33333333333337</ele><time>2026-05-03T09:47:10.764Z</time></trkpt><trkpt lat="43.2399471" lon="11.6419754"><ele>338.1666666666667</ele><time>2026-05-03T09:47:13.764Z</time></trkpt><trkpt lat="43.2400003" lon="11.6420685"><ele>338.0</ele><time>2026-05-03T09:47:16.772Z</time></trkpt><trkpt lat="43.2400582" lon="11.6421529"><ele>336.0</ele><time>2026-05-03T09:47:19.79Z</time></trkpt><trkpt lat="43.24011" lon="11.6422403"><ele>334.0</ele><time>2026-05-03T09:47:22.798Z</time></trkpt><trkpt lat="43.2401664" lon="11.6423376"><ele>332.0</ele><time>2026-05-03T09:47:25.763Z</time></trkpt><trkpt lat="43.2402148" lon="11.6423962"><ele>330.0</ele><time>2026-05-03T09:47:27.682Z</time></trkpt><trkpt lat="43.2402647" lon="11.64245"><ele>328.0</ele><time>2026-05-03T09:47:29.67Z</time></trkpt><trkpt lat="43.2403193" lon="11.6424971"><ele>326.0</ele><time>2026-05-03T09:47:31.812Z</time></trkpt><trkpt lat="43.2403897" lon="11.6425661"><ele>326.0</ele><time>2026-05-03T09:47:34.772Z</time></trkpt><trkpt lat="43.2404568" lon="11.6426452"><ele>326.0</ele><time>2026-05-03T09:47:37.798Z</time></trkpt><trkpt lat="43.2405169" lon="11.6427234"><ele>326.0</ele><time>2026-05-03T09:47:40.779Z</time></trkpt><trkpt lat="43.2405811" lon="11.6427772"><ele>326.0</ele><time>2026-05-03T09:47:43.765Z</time></trkpt><trkpt lat="43.2406273" lon="11.6428383"><ele>326.0</ele><time>2026-05-03T09:47:46.627Z</time></trkpt><trkpt lat="43.2406788" lon="11.6429084"><ele>326.0</ele><time>2026-05-03T09:47:49.803Z</time></trkpt><trkpt lat="43.240723" lon="11.6429711"><ele>326.0</ele><time>2026-05-03T09:47:52.733Z</time></trkpt><trkpt lat="43.2407941" lon="11.6430167"><ele>323.33333333333337</ele><time>2026-05-03T09:47:55.773Z</time></trkpt><trkpt lat="43.2408643" lon="11.6430643"><ele>320.6666666666667</ele><time>2026-05-03T09:47:58.798Z</time></trkpt><trkpt lat="43.240923" lon="11.6431254"><ele>318.0</ele><time>2026-05-03T09:48:01.787Z</time></trkpt><trkpt lat="43.2409742" lon="11.6431923"><ele>315.3333333333333</ele><time>2026-05-03T09:48:04.645Z</time></trkpt><trkpt lat="43.2410312" lon="11.6432652"><ele>312.66666666666663</ele><time>2026-05-03T09:48:07.482Z</time></trkpt><trkpt lat="43.2410927" lon="11.6433349"><ele>310.0</ele><time>2026-05-03T09:48:10.349Z</time></trkpt><trkpt lat="43.2411554" lon="11.6434058"><ele>310.0</ele><time>2026-05-03T09:48:13.308Z</time></trkpt><trkpt lat="43.2412263" lon="11.6434659"><ele>310.0</ele><time>2026-05-03T09:48:16.286Z</time></trkpt><trkpt lat="43.2412988" lon="11.6435304"><ele>310.0</ele><time>2026-05-03T09:48:19.245Z</time></trkpt><trkpt lat="43.2413732" lon="11.6435952"><ele>310.0</ele><time>2026-05-03T09:48:22.145Z</time></trkpt><trkpt lat="43.2414264" lon="11.6436777"><ele>310.0</ele><time>2026-05-03T09:48:25.167Z</time></trkpt><trkpt lat="43.241499" lon="11.6437519"><ele>310.0</ele><time>2026-05-03T09:48:28.548Z</time></trkpt><trkpt lat="43.2415713" lon="11.643819"><ele>309.14285714285717</ele><time>2026-05-03T09:48:31.685Z</time></trkpt><trkpt lat="43.2416324" lon="11.6438697"><ele>308.2857142857143</ele><time>2026-05-03T09:48:34.759Z</time></trkpt><trkpt lat="43.2416948" lon="11.6438818"><ele>307.42857142857144</ele><time>2026-05-03T09:48:37.744Z</time></trkpt><trkpt lat="43.2417464" lon="11.6438124"><ele>306.57142857142856</ele><time>2026-05-03T09:48:40.776Z</time></trkpt><trkpt lat="43.2418053" lon="11.6437392"><ele>305.7142857142857</ele><time>2026-05-03T09:48:43.852Z</time></trkpt><trkpt lat="43.2418583" lon="11.6436811"><ele>304.85714285714283</ele><time>2026-05-03T09:48:46.719Z</time></trkpt><trkpt lat="43.2419175" lon="11.6436277"><ele>304.0</ele><time>2026-05-03T09:48:49.766Z</time></trkpt><trkpt lat="43.2419743" lon="11.6435811"><ele>304.0</ele><time>2026-05-03T09:48:52.784Z</time></trkpt><trkpt lat="43.2420297" lon="11.6435303"><ele>304.0</ele><time>2026-05-03T09:48:55.769Z</time></trkpt><trkpt lat="43.2420991" lon="11.6434699"><ele>304.0</ele><time>2026-05-03T09:48:59.783Z</time></trkpt><trkpt lat="43.2421671" lon="11.6434107"><ele>304.0</ele><time>2026-05-03T09:49:03.781Z</time></trkpt><trkpt lat="43.2422446" lon="11.6434001"><ele>304.0</ele><time>2026-05-03T09:49:07.725Z</time></trkpt><trkpt lat="43.2423036" lon="11.6434837"><ele>304.0</ele><time>2026-05-03T09:49:10.829Z</time></trkpt><trkpt lat="43.2423673" lon="11.6435587"><ele>302.5</ele><time>2026-05-03T09:49:13.777Z</time></trkpt><trkpt lat="43.2424241" lon="11.6436357"><ele>301.0</ele><time>2026-05-03T09:49:16.769Z</time></trkpt><trkpt lat="43.2424753" lon="11.6437139"><ele>299.5</ele><time>2026-05-03T09:49:19.754Z</time></trkpt><trkpt lat="43.2425193" lon="11.6437953"><ele>298.0</ele><time>2026-05-03T09:49:22.801Z</time></trkpt><trkpt lat="43.2425563" lon="11.6438813"><ele>296.5</ele><time>2026-05-03T09:49:25.81Z</time></trkpt><trkpt lat="43.2426038" lon="11.6439635"><ele>295.0</ele><time>2026-05-03T09:49:28.669Z</time></trkpt><trkpt lat="43.2426652" lon="11.6440521"><ele>295.0</ele><time>2026-05-03T09:49:31.801Z</time></trkpt><trkpt lat="43.2427225" lon="11.6441382"><ele>295.0</ele><time>2026-05-03T09:49:34.794Z</time></trkpt><trkpt lat="43.2427727" lon="11.6442268"><ele>295.0</ele><time>2026-05-03T09:49:37.809Z</time></trkpt><trkpt lat="43.2428165" lon="11.6443108"><ele>295.0</ele><time>2026-05-03T09:49:40.782Z</time></trkpt><trkpt lat="43.2428605" lon="11.6443937"><ele>295.0</ele><time>2026-05-03T09:49:43.823Z</time></trkpt><trkpt lat="43.2429079" lon="11.6444702"><ele>295.0</ele><time>2026-05-03T09:49:46.78Z</time></trkpt><trkpt lat="43.2429532" lon="11.6445481"><ele>294.7142857142857</ele><time>2026-05-03T09:49:49.847Z</time></trkpt><trkpt lat="43.2430027" lon="11.6446246"><ele>294.42857142857144</ele><time>2026-05-03T09:49:52.776Z</time></trkpt><trkpt lat="43.243052" lon="11.6447091"><ele>294.1428571428571</ele><time>2026-05-03T09:49:55.829Z</time></trkpt><trkpt lat="43.2431011" lon="11.6447811"><ele>293.8571428571429</ele><time>2026-05-03T09:49:58.777Z</time></trkpt><trkpt lat="43.243153" lon="11.644854"><ele>293.57142857142856</ele><time>2026-05-03T09:50:01.812Z</time></trkpt><trkpt lat="43.2432005" lon="11.6449181"><ele>293.2857142857143</ele><time>2026-05-03T09:50:04.721Z</time></trkpt><trkpt lat="43.2432477" lon="11.6449829"><ele>293.0</ele><time>2026-05-03T09:50:07.781Z</time></trkpt><trkpt lat="43.2432971" lon="11.6450489"><ele>292.85714285714283</ele><time>2026-05-03T09:50:10.727Z</time></trkpt><trkpt lat="43.2433413" lon="11.6451233"><ele>292.7142857142857</ele><time>2026-05-03T09:50:13.803Z</time></trkpt><trkpt lat="43.2433862" lon="11.6451941"><ele>292.57142857142856</ele><time>2026-05-03T09:50:16.782Z</time></trkpt><trkpt lat="43.2434332" lon="11.6452622"><ele>292.42857142857144</ele><time>2026-05-03T09:50:19.773Z</time></trkpt><trkpt lat="43.2434788" lon="11.6453412"><ele>292.2857142857143</ele><time>2026-05-03T09:50:22.814Z</time></trkpt><trkpt lat="43.243522" lon="11.6454215"><ele>292.1428571428571</ele><time>2026-05-03T09:50:25.798Z</time></trkpt><trkpt lat="43.2435697" lon="11.6455229"><ele>292.0</ele><time>2026-05-03T09:50:28.83Z</time></trkpt><trkpt lat="43.2436263" lon="11.6456091"><ele>292.0</ele><time>2026-05-03T09:50:31.781Z</time></trkpt><trkpt lat="43.2436755" lon="11.6457006"><ele>292.0</ele><time>2026-05-03T09:50:34.801Z</time></trkpt><trkpt lat="43.2437186" lon="11.6457896"><ele>292.0</ele><time>2026-05-03T09:50:37.792Z</time></trkpt><trkpt lat="43.2437483" lon="11.6458756"><ele>292.0</ele><time>2026-05-03T09:50:40.775Z</time></trkpt><trkpt lat="43.2437932" lon="11.6459554"><ele>292.0</ele><time>2026-05-03T09:50:43.78Z</time></trkpt><trkpt lat="43.2438472" lon="11.6460292"><ele>292.0</ele><time>2026-05-03T09:50:46.745Z</time></trkpt><trkpt lat="43.243901" lon="11.6461106"><ele>291.66666666666663</ele><time>2026-05-03T09:50:49.789Z</time></trkpt><trkpt lat="43.2439487" lon="11.6461889"><ele>291.3333333333333</ele><time>2026-05-03T09:50:52.8Z</time></trkpt><trkpt lat="43.2439991" lon="11.6462736"><ele>291.0</ele><time>2026-05-03T09:50:55.807Z</time></trkpt><trkpt lat="43.2440382" lon="11.6463575"><ele>290.6666666666667</ele><time>2026-05-03T09:50:58.815Z</time></trkpt><trkpt lat="43.2440854" lon="11.6464341"><ele>290.33333333333337</ele><time>2026-05-03T09:51:01.686Z</time></trkpt><trkpt lat="43.2441313" lon="11.64652"><ele>290.0</ele><time>2026-05-03T09:51:04.82Z</time></trkpt><trkpt lat="43.2441766" lon="11.6466022"><ele>289.6666666666667</ele><time>2026-05-03T09:51:07.796Z</time></trkpt><trkpt lat="43.2442245" lon="11.6466898"><ele>289.33333333333337</ele><time>2026-05-03T09:51:10.81Z</time></trkpt><trkpt lat="43.2442786" lon="11.6467675"><ele>289.0</ele><time>2026-05-03T09:51:13.778Z</time></trkpt><trkpt lat="43.2443304" lon="11.6468483"><ele>288.6666666666667</ele><time>2026-05-03T09:51:16.82Z</time></trkpt><trkpt lat="43.2443805" lon="11.6469243"><ele>288.3333333333333</ele><time>2026-05-03T09:51:19.777Z</time></trkpt><trkpt lat="43.244434" lon="11.6470081"><ele>288.0</ele><time>2026-05-03T09:51:22.83Z</time></trkpt><trkpt lat="43.2444847" lon="11.6470973"><ele>288.0</ele><time>2026-05-03T09:51:25.794Z</time></trkpt><trkpt lat="43.2445329" lon="11.6471801"><ele>288.0</ele><time>2026-05-03T09:51:28.783Z</time></trkpt><trkpt lat="43.244579" lon="11.6472553"><ele>288.0</ele><time>2026-05-03T09:51:31.781Z</time></trkpt><trkpt lat="43.2446256" lon="11.6473303"><ele>288.0</ele><time>2026-05-03T09:51:34.764Z</time></trkpt><trkpt lat="43.2446769" lon="11.647415"><ele>288.0</ele><time>2026-05-03T09:51:38.709Z</time></trkpt><trkpt lat="43.2447314" lon="11.6475"><ele>288.0</ele><time>2026-05-03T09:51:42.678Z</time></trkpt><trkpt lat="43.244777" lon="11.6475809"><ele>288.00000000000006</ele><time>2026-05-03T09:51:45.8Z</time></trkpt><trkpt lat="43.2448253" lon="11.6476651"><ele>288.0</ele><time>2026-05-03T09:51:48.744Z</time></trkpt><trkpt lat="43.2448737" lon="11.6477469"><ele>288.0</ele><time>2026-05-03T09:51:51.783Z</time></trkpt><trkpt lat="43.244923" lon="11.6478168"><ele>288.0</ele><time>2026-05-03T09:51:54.798Z</time></trkpt><trkpt lat="43.2449672" lon="11.6478862"><ele>288.0</ele><time>2026-05-03T09:51:57.721Z</time></trkpt><trkpt lat="43.2450136" lon="11.6479544"><ele>288.00000000000006</ele><time>2026-05-03T09:52:00.807Z</time></trkpt><trkpt lat="43.2450527" lon="11.6480292"><ele>288.0</ele><time>2026-05-03T09:52:03.789Z</time></trkpt><trkpt lat="43.245096" lon="11.6481057"><ele>288.00000000000006</ele><time>2026-05-03T09:52:06.699Z</time></trkpt><trkpt lat="43.2451398" lon="11.6481861"><ele>288.0</ele><time>2026-05-03T09:52:09.774Z</time></trkpt><trkpt lat="43.2451826" lon="11.6482603"><ele>288.0</ele><time>2026-05-03T09:52:12.785Z</time></trkpt><trkpt lat="43.2452345" lon="11.6483337"><ele>288.0</ele><time>2026-05-03T09:52:15.74Z</time></trkpt><trkpt lat="43.2452788" lon="11.64841"><ele>288.0</ele><time>2026-05-03T09:52:18.799Z</time></trkpt><trkpt lat="43.2453232" lon="11.6484809"><ele>288.00000000000006</ele><time>2026-05-03T09:52:21.8Z</time></trkpt><trkpt lat="43.245369" lon="11.6485507"><ele>288.0</ele><time>2026-05-03T09:52:24.752Z</time></trkpt><trkpt lat="43.2453968" lon="11.6486296"><ele>287.7142857142857</ele><time>2026-05-03T09:52:27.803Z</time></trkpt><trkpt lat="43.245374" lon="11.6487198"><ele>287.42857142857144</ele><time>2026-05-03T09:52:30.806Z</time></trkpt><trkpt lat="43.2453203" lon="11.6487709"><ele>287.1428571428571</ele><time>2026-05-03T09:52:33.781Z</time></trkpt><trkpt lat="43.24526" lon="11.6488504"><ele>286.8571428571429</ele><time>2026-05-03T09:52:37.764Z</time></trkpt><trkpt lat="43.2452091" lon="11.6489194"><ele>286.57142857142856</ele><time>2026-05-03T09:52:40.784Z</time></trkpt><trkpt lat="43.2451737" lon="11.6489959"><ele>286.2857142857143</ele><time>2026-05-03T09:52:43.762Z</time></trkpt><trkpt lat="43.2451382" lon="11.6490807"><ele>286.0</ele><time>2026-05-03T09:52:46.788Z</time></trkpt><trkpt lat="43.2450954" lon="11.6491534"><ele>285.99999999999994</ele><time>2026-05-03T09:52:49.778Z</time></trkpt><trkpt lat="43.2450511" lon="11.6492243"><ele>286.0</ele><time>2026-05-03T09:52:52.782Z</time></trkpt><trkpt lat="43.2450081" lon="11.6493032"><ele>286.0</ele><time>2026-05-03T09:52:55.784Z</time></trkpt><trkpt lat="43.2449636" lon="11.6493859"><ele>286.0</ele><time>2026-05-03T09:52:58.766Z</time></trkpt><trkpt lat="43.2449166" lon="11.6494497"><ele>286.0</ele><time>2026-05-03T09:53:01.629Z</time></trkpt><trkpt lat="43.2448683" lon="11.6495261"><ele>285.99999999999994</ele><time>2026-05-03T09:53:04.84Z</time></trkpt><trkpt lat="43.2448143" lon="11.6496123"><ele>286.0</ele><time>2026-05-03T09:53:08.807Z</time></trkpt><trkpt lat="43.2447719" lon="11.6496831"><ele>286.2857142857143</ele><time>2026-05-03T09:53:11.763Z</time></trkpt><trkpt lat="43.2447233" lon="11.6497637"><ele>286.57142857142856</ele><time>2026-05-03T09:53:14.798Z</time></trkpt><trkpt lat="43.2446759" lon="11.6498439"><ele>286.8571428571429</ele><time>2026-05-03T09:53:17.805Z</time></trkpt><trkpt lat="43.2446307" lon="11.6499286"><ele>287.1428571428571</ele><time>2026-05-03T09:53:20.786Z</time></trkpt><trkpt lat="43.2445862" lon="11.6500103"><ele>287.42857142857144</ele><time>2026-05-03T09:53:23.794Z</time></trkpt><trkpt lat="43.2445442" lon="11.6500781"><ele>287.7142857142857</ele><time>2026-05-03T09:53:26.798Z</time></trkpt><trkpt lat="43.2444969" lon="11.6501527"><ele>288.0</ele><time>2026-05-03T09:53:29.803Z</time></trkpt><trkpt lat="43.244443" lon="11.6502262"><ele>288.28571428571433</ele><time>2026-05-03T09:53:32.924Z</time></trkpt><trkpt lat="43.244383" lon="11.6503046"><ele>288.57142857142856</ele><time>2026-05-03T09:53:36.182Z</time></trkpt><trkpt lat="43.2443365" lon="11.6503832"><ele>288.8571428571429</ele><time>2026-05-03T09:53:39.445Z</time></trkpt><trkpt lat="43.2442875" lon="11.6504568"><ele>289.14285714285717</ele><time>2026-05-03T09:53:42.684Z</time></trkpt><trkpt lat="43.2442486" lon="11.6505341"><ele>289.42857142857144</ele><time>2026-05-03T09:53:45.789Z</time></trkpt><trkpt lat="43.2442141" lon="11.6506089"><ele>289.7142857142857</ele><time>2026-05-03T09:53:48.794Z</time></trkpt><trkpt lat="43.2441797" lon="11.6506816"><ele>290.0</ele><time>2026-05-03T09:53:51.703Z</time></trkpt><trkpt lat="43.2441386" lon="11.6507473"><ele>290.0</ele><time>2026-05-03T09:53:54.69Z</time></trkpt><trkpt lat="43.2440852" lon="11.650815"><ele>290.0</ele><time>2026-05-03T09:53:57.808Z</time></trkpt><trkpt lat="43.2440229" lon="11.650894"><ele>290.0</ele><time>2026-05-03T09:54:01.767Z</time></trkpt><trkpt lat="43.2439955" lon="11.6509762"><ele>290.0</ele><time>2026-05-03T09:54:05.723Z</time></trkpt><trkpt lat="43.2440362" lon="11.6510467"><ele>290.0</ele><time>2026-05-03T09:54:08.825Z</time></trkpt><trkpt lat="43.2440735" lon="11.6511509"><ele>290.0</ele><time>2026-05-03T09:54:12.782Z</time></trkpt><trkpt lat="43.2440935" lon="11.6512402"><ele>290.0</ele><time>2026-05-03T09:54:15.779Z</time></trkpt><trkpt lat="43.2441213" lon="11.6513455"><ele>290.5</ele><time>2026-05-03T09:54:19.784Z</time></trkpt><trkpt lat="43.2441301" lon="11.6514573"><ele>291.0</ele><time>2026-05-03T09:54:23.822Z</time></trkpt><trkpt lat="43.2441622" lon="11.6515645"><ele>291.5</ele><time>2026-05-03T09:54:27.822Z</time></trkpt><trkpt lat="43.2442201" lon="11.6516375"><ele>292.0</ele><time>2026-05-03T09:54:30.771Z</time></trkpt><trkpt lat="43.2442709" lon="11.6517264"><ele>292.5</ele><time>2026-05-03T09:54:33.768Z</time></trkpt><trkpt lat="43.2443175" lon="11.6518226"><ele>293.0</ele><time>2026-05-03T09:54:36.772Z</time></trkpt><trkpt lat="43.2443591" lon="11.6519127"><ele>293.1428571428571</ele><time>2026-05-03T09:54:39.819Z</time></trkpt><trkpt lat="43.2444001" lon="11.6519921"><ele>293.2857142857143</ele><time>2026-05-03T09:54:42.749Z</time></trkpt><trkpt lat="43.2444485" lon="11.6520792"><ele>293.42857142857144</ele><time>2026-05-03T09:54:45.772Z</time></trkpt><trkpt lat="43.2444953" lon="11.6521496"><ele>293.57142857142856</ele><time>2026-05-03T09:54:48.782Z</time></trkpt><trkpt lat="43.2445486" lon="11.6522126"><ele>293.7142857142857</ele><time>2026-05-03T09:54:51.724Z</time></trkpt><trkpt lat="43.2446014" lon="11.6522727"><ele>293.85714285714283</ele><time>2026-05-03T09:54:54.786Z</time></trkpt><trkpt lat="43.2446503" lon="11.6523349"><ele>294.0</ele><time>2026-05-03T09:54:57.768Z</time></trkpt><trkpt lat="43.2446935" lon="11.6524005"><ele>294.0</ele><time>2026-05-03T09:55:00.803Z</time></trkpt><trkpt lat="43.2447366" lon="11.6524701"><ele>294.0</ele><time>2026-05-03T09:55:03.766Z</time></trkpt><trkpt lat="43.2447861" lon="11.6525376"><ele>294.0</ele><time>2026-05-03T09:55:06.782Z</time></trkpt><trkpt lat="43.244843" lon="11.652604"><ele>294.0</ele><time>2026-05-03T09:55:09.8Z</time></trkpt><trkpt lat="43.2448947" lon="11.6526635"><ele>294.0</ele><time>2026-05-03T09:55:12.767Z</time></trkpt><trkpt lat="43.244944" lon="11.6527258"><ele>294.0</ele><time>2026-05-03T09:55:15.832Z</time></trkpt><trkpt lat="43.2449973" lon="11.6528128"><ele>294.0</ele><time>2026-05-03T09:55:19.79Z</time></trkpt><trkpt lat="43.2450539" lon="11.652894"><ele>293.85714285714283</ele><time>2026-05-03T09:55:23.786Z</time></trkpt><trkpt lat="43.2451003" lon="11.652956"><ele>293.7142857142857</ele><time>2026-05-03T09:55:26.752Z</time></trkpt><trkpt lat="43.2451491" lon="11.6530214"><ele>293.57142857142856</ele><time>2026-05-03T09:55:29.82Z</time></trkpt><trkpt lat="43.245192" lon="11.6530868"><ele>293.42857142857144</ele><time>2026-05-03T09:55:32.791Z</time></trkpt><trkpt lat="43.2452434" lon="11.653151"><ele>293.2857142857143</ele><time>2026-05-03T09:55:35.759Z</time></trkpt><trkpt lat="43.2452827" lon="11.6532253"><ele>293.1428571428571</ele><time>2026-05-03T09:55:38.783Z</time></trkpt><trkpt lat="43.2453349" lon="11.6532946"><ele>293.0</ele><time>2026-05-03T09:55:41.823Z</time></trkpt><trkpt lat="43.2453746" lon="11.6533805"><ele>292.99999999999994</ele><time>2026-05-03T09:55:44.705Z</time></trkpt><trkpt lat="43.2454139" lon="11.6534796"><ele>293.0</ele><time>2026-05-03T09:55:47.791Z</time></trkpt><trkpt lat="43.2454527" lon="11.6535668"><ele>293.0</ele><time>2026-05-03T09:55:50.797Z</time></trkpt><trkpt lat="43.2454842" lon="11.653644"><ele>293.0</ele><time>2026-05-03T09:55:53.76Z</time></trkpt><trkpt lat="43.24551" lon="11.6537417"><ele>293.0</ele><time>2026-05-03T09:55:57.658Z</time></trkpt><trkpt lat="43.2455611" lon="11.6538305"><ele>292.99999999999994</ele><time>2026-05-03T09:56:01.724Z</time></trkpt><trkpt lat="43.2456171" lon="11.6538735"><ele>293.0</ele><time>2026-05-03T09:56:04.781Z</time></trkpt><trkpt lat="43.2456742" lon="11.6539246"><ele>293.1428571428571</ele><time>2026-05-03T09:56:07.824Z</time></trkpt><trkpt lat="43.2457172" lon="11.653989"><ele>293.2857142857143</ele><time>2026-05-03T09:56:10.749Z</time></trkpt><trkpt lat="43.2457656" lon="11.6540679"><ele>293.42857142857144</ele><time>2026-05-03T09:56:14.721Z</time></trkpt><trkpt lat="43.2458101" lon="11.6541583"><ele>293.57142857142856</ele><time>2026-05-03T09:56:18.823Z</time></trkpt><trkpt lat="43.2458537" lon="11.6542233"><ele>293.7142857142857</ele><time>2026-05-03T09:56:22.777Z</time></trkpt><trkpt lat="43.2459087" lon="11.654276"><ele>293.85714285714283</ele><time>2026-05-03T09:56:26.762Z</time></trkpt><trkpt lat="43.2459698" lon="11.654327"><ele>294.0</ele><time>2026-05-03T09:56:30.758Z</time></trkpt><trkpt lat="43.2460326" lon="11.6543911"><ele>294.0</ele><time>2026-05-03T09:56:34.77Z</time></trkpt><trkpt lat="43.2460774" lon="11.6544542"><ele>294.0</ele><time>2026-05-03T09:56:37.842Z</time></trkpt><trkpt lat="43.2461231" lon="11.6545332"><ele>294.0</ele><time>2026-05-03T09:56:41.75Z</time></trkpt><trkpt lat="43.2461792" lon="11.65462"><ele>294.0</ele><time>2026-05-03T09:56:45.75Z</time></trkpt><trkpt lat="43.2462253" lon="11.6547094"><ele>294.0</ele><time>2026-05-03T09:56:49.814Z</time></trkpt><trkpt lat="43.2462685" lon="11.6548092"><ele>294.0</ele><time>2026-05-03T09:56:53.793Z</time></trkpt><trkpt lat="43.2463111" lon="11.6548787"><ele>294.0</ele><time>2026-05-03T09:56:56.788Z</time></trkpt><trkpt lat="43.2463646" lon="11.6549447"><ele>294.0</ele><time>2026-05-03T09:56:59.798Z</time></trkpt><trkpt lat="43.2464363" lon="11.6550053"><ele>294.0</ele><time>2026-05-03T09:57:02.782Z</time></trkpt><trkpt lat="43.2465012" lon="11.6550734"><ele>294.0</ele><time>2026-05-03T09:57:05.661Z</time></trkpt><trkpt lat="43.2465612" lon="11.6551421"><ele>294.0</ele><time>2026-05-03T09:57:08.782Z</time></trkpt><trkpt lat="43.2466157" lon="11.6552097"><ele>294.0</ele><time>2026-05-03T09:57:11.788Z</time></trkpt><trkpt lat="43.246663" lon="11.655282"><ele>294.42857142857144</ele><time>2026-05-03T09:57:14.793Z</time></trkpt><trkpt lat="43.2467031" lon="11.6553561"><ele>294.8571428571429</ele><time>2026-05-03T09:57:17.802Z</time></trkpt><trkpt lat="43.2467367" lon="11.655436"><ele>295.2857142857143</ele><time>2026-05-03T09:57:20.802Z</time></trkpt><trkpt lat="43.2467599" lon="11.6555402"><ele>295.7142857142857</ele><time>2026-05-03T09:57:24.785Z</time></trkpt><trkpt lat="43.2467825" lon="11.6556545"><ele>296.14285714285717</ele><time>2026-05-03T09:57:28.77Z</time></trkpt><trkpt lat="43.2467827" lon="11.6557539"><ele>296.57142857142856</ele><time>2026-05-03T09:57:32.837Z</time></trkpt><trkpt lat="43.2467968" lon="11.655847"><ele>297.0</ele><time>2026-05-03T09:57:36.766Z</time></trkpt><trkpt lat="43.2468105" lon="11.6559529"><ele>297.0</ele><time>2026-05-03T09:57:40.78Z</time></trkpt><trkpt lat="43.2468267" lon="11.6560556"><ele>297.0</ele><time>2026-05-03T09:57:44.788Z</time></trkpt><trkpt lat="43.2468419" lon="11.6561712"><ele>297.0</ele><time>2026-05-03T09:57:48.802Z</time></trkpt><trkpt lat="43.2468607" lon="11.6562794"><ele>297.0</ele><time>2026-05-03T09:57:52.788Z</time></trkpt><trkpt lat="43.2468728" lon="11.6563648"><ele>297.0</ele><time>2026-05-03T09:57:55.801Z</time></trkpt><trkpt lat="43.2468862" lon="11.6564519"><ele>297.0</ele><time>2026-05-03T09:57:58.773Z</time></trkpt><trkpt lat="43.2469098" lon="11.6565503"><ele>297.0</ele><time>2026-05-03T09:58:02.775Z</time></trkpt><trkpt lat="43.2469305" lon="11.6566572"><ele>296.5</ele><time>2026-05-03T09:58:06.744Z</time></trkpt><trkpt lat="43.2469359" lon="11.6567498"><ele>296.0</ele><time>2026-05-03T09:58:09.718Z</time></trkpt><trkpt lat="43.2469347" lon="11.6568639"><ele>295.5</ele><time>2026-05-03T09:58:12.793Z</time></trkpt><trkpt lat="43.2469392" lon="11.6569674"><ele>295.0</ele><time>2026-05-03T09:58:15.774Z</time></trkpt><trkpt lat="43.2469456" lon="11.6570726"><ele>294.5</ele><time>2026-05-03T09:58:18.724Z</time></trkpt><trkpt lat="43.2469523" lon="11.6571957"><ele>294.0</ele><time>2026-05-03T09:58:21.799Z</time></trkpt><trkpt lat="43.2469608" lon="11.6573141"><ele>293.6666666666667</ele><time>2026-05-03T09:58:24.794Z</time></trkpt><trkpt lat="43.246961" lon="11.6574281"><ele>293.3333333333333</ele><time>2026-05-03T09:58:27.805Z</time></trkpt><trkpt lat="43.2469545" lon="11.6575405"><ele>293.0</ele><time>2026-05-03T09:58:30.78Z</time></trkpt><trkpt lat="43.2469431" lon="11.6576415"><ele>292.66666666666663</ele><time>2026-05-03T09:58:33.777Z</time></trkpt><trkpt lat="43.2469295" lon="11.6577275"><ele>292.3333333333333</ele><time>2026-05-03T09:58:36.758Z</time></trkpt><trkpt lat="43.2469227" lon="11.6578291"><ele>292.0</ele><time>2026-05-03T09:58:40.744Z</time></trkpt><trkpt lat="43.2469459" lon="11.6579256"><ele>291.8333333333333</ele><time>2026-05-03T09:58:43.771Z</time></trkpt><trkpt lat="43.2469984" lon="11.6580005"><ele>291.66666666666663</ele><time>2026-05-03T09:58:46.819Z</time></trkpt><trkpt lat="43.2470537" lon="11.6580878"><ele>291.5</ele><time>2026-05-03T09:58:49.781Z</time></trkpt><trkpt lat="43.2471169" lon="11.6581658"><ele>291.3333333333333</ele><time>2026-05-03T09:58:52.788Z</time></trkpt><trkpt lat="43.2471824" lon="11.6582257"><ele>291.1666666666667</ele><time>2026-05-03T09:58:55.743Z</time></trkpt><trkpt lat="43.2472536" lon="11.6582694"><ele>291.0</ele><time>2026-05-03T09:58:58.788Z</time></trkpt><trkpt lat="43.2473271" lon="11.6583298"><ele>290.57142857142856</ele><time>2026-05-03T09:59:02.8Z</time></trkpt><trkpt lat="43.2473745" lon="11.6583958"><ele>290.1428571428571</ele><time>2026-05-03T09:59:05.769Z</time></trkpt><trkpt lat="43.2473932" lon="11.6584789"><ele>289.7142857142857</ele><time>2026-05-03T09:59:08.765Z</time></trkpt><trkpt lat="43.247397" lon="11.6585959"><ele>289.2857142857143</ele><time>2026-05-03T09:59:12.764Z</time></trkpt><trkpt lat="43.2474156" lon="11.6586958"><ele>288.8571428571429</ele><time>2026-05-03T09:59:15.758Z</time></trkpt><trkpt lat="43.247438" lon="11.6587911"><ele>288.42857142857144</ele><time>2026-05-03T09:59:18.774Z</time></trkpt><trkpt lat="43.2474573" lon="11.6588859"><ele>288.0</ele><time>2026-05-03T09:59:21.775Z</time></trkpt><trkpt lat="43.2474749" lon="11.6589831"><ele>287.8571428571429</ele><time>2026-05-03T09:59:24.789Z</time></trkpt><trkpt lat="43.2474906" lon="11.659088"><ele>287.7142857142857</ele><time>2026-05-03T09:59:27.808Z</time></trkpt><trkpt lat="43.2475038" lon="11.65918"><ele>287.57142857142856</ele><time>2026-05-03T09:59:30.787Z</time></trkpt><trkpt lat="43.2475211" lon="11.6592909"><ele>287.42857142857144</ele><time>2026-05-03T09:59:34.798Z</time></trkpt><trkpt lat="43.2475443" lon="11.6593755"><ele>287.2857142857143</ele><time>2026-05-03T09:59:37.807Z</time></trkpt><trkpt lat="43.2475695" lon="11.6594677"><ele>287.14285714285717</ele><time>2026-05-03T09:59:40.808Z</time></trkpt><trkpt lat="43.2475824" lon="11.6595605"><ele>287.0</ele><time>2026-05-03T09:59:43.762Z</time></trkpt><trkpt lat="43.2475975" lon="11.659672"><ele>287.0</ele><time>2026-05-03T09:59:47.707Z</time></trkpt><trkpt lat="43.2476032" lon="11.6597705"><ele>287.0</ele><time>2026-05-03T09:59:50.79Z</time></trkpt><trkpt lat="43.2475868" lon="11.6598665"><ele>287.0</ele><time>2026-05-03T09:59:53.781Z</time></trkpt><trkpt lat="43.2475626" lon="11.6599523"><ele>287.0</ele><time>2026-05-03T09:59:56.744Z</time></trkpt><trkpt lat="43.2475179" lon="11.6600459"><ele>287.0</ele><time>2026-05-03T10:00:00.707Z</time></trkpt><trkpt lat="43.2474717" lon="11.6601062"><ele>287.0</ele><time>2026-05-03T10:00:03.809Z</time></trkpt><trkpt lat="43.2474113" lon="11.6601845"><ele>287.0</ele><time>2026-05-03T10:00:07.769Z</time></trkpt><trkpt lat="43.2473609" lon="11.6602413"><ele>287.14285714285717</ele><time>2026-05-03T10:00:10.825Z</time></trkpt><trkpt lat="43.2473105" lon="11.6602989"><ele>287.2857142857143</ele><time>2026-05-03T10:00:13.769Z</time></trkpt><trkpt lat="43.2472582" lon="11.6603609"><ele>287.42857142857144</ele><time>2026-05-03T10:00:16.782Z</time></trkpt><trkpt lat="43.2472133" lon="11.6604459"><ele>287.57142857142856</ele><time>2026-05-03T10:00:20.798Z</time></trkpt><trkpt lat="43.2471832" lon="11.6605247"><ele>287.7142857142857</ele><time>2026-05-03T10:00:25.783Z</time></trkpt><trkpt lat="43.2471748" lon="11.6606221"><ele>287.8571428571429</ele><time>2026-05-03T10:00:33.805Z</time></trkpt><trkpt lat="43.247176" lon="11.6607157"><ele>288.0</ele><time>2026-05-03T10:00:39.774Z</time></trkpt><trkpt lat="43.2472477" lon="11.6607132"><ele>288.00000000000006</ele><time>2026-05-03T10:00:51.76Z</time></trkpt><trkpt lat="43.2472954" lon="11.6606386"><ele>288.0</ele><time>2026-05-03T10:00:58.791Z</time></trkpt><trkpt lat="43.2473445" lon="11.6605666"><ele>288.0</ele><time>2026-05-03T10:01:04.811Z</time></trkpt><trkpt lat="43.2473996" lon="11.6605122"><ele>288.0</ele><time>2026-05-03T10:01:10.77Z</time></trkpt><trkpt lat="43.2474658" lon="11.6604715"><ele>288.0</ele><time>2026-05-03T10:01:16.786Z</time></trkpt><trkpt lat="43.2475353" lon="11.6604299"><ele>288.00000000000006</ele><time>2026-05-03T10:01:22.781Z</time></trkpt><trkpt lat="43.2476073" lon="11.6604123"><ele>288.0</ele><time>2026-05-03T10:01:28.793Z</time></trkpt><trkpt lat="43.2476793" lon="11.6603857"><ele>288.0</ele><time>2026-05-03T10:01:32.79Z</time></trkpt><trkpt lat="43.2477598" lon="11.6603508"><ele>288.0</ele><time>2026-05-03T10:01:36.752Z</time></trkpt><trkpt lat="43.2478261" lon="11.6603325"><ele>288.0</ele><time>2026-05-03T10:01:39.813Z</time></trkpt><trkpt lat="43.2478892" lon="11.6603074"><ele>288.0</ele><time>2026-05-03T10:01:42.801Z</time></trkpt><trkpt lat="43.2479706" lon="11.6603097"><ele>288.0</ele><time>2026-05-03T10:01:46.763Z</time></trkpt><trkpt lat="43.2480437" lon="11.6602894"><ele>288.0</ele><time>2026-05-03T10:01:49.803Z</time></trkpt><trkpt lat="43.2481199" lon="11.6602674"><ele>287.8333333333333</ele><time>2026-05-03T10:01:52.766Z</time></trkpt><trkpt lat="43.2481933" lon="11.6602409"><ele>287.6666666666667</ele><time>2026-05-03T10:01:55.763Z</time></trkpt><trkpt lat="43.2482623" lon="11.660217"><ele>287.5</ele><time>2026-05-03T10:01:58.727Z</time></trkpt><trkpt lat="43.2483417" lon="11.6602083"><ele>287.33333333333337</ele><time>2026-05-03T10:02:01.8Z</time></trkpt><trkpt lat="43.2484277" lon="11.6602341"><ele>287.1666666666667</ele><time>2026-05-03T10:02:04.792Z</time></trkpt><trkpt lat="43.2485011" lon="11.6602886"><ele>287.0</ele><time>2026-05-03T10:02:07.686Z</time></trkpt><trkpt lat="43.2485609" lon="11.6603645"><ele>286.85714285714283</ele><time>2026-05-03T10:02:10.784Z</time></trkpt><trkpt lat="43.2485949" lon="11.6604612"><ele>286.7142857142857</ele><time>2026-05-03T10:02:13.763Z</time></trkpt><trkpt lat="43.2486203" lon="11.6605608"><ele>286.57142857142856</ele><time>2026-05-03T10:02:16.767Z</time></trkpt><trkpt lat="43.2486405" lon="11.6606572"><ele>286.42857142857144</ele><time>2026-05-03T10:02:19.779Z</time></trkpt><trkpt lat="43.2486532" lon="11.6607495"><ele>286.2857142857143</ele><time>2026-05-03T10:02:22.796Z</time></trkpt><trkpt lat="43.2486633" lon="11.6608449"><ele>286.1428571428571</ele><time>2026-05-03T10:02:25.768Z</time></trkpt><trkpt lat="43.248679" lon="11.6609399"><ele>286.0</ele><time>2026-05-03T10:02:29.789Z</time></trkpt><trkpt lat="43.2486905" lon="11.6610275"><ele>285.99999999999994</ele><time>2026-05-03T10:02:32.761Z</time></trkpt><trkpt lat="43.2487006" lon="11.6611265"><ele>286.0</ele><time>2026-05-03T10:02:35.797Z</time></trkpt><trkpt lat="43.2487211" lon="11.661221"><ele>286.0</ele><time>2026-05-03T10:02:38.68Z</time></trkpt><trkpt lat="43.2487539" lon="11.6613"><ele>286.0</ele><time>2026-05-03T10:02:41.791Z</time></trkpt><trkpt lat="43.2487982" lon="11.66137"><ele>286.0</ele><time>2026-05-03T10:02:44.708Z</time></trkpt><trkpt lat="43.2488506" lon="11.6614407"><ele>285.99999999999994</ele><time>2026-05-03T10:02:47.791Z</time></trkpt><trkpt lat="43.248916" lon="11.6614784"><ele>286.0</ele><time>2026-05-03T10:02:50.775Z</time></trkpt><trkpt lat="43.248997" lon="11.661481"><ele>285.99999999999994</ele><time>2026-05-03T10:02:53.758Z</time></trkpt><trkpt lat="43.2490661" lon="11.6614807"><ele>286.0</ele><time>2026-05-03T10:02:56.682Z</time></trkpt><trkpt lat="43.2491335" lon="11.66147"><ele>286.0</ele><time>2026-05-03T10:02:59.787Z</time></trkpt><trkpt lat="43.2492001" lon="11.661437"><ele>286.0</ele><time>2026-05-03T10:03:02.766Z</time></trkpt><trkpt lat="43.2492741" lon="11.6613942"><ele>286.0</ele><time>2026-05-03T10:03:05.789Z</time></trkpt><trkpt lat="43.2493477" lon="11.6613488"><ele>285.99999999999994</ele><time>2026-05-03T10:03:08.723Z</time></trkpt><trkpt lat="43.2494159" lon="11.6613003"><ele>286.0</ele><time>2026-05-03T10:03:11.796Z</time></trkpt><trkpt lat="43.2494803" lon="11.6612544"><ele>285.99999999999994</ele><time>2026-05-03T10:03:14.764Z</time></trkpt><trkpt lat="43.2495531" lon="11.6612131"><ele>286.0</ele><time>2026-05-03T10:03:17.795Z</time></trkpt><trkpt lat="43.2496223" lon="11.6611818"><ele>286.0</ele><time>2026-05-03T10:03:20.823Z</time></trkpt><trkpt lat="43.2496926" lon="11.6611442"><ele>286.0</ele><time>2026-05-03T10:03:24.744Z</time></trkpt><trkpt lat="43.24976" lon="11.6611088"><ele>286.0</ele><time>2026-05-03T10:03:28.668Z</time></trkpt><trkpt lat="43.249823" lon="11.6610819"><ele>285.99999999999994</ele><time>2026-05-03T10:03:32.798Z</time></trkpt><trkpt lat="43.2499054" lon="11.6610628"><ele>286.0</ele><time>2026-05-03T10:03:37.817Z</time></trkpt><trkpt lat="43.2499734" lon="11.6610498"><ele>286.1428571428571</ele><time>2026-05-03T10:03:41.83Z</time></trkpt><trkpt lat="43.2500421" lon="11.661026"><ele>286.2857142857143</ele><time>2026-05-03T10:03:45.783Z</time></trkpt><trkpt lat="43.2501205" lon="11.6609934"><ele>286.42857142857144</ele><time>2026-05-03T10:03:49.764Z</time></trkpt><trkpt lat="43.2501667" lon="11.6609338"><ele>286.57142857142856</ele><time>2026-05-03T10:03:52.763Z</time></trkpt><trkpt lat="43.2501799" lon="11.6608456"><ele>286.7142857142857</ele><time>2026-05-03T10:03:55.786Z</time></trkpt><trkpt lat="43.2501902" lon="11.6607417"><ele>286.85714285714283</ele><time>2026-05-03T10:03:58.785Z</time></trkpt><trkpt lat="43.2502085" lon="11.6606434"><ele>287.0</ele><time>2026-05-03T10:04:01.789Z</time></trkpt><trkpt lat="43.2502218" lon="11.6605445"><ele>287.0</ele><time>2026-05-03T10:04:04.803Z</time></trkpt><trkpt lat="43.2502246" lon="11.6604396"><ele>287.0</ele><time>2026-05-03T10:04:07.824Z</time></trkpt><trkpt lat="43.2502299" lon="11.660335"><ele>287.0</ele><time>2026-05-03T10:04:10.765Z</time></trkpt><trkpt lat="43.2502363" lon="11.6602308"><ele>287.0</ele><time>2026-05-03T10:04:13.806Z</time></trkpt><trkpt lat="43.2502369" lon="11.6601313"><ele>287.0</ele><time>2026-05-03T10:04:16.655Z</time></trkpt><trkpt lat="43.2502402" lon="11.6600251"><ele>287.0</ele><time>2026-05-03T10:04:19.798Z</time></trkpt><trkpt lat="43.2502373" lon="11.659924"><ele>286.7142857142857</ele><time>2026-05-03T10:04:22.775Z</time></trkpt><trkpt lat="43.2502321" lon="11.6598274"><ele>286.42857142857144</ele><time>2026-05-03T10:04:25.765Z</time></trkpt><trkpt lat="43.2502208" lon="11.659729"><ele>286.1428571428571</ele><time>2026-05-03T10:04:28.763Z</time></trkpt><trkpt lat="43.2502081" lon="11.6596278"><ele>285.8571428571429</ele><time>2026-05-03T10:04:31.809Z</time></trkpt><trkpt lat="43.2501969" lon="11.6595358"><ele>285.57142857142856</ele><time>2026-05-03T10:04:34.767Z</time></trkpt><trkpt lat="43.2501851" lon="11.6594466"><ele>285.2857142857143</ele><time>2026-05-03T10:04:37.782Z</time></trkpt><trkpt lat="43.2501796" lon="11.6593537"><ele>285.0</ele><time>2026-05-03T10:04:40.766Z</time></trkpt><trkpt lat="43.250165" lon="11.6592669"><ele>285.0</ele><time>2026-05-03T10:04:43.776Z</time></trkpt><trkpt lat="43.2501567" lon="11.6591635"><ele>285.0</ele><time>2026-05-03T10:04:47.796Z</time></trkpt><trkpt lat="43.2501351" lon="11.6590775"><ele>285.0</ele><time>2026-05-03T10:04:50.765Z</time></trkpt><trkpt lat="43.2501126" lon="11.6589861"><ele>285.0</ele><time>2026-05-03T10:04:53.791Z</time></trkpt><trkpt lat="43.2500885" lon="11.6589062"><ele>285.0</ele><time>2026-05-03T10:04:56.761Z</time></trkpt><trkpt lat="43.2500726" lon="11.6587994"><ele>285.0</ele><time>2026-05-03T10:05:00.781Z</time></trkpt><trkpt lat="43.2500582" lon="11.6586974"><ele>285.0</ele><time>2026-05-03T10:05:04.802Z</time></trkpt><trkpt lat="43.2500936" lon="11.6586239"><ele>285.57142857142856</ele><time>2026-05-03T10:05:12.783Z</time></trkpt><trkpt lat="43.2501531" lon="11.6585815"><ele>286.14285714285717</ele><time>2026-05-03T10:05:39.795Z</time></trkpt><trkpt lat="43.2502258" lon="11.6585807"><ele>286.7142857142857</ele><time>2026-05-03T10:05:48.784Z</time></trkpt><trkpt lat="43.2503004" lon="11.6585859"><ele>287.2857142857143</ele><time>2026-05-03T10:05:52.748Z</time></trkpt><trkpt lat="43.2503652" lon="11.6585919"><ele>287.85714285714283</ele><time>2026-05-03T10:05:57.798Z</time></trkpt><trkpt lat="43.2504295" lon="11.6585974"><ele>288.42857142857144</ele><time>2026-05-03T10:06:01.769Z</time></trkpt><trkpt lat="43.250498" lon="11.6585876"><ele>289.0</ele><time>2026-05-03T10:06:05.799Z</time></trkpt><trkpt lat="43.2505726" lon="11.6585653"><ele>289.14285714285717</ele><time>2026-05-03T10:06:09.805Z</time></trkpt><trkpt lat="43.2506459" lon="11.6585517"><ele>289.2857142857143</ele><time>2026-05-03T10:06:13.804Z</time></trkpt><trkpt lat="43.2507138" lon="11.6585486"><ele>289.42857142857144</ele><time>2026-05-03T10:06:16.766Z</time></trkpt><trkpt lat="43.2507883" lon="11.6585444"><ele>289.57142857142856</ele><time>2026-05-03T10:06:19.8Z</time></trkpt><trkpt lat="43.2508612" lon="11.6585298"><ele>289.7142857142857</ele><time>2026-05-03T10:06:22.684Z</time></trkpt><trkpt lat="43.2509335" lon="11.6585206"><ele>289.8571428571429</ele><time>2026-05-03T10:06:25.788Z</time></trkpt><trkpt lat="43.251013" lon="11.6585153"><ele>290.0</ele><time>2026-05-03T10:06:29.791Z</time></trkpt><trkpt lat="43.2510888" lon="11.6585198"><ele>290.0</ele><time>2026-05-03T10:06:33.75Z</time></trkpt><trkpt lat="43.2511581" lon="11.6585166"><ele>290.0</ele><time>2026-05-03T10:06:37.74Z</time></trkpt><trkpt lat="43.2512322" lon="11.658509"><ele>290.0</ele><time>2026-05-03T10:06:41.806Z</time></trkpt><trkpt lat="43.251313" lon="11.6585046"><ele>290.0</ele><time>2026-05-03T10:06:45.774Z</time></trkpt><trkpt lat="43.2513776" lon="11.6584954"><ele>290.0</ele><time>2026-05-03T10:06:48.792Z</time></trkpt><trkpt lat="43.2514451" lon="11.6584911"><ele>290.0</ele><time>2026-05-03T10:06:51.78Z</time></trkpt><trkpt lat="43.2515317" lon="11.6584814"><ele>290.0</ele><time>2026-05-03T10:06:55.753Z</time></trkpt><trkpt lat="43.251597" lon="11.6584755"><ele>290.42857142857144</ele><time>2026-05-03T10:06:58.771Z</time></trkpt><trkpt lat="43.2516625" lon="11.6584763"><ele>290.8571428571429</ele><time>2026-05-03T10:07:01.801Z</time></trkpt><trkpt lat="43.2517366" lon="11.6584719"><ele>291.2857142857143</ele><time>2026-05-03T10:07:04.789Z</time></trkpt><trkpt lat="43.2518127" lon="11.6584642"><ele>291.7142857142857</ele><time>2026-05-03T10:07:08.745Z</time></trkpt><trkpt lat="43.2518893" lon="11.6584651"><ele>292.1428571428571</ele><time>2026-05-03T10:07:12.701Z</time></trkpt><trkpt lat="43.2519721" lon="11.6584628"><ele>292.57142857142856</ele><time>2026-05-03T10:07:16.839Z</time></trkpt><trkpt lat="43.2520399" lon="11.658463"><ele>293.0</ele><time>2026-05-03T10:07:19.804Z</time></trkpt><trkpt lat="43.2521063" lon="11.6584607"><ele>292.99999999999994</ele><time>2026-05-03T10:07:22.778Z</time></trkpt><trkpt lat="43.2521728" lon="11.6584532"><ele>293.0</ele><time>2026-05-03T10:07:25.799Z</time></trkpt><trkpt lat="43.2522537" lon="11.6584449"><ele>293.0</ele><time>2026-05-03T10:07:29.788Z</time></trkpt><trkpt lat="43.2523272" lon="11.6584496"><ele>293.0</ele><time>2026-05-03T10:07:33.793Z</time></trkpt><trkpt lat="43.2524006" lon="11.65846"><ele>293.0</ele><time>2026-05-03T10:07:37.805Z</time></trkpt><trkpt lat="43.2524652" lon="11.6584804"><ele>292.99999999999994</ele><time>2026-05-03T10:07:41.792Z</time></trkpt><trkpt lat="43.2525424" lon="11.6584865"><ele>293.0</ele><time>2026-05-03T10:07:46.79Z</time></trkpt><trkpt lat="43.2526212" lon="11.6585043"><ele>293.1428571428571</ele><time>2026-05-03T10:07:51.78Z</time></trkpt><trkpt lat="43.2526907" lon="11.6585196"><ele>293.2857142857143</ele><time>2026-05-03T10:07:56.79Z</time></trkpt><trkpt lat="43.2527574" lon="11.6585244"><ele>293.42857142857144</ele><time>2026-05-03T10:07:59.794Z</time></trkpt><trkpt lat="43.2528278" lon="11.6585196"><ele>293.57142857142856</ele><time>2026-05-03T10:08:02.722Z</time></trkpt><trkpt lat="43.2528984" lon="11.6585095"><ele>293.7142857142857</ele><time>2026-05-03T10:08:05.799Z</time></trkpt><trkpt lat="43.2529684" lon="11.6585092"><ele>293.85714285714283</ele><time>2026-05-03T10:08:08.806Z</time></trkpt><trkpt lat="43.2530448" lon="11.6584978"><ele>294.0</ele><time>2026-05-03T10:08:11.751Z</time></trkpt><trkpt lat="43.2531227" lon="11.6584949"><ele>294.2857142857143</ele><time>2026-05-03T10:08:14.775Z</time></trkpt><trkpt lat="43.2531934" lon="11.6584954"><ele>294.57142857142856</ele><time>2026-05-03T10:08:17.777Z</time></trkpt><trkpt lat="43.2532592" lon="11.6585036"><ele>294.8571428571429</ele><time>2026-05-03T10:08:20.821Z</time></trkpt><trkpt lat="43.2533242" lon="11.6585055"><ele>295.1428571428571</ele><time>2026-05-03T10:08:23.73Z</time></trkpt><trkpt lat="43.2533986" lon="11.6585003"><ele>295.42857142857144</ele><time>2026-05-03T10:08:26.794Z</time></trkpt><trkpt lat="43.2534655" lon="11.6585034"><ele>295.7142857142857</ele><time>2026-05-03T10:08:29.799Z</time></trkpt><trkpt lat="43.2535299" lon="11.65851"><ele>296.0</ele><time>2026-05-03T10:08:32.767Z</time></trkpt><trkpt lat="43.2536096" lon="11.6585295"><ele>296.0</ele><time>2026-05-03T10:08:36.778Z</time></trkpt><trkpt lat="43.2536841" lon="11.6585523"><ele>296.0</ele><time>2026-05-03T10:08:40.682Z</time></trkpt><trkpt lat="43.2537476" lon="11.6585711"><ele>296.0</ele><time>2026-05-03T10:08:43.8Z</time></trkpt><trkpt lat="43.2538106" lon="11.6585858"><ele>296.0</ele><time>2026-05-03T10:08:46.794Z</time></trkpt><trkpt lat="43.2538803" lon="11.658603"><ele>296.0</ele><time>2026-05-03T10:08:50.754Z</time></trkpt><trkpt lat="43.2539462" lon="11.6586284"><ele>296.0</ele><time>2026-05-03T10:08:54.722Z</time></trkpt><trkpt lat="43.254015" lon="11.6586552"><ele>296.0</ele><time>2026-05-03T10:08:57.775Z</time></trkpt><trkpt lat="43.2540955" lon="11.6586812"><ele>296.8571428571429</ele><time>2026-05-03T10:09:01.785Z</time></trkpt><trkpt lat="43.2541626" lon="11.6586934"><ele>297.7142857142857</ele><time>2026-05-03T10:09:04.788Z</time></trkpt><trkpt lat="43.254235" lon="11.6587021"><ele>298.57142857142856</ele><time>2026-05-03T10:09:08.794Z</time></trkpt><trkpt lat="43.2543031" lon="11.6587074"><ele>299.42857142857144</ele><time>2026-05-03T10:09:12.796Z</time></trkpt><trkpt lat="43.2543749" lon="11.6587183"><ele>300.2857142857143</ele><time>2026-05-03T10:09:17.768Z</time></trkpt><trkpt lat="43.2544417" lon="11.6587361"><ele>301.14285714285717</ele><time>2026-05-03T10:09:22.781Z</time></trkpt><trkpt lat="43.2545105" lon="11.6587672"><ele>302.0</ele><time>2026-05-03T10:09:28.772Z</time></trkpt><trkpt lat="43.2545805" lon="11.6587992"><ele>302.00000000000006</ele><time>2026-05-03T10:09:34.793Z</time></trkpt><trkpt lat="43.2546438" lon="11.6588287"><ele>302.0</ele><time>2026-05-03T10:09:39.782Z</time></trkpt><trkpt lat="43.2547108" lon="11.6588476"><ele>302.0</ele><time>2026-05-03T10:09:44.785Z</time></trkpt><trkpt lat="43.2547738" lon="11.6588649"><ele>302.0</ele><time>2026-05-03T10:09:49.75Z</time></trkpt><trkpt lat="43.2548368" lon="11.6588951"><ele>302.0</ele><time>2026-05-03T10:09:54.794Z</time></trkpt><trkpt lat="43.2549008" lon="11.6589215"><ele>302.00000000000006</ele><time>2026-05-03T10:09:59.829Z</time></trkpt><trkpt lat="43.2549674" lon="11.6589459"><ele>302.0</ele><time>2026-05-03T10:10:04.814Z</time></trkpt><trkpt lat="43.2550371" lon="11.6589704"><ele>302.14285714285717</ele><time>2026-05-03T10:10:10.793Z</time></trkpt><trkpt lat="43.2551028" lon="11.6589971"><ele>302.2857142857143</ele><time>2026-05-03T10:10:16.783Z</time></trkpt><trkpt lat="43.2551644" lon="11.6590321"><ele>302.42857142857144</ele><time>2026-05-03T10:10:21.796Z</time></trkpt><trkpt lat="43.2552304" lon="11.6590714"><ele>302.57142857142856</ele><time>2026-05-03T10:10:27.807Z</time></trkpt><trkpt lat="43.2552922" lon="11.6591073"><ele>302.7142857142857</ele><time>2026-05-03T10:10:32.79Z</time></trkpt><trkpt lat="43.2553606" lon="11.659134"><ele>302.8571428571429</ele><time>2026-05-03T10:10:38.786Z</time></trkpt><trkpt lat="43.2554252" lon="11.6591595"><ele>303.0</ele><time>2026-05-03T10:10:45.776Z</time></trkpt><trkpt lat="43.2554868" lon="11.659202"><ele>303.0</ele><time>2026-05-03T10:10:51.786Z</time></trkpt><trkpt lat="43.2555451" lon="11.6592392"><ele>303.0</ele><time>2026-05-03T10:10:56.804Z</time></trkpt><trkpt lat="43.2556123" lon="11.6592802"><ele>303.0</ele><time>2026-05-03T10:11:01.822Z</time></trkpt><trkpt lat="43.2556809" lon="11.6593032"><ele>303.0</ele><time>2026-05-03T10:11:06.821Z</time></trkpt><trkpt lat="43.25576" lon="11.6593288"><ele>303.0</ele><time>2026-05-03T10:11:10.829Z</time></trkpt><trkpt lat="43.2558306" lon="11.6593419"><ele>303.0</ele><time>2026-05-03T10:11:13.799Z</time></trkpt><trkpt lat="43.2558972" lon="11.6593492"><ele>303.0</ele><time>2026-05-03T10:11:16.759Z</time></trkpt><trkpt lat="43.2559763" lon="11.659359"><ele>304.42857142857144</ele><time>2026-05-03T10:11:20.798Z</time></trkpt><trkpt lat="43.2560517" lon="11.6593636"><ele>305.85714285714283</ele><time>2026-05-03T10:11:24.776Z</time></trkpt><trkpt lat="43.2561231" lon="11.6593711"><ele>307.2857142857143</ele><time>2026-05-03T10:11:28.82Z</time></trkpt><trkpt lat="43.2561987" lon="11.6593673"><ele>308.7142857142857</ele><time>2026-05-03T10:11:32.784Z</time></trkpt><trkpt lat="43.2562736" lon="11.6593752"><ele>310.14285714285717</ele><time>2026-05-03T10:11:36.784Z</time></trkpt><trkpt lat="43.2563463" lon="11.659377"><ele>311.57142857142856</ele><time>2026-05-03T10:11:40.782Z</time></trkpt><trkpt lat="43.256423" lon="11.65938"><ele>313.0</ele><time>2026-05-03T10:11:44.772Z</time></trkpt><trkpt lat="43.2565042" lon="11.6593762"><ele>314.1428571428571</ele><time>2026-05-03T10:11:48.736Z</time></trkpt><trkpt lat="43.25657" lon="11.659378"><ele>315.2857142857143</ele><time>2026-05-03T10:11:52.742Z</time></trkpt><trkpt lat="43.2566435" lon="11.6593776"><ele>316.42857142857144</ele><time>2026-05-03T10:11:57.837Z</time></trkpt><trkpt lat="43.2567222" lon="11.6593793"><ele>317.57142857142856</ele><time>2026-05-03T10:12:02.782Z</time></trkpt><trkpt lat="43.2567909" lon="11.6593746"><ele>318.7142857142857</ele><time>2026-05-03T10:12:06.797Z</time></trkpt><trkpt lat="43.2568539" lon="11.6593593"><ele>319.85714285714283</ele><time>2026-05-03T10:12:10.744Z</time></trkpt><trkpt lat="43.2569284" lon="11.6593487"><ele>321.0</ele><time>2026-05-03T10:12:15.755Z</time></trkpt><trkpt lat="43.2570043" lon="11.6593401"><ele>320.99999999999994</ele><time>2026-05-03T10:12:20.779Z</time></trkpt><trkpt lat="43.2570755" lon="11.6593311"><ele>321.0</ele><time>2026-05-03T10:12:24.774Z</time></trkpt><trkpt lat="43.2571522" lon="11.6593092"><ele>321.0</ele><time>2026-05-03T10:12:28.719Z</time></trkpt><trkpt lat="43.2572146" lon="11.6592966"><ele>321.0</ele><time>2026-05-03T10:12:31.798Z</time></trkpt><trkpt lat="43.2572899" lon="11.6592784"><ele>321.0</ele><time>2026-05-03T10:12:35.808Z</time></trkpt><trkpt lat="43.2573609" lon="11.6592483"><ele>320.99999999999994</ele><time>2026-05-03T10:12:39.717Z</time></trkpt><trkpt lat="43.2574263" lon="11.6592329"><ele>321.0</ele><time>2026-05-03T10:12:42.761Z</time></trkpt><trkpt lat="43.2575002" lon="11.6592296"><ele>321.0</ele><time>2026-05-03T10:12:46.774Z</time></trkpt><trkpt lat="43.2575732" lon="11.6591954"><ele>321.0</ele><time>2026-05-03T10:12:50.772Z</time></trkpt><trkpt lat="43.2576618" lon="11.659158"><ele>321.0</ele><time>2026-05-03T10:12:54.799Z</time></trkpt><trkpt lat="43.2577463" lon="11.6591502"><ele>321.0</ele><time>2026-05-03T10:12:58.778Z</time></trkpt><trkpt lat="43.2578159" lon="11.6591462"><ele>321.0</ele><time>2026-05-03T10:13:01.796Z</time></trkpt><trkpt lat="43.2578857" lon="11.6591394"><ele>321.0</ele><time>2026-05-03T10:13:04.797Z</time></trkpt><trkpt lat="43.2579535" lon="11.6591414"><ele>320.99999999999994</ele><time>2026-05-03T10:13:07.773Z</time></trkpt><trkpt lat="43.2580366" lon="11.659165"><ele>321.0</ele><time>2026-05-03T10:13:11.782Z</time></trkpt><trkpt lat="43.258094" lon="11.6592038"><ele>321.0</ele><time>2026-05-03T10:13:14.782Z</time></trkpt><trkpt lat="43.2581589" lon="11.6592448"><ele>321.0</ele><time>2026-05-03T10:13:17.785Z</time></trkpt><trkpt lat="43.2582219" lon="11.6592907"><ele>321.0</ele><time>2026-05-03T10:13:20.769Z</time></trkpt><trkpt lat="43.2582771" lon="11.6593344"><ele>320.99999999999994</ele><time>2026-05-03T10:13:23.788Z</time></trkpt><trkpt lat="43.2583566" lon="11.6593711"><ele>321.0</ele><time>2026-05-03T10:13:27.735Z</time></trkpt><trkpt lat="43.2584213" lon="11.6594451"><ele>321.71428571428567</ele><time>2026-05-03T10:13:31.681Z</time></trkpt><trkpt lat="43.2584986" lon="11.6594927"><ele>322.42857142857144</ele><time>2026-05-03T10:13:35.72Z</time></trkpt><trkpt lat="43.2585592" lon="11.6595202"><ele>323.1428571428571</ele><time>2026-05-03T10:13:38.748Z</time></trkpt><trkpt lat="43.2586214" lon="11.659561"><ele>323.85714285714283</ele><time>2026-05-03T10:13:42.751Z</time></trkpt><trkpt lat="43.2586914" lon="11.6595651"><ele>324.57142857142856</ele><time>2026-05-03T10:13:46.753Z</time></trkpt><trkpt lat="43.2587717" lon="11.6595838"><ele>325.2857142857143</ele><time>2026-05-03T10:13:50.769Z</time></trkpt><trkpt lat="43.2588473" lon="11.6596051"><ele>326.0</ele><time>2026-05-03T10:13:54.792Z</time></trkpt><trkpt lat="43.2589143" lon="11.6596198"><ele>325.0</ele><time>2026-05-03T10:13:58.755Z</time></trkpt><trkpt lat="43.2589821" lon="11.6596311"><ele>324.0</ele><time>2026-05-03T10:14:02.789Z</time></trkpt><trkpt lat="43.2590538" lon="11.6596465"><ele>323.0</ele><time>2026-05-03T10:14:07.777Z</time></trkpt><trkpt lat="43.2591167" lon="11.6596634"><ele>322.0</ele><time>2026-05-03T10:14:12.752Z</time></trkpt><trkpt lat="43.2591796" lon="11.6597003"><ele>321.0</ele><time>2026-05-03T10:14:18.777Z</time></trkpt><trkpt lat="43.2592517" lon="11.6597365"><ele>320.0</ele><time>2026-05-03T10:14:25.791Z</time></trkpt><trkpt lat="43.2593227" lon="11.659759"><ele>319.0</ele><time>2026-05-03T10:14:32.772Z</time></trkpt><trkpt lat="43.2593972" lon="11.6597889"><ele>319.0</ele><time>2026-05-03T10:14:38.828Z</time></trkpt><trkpt lat="43.2594547" lon="11.6598257"><ele>319.0</ele><time>2026-05-03T10:14:44.798Z</time></trkpt><trkpt lat="43.2595148" lon="11.6598974"><ele>319.0</ele><time>2026-05-03T10:14:48.784Z</time></trkpt><trkpt lat="43.2595498" lon="11.6599781"><ele>319.0</ele><time>2026-05-03T10:14:51.79Z</time></trkpt><trkpt lat="43.2595778" lon="11.6600558"><ele>319.0</ele><time>2026-05-03T10:14:54.842Z</time></trkpt><trkpt lat="43.2596207" lon="11.6601392"><ele>319.0</ele><time>2026-05-03T10:14:58.75Z</time></trkpt><trkpt lat="43.2596846" lon="11.6601836"><ele>319.0</ele><time>2026-05-03T10:15:02.769Z</time></trkpt><trkpt lat="43.259756" lon="11.6601948"><ele>318.8333333333333</ele><time>2026-05-03T10:15:06.704Z</time></trkpt><trkpt lat="43.2598357" lon="11.6602207"><ele>318.66666666666663</ele><time>2026-05-03T10:15:10.791Z</time></trkpt><trkpt lat="43.2599002" lon="11.6602459"><ele>318.5</ele><time>2026-05-03T10:15:13.762Z</time></trkpt><trkpt lat="43.2599691" lon="11.6602755"><ele>318.3333333333333</ele><time>2026-05-03T10:15:16.697Z</time></trkpt><trkpt lat="43.2600443" lon="11.6603158"><ele>318.1666666666667</ele><time>2026-05-03T10:15:19.794Z</time></trkpt><trkpt lat="43.2601111" lon="11.6603551"><ele>318.0</ele><time>2026-05-03T10:15:22.819Z</time></trkpt><trkpt lat="43.2601779" lon="11.6602887"><ele>318.0</ele><time>2026-05-03T10:15:25.818Z</time></trkpt><trkpt lat="43.2602279" lon="11.6602023"><ele>318.0</ele><time>2026-05-03T10:15:28.815Z</time></trkpt><trkpt lat="43.2602887" lon="11.6601302"><ele>318.0</ele><time>2026-05-03T10:15:31.823Z</time></trkpt><trkpt lat="43.2603544" lon="11.6600512"><ele>318.0</ele><time>2026-05-03T10:15:34.657Z</time></trkpt><trkpt lat="43.2604215" lon="11.6599765"><ele>318.0</ele><time>2026-05-03T10:15:37.556Z</time></trkpt><trkpt lat="43.2604918" lon="11.6599055"><ele>318.0</ele><time>2026-05-03T10:15:40.397Z</time></trkpt><trkpt lat="43.2605581" lon="11.6598441"><ele>316.0</ele><time>2026-05-03T10:15:43.315Z</time></trkpt><trkpt lat="43.2606254" lon="11.6597776"><ele>314.0</ele><time>2026-05-03T10:15:46.154Z</time></trkpt><trkpt lat="43.2606956" lon="11.6597267"><ele>312.0</ele><time>2026-05-03T10:15:49.055Z</time></trkpt><trkpt lat="43.260758" lon="11.659706"><ele>310.0</ele><time>2026-05-03T10:15:51.284Z</time></trkpt><trkpt lat="43.26084" lon="11.6596514"><ele>308.0</ele><time>2026-05-03T10:15:54.121Z</time></trkpt><trkpt lat="43.2609208" lon="11.6595897"><ele>306.0</ele><time>2026-05-03T10:15:57.302Z</time></trkpt><trkpt lat="43.2609872" lon="11.6595335"><ele>306.0</ele><time>2026-05-03T10:16:00.199Z</time></trkpt><trkpt lat="43.2610591" lon="11.6594794"><ele>306.0</ele><time>2026-05-03T10:16:03.103Z</time></trkpt><trkpt lat="43.2611372" lon="11.6594342"><ele>306.0</ele><time>2026-05-03T10:16:06.283Z</time></trkpt><trkpt lat="43.2611988" lon="11.6594113"><ele>306.0</ele><time>2026-05-03T10:16:08.602Z</time></trkpt><trkpt lat="43.2612795" lon="11.659416"><ele>306.0</ele><time>2026-05-03T10:16:11.619Z</time></trkpt><trkpt lat="43.2613457" lon="11.6594769"><ele>306.0</ele><time>2026-05-03T10:16:14.78Z</time></trkpt><trkpt lat="43.2614049" lon="11.6595121"><ele>305.1428571428571</ele><time>2026-05-03T10:16:17.785Z</time></trkpt><trkpt lat="43.2614691" lon="11.6595015"><ele>304.2857142857143</ele><time>2026-05-03T10:16:20.84Z</time></trkpt><trkpt lat="43.2615322" lon="11.6595399"><ele>303.42857142857144</ele><time>2026-05-03T10:16:24.822Z</time></trkpt><trkpt lat="43.2615862" lon="11.6596129"><ele>302.57142857142856</ele><time>2026-05-03T10:16:28.735Z</time></trkpt><trkpt lat="43.2616407" lon="11.6596774"><ele>301.7142857142857</ele><time>2026-05-03T10:16:32.758Z</time></trkpt><trkpt lat="43.2617008" lon="11.6597326"><ele>300.85714285714283</ele><time>2026-05-03T10:16:36.742Z</time></trkpt><trkpt lat="43.2617786" lon="11.6597708"><ele>300.0</ele><time>2026-05-03T10:16:40.742Z</time></trkpt><trkpt lat="43.2618563" lon="11.659784"><ele>300.0</ele><time>2026-05-03T10:16:44.769Z</time></trkpt><trkpt lat="43.261928" lon="11.6598075"><ele>300.0</ele><time>2026-05-03T10:16:48.801Z</time></trkpt><trkpt lat="43.2620092" lon="11.6598124"><ele>300.0</ele><time>2026-05-03T10:16:52.837Z</time></trkpt><trkpt lat="43.2620886" lon="11.659802"><ele>300.0</ele><time>2026-05-03T10:16:56.866Z</time></trkpt><trkpt lat="43.2621651" lon="11.6597869"><ele>300.0</ele><time>2026-05-03T10:17:00.838Z</time></trkpt><trkpt lat="43.2622428" lon="11.6597632"><ele>300.0</ele><time>2026-05-03T10:17:04.783Z</time></trkpt><trkpt lat="43.2623031" lon="11.6597359"><ele>300.99999999999994</ele><time>2026-05-03T10:17:07.826Z</time></trkpt><trkpt lat="43.2623802" lon="11.6597008"><ele>302.0</ele><time>2026-05-03T10:17:11.797Z</time></trkpt><trkpt lat="43.2624637" lon="11.6597018"><ele>303.0</ele><time>2026-05-03T10:17:15.795Z</time></trkpt><trkpt lat="43.2625284" lon="11.6596993"><ele>304.0</ele><time>2026-05-03T10:17:18.696Z</time></trkpt><trkpt lat="43.2625976" lon="11.6597319"><ele>305.0</ele><time>2026-05-03T10:17:21.801Z</time></trkpt><trkpt lat="43.2626598" lon="11.6597678"><ele>305.99999999999994</ele><time>2026-05-03T10:17:24.801Z</time></trkpt><trkpt lat="43.2627182" lon="11.6598034"><ele>307.0</ele><time>2026-05-03T10:17:27.818Z</time></trkpt><trkpt lat="43.262791" lon="11.6598447"><ele>306.99999999999994</ele><time>2026-05-03T10:17:31.793Z</time></trkpt><trkpt lat="43.2628641" lon="11.6599037"><ele>307.0</ele><time>2026-05-03T10:17:35.854Z</time></trkpt><trkpt lat="43.2629335" lon="11.6599649"><ele>307.0</ele><time>2026-05-03T10:17:39.756Z</time></trkpt><trkpt lat="43.2629896" lon="11.6600096"><ele>307.0</ele><time>2026-05-03T10:17:42.772Z</time></trkpt><trkpt lat="43.2630473" lon="11.6600546"><ele>307.0</ele><time>2026-05-03T10:17:45.795Z</time></trkpt><trkpt lat="43.2631089" lon="11.6600908"><ele>306.99999999999994</ele><time>2026-05-03T10:17:48.789Z</time></trkpt><trkpt lat="43.2631817" lon="11.6601447"><ele>307.0</ele><time>2026-05-03T10:17:52.785Z</time></trkpt><trkpt lat="43.2632347" lon="11.6601975"><ele>306.57142857142856</ele><time>2026-05-03T10:17:55.809Z</time></trkpt><trkpt lat="43.2632972" lon="11.6602653"><ele>306.1428571428571</ele><time>2026-05-03T10:17:59.819Z</time></trkpt><trkpt lat="43.2633526" lon="11.660343"><ele>305.71428571428567</ele><time>2026-05-03T10:18:03.795Z</time></trkpt><trkpt lat="43.2633975" lon="11.6604065"><ele>305.2857142857143</ele><time>2026-05-03T10:18:06.685Z</time></trkpt><trkpt lat="43.2634555" lon="11.6604649"><ele>304.8571428571429</ele><time>2026-05-03T10:18:09.759Z</time></trkpt><trkpt lat="43.2635187" lon="11.6605167"><ele>304.4285714285714</ele><time>2026-05-03T10:18:12.781Z</time></trkpt><trkpt lat="43.2635768" lon="11.660563"><ele>304.0</ele><time>2026-05-03T10:18:15.789Z</time></trkpt><trkpt lat="43.2636345" lon="11.6606109"><ele>304.2857142857143</ele><time>2026-05-03T10:18:18.791Z</time></trkpt><trkpt lat="43.2637019" lon="11.6606677"><ele>304.5714285714286</ele><time>2026-05-03T10:18:21.784Z</time></trkpt><trkpt lat="43.2637702" lon="11.660718"><ele>304.8571428571429</ele><time>2026-05-03T10:18:24.795Z</time></trkpt><trkpt lat="43.263834" lon="11.6607655"><ele>305.1428571428571</ele><time>2026-05-03T10:18:27.763Z</time></trkpt><trkpt lat="43.263896" lon="11.6608072"><ele>305.42857142857144</ele><time>2026-05-03T10:18:30.814Z</time></trkpt><trkpt lat="43.2639573" lon="11.6608348"><ele>305.7142857142857</ele><time>2026-05-03T10:18:33.738Z</time></trkpt><trkpt lat="43.2640295" lon="11.6608727"><ele>306.0</ele><time>2026-05-03T10:18:36.799Z</time></trkpt><trkpt lat="43.2640992" lon="11.660911"><ele>306.0</ele><time>2026-05-03T10:18:39.8Z</time></trkpt><trkpt lat="43.264166" lon="11.6609435"><ele>306.0</ele><time>2026-05-03T10:18:42.78Z</time></trkpt><trkpt lat="43.264234" lon="11.6609702"><ele>306.0</ele><time>2026-05-03T10:18:45.791Z</time></trkpt><trkpt lat="43.2642964" lon="11.6610139"><ele>306.0</ele><time>2026-05-03T10:18:48.695Z</time></trkpt><trkpt lat="43.2643641" lon="11.6610525"><ele>306.0</ele><time>2026-05-03T10:18:51.801Z</time></trkpt><trkpt lat="43.264433" lon="11.6610842"><ele>306.0</ele><time>2026-05-03T10:18:54.805Z</time></trkpt><trkpt lat="43.264503" lon="11.6611186"><ele>306.0</ele><time>2026-05-03T10:18:57.802Z</time></trkpt><trkpt lat="43.2645756" lon="11.6611586"><ele>307.3333333333333</ele><time>2026-05-03T10:19:00.782Z</time></trkpt><trkpt lat="43.2646458" lon="11.6611888"><ele>308.6666666666667</ele><time>2026-05-03T10:19:03.801Z</time></trkpt><trkpt lat="43.264721" lon="11.6611951"><ele>310.0</ele><time>2026-05-03T10:19:06.793Z</time></trkpt><trkpt lat="43.2648024" lon="11.661205"><ele>311.33333333333337</ele><time>2026-05-03T10:19:09.705Z</time></trkpt><trkpt lat="43.264868" lon="11.6612177"><ele>312.6666666666667</ele><time>2026-05-03T10:19:11.84Z</time></trkpt><trkpt lat="43.2649592" lon="11.6612266"><ele>314.0</ele><time>2026-05-03T10:19:14.683Z</time></trkpt><trkpt lat="43.2650257" lon="11.6612338"><ele>313.99999999999994</ele><time>2026-05-03T10:19:16.839Z</time></trkpt><trkpt lat="43.2651104" lon="11.6612369"><ele>314.0</ele><time>2026-05-03T10:19:19.785Z</time></trkpt><trkpt lat="43.2651737" lon="11.6612499"><ele>314.0</ele><time>2026-05-03T10:19:21.783Z</time></trkpt><trkpt lat="43.2652586" lon="11.6612673"><ele>314.0</ele><time>2026-05-03T10:19:24.801Z</time></trkpt><trkpt lat="43.2653294" lon="11.6612768"><ele>314.0</ele><time>2026-05-03T10:19:27.787Z</time></trkpt><trkpt lat="43.265398" lon="11.6612879"><ele>313.99999999999994</ele><time>2026-05-03T10:19:30.685Z</time></trkpt><trkpt lat="43.2654707" lon="11.66131"><ele>314.0</ele><time>2026-05-03T10:19:33.774Z</time></trkpt><trkpt lat="43.2655354" lon="11.6613402"><ele>314.0</ele><time>2026-05-03T10:19:36.727Z</time></trkpt><trkpt lat="43.2656007" lon="11.6613696"><ele>314.0</ele><time>2026-05-03T10:19:39.761Z</time></trkpt><trkpt lat="43.2656777" lon="11.6613938"><ele>314.0</ele><time>2026-05-03T10:19:42.796Z</time></trkpt><trkpt lat="43.2657592" lon="11.661417"><ele>314.0</ele><time>2026-05-03T10:19:45.795Z</time></trkpt><trkpt lat="43.2658296" lon="11.6614459"><ele>314.0</ele><time>2026-05-03T10:19:48.823Z</time></trkpt><trkpt lat="43.2659004" lon="11.6614702"><ele>314.0</ele><time>2026-05-03T10:19:51.789Z</time></trkpt><trkpt lat="43.2659786" lon="11.6615043"><ele>313.0</ele><time>2026-05-03T10:19:54.841Z</time></trkpt><trkpt lat="43.2660542" lon="11.6615417"><ele>312.0</ele><time>2026-05-03T10:19:57.806Z</time></trkpt><trkpt lat="43.2661353" lon="11.6615789"><ele>311.0</ele><time>2026-05-03T10:20:00.843Z</time></trkpt><trkpt lat="43.2662104" lon="11.6616019"><ele>310.0</ele><time>2026-05-03T10:20:03.771Z</time></trkpt><trkpt lat="43.2662801" lon="11.6616192"><ele>309.0</ele><time>2026-05-03T10:20:06.806Z</time></trkpt><trkpt lat="43.2663606" lon="11.6616476"><ele>308.0</ele><time>2026-05-03T10:20:10.76Z</time></trkpt><trkpt lat="43.2664352" lon="11.6616672"><ele>306.42857142857144</ele><time>2026-05-03T10:20:14.702Z</time></trkpt><trkpt lat="43.2665031" lon="11.6616949"><ele>304.8571428571429</ele><time>2026-05-03T10:20:18.802Z</time></trkpt><trkpt lat="43.2665643" lon="11.6617168"><ele>303.2857142857143</ele><time>2026-05-03T10:20:21.818Z</time></trkpt><trkpt lat="43.2666306" lon="11.6617363"><ele>301.7142857142857</ele><time>2026-05-03T10:20:24.764Z</time></trkpt><trkpt lat="43.2666955" lon="11.6617581"><ele>300.14285714285717</ele><time>2026-05-03T10:20:27.806Z</time></trkpt><trkpt lat="43.2667606" lon="11.6617835"><ele>298.57142857142856</ele><time>2026-05-03T10:20:30.803Z</time></trkpt><trkpt lat="43.2668209" lon="11.6618133"><ele>297.0</ele><time>2026-05-03T10:20:33.774Z</time></trkpt><trkpt lat="43.2668795" lon="11.6618472"><ele>297.0</ele><time>2026-05-03T10:20:36.832Z</time></trkpt><trkpt lat="43.2669437" lon="11.661867"><ele>297.0</ele><time>2026-05-03T10:20:39.799Z</time></trkpt><trkpt lat="43.2670195" lon="11.6618888"><ele>297.0</ele><time>2026-05-03T10:20:43.404Z</time></trkpt><trkpt lat="43.2670915" lon="11.6619171"><ele>297.0</ele><time>2026-05-03T10:20:46.786Z</time></trkpt><trkpt lat="43.2671572" lon="11.6619456"><ele>297.0</ele><time>2026-05-03T10:20:49.82Z</time></trkpt><trkpt lat="43.2672378" lon="11.6619797"><ele>297.0</ele><time>2026-05-03T10:20:53.762Z</time></trkpt><trkpt lat="43.2673029" lon="11.6620025"><ele>297.0</ele><time>2026-05-03T10:20:56.801Z</time></trkpt><trkpt lat="43.2673645" lon="11.6620308"><ele>297.8571428571429</ele><time>2026-05-03T10:20:59.809Z</time></trkpt><trkpt lat="43.2674324" lon="11.6620579"><ele>298.7142857142857</ele><time>2026-05-03T10:21:02.779Z</time></trkpt><trkpt lat="43.2675095" lon="11.6620885"><ele>299.57142857142856</ele><time>2026-05-03T10:21:05.827Z</time></trkpt><trkpt lat="43.2675876" lon="11.6621167"><ele>300.42857142857144</ele><time>2026-05-03T10:21:08.788Z</time></trkpt><trkpt lat="43.26766" lon="11.662145"><ele>301.2857142857143</ele><time>2026-05-03T10:21:11.793Z</time></trkpt><trkpt lat="43.267726" lon="11.6621764"><ele>302.14285714285717</ele><time>2026-05-03T10:21:14.794Z</time></trkpt><trkpt lat="43.2677917" lon="11.6622005"><ele>303.0</ele><time>2026-05-03T10:21:17.804Z</time></trkpt><trkpt lat="43.2678707" lon="11.6622253"><ele>303.0</ele><time>2026-05-03T10:21:21.805Z</time></trkpt><trkpt lat="43.2679314" lon="11.6622674"><ele>303.0</ele><time>2026-05-03T10:21:26.754Z</time></trkpt><trkpt lat="43.2679971" lon="11.6623012"><ele>303.0</ele><time>2026-05-03T10:21:31.799Z</time></trkpt><trkpt lat="43.2680573" lon="11.6623296"><ele>303.0</ele><time>2026-05-03T10:21:36.756Z</time></trkpt><trkpt lat="43.2681173" lon="11.6623612"><ele>303.0</ele><time>2026-05-03T10:21:41.751Z</time></trkpt><trkpt lat="43.2681871" lon="11.6623829"><ele>303.0</ele><time>2026-05-03T10:21:47.768Z</time></trkpt><trkpt lat="43.2682507" lon="11.6624121"><ele>303.0</ele><time>2026-05-03T10:21:52.779Z</time></trkpt><trkpt lat="43.2683135" lon="11.6624338"><ele>303.3333333333333</ele><time>2026-05-03T10:21:57.75Z</time></trkpt><trkpt lat="43.2683819" lon="11.6624603"><ele>303.6666666666667</ele><time>2026-05-03T10:22:03.784Z</time></trkpt><trkpt lat="43.2684504" lon="11.6624994"><ele>304.0</ele><time>2026-05-03T10:22:09.814Z</time></trkpt><trkpt lat="43.2685097" lon="11.6625378"><ele>304.33333333333337</ele><time>2026-05-03T10:22:14.83Z</time></trkpt><trkpt lat="43.2685868" lon="11.6625857"><ele>304.6666666666667</ele><time>2026-05-03T10:22:18.802Z</time></trkpt><trkpt lat="43.2686534" lon="11.6626465"><ele>305.0</ele><time>2026-05-03T10:22:22.774Z</time></trkpt><trkpt lat="43.2687113" lon="11.6627199"><ele>305.42857142857144</ele><time>2026-05-03T10:22:26.765Z</time></trkpt><trkpt lat="43.2687659" lon="11.6628014"><ele>305.85714285714283</ele><time>2026-05-03T10:22:30.74Z</time></trkpt><trkpt lat="43.2688197" lon="11.6628792"><ele>306.2857142857143</ele><time>2026-05-03T10:22:34.724Z</time></trkpt><trkpt lat="43.2688698" lon="11.6629423"><ele>306.7142857142857</ele><time>2026-05-03T10:22:37.786Z</time></trkpt><trkpt lat="43.2689154" lon="11.6630145"><ele>307.1428571428571</ele><time>2026-05-03T10:22:40.813Z</time></trkpt><trkpt lat="43.2689626" lon="11.6630861"><ele>307.57142857142856</ele><time>2026-05-03T10:22:43.778Z</time></trkpt><trkpt lat="43.2690097" lon="11.6631621"><ele>308.0</ele><time>2026-05-03T10:22:46.855Z</time></trkpt><trkpt lat="43.2690545" lon="11.6632355"><ele>308.0</ele><time>2026-05-03T10:22:49.678Z</time></trkpt><trkpt lat="43.2691052" lon="11.6633243"><ele>308.0</ele><time>2026-05-03T10:22:52.797Z</time></trkpt><trkpt lat="43.2691387" lon="11.6634033"><ele>308.0</ele><time>2026-05-03T10:22:55.7Z</time></trkpt><trkpt lat="43.2691657" lon="11.6634886"><ele>308.0</ele><time>2026-05-03T10:22:58.791Z</time></trkpt><trkpt lat="43.269204" lon="11.663571"><ele>308.0</ele><time>2026-05-03T10:23:01.781Z</time></trkpt><trkpt lat="43.2692396" lon="11.6636452"><ele>308.0</ele><time>2026-05-03T10:23:04.792Z</time></trkpt><trkpt lat="43.2692849" lon="11.6637526"><ele>308.0</ele><time>2026-05-03T10:23:08.766Z</time></trkpt><trkpt lat="43.2693211" lon="11.6638382"><ele>309.2857142857143</ele><time>2026-05-03T10:23:11.812Z</time></trkpt><trkpt lat="43.2693587" lon="11.663912"><ele>310.57142857142856</ele><time>2026-05-03T10:23:14.725Z</time></trkpt><trkpt lat="43.2694139" lon="11.6639808"><ele>311.8571428571429</ele><time>2026-05-03T10:23:17.829Z</time></trkpt><trkpt lat="43.2694645" lon="11.6640328"><ele>313.1428571428571</ele><time>2026-05-03T10:23:20.793Z</time></trkpt><trkpt lat="43.2695155" lon="11.6641175"><ele>314.42857142857144</ele><time>2026-05-03T10:23:24.764Z</time></trkpt><trkpt lat="43.2695411" lon="11.6642244"><ele>315.7142857142857</ele><time>2026-05-03T10:23:28.789Z</time></trkpt><trkpt lat="43.2695788" lon="11.6643259"><ele>317.0</ele><time>2026-05-03T10:23:32.736Z</time></trkpt><trkpt lat="43.2696363" lon="11.6643825"><ele>317.0</ele><time>2026-05-03T10:23:35.788Z</time></trkpt><trkpt lat="43.2696877" lon="11.6644364"><ele>317.0</ele><time>2026-05-03T10:23:38.799Z</time></trkpt><trkpt lat="43.269738" lon="11.6644905"><ele>317.0</ele><time>2026-05-03T10:23:41.73Z</time></trkpt><trkpt lat="43.2697941" lon="11.6645744"><ele>317.0</ele><time>2026-05-03T10:23:45.814Z</time></trkpt><trkpt lat="43.2698351" lon="11.6646483"><ele>317.0</ele><time>2026-05-03T10:23:48.8Z</time></trkpt><trkpt lat="43.2698846" lon="11.6647129"><ele>317.0</ele><time>2026-05-03T10:23:51.773Z</time></trkpt><trkpt lat="43.2699321" lon="11.6647862"><ele>317.0</ele><time>2026-05-03T10:23:54.807Z</time></trkpt><trkpt lat="43.2699814" lon="11.6648627"><ele>316.7142857142857</ele><time>2026-05-03T10:23:57.78Z</time></trkpt><trkpt lat="43.2700344" lon="11.6649342"><ele>316.42857142857144</ele><time>2026-05-03T10:24:00.791Z</time></trkpt><trkpt lat="43.2700888" lon="11.6649922"><ele>316.1428571428571</ele><time>2026-05-03T10:24:03.765Z</time></trkpt><trkpt lat="43.2701404" lon="11.6650485"><ele>315.8571428571429</ele><time>2026-05-03T10:24:06.788Z</time></trkpt><trkpt lat="43.2701871" lon="11.6651142"><ele>315.57142857142856</ele><time>2026-05-03T10:24:09.809Z</time></trkpt><trkpt lat="43.2702331" lon="11.6651796"><ele>315.2857142857143</ele><time>2026-05-03T10:24:12.789Z</time></trkpt><trkpt lat="43.2702726" lon="11.6652644"><ele>315.0</ele><time>2026-05-03T10:24:16.68Z</time></trkpt><trkpt lat="43.2703023" lon="11.6653426"><ele>316.2857142857143</ele><time>2026-05-03T10:24:19.783Z</time></trkpt><trkpt lat="43.2703352" lon="11.6654251"><ele>317.57142857142856</ele><time>2026-05-03T10:24:22.717Z</time></trkpt><trkpt lat="43.270376" lon="11.6655053"><ele>318.8571428571429</ele><time>2026-05-03T10:24:25.811Z</time></trkpt><trkpt lat="43.2704166" lon="11.6655796"><ele>320.1428571428571</ele><time>2026-05-03T10:24:28.762Z</time></trkpt><trkpt lat="43.2704577" lon="11.6656826"><ele>321.42857142857144</ele><time>2026-05-03T10:24:32.769Z</time></trkpt><trkpt lat="43.2704941" lon="11.6657596"><ele>322.7142857142857</ele><time>2026-05-03T10:24:35.784Z</time></trkpt><trkpt lat="43.2705463" lon="11.6658336"><ele>324.0</ele><time>2026-05-03T10:24:38.817Z</time></trkpt><trkpt lat="43.2705946" lon="11.6659079"><ele>322.0</ele><time>2026-05-03T10:24:41.75Z</time></trkpt><trkpt lat="43.2706442" lon="11.6659828"><ele>320.0</ele><time>2026-05-03T10:24:44.801Z</time></trkpt><trkpt lat="43.2706926" lon="11.6660536"><ele>318.0</ele><time>2026-05-03T10:24:47.805Z</time></trkpt><trkpt lat="43.2707401" lon="11.666128"><ele>316.0</ele><time>2026-05-03T10:24:50.816Z</time></trkpt><trkpt lat="43.2707836" lon="11.6662107"><ele>314.0</ele><time>2026-05-03T10:24:53.781Z</time></trkpt><trkpt lat="43.2708222" lon="11.6662988"><ele>312.0</ele><time>2026-05-03T10:24:56.778Z</time></trkpt><trkpt lat="43.2708569" lon="11.6663799"><ele>310.0</ele><time>2026-05-03T10:24:59.778Z</time></trkpt><trkpt lat="43.2709076" lon="11.6664629"><ele>310.0</ele><time>2026-05-03T10:25:03.758Z</time></trkpt><trkpt lat="43.2709659" lon="11.6665439"><ele>310.0</ele><time>2026-05-03T10:25:07.77Z</time></trkpt><trkpt lat="43.2710189" lon="11.6666253"><ele>310.0</ele><time>2026-05-03T10:25:11.802Z</time></trkpt><trkpt lat="43.2710697" lon="11.6667006"><ele>310.0</ele><time>2026-05-03T10:25:15.835Z</time></trkpt><trkpt lat="43.2711554" lon="11.6667364"><ele>310.0</ele><time>2026-05-03T10:25:19.823Z</time></trkpt><trkpt lat="43.2712309" lon="11.6667765"><ele>310.0</ele><time>2026-05-03T10:25:23.801Z</time></trkpt><trkpt lat="43.2712976" lon="11.6667998"><ele>310.0</ele><time>2026-05-03T10:25:28.81Z</time></trkpt><trkpt lat="43.2713755" lon="11.6668055"><ele>310.0</ele><time>2026-05-03T10:25:33.773Z</time></trkpt><trkpt lat="43.2714389" lon="11.6667846"><ele>310.0</ele><time>2026-05-03T10:25:38.78Z</time></trkpt><trkpt lat="43.2715004" lon="11.6667448"><ele>310.0</ele><time>2026-05-03T10:25:43.792Z</time></trkpt><trkpt lat="43.2715542" lon="11.6666928"><ele>310.0</ele><time>2026-05-03T10:25:48.77Z</time></trkpt><trkpt lat="43.2716177" lon="11.6666322"><ele>310.0</ele><time>2026-05-03T10:25:54.79Z</time></trkpt><trkpt lat="43.2716623" lon="11.6665577"><ele>310.0</ele><time>2026-05-03T10:25:59.783Z</time></trkpt><trkpt lat="43.2716976" lon="11.6664833"><ele>310.2857142857143</ele><time>2026-05-03T10:26:04.8Z</time></trkpt><trkpt lat="43.2717464" lon="11.6664084"><ele>310.57142857142856</ele><time>2026-05-03T10:26:10.754Z</time></trkpt><trkpt lat="43.2718109" lon="11.6663629"><ele>310.8571428571429</ele><time>2026-05-03T10:26:16.819Z</time></trkpt><trkpt lat="43.2718736" lon="11.6663232"><ele>311.1428571428571</ele><time>2026-05-03T10:26:23.771Z</time></trkpt><trkpt lat="43.2719356" lon="11.6662749"><ele>311.4285714285714</ele><time>2026-05-03T10:26:30.848Z</time></trkpt><trkpt lat="43.271996" lon="11.6662332"><ele>311.7142857142857</ele><time>2026-05-03T10:26:35.824Z</time></trkpt><trkpt lat="43.2720607" lon="11.6662168"><ele>312.0</ele><time>2026-05-03T10:26:40.802Z</time></trkpt><trkpt lat="43.2721249" lon="11.6661913"><ele>312.0</ele><time>2026-05-03T10:26:48.743Z</time></trkpt><trkpt lat="43.2721776" lon="11.6661361"><ele>312.0</ele><time>2026-05-03T10:26:55.799Z</time></trkpt><trkpt lat="43.2722323" lon="11.6660618"><ele>312.0</ele><time>2026-05-03T10:27:01.778Z</time></trkpt><trkpt lat="43.2722848" lon="11.6660087"><ele>312.0</ele><time>2026-05-03T10:27:05.778Z</time></trkpt><trkpt lat="43.2723493" lon="11.6659477"><ele>312.0</ele><time>2026-05-03T10:27:10.826Z</time></trkpt><trkpt lat="43.2724181" lon="11.6659018"><ele>312.0</ele><time>2026-05-03T10:27:15.778Z</time></trkpt><trkpt lat="43.2724778" lon="11.6658631"><ele>312.0</ele><time>2026-05-03T10:27:20.745Z</time></trkpt><trkpt lat="43.272547" lon="11.6658214"><ele>312.42857142857144</ele><time>2026-05-03T10:27:26.804Z</time></trkpt><trkpt lat="43.272614" lon="11.6657851"><ele>312.85714285714283</ele><time>2026-05-03T10:27:32.789Z</time></trkpt><trkpt lat="43.2726776" lon="11.6657601"><ele>313.2857142857143</ele><time>2026-05-03T10:27:38.79Z</time></trkpt><trkpt lat="43.2727467" lon="11.6657517"><ele>313.7142857142857</ele><time>2026-05-03T10:27:43.798Z</time></trkpt><trkpt lat="43.2728138" lon="11.6657606"><ele>314.1428571428571</ele><time>2026-05-03T10:27:49.812Z</time></trkpt><trkpt lat="43.2728847" lon="11.6657589"><ele>314.57142857142856</ele><time>2026-05-03T10:27:55.827Z</time></trkpt><trkpt lat="43.2729462" lon="11.6657781"><ele>315.0</ele><time>2026-05-03T10:28:00.839Z</time></trkpt><trkpt lat="43.2730238" lon="11.665784"><ele>315.0</ele><time>2026-05-03T10:28:05.789Z</time></trkpt><trkpt lat="43.2730984" lon="11.6657895"><ele>315.0</ele><time>2026-05-03T10:28:11.774Z</time></trkpt><trkpt lat="43.2731632" lon="11.6658099"><ele>315.0</ele><time>2026-05-03T10:28:16.781Z</time></trkpt><trkpt lat="43.2732274" lon="11.6658184"><ele>315.0</ele><time>2026-05-03T10:28:21.786Z</time></trkpt><trkpt lat="43.2732914" lon="11.6658264"><ele>315.0</ele><time>2026-05-03T10:28:27.8Z</time></trkpt><trkpt lat="43.2733618" lon="11.6658342"><ele>315.0</ele><time>2026-05-03T10:28:33.814Z</time></trkpt><trkpt lat="43.2734281" lon="11.6658385"><ele>315.0</ele><time>2026-05-03T10:28:38.774Z</time></trkpt><trkpt lat="43.273499" lon="11.6658704"><ele>316.42857142857144</ele><time>2026-05-03T10:28:44.737Z</time></trkpt><trkpt lat="43.2735722" lon="11.6659024"><ele>317.8571428571429</ele><time>2026-05-03T10:28:50.8Z</time></trkpt><trkpt lat="43.273639" lon="11.6659147"><ele>319.2857142857143</ele><time>2026-05-03T10:28:55.789Z</time></trkpt><trkpt lat="43.2737029" lon="11.6659413"><ele>320.7142857142857</ele><time>2026-05-03T10:29:00.787Z</time></trkpt><trkpt lat="43.2737703" lon="11.6659798"><ele>322.14285714285717</ele><time>2026-05-03T10:29:06.812Z</time></trkpt><trkpt lat="43.2738369" lon="11.6660198"><ele>323.57142857142856</ele><time>2026-05-03T10:29:12.826Z</time></trkpt><trkpt lat="43.273903" lon="11.6660643"><ele>325.0</ele><time>2026-05-03T10:29:18.802Z</time></trkpt><trkpt lat="43.2739664" lon="11.6660874"><ele>327.85714285714283</ele><time>2026-05-03T10:29:24.783Z</time></trkpt><trkpt lat="43.274031" lon="11.666125"><ele>330.7142857142857</ele><time>2026-05-03T10:29:31.789Z</time></trkpt><trkpt lat="43.2740932" lon="11.6661738"><ele>333.57142857142856</ele><time>2026-05-03T10:29:38.797Z</time></trkpt><trkpt lat="43.2741626" lon="11.6661936"><ele>336.42857142857144</ele><time>2026-05-03T10:29:44.813Z</time></trkpt><trkpt lat="43.2742194" lon="11.6662361"><ele>339.2857142857143</ele><time>2026-05-03T10:29:49.827Z</time></trkpt><trkpt lat="43.2742771" lon="11.6662726"><ele>342.14285714285717</ele><time>2026-05-03T10:29:55.784Z</time></trkpt><trkpt lat="43.2743364" lon="11.6663124"><ele>345.0</ele><time>2026-05-03T10:30:01.765Z</time></trkpt><trkpt lat="43.2743934" lon="11.6663574"><ele>345.0</ele><time>2026-05-03T10:30:06.803Z</time></trkpt><trkpt lat="43.2744308" lon="11.6664313"><ele>345.0</ele><time>2026-05-03T10:30:12.8Z</time></trkpt><trkpt lat="43.2744759" lon="11.6665005"><ele>345.0</ele><time>2026-05-03T10:30:19.817Z</time></trkpt><trkpt lat="43.2745185" lon="11.6665681"><ele>345.0</ele><time>2026-05-03T10:30:25.834Z</time></trkpt><trkpt lat="43.2745512" lon="11.6666473"><ele>345.0</ele><time>2026-05-03T10:30:32.796Z</time></trkpt><trkpt lat="43.2745861" lon="11.6667254"><ele>345.0</ele><time>2026-05-03T10:30:41.778Z</time></trkpt><trkpt lat="43.2746445" lon="11.6667821"><ele>345.0</ele><time>2026-05-03T10:30:51.816Z</time></trkpt><trkpt lat="43.2746669" lon="11.6668663"><ele>345.0</ele><time>2026-05-03T10:30:58.834Z</time></trkpt><trkpt lat="43.2746254" lon="11.6669328"><ele>345.0</ele><time>2026-05-03T10:31:04.786Z</time></trkpt><trkpt lat="43.2745938" lon="11.6670158"><ele>345.0</ele><time>2026-05-03T10:31:10.807Z</time></trkpt><trkpt lat="43.2745593" lon="11.6670927"><ele>345.0</ele><time>2026-05-03T10:31:17.806Z</time></trkpt><trkpt lat="43.2745201" lon="11.6671645"><ele>345.0</ele><time>2026-05-03T10:31:23.795Z</time></trkpt><trkpt lat="43.2744804" lon="11.6672398"><ele>345.0</ele><time>2026-05-03T10:31:30.799Z</time></trkpt><trkpt lat="43.2744579" lon="11.6673229"><ele>345.0</ele><time>2026-05-03T10:31:36.784Z</time></trkpt><trkpt lat="43.2744302" lon="11.6674074"><ele>346.8571428571429</ele><time>2026-05-03T10:31:43.8Z</time></trkpt><trkpt lat="43.2743796" lon="11.667466"><ele>348.7142857142857</ele><time>2026-05-03T10:31:50.778Z</time></trkpt><trkpt lat="43.2743163" lon="11.6674924"><ele>350.57142857142856</ele><time>2026-05-03T10:31:59.805Z</time></trkpt><trkpt lat="43.2742504" lon="11.6675204"><ele>352.42857142857144</ele><time>2026-05-03T10:32:08.827Z</time></trkpt><trkpt lat="43.2741859" lon="11.6675402"><ele>354.2857142857143</ele><time>2026-05-03T10:32:14.781Z</time></trkpt><trkpt lat="43.274131" lon="11.6675863"><ele>356.14285714285717</ele><time>2026-05-03T10:32:20.78Z</time></trkpt><trkpt lat="43.2741857" lon="11.6676439"><ele>358.0</ele><time>2026-05-03T10:32:29.789Z</time></trkpt><trkpt lat="43.2741987" lon="11.6677467"><ele>358.00000000000006</ele><time>2026-05-03T10:32:37.834Z</time></trkpt><trkpt lat="43.2741819" lon="11.6678334"><ele>358.0</ele><time>2026-05-03T10:32:46.757Z</time></trkpt><trkpt lat="43.2742422" lon="11.6678688"><ele>358.0</ele><time>2026-05-03T10:33:10.795Z</time></trkpt><trkpt lat="43.2743131" lon="11.6678726"><ele>358.0</ele><time>2026-05-03T10:33:18.77Z</time></trkpt><trkpt lat="43.2743902" lon="11.6678396"><ele>358.0</ele><time>2026-05-03T10:33:21.763Z</time></trkpt><trkpt lat="43.2744533" lon="11.6678497"><ele>358.00000000000006</ele><time>2026-05-03T10:33:24.776Z</time></trkpt><trkpt lat="43.2745017" lon="11.6677809"><ele>358.0</ele><time>2026-05-03T10:33:29.702Z</time></trkpt><trkpt lat="43.2745441" lon="11.6677085"><ele>358.0</ele><time>2026-05-03T10:33:36.726Z</time></trkpt><trkpt lat="43.2746221" lon="11.6677071"><ele>358.0</ele><time>2026-05-03T10:33:39.763Z</time></trkpt><trkpt lat="43.2747135" lon="11.6677267"><ele>358.0</ele><time>2026-05-03T10:33:42.821Z</time></trkpt><trkpt lat="43.2748024" lon="11.6676999"><ele>358.0</ele><time>2026-05-03T10:33:45.77Z</time></trkpt><trkpt lat="43.2748877" lon="11.6676676"><ele>358.0</ele><time>2026-05-03T10:33:48.786Z</time></trkpt><trkpt lat="43.2749693" lon="11.6676284"><ele>358.0</ele><time>2026-05-03T10:33:51.778Z</time></trkpt><trkpt lat="43.275049" lon="11.6676039"><ele>357.66666666666663</ele><time>2026-05-03T10:33:54.791Z</time></trkpt><trkpt lat="43.2751293" lon="11.667575"><ele>357.3333333333333</ele><time>2026-05-03T10:33:57.781Z</time></trkpt><trkpt lat="43.2752232" lon="11.6675507"><ele>357.0</ele><time>2026-05-03T10:34:00.794Z</time></trkpt><trkpt lat="43.2753095" lon="11.6675251"><ele>356.6666666666667</ele><time>2026-05-03T10:34:03.779Z</time></trkpt><trkpt lat="43.2753839" lon="11.6674948"><ele>356.33333333333337</ele><time>2026-05-03T10:34:06.769Z</time></trkpt><trkpt lat="43.2754559" lon="11.667472"><ele>356.0</ele><time>2026-05-03T10:34:09.842Z</time></trkpt><trkpt lat="43.2755201" lon="11.6674519"><ele>355.99999999999994</ele><time>2026-05-03T10:34:12.823Z</time></trkpt><trkpt lat="43.2755768" lon="11.6673898"><ele>356.0</ele><time>2026-05-03T10:34:16.778Z</time></trkpt><trkpt lat="43.2755396" lon="11.6673169"><ele>356.0</ele><time>2026-05-03T10:34:19.802Z</time></trkpt><trkpt lat="43.275475" lon="11.6672752"><ele>356.0</ele><time>2026-05-03T10:34:22.776Z</time></trkpt><trkpt lat="43.2754238" lon="11.6672161"><ele>356.0</ele><time>2026-05-03T10:34:25.789Z</time></trkpt><trkpt lat="43.2753717" lon="11.6671341"><ele>355.99999999999994</ele><time>2026-05-03T10:34:29.778Z</time></trkpt><trkpt lat="43.27532" lon="11.6670489"><ele>356.0</ele><time>2026-05-03T10:34:33.768Z</time></trkpt><trkpt lat="43.2752739" lon="11.6669498"><ele>354.6666666666667</ele><time>2026-05-03T10:34:36.851Z</time></trkpt><trkpt lat="43.2752277" lon="11.666847"><ele>353.33333333333337</ele><time>2026-05-03T10:34:39.804Z</time></trkpt><trkpt lat="43.2751947" lon="11.6667385"><ele>352.0</ele><time>2026-05-03T10:34:42.814Z</time></trkpt><trkpt lat="43.2751575" lon="11.6666419"><ele>350.6666666666667</ele><time>2026-05-03T10:34:45.783Z</time></trkpt><trkpt lat="43.2751233" lon="11.6665452"><ele>349.3333333333333</ele><time>2026-05-03T10:34:48.834Z</time></trkpt><trkpt lat="43.2751083" lon="11.666436"><ele>348.0</ele><time>2026-05-03T10:34:51.789Z</time></trkpt><trkpt lat="43.2751063" lon="11.6663295"><ele>348.0</ele><time>2026-05-03T10:34:54.782Z</time></trkpt><trkpt lat="43.2751248" lon="11.666223"><ele>348.0</ele><time>2026-05-03T10:34:57.788Z</time></trkpt><trkpt lat="43.2751553" lon="11.6661169"><ele>348.0</ele><time>2026-05-03T10:35:00.767Z</time></trkpt><trkpt lat="43.2751925" lon="11.6660196"><ele>348.0</ele><time>2026-05-03T10:35:03.776Z</time></trkpt><trkpt lat="43.2752306" lon="11.6659349"><ele>348.0</ele><time>2026-05-03T10:35:06.798Z</time></trkpt><trkpt lat="43.2752762" lon="11.6658526"><ele>348.0</ele><time>2026-05-03T10:35:09.817Z</time></trkpt><trkpt lat="43.2753205" lon="11.6657732"><ele>346.6666666666667</ele><time>2026-05-03T10:35:12.805Z</time></trkpt><trkpt lat="43.2753678" lon="11.6656955"><ele>345.3333333333333</ele><time>2026-05-03T10:35:15.787Z</time></trkpt><trkpt lat="43.2754327" lon="11.6656126"><ele>344.0</ele><time>2026-05-03T10:35:18.779Z</time></trkpt><trkpt lat="43.2754873" lon="11.6655296"><ele>342.66666666666663</ele><time>2026-05-03T10:35:21.769Z</time></trkpt><trkpt lat="43.2755398" lon="11.6654374"><ele>341.3333333333333</ele><time>2026-05-03T10:35:24.817Z</time></trkpt><trkpt lat="43.2755949" lon="11.6653479"><ele>340.0</ele><time>2026-05-03T10:35:27.802Z</time></trkpt><trkpt lat="43.2756474" lon="11.665261"><ele>339.5</ele><time>2026-05-03T10:35:30.805Z</time></trkpt><trkpt lat="43.2757" lon="11.6651799"><ele>339.0</ele><time>2026-05-03T10:35:33.815Z</time></trkpt><trkpt lat="43.2757517" lon="11.6650917"><ele>338.5</ele><time>2026-05-03T10:35:36.784Z</time></trkpt><trkpt lat="43.2757979" lon="11.6649985"><ele>338.0</ele><time>2026-05-03T10:35:39.783Z</time></trkpt><trkpt lat="43.2758488" lon="11.6649153"><ele>337.5</ele><time>2026-05-03T10:35:42.779Z</time></trkpt><trkpt lat="43.2758956" lon="11.6648262"><ele>337.0</ele><time>2026-05-03T10:35:45.818Z</time></trkpt><trkpt lat="43.2759393" lon="11.664746"><ele>337.00000000000006</ele><time>2026-05-03T10:35:48.803Z</time></trkpt><trkpt lat="43.2759717" lon="11.664663"><ele>337.0</ele><time>2026-05-03T10:35:51.814Z</time></trkpt><trkpt lat="43.2760149" lon="11.6645789"><ele>337.0</ele><time>2026-05-03T10:35:54.779Z</time></trkpt><trkpt lat="43.27606" lon="11.6644894"><ele>337.0</ele><time>2026-05-03T10:35:57.723Z</time></trkpt><trkpt lat="43.2761052" lon="11.6644066"><ele>337.0</ele><time>2026-05-03T10:36:00.765Z</time></trkpt><trkpt lat="43.2761407" lon="11.664318"><ele>337.00000000000006</ele><time>2026-05-03T10:36:03.762Z</time></trkpt><trkpt lat="43.2761624" lon="11.664223"><ele>337.0</ele><time>2026-05-03T10:36:06.811Z</time></trkpt><trkpt lat="43.2761771" lon="11.6641228"><ele>336.66666666666663</ele><time>2026-05-03T10:36:09.678Z</time></trkpt><trkpt lat="43.2761918" lon="11.663995"><ele>336.3333333333333</ele><time>2026-05-03T10:36:12.794Z</time></trkpt><trkpt lat="43.2762054" lon="11.6638793"><ele>336.0</ele><time>2026-05-03T10:36:15.785Z</time></trkpt><trkpt lat="43.2762086" lon="11.6637709"><ele>335.6666666666667</ele><time>2026-05-03T10:36:18.797Z</time></trkpt><trkpt lat="43.2762094" lon="11.6636601"><ele>335.33333333333337</ele><time>2026-05-03T10:36:21.804Z</time></trkpt><trkpt lat="43.2762211" lon="11.6635452"><ele>335.0</ele><time>2026-05-03T10:36:24.736Z</time></trkpt><trkpt lat="43.2762264" lon="11.6634244"><ele>335.0</ele><time>2026-05-03T10:36:27.79Z</time></trkpt><trkpt lat="43.2762315" lon="11.66332"><ele>335.0</ele><time>2026-05-03T10:36:30.773Z</time></trkpt><trkpt lat="43.2762399" lon="11.6632127"><ele>335.0</ele><time>2026-05-03T10:36:33.755Z</time></trkpt><trkpt lat="43.2762401" lon="11.6631069"><ele>335.0</ele><time>2026-05-03T10:36:36.788Z</time></trkpt><trkpt lat="43.2762396" lon="11.6630059"><ele>335.0</ele><time>2026-05-03T10:36:39.68Z</time></trkpt><trkpt lat="43.2762424" lon="11.6628859"><ele>335.0</ele><time>2026-05-03T10:36:42.808Z</time></trkpt><trkpt lat="43.2762509" lon="11.6627751"><ele>334.4285714285714</ele><time>2026-05-03T10:36:45.699Z</time></trkpt><trkpt lat="43.2762548" lon="11.66266"><ele>333.85714285714283</ele><time>2026-05-03T10:36:48.782Z</time></trkpt><trkpt lat="43.2762621" lon="11.6625506"><ele>333.2857142857143</ele><time>2026-05-03T10:36:51.79Z</time></trkpt><trkpt lat="43.2762729" lon="11.6624459"><ele>332.71428571428567</ele><time>2026-05-03T10:36:54.799Z</time></trkpt><trkpt lat="43.2762807" lon="11.6623532"><ele>332.1428571428571</ele><time>2026-05-03T10:36:57.807Z</time></trkpt><trkpt lat="43.2762861" lon="11.6622597"><ele>331.57142857142856</ele><time>2026-05-03T10:37:00.797Z</time></trkpt><trkpt lat="43.276294" lon="11.6621613"><ele>331.0</ele><time>2026-05-03T10:37:03.79Z</time></trkpt><trkpt lat="43.2763005" lon="11.662052"><ele>331.0</ele><time>2026-05-03T10:37:06.834Z</time></trkpt><trkpt lat="43.2763078" lon="11.6619498"><ele>331.0</ele><time>2026-05-03T10:37:09.762Z</time></trkpt><trkpt lat="43.2763121" lon="11.6618494"><ele>331.0</ele><time>2026-05-03T10:37:12.76Z</time></trkpt><trkpt lat="43.2763212" lon="11.6617378"><ele>331.0</ele><time>2026-05-03T10:37:15.774Z</time></trkpt><trkpt lat="43.2763439" lon="11.6616287"><ele>331.0</ele><time>2026-05-03T10:37:18.776Z</time></trkpt><trkpt lat="43.2763845" lon="11.6615245"><ele>331.0</ele><time>2026-05-03T10:37:21.794Z</time></trkpt><trkpt lat="43.2764354" lon="11.6614349"><ele>329.16666666666663</ele><time>2026-05-03T10:37:24.821Z</time></trkpt><trkpt lat="43.2765" lon="11.6613771"><ele>327.3333333333333</ele><time>2026-05-03T10:37:27.798Z</time></trkpt><trkpt lat="43.2765587" lon="11.661314"><ele>325.5</ele><time>2026-05-03T10:37:30.816Z</time></trkpt><trkpt lat="43.276626" lon="11.6612595"><ele>323.6666666666667</ele><time>2026-05-03T10:37:33.697Z</time></trkpt><trkpt lat="43.2766945" lon="11.6612111"><ele>321.83333333333337</ele><time>2026-05-03T10:37:36.79Z</time></trkpt><trkpt lat="43.2767633" lon="11.6611627"><ele>320.0</ele><time>2026-05-03T10:37:39.809Z</time></trkpt><trkpt lat="43.2768256" lon="11.6611302"><ele>319.6666666666667</ele><time>2026-05-03T10:37:42.76Z</time></trkpt><trkpt lat="43.2768885" lon="11.6610897"><ele>319.33333333333337</ele><time>2026-05-03T10:37:45.8Z</time></trkpt><trkpt lat="43.2769474" lon="11.6610085"><ele>319.0</ele><time>2026-05-03T10:37:49.762Z</time></trkpt><trkpt lat="43.2769905" lon="11.6609334"><ele>318.6666666666667</ele><time>2026-05-03T10:37:52.778Z</time></trkpt><trkpt lat="43.2770346" lon="11.6608512"><ele>318.3333333333333</ele><time>2026-05-03T10:37:55.801Z</time></trkpt><trkpt lat="43.2770751" lon="11.6607619"><ele>318.0</ele><time>2026-05-03T10:37:58.779Z</time></trkpt><trkpt lat="43.2771116" lon="11.6606676"><ele>318.0</ele><time>2026-05-03T10:38:01.807Z</time></trkpt><trkpt lat="43.2771481" lon="11.6605781"><ele>318.0</ele><time>2026-05-03T10:38:04.719Z</time></trkpt><trkpt lat="43.2771833" lon="11.660478"><ele>318.0</ele><time>2026-05-03T10:38:07.826Z</time></trkpt><trkpt lat="43.2772151" lon="11.6603863"><ele>318.0</ele><time>2026-05-03T10:38:10.785Z</time></trkpt><trkpt lat="43.2772521" lon="11.6603019"><ele>318.0</ele><time>2026-05-03T10:38:13.791Z</time></trkpt><trkpt lat="43.2772866" lon="11.6602112"><ele>318.0</ele><time>2026-05-03T10:38:16.805Z</time></trkpt><trkpt lat="43.2773191" lon="11.6601219"><ele>318.0</ele><time>2026-05-03T10:38:19.734Z</time></trkpt><trkpt lat="43.2773509" lon="11.6600288"><ele>318.0</ele><time>2026-05-03T10:38:22.792Z</time></trkpt><trkpt lat="43.2773844" lon="11.6599381"><ele>318.0</ele><time>2026-05-03T10:38:25.823Z</time></trkpt><trkpt lat="43.2774148" lon="11.6598599"><ele>318.0</ele><time>2026-05-03T10:38:28.702Z</time></trkpt><trkpt lat="43.2774467" lon="11.6597705"><ele>318.0</ele><time>2026-05-03T10:38:31.807Z</time></trkpt><trkpt lat="43.277477" lon="11.6596782"><ele>318.0</ele><time>2026-05-03T10:38:34.821Z</time></trkpt><trkpt lat="43.2775018" lon="11.6595912"><ele>318.0</ele><time>2026-05-03T10:38:37.762Z</time></trkpt><trkpt lat="43.2775286" lon="11.6595022"><ele>318.0</ele><time>2026-05-03T10:38:40.833Z</time></trkpt><trkpt lat="43.2775559" lon="11.6594111"><ele>318.0</ele><time>2026-05-03T10:38:43.803Z</time></trkpt><trkpt lat="43.2775761" lon="11.6593228"><ele>318.0</ele><time>2026-05-03T10:38:46.783Z</time></trkpt><trkpt lat="43.2775982" lon="11.6592369"><ele>318.0</ele><time>2026-05-03T10:38:49.823Z</time></trkpt><trkpt lat="43.2776247" lon="11.6591511"><ele>318.0</ele><time>2026-05-03T10:38:52.768Z</time></trkpt><trkpt lat="43.277644" lon="11.6590561"><ele>318.0</ele><time>2026-05-03T10:38:55.779Z</time></trkpt><trkpt lat="43.277662" lon="11.6589528"><ele>318.0</ele><time>2026-05-03T10:38:58.796Z</time></trkpt><trkpt lat="43.2776793" lon="11.6588567"><ele>318.0</ele><time>2026-05-03T10:39:01.805Z</time></trkpt><trkpt lat="43.2776963" lon="11.6587661"><ele>318.0</ele><time>2026-05-03T10:39:04.738Z</time></trkpt><trkpt lat="43.2777206" lon="11.6586821"><ele>318.0</ele><time>2026-05-03T10:39:07.772Z</time></trkpt><trkpt lat="43.2777437" lon="11.6586014"><ele>318.0</ele><time>2026-05-03T10:39:10.77Z</time></trkpt><trkpt lat="43.2777644" lon="11.6585085"><ele>318.0</ele><time>2026-05-03T10:39:13.719Z</time></trkpt><trkpt lat="43.2777932" lon="11.6584068"><ele>318.0</ele><time>2026-05-03T10:39:16.787Z</time></trkpt><trkpt lat="43.2778193" lon="11.6582978"><ele>318.0</ele><time>2026-05-03T10:39:19.769Z</time></trkpt><trkpt lat="43.2778476" lon="11.6581924"><ele>318.0</ele><time>2026-05-03T10:39:22.81Z</time></trkpt><trkpt lat="43.2778737" lon="11.6580892"><ele>317.7142857142857</ele><time>2026-05-03T10:39:25.81Z</time></trkpt><trkpt lat="43.2778927" lon="11.6579864"><ele>317.42857142857144</ele><time>2026-05-03T10:39:28.79Z</time></trkpt><trkpt lat="43.277914" lon="11.6578875"><ele>317.14285714285717</ele><time>2026-05-03T10:39:31.84Z</time></trkpt><trkpt lat="43.2779292" lon="11.6577954"><ele>316.8571428571429</ele><time>2026-05-03T10:39:34.71Z</time></trkpt><trkpt lat="43.2779413" lon="11.6576915"><ele>316.57142857142856</ele><time>2026-05-03T10:39:37.812Z</time></trkpt><trkpt lat="43.277944" lon="11.6575939"><ele>316.28571428571433</ele><time>2026-05-03T10:39:40.743Z</time></trkpt><trkpt lat="43.2779413" lon="11.6574996"><ele>316.0</ele><time>2026-05-03T10:39:43.777Z</time></trkpt><trkpt lat="43.277937" lon="11.6574126"><ele>315.8571428571429</ele><time>2026-05-03T10:39:46.793Z</time></trkpt><trkpt lat="43.2779278" lon="11.6573087"><ele>315.7142857142857</ele><time>2026-05-03T10:39:50.766Z</time></trkpt><trkpt lat="43.27792" lon="11.6572217"><ele>315.57142857142856</ele><time>2026-05-03T10:39:53.733Z</time></trkpt><trkpt lat="43.277899" lon="11.6571227"><ele>315.42857142857144</ele><time>2026-05-03T10:39:56.777Z</time></trkpt><trkpt lat="43.2778967" lon="11.6570328"><ele>315.2857142857143</ele><time>2026-05-03T10:39:59.826Z</time></trkpt><trkpt lat="43.2778943" lon="11.6569196"><ele>315.14285714285717</ele><time>2026-05-03T10:40:03.799Z</time></trkpt><trkpt lat="43.2778973" lon="11.6568137"><ele>315.0</ele><time>2026-05-03T10:40:07.747Z</time></trkpt><trkpt lat="43.2778921" lon="11.6567268"><ele>314.8333333333333</ele><time>2026-05-03T10:40:10.784Z</time></trkpt><trkpt lat="43.2778821" lon="11.6566116"><ele>314.6666666666667</ele><time>2026-05-03T10:40:14.817Z</time></trkpt><trkpt lat="43.2778781" lon="11.6564989"><ele>314.5</ele><time>2026-05-03T10:40:18.782Z</time></trkpt><trkpt lat="43.277863" lon="11.6564098"><ele>314.33333333333337</ele><time>2026-05-03T10:40:21.792Z</time></trkpt><trkpt lat="43.2778608" lon="11.6563052"><ele>314.1666666666667</ele><time>2026-05-03T10:40:25.793Z</time></trkpt><trkpt lat="43.2778672" lon="11.656197"><ele>314.0</ele><time>2026-05-03T10:40:29.783Z</time></trkpt><trkpt lat="43.2778578" lon="11.6561111"><ele>313.85714285714283</ele><time>2026-05-03T10:40:32.707Z</time></trkpt><trkpt lat="43.277863" lon="11.6560249"><ele>313.7142857142857</ele><time>2026-05-03T10:40:35.79Z</time></trkpt><trkpt lat="43.2778429" lon="11.6559388"><ele>313.57142857142856</ele><time>2026-05-03T10:40:38.766Z</time></trkpt><trkpt lat="43.2778221" lon="11.6558338"><ele>313.42857142857144</ele><time>2026-05-03T10:40:42.672Z</time></trkpt><trkpt lat="43.2778198" lon="11.6557383"><ele>313.2857142857143</ele><time>2026-05-03T10:40:45.814Z</time></trkpt><trkpt lat="43.2778194" lon="11.6556448"><ele>313.1428571428571</ele><time>2026-05-03T10:40:48.804Z</time></trkpt><trkpt lat="43.277812" lon="11.6555536"><ele>313.0</ele><time>2026-05-03T10:40:51.777Z</time></trkpt><trkpt lat="43.2778013" lon="11.6554585"><ele>313.0</ele><time>2026-05-03T10:40:54.782Z</time></trkpt><trkpt lat="43.2777954" lon="11.6553594"><ele>313.0</ele><time>2026-05-03T10:40:57.794Z</time></trkpt><trkpt lat="43.2777982" lon="11.6552662"><ele>313.0</ele><time>2026-05-03T10:41:00.772Z</time></trkpt><trkpt lat="43.2778119" lon="11.6551642"><ele>313.0</ele><time>2026-05-03T10:41:03.784Z</time></trkpt><trkpt lat="43.2778227" lon="11.6550648"><ele>313.0</ele><time>2026-05-03T10:41:06.705Z</time></trkpt><trkpt lat="43.2778396" lon="11.6549752"><ele>313.0</ele><time>2026-05-03T10:41:09.781Z</time></trkpt><trkpt lat="43.2778599" lon="11.6548631"><ele>313.0</ele><time>2026-05-03T10:41:13.804Z</time></trkpt><trkpt lat="43.2778758" lon="11.6547489"><ele>313.0</ele><time>2026-05-03T10:41:17.772Z</time></trkpt><trkpt lat="43.2778948" lon="11.6546335"><ele>313.0</ele><time>2026-05-03T10:41:21.776Z</time></trkpt><trkpt lat="43.2779184" lon="11.6545442"><ele>313.0</ele><time>2026-05-03T10:41:24.78Z</time></trkpt><trkpt lat="43.277945" lon="11.6544384"><ele>313.0</ele><time>2026-05-03T10:41:28.731Z</time></trkpt><trkpt lat="43.2779708" lon="11.654352"><ele>313.0</ele><time>2026-05-03T10:41:31.797Z</time></trkpt><trkpt lat="43.2779913" lon="11.6542622"><ele>313.0</ele><time>2026-05-03T10:41:34.785Z</time></trkpt><trkpt lat="43.2780133" lon="11.6541779"><ele>313.0</ele><time>2026-05-03T10:41:37.779Z</time></trkpt><trkpt lat="43.2780386" lon="11.6540946"><ele>313.0</ele><time>2026-05-03T10:41:40.801Z</time></trkpt><trkpt lat="43.278067" lon="11.6540089"><ele>313.0</ele><time>2026-05-03T10:41:43.769Z</time></trkpt><trkpt lat="43.2780977" lon="11.6539201"><ele>313.0</ele><time>2026-05-03T10:41:46.803Z</time></trkpt><trkpt lat="43.2781284" lon="11.6538231"><ele>313.0</ele><time>2026-05-03T10:41:49.747Z</time></trkpt><trkpt lat="43.2781545" lon="11.653723"><ele>313.0</ele><time>2026-05-03T10:41:52.819Z</time></trkpt><trkpt lat="43.278185" lon="11.6536206"><ele>313.0</ele><time>2026-05-03T10:41:55.768Z</time></trkpt><trkpt lat="43.2782126" lon="11.6535114"><ele>313.1428571428571</ele><time>2026-05-03T10:41:58.758Z</time></trkpt><trkpt lat="43.2782387" lon="11.6534071"><ele>313.2857142857143</ele><time>2026-05-03T10:42:01.687Z</time></trkpt><trkpt lat="43.2782656" lon="11.653308"><ele>313.42857142857144</ele><time>2026-05-03T10:42:04.787Z</time></trkpt><trkpt lat="43.2782929" lon="11.6532152"><ele>313.57142857142856</ele><time>2026-05-03T10:42:07.691Z</time></trkpt><trkpt lat="43.2783156" lon="11.6531115"><ele>313.7142857142857</ele><time>2026-05-03T10:42:10.786Z</time></trkpt><trkpt lat="43.2783321" lon="11.653019"><ele>313.85714285714283</ele><time>2026-05-03T10:42:13.704Z</time></trkpt><trkpt lat="43.2783505" lon="11.6529285"><ele>314.0</ele><time>2026-05-03T10:42:16.797Z</time></trkpt><trkpt lat="43.278373" lon="11.6528192"><ele>313.57142857142856</ele><time>2026-05-03T10:42:20.806Z</time></trkpt><trkpt lat="43.2783894" lon="11.6527285"><ele>313.1428571428571</ele><time>2026-05-03T10:42:23.759Z</time></trkpt><trkpt lat="43.2784046" lon="11.6526395"><ele>312.71428571428567</ele><time>2026-05-03T10:42:26.795Z</time></trkpt><trkpt lat="43.2784187" lon="11.6525425"><ele>312.2857142857143</ele><time>2026-05-03T10:42:29.798Z</time></trkpt><trkpt lat="43.2784358" lon="11.6524436"><ele>311.8571428571429</ele><time>2026-05-03T10:42:32.694Z</time></trkpt><trkpt lat="43.2784568" lon="11.6523415"><ele>311.4285714285714</ele><time>2026-05-03T10:42:35.788Z</time></trkpt><trkpt lat="43.2784782" lon="11.6522527"><ele>311.0</ele><time>2026-05-03T10:42:38.746Z</time></trkpt><trkpt lat="43.2784912" lon="11.6521651"><ele>311.0</ele><time>2026-05-03T10:42:41.795Z</time></trkpt><trkpt lat="43.2785059" lon="11.6520726"><ele>311.0</ele><time>2026-05-03T10:42:44.843Z</time></trkpt><trkpt lat="43.2785226" lon="11.6519765"><ele>311.0</ele><time>2026-05-03T10:42:47.731Z</time></trkpt><trkpt lat="43.2785387" lon="11.6518713"><ele>311.0</ele><time>2026-05-03T10:42:50.804Z</time></trkpt><trkpt lat="43.2785509" lon="11.6517599"><ele>311.0</ele><time>2026-05-03T10:42:54.794Z</time></trkpt><trkpt lat="43.2785587" lon="11.6516569"><ele>311.0</ele><time>2026-05-03T10:42:58.783Z</time></trkpt><trkpt lat="43.278568" lon="11.651565"><ele>311.0</ele><time>2026-05-03T10:43:01.726Z</time></trkpt><trkpt lat="43.2785879" lon="11.6514769"><ele>310.4285714285714</ele><time>2026-05-03T10:43:04.822Z</time></trkpt><trkpt lat="43.2786152" lon="11.6513723"><ele>309.8571428571429</ele><time>2026-05-03T10:43:08.787Z</time></trkpt><trkpt lat="43.2786363" lon="11.6512861"><ele>309.2857142857143</ele><time>2026-05-03T10:43:11.817Z</time></trkpt><trkpt lat="43.2786633" lon="11.6512013"><ele>308.71428571428567</ele><time>2026-05-03T10:43:14.756Z</time></trkpt><trkpt lat="43.2786989" lon="11.6511158"><ele>308.1428571428571</ele><time>2026-05-03T10:43:17.791Z</time></trkpt><trkpt lat="43.2787353" lon="11.6510334"><ele>307.57142857142856</ele><time>2026-05-03T10:43:20.793Z</time></trkpt><trkpt lat="43.278768" lon="11.6509561"><ele>307.0</ele><time>2026-05-03T10:43:23.751Z</time></trkpt><trkpt lat="43.2787917" lon="11.6508721"><ele>306.99999999999994</ele><time>2026-05-03T10:43:26.787Z</time></trkpt><trkpt lat="43.2788216" lon="11.650786"><ele>307.0</ele><time>2026-05-03T10:43:29.827Z</time></trkpt><trkpt lat="43.2788503" lon="11.6507075"><ele>307.0</ele><time>2026-05-03T10:43:32.706Z</time></trkpt><trkpt lat="43.2788892" lon="11.6506115"><ele>307.0</ele><time>2026-05-03T10:43:36.766Z</time></trkpt><trkpt lat="43.2789248" lon="11.6505097"><ele>307.0</ele><time>2026-05-03T10:43:40.794Z</time></trkpt><trkpt lat="43.278957" lon="11.650428"><ele>306.99999999999994</ele><time>2026-05-03T10:43:43.756Z</time></trkpt><trkpt lat="43.2789883" lon="11.6503402"><ele>307.0</ele><time>2026-05-03T10:43:46.731Z</time></trkpt><trkpt lat="43.2790197" lon="11.6502557"><ele>307.1428571428571</ele><time>2026-05-03T10:43:49.8Z</time></trkpt><trkpt lat="43.279053" lon="11.6501715"><ele>307.2857142857143</ele><time>2026-05-03T10:43:52.794Z</time></trkpt><trkpt lat="43.279084" lon="11.6500867"><ele>307.42857142857144</ele><time>2026-05-03T10:43:55.693Z</time></trkpt><trkpt lat="43.2791221" lon="11.6499892"><ele>307.57142857142856</ele><time>2026-05-03T10:43:58.782Z</time></trkpt><trkpt lat="43.2791614" lon="11.6498925"><ele>307.7142857142857</ele><time>2026-05-03T10:44:01.808Z</time></trkpt><trkpt lat="43.2791929" lon="11.6497996"><ele>307.85714285714283</ele><time>2026-05-03T10:44:04.767Z</time></trkpt><trkpt lat="43.2792241" lon="11.6497132"><ele>308.0</ele><time>2026-05-03T10:44:07.767Z</time></trkpt><trkpt lat="43.2792512" lon="11.6496299"><ele>308.0</ele><time>2026-05-03T10:44:10.797Z</time></trkpt><trkpt lat="43.2792742" lon="11.6495467"><ele>308.0</ele><time>2026-05-03T10:44:13.787Z</time></trkpt><trkpt lat="43.2793116" lon="11.649458"><ele>308.0</ele><time>2026-05-03T10:44:16.767Z</time></trkpt><trkpt lat="43.2793508" lon="11.6493694"><ele>308.0</ele><time>2026-05-03T10:44:19.791Z</time></trkpt><trkpt lat="43.2793925" lon="11.6492833"><ele>308.0</ele><time>2026-05-03T10:44:22.808Z</time></trkpt><trkpt lat="43.2794352" lon="11.6492075"><ele>308.0</ele><time>2026-05-03T10:44:25.781Z</time></trkpt><trkpt lat="43.2794757" lon="11.649125"><ele>308.0</ele><time>2026-05-03T10:44:28.804Z</time></trkpt><trkpt lat="43.2795147" lon="11.6490483"><ele>307.85714285714283</ele><time>2026-05-03T10:44:31.771Z</time></trkpt><trkpt lat="43.2795545" lon="11.6489768"><ele>307.7142857142857</ele><time>2026-05-03T10:44:34.776Z</time></trkpt><trkpt lat="43.2795965" lon="11.6489058"><ele>307.57142857142856</ele><time>2026-05-03T10:44:37.775Z</time></trkpt><trkpt lat="43.2796422" lon="11.6488455"><ele>307.42857142857144</ele><time>2026-05-03T10:44:40.864Z</time></trkpt><trkpt lat="43.2796948" lon="11.648767"><ele>307.2857142857143</ele><time>2026-05-03T10:44:44.777Z</time></trkpt><trkpt lat="43.2797395" lon="11.6486957"><ele>307.1428571428571</ele><time>2026-05-03T10:44:47.746Z</time></trkpt><trkpt lat="43.2797804" lon="11.6486265"><ele>307.0</ele><time>2026-05-03T10:44:50.784Z</time></trkpt><trkpt lat="43.2798433" lon="11.6485538"><ele>307.2857142857143</ele><time>2026-05-03T10:44:54.797Z</time></trkpt><trkpt lat="43.2798976" lon="11.6485012"><ele>307.57142857142856</ele><time>2026-05-03T10:44:57.79Z</time></trkpt><trkpt lat="43.2799544" lon="11.6484446"><ele>307.8571428571429</ele><time>2026-05-03T10:45:00.766Z</time></trkpt><trkpt lat="43.2800059" lon="11.6483895"><ele>308.1428571428571</ele><time>2026-05-03T10:45:03.792Z</time></trkpt><trkpt lat="43.2800576" lon="11.648333"><ele>308.42857142857144</ele><time>2026-05-03T10:45:06.802Z</time></trkpt><trkpt lat="43.2801179" lon="11.6482641"><ele>308.7142857142857</ele><time>2026-05-03T10:45:10.814Z</time></trkpt><trkpt lat="43.2801817" lon="11.648194"><ele>309.0</ele><time>2026-05-03T10:45:14.827Z</time></trkpt><trkpt lat="43.2802447" lon="11.6481238"><ele>309.00000000000006</ele><time>2026-05-03T10:45:18.79Z</time></trkpt><trkpt lat="43.280309" lon="11.6480532"><ele>309.0</ele><time>2026-05-03T10:45:22.801Z</time></trkpt><trkpt lat="43.2803659" lon="11.6479886"><ele>309.0</ele><time>2026-05-03T10:45:26.806Z</time></trkpt><trkpt lat="43.2804179" lon="11.6479211"><ele>309.0</ele><time>2026-05-03T10:45:30.81Z</time></trkpt><trkpt lat="43.2804763" lon="11.6478673"><ele>309.0</ele><time>2026-05-03T10:45:34.786Z</time></trkpt><trkpt lat="43.2805266" lon="11.6478021"><ele>309.00000000000006</ele><time>2026-05-03T10:45:38.799Z</time></trkpt><trkpt lat="43.2805833" lon="11.6477399"><ele>309.0</ele><time>2026-05-03T10:45:42.824Z</time></trkpt><trkpt lat="43.2806307" lon="11.6476797"><ele>309.00000000000006</ele><time>2026-05-03T10:45:45.704Z</time></trkpt><trkpt lat="43.2806787" lon="11.6476202"><ele>309.0</ele><time>2026-05-03T10:45:48.785Z</time></trkpt><trkpt lat="43.2807286" lon="11.6475625"><ele>309.0</ele><time>2026-05-03T10:45:51.787Z</time></trkpt><trkpt lat="43.2807826" lon="11.6475"><ele>309.0</ele><time>2026-05-03T10:45:54.791Z</time></trkpt><trkpt lat="43.2808334" lon="11.647438"><ele>309.0</ele><time>2026-05-03T10:45:57.689Z</time></trkpt><trkpt lat="43.2808835" lon="11.6473692"><ele>309.00000000000006</ele><time>2026-05-03T10:46:00.796Z</time></trkpt><trkpt lat="43.2809314" lon="11.6473015"><ele>309.0</ele><time>2026-05-03T10:46:03.769Z</time></trkpt><trkpt lat="43.2809814" lon="11.6472396"><ele>309.00000000000006</ele><time>2026-05-03T10:46:06.78Z</time></trkpt><trkpt lat="43.2810269" lon="11.647175"><ele>309.0</ele><time>2026-05-03T10:46:09.798Z</time></trkpt><trkpt lat="43.2810724" lon="11.6471118"><ele>309.0</ele><time>2026-05-03T10:46:12.771Z</time></trkpt><trkpt lat="43.2811292" lon="11.6470274"><ele>309.0</ele><time>2026-05-03T10:46:16.731Z</time></trkpt><trkpt lat="43.2811798" lon="11.6469532"><ele>309.0</ele><time>2026-05-03T10:46:20.784Z</time></trkpt><trkpt lat="43.2812226" lon="11.646889"><ele>309.00000000000006</ele><time>2026-05-03T10:46:23.771Z</time></trkpt><trkpt lat="43.2812654" lon="11.6468217"><ele>309.0</ele><time>2026-05-03T10:46:26.447Z</time></trkpt><trkpt lat="43.2813345" lon="11.6467502"><ele>309.00000000000006</ele><time>2026-05-03T10:46:30.692Z</time></trkpt><trkpt lat="43.2813675" lon="11.6466436"><ele>309.0</ele><time>2026-05-03T10:46:33.787Z</time></trkpt><trkpt lat="43.2814149" lon="11.6465625"><ele>309.0</ele><time>2026-05-03T10:46:36.766Z</time></trkpt><trkpt lat="43.2814531" lon="11.6464883"><ele>309.0</ele><time>2026-05-03T10:46:39.688Z</time></trkpt><trkpt lat="43.2815063" lon="11.6464044"><ele>309.0</ele><time>2026-05-03T10:46:43.762Z</time></trkpt><trkpt lat="43.281551" lon="11.6463399"><ele>309.00000000000006</ele><time>2026-05-03T10:46:46.805Z</time></trkpt><trkpt lat="43.2816008" lon="11.6462864"><ele>309.0</ele><time>2026-05-03T10:46:49.792Z</time></trkpt><trkpt lat="43.2816621" lon="11.6462154"><ele>309.00000000000006</ele><time>2026-05-03T10:46:53.788Z</time></trkpt><trkpt lat="43.2817308" lon="11.6461561"><ele>309.0</ele><time>2026-05-03T10:46:57.77Z</time></trkpt><trkpt lat="43.281805" lon="11.6461166"><ele>309.0</ele><time>2026-05-03T10:47:01.763Z</time></trkpt><trkpt lat="43.2818782" lon="11.6460773"><ele>309.0</ele><time>2026-05-03T10:47:05.749Z</time></trkpt><trkpt lat="43.2819407" lon="11.6460543"><ele>309.0</ele><time>2026-05-03T10:47:08.786Z</time></trkpt><trkpt lat="43.2820016" lon="11.646022"><ele>309.00000000000006</ele><time>2026-05-03T10:47:11.797Z</time></trkpt><trkpt lat="43.282062" lon="11.6459881"><ele>309.0</ele><time>2026-05-03T10:47:14.791Z</time></trkpt><trkpt lat="43.2821293" lon="11.6459432"><ele>309.00000000000006</ele><time>2026-05-03T10:47:18.788Z</time></trkpt><trkpt lat="43.2821865" lon="11.6459043"><ele>309.0</ele><time>2026-05-03T10:47:21.762Z</time></trkpt><trkpt lat="43.2822423" lon="11.64586"><ele>309.0</ele><time>2026-05-03T10:47:24.807Z</time></trkpt><trkpt lat="43.2823079" lon="11.6457971"><ele>309.0</ele><time>2026-05-03T10:47:28.814Z</time></trkpt><trkpt lat="43.2823631" lon="11.6457416"><ele>309.0</ele><time>2026-05-03T10:47:32.79Z</time></trkpt><trkpt lat="43.28241" lon="11.6456798"><ele>309.00000000000006</ele><time>2026-05-03T10:47:35.79Z</time></trkpt><trkpt lat="43.2824584" lon="11.6455912"><ele>309.0</ele><time>2026-05-03T10:47:39.806Z</time></trkpt><trkpt lat="43.2824994" lon="11.6455064"><ele>309.5</ele><time>2026-05-03T10:47:43.756Z</time></trkpt><trkpt lat="43.2825391" lon="11.6454161"><ele>310.0</ele><time>2026-05-03T10:47:47.746Z</time></trkpt><trkpt lat="43.2825617" lon="11.6453111"><ele>310.5</ele><time>2026-05-03T10:47:51.796Z</time></trkpt><trkpt lat="43.2826067" lon="11.6452123"><ele>311.0</ele><time>2026-05-03T10:47:55.756Z</time></trkpt><trkpt lat="43.2826438" lon="11.6451106"><ele>311.5</ele><time>2026-05-03T10:47:59.725Z</time></trkpt><trkpt lat="43.282672" lon="11.6450269"><ele>312.0</ele><time>2026-05-03T10:48:02.759Z</time></trkpt><trkpt lat="43.2827041" lon="11.6449353"><ele>312.0</ele><time>2026-05-03T10:48:05.834Z</time></trkpt><trkpt lat="43.2827396" lon="11.6448384"><ele>312.0</ele><time>2026-05-03T10:48:09.773Z</time></trkpt><trkpt lat="43.282763" lon="11.6447351"><ele>312.0</ele><time>2026-05-03T10:48:13.801Z</time></trkpt><trkpt lat="43.2827744" lon="11.6446481"><ele>312.0</ele><time>2026-05-03T10:48:16.773Z</time></trkpt><trkpt lat="43.2827818" lon="11.6445544"><ele>312.0</ele><time>2026-05-03T10:48:19.861Z</time></trkpt><trkpt lat="43.2827888" lon="11.6444664"><ele>312.0</ele><time>2026-05-03T10:48:22.793Z</time></trkpt><trkpt lat="43.2827945" lon="11.644364"><ele>312.0</ele><time>2026-05-03T10:48:26.793Z</time></trkpt><trkpt lat="43.2828073" lon="11.6442542"><ele>311.8333333333333</ele><time>2026-05-03T10:48:30.798Z</time></trkpt><trkpt lat="43.2828223" lon="11.6441465"><ele>311.6666666666667</ele><time>2026-05-03T10:48:34.797Z</time></trkpt><trkpt lat="43.2828507" lon="11.6440459"><ele>311.5</ele><time>2026-05-03T10:48:38.827Z</time></trkpt><trkpt lat="43.28288" lon="11.6439461"><ele>311.33333333333337</ele><time>2026-05-03T10:48:42.825Z</time></trkpt><trkpt lat="43.2829165" lon="11.6438541"><ele>311.1666666666667</ele><time>2026-05-03T10:48:46.781Z</time></trkpt><trkpt lat="43.282964" lon="11.6437696"><ele>311.0</ele><time>2026-05-03T10:48:50.78Z</time></trkpt><trkpt lat="43.2830112" lon="11.6436909"><ele>311.1666666666667</ele><time>2026-05-03T10:48:54.806Z</time></trkpt><trkpt lat="43.2830615" lon="11.6435989"><ele>311.33333333333337</ele><time>2026-05-03T10:48:58.78Z</time></trkpt><trkpt lat="43.2831044" lon="11.6435231"><ele>311.5</ele><time>2026-05-03T10:49:01.713Z</time></trkpt><trkpt lat="43.28315" lon="11.6434471"><ele>311.6666666666667</ele><time>2026-05-03T10:49:04.796Z</time></trkpt><trkpt lat="43.2831918" lon="11.6433736"><ele>311.8333333333333</ele><time>2026-05-03T10:49:07.785Z</time></trkpt><trkpt lat="43.283235" lon="11.6432768"><ele>312.0</ele><time>2026-05-03T10:49:11.762Z</time></trkpt><trkpt lat="43.2832724" lon="11.6431764"><ele>312.1666666666667</ele><time>2026-05-03T10:49:15.749Z</time></trkpt><trkpt lat="43.2833116" lon="11.6430806"><ele>312.3333333333333</ele><time>2026-05-03T10:49:19.706Z</time></trkpt><trkpt lat="43.2833535" lon="11.6429848"><ele>312.5</ele><time>2026-05-03T10:49:23.709Z</time></trkpt><trkpt lat="43.2833823" lon="11.6429063"><ele>312.66666666666663</ele><time>2026-05-03T10:49:26.814Z</time></trkpt><trkpt lat="43.2834206" lon="11.6428063"><ele>312.8333333333333</ele><time>2026-05-03T10:49:30.784Z</time></trkpt><trkpt lat="43.283455" lon="11.6427073"><ele>313.0</ele><time>2026-05-03T10:49:34.797Z</time></trkpt><trkpt lat="43.2834876" lon="11.6426269"><ele>313.0</ele><time>2026-05-03T10:49:37.829Z</time></trkpt><trkpt lat="43.2835267" lon="11.642551"><ele>313.0</ele><time>2026-05-03T10:49:40.76Z</time></trkpt><trkpt lat="43.2835733" lon="11.6424737"><ele>313.0</ele><time>2026-05-03T10:49:43.766Z</time></trkpt><trkpt lat="43.2836198" lon="11.642388"><ele>313.0</ele><time>2026-05-03T10:49:46.781Z</time></trkpt><trkpt lat="43.2836675" lon="11.6423138"><ele>313.0</ele><time>2026-05-03T10:49:49.671Z</time></trkpt><trkpt lat="43.2837167" lon="11.6422438"><ele>313.0</ele><time>2026-05-03T10:49:52.816Z</time></trkpt><trkpt lat="43.2837623" lon="11.6421821"><ele>313.0</ele><time>2026-05-03T10:49:55.806Z</time></trkpt><trkpt lat="43.283804" lon="11.6421131"><ele>313.0</ele><time>2026-05-03T10:49:58.703Z</time></trkpt><trkpt lat="43.2838431" lon="11.6420374"><ele>313.0</ele><time>2026-05-03T10:50:01.782Z</time></trkpt><trkpt lat="43.2838832" lon="11.6419617"><ele>313.0</ele><time>2026-05-03T10:50:04.77Z</time></trkpt><trkpt lat="43.2839203" lon="11.6418784"><ele>313.0</ele><time>2026-05-03T10:50:07.799Z</time></trkpt><trkpt lat="43.2839532" lon="11.6417969"><ele>313.0</ele><time>2026-05-03T10:50:10.776Z</time></trkpt><trkpt lat="43.2839913" lon="11.6417156"><ele>313.0</ele><time>2026-05-03T10:50:13.76Z</time></trkpt><trkpt lat="43.2840271" lon="11.6416378"><ele>313.0</ele><time>2026-05-03T10:50:16.783Z</time></trkpt><trkpt lat="43.2840741" lon="11.6415509"><ele>313.0</ele><time>2026-05-03T10:50:20.746Z</time></trkpt><trkpt lat="43.2841184" lon="11.6414871"><ele>313.0</ele><time>2026-05-03T10:50:23.784Z</time></trkpt><trkpt lat="43.2841654" lon="11.6414275"><ele>313.0</ele><time>2026-05-03T10:50:26.774Z</time></trkpt><trkpt lat="43.2842156" lon="11.6413691"><ele>313.0</ele><time>2026-05-03T10:50:29.764Z</time></trkpt><trkpt lat="43.2842671" lon="11.641316"><ele>313.0</ele><time>2026-05-03T10:50:32.785Z</time></trkpt><trkpt lat="43.2843196" lon="11.6412635"><ele>313.0</ele><time>2026-05-03T10:50:35.769Z</time></trkpt><trkpt lat="43.2843811" lon="11.641202"><ele>313.0</ele><time>2026-05-03T10:50:39.792Z</time></trkpt><trkpt lat="43.2844428" lon="11.641147"><ele>313.1428571428571</ele><time>2026-05-03T10:50:43.774Z</time></trkpt><trkpt lat="43.2845141" lon="11.641086"><ele>313.2857142857143</ele><time>2026-05-03T10:50:47.786Z</time></trkpt><trkpt lat="43.2845706" lon="11.6410398"><ele>313.42857142857144</ele><time>2026-05-03T10:50:50.746Z</time></trkpt><trkpt lat="43.2846396" lon="11.640995"><ele>313.57142857142856</ele><time>2026-05-03T10:50:54.786Z</time></trkpt><trkpt lat="43.2847004" lon="11.6409517"><ele>313.7142857142857</ele><time>2026-05-03T10:50:58.787Z</time></trkpt><trkpt lat="43.2847498" lon="11.6408885"><ele>313.85714285714283</ele><time>2026-05-03T10:51:02.834Z</time></trkpt><trkpt lat="43.2848122" lon="11.6408268"><ele>314.0</ele><time>2026-05-03T10:51:06.769Z</time></trkpt><trkpt lat="43.2848732" lon="11.6407537"><ele>314.4285714285714</ele><time>2026-05-03T10:51:10.792Z</time></trkpt><trkpt lat="43.2849257" lon="11.640703"><ele>314.85714285714283</ele><time>2026-05-03T10:51:13.751Z</time></trkpt><trkpt lat="43.284981" lon="11.640656"><ele>315.2857142857143</ele><time>2026-05-03T10:51:16.777Z</time></trkpt><trkpt lat="43.2850492" lon="11.6405961"><ele>315.71428571428567</ele><time>2026-05-03T10:51:20.788Z</time></trkpt><trkpt lat="43.285108" lon="11.6405599"><ele>316.1428571428571</ele><time>2026-05-03T10:51:23.794Z</time></trkpt><trkpt lat="43.2851577" lon="11.6405044"><ele>316.57142857142856</ele><time>2026-05-03T10:51:29.813Z</time></trkpt><trkpt lat="43.2852132" lon="11.6404403"><ele>317.0</ele><time>2026-05-03T10:51:35.829Z</time></trkpt><trkpt lat="43.2852721" lon="11.6404087"><ele>317.0</ele><time>2026-05-03T10:51:40.803Z</time></trkpt><trkpt lat="43.2853432" lon="11.6403703"><ele>317.0</ele><time>2026-05-03T10:51:46.799Z</time></trkpt><trkpt lat="43.2854135" lon="11.640343"><ele>317.0</ele><time>2026-05-03T10:51:52.775Z</time></trkpt><trkpt lat="43.2854731" lon="11.6403019"><ele>317.0</ele><time>2026-05-03T10:52:24.773Z</time></trkpt><trkpt lat="43.2855279" lon="11.6402478"><ele>317.0</ele><time>2026-05-03T10:52:29.803Z</time></trkpt><trkpt lat="43.2855833" lon="11.6401924"><ele>317.0</ele><time>2026-05-03T10:52:35.795Z</time></trkpt><trkpt lat="43.2856409" lon="11.6401405"><ele>317.0</ele><time>2026-05-03T10:52:42.809Z</time></trkpt><trkpt lat="43.2856921" lon="11.6400885"><ele>317.1666666666667</ele><time>2026-05-03T10:52:47.788Z</time></trkpt><trkpt lat="43.2857567" lon="11.6400459"><ele>317.33333333333337</ele><time>2026-05-03T10:52:53.766Z</time></trkpt><trkpt lat="43.2858219" lon="11.640015"><ele>317.5</ele><time>2026-05-03T10:52:59.796Z</time></trkpt><trkpt lat="43.2859016" lon="11.6399877"><ele>317.6666666666667</ele><time>2026-05-03T10:53:04.778Z</time></trkpt><trkpt lat="43.2859758" lon="11.6399317"><ele>317.8333333333333</ele><time>2026-05-03T10:53:08.81Z</time></trkpt><trkpt lat="43.2860451" lon="11.6398786"><ele>318.0</ele><time>2026-05-03T10:53:12.801Z</time></trkpt><trkpt lat="43.2861011" lon="11.6398384"><ele>318.0</ele><time>2026-05-03T10:53:15.81Z</time></trkpt><trkpt lat="43.2861712" lon="11.6397832"><ele>318.0</ele><time>2026-05-03T10:53:19.769Z</time></trkpt><trkpt lat="43.2862359" lon="11.6397338"><ele>318.0</ele><time>2026-05-03T10:53:23.756Z</time></trkpt><trkpt lat="43.2862935" lon="11.6396969"><ele>318.0</ele><time>2026-05-03T10:53:27.805Z</time></trkpt><trkpt lat="43.2863519" lon="11.6396415"><ele>318.0</ele><time>2026-05-03T10:53:33.768Z</time></trkpt><trkpt lat="43.2864127" lon="11.6395901"><ele>318.0</ele><time>2026-05-03T10:53:39.765Z</time></trkpt><trkpt lat="43.2864726" lon="11.6395408"><ele>318.0</ele><time>2026-05-03T10:53:45.792Z</time></trkpt><trkpt lat="43.2865324" lon="11.6394698"><ele>318.85714285714283</ele><time>2026-05-03T10:53:51.789Z</time></trkpt><trkpt lat="43.2865846" lon="11.6394092"><ele>319.7142857142857</ele><time>2026-05-03T10:53:57.806Z</time></trkpt><trkpt lat="43.2866491" lon="11.6393542"><ele>320.57142857142856</ele><time>2026-05-03T10:54:04.754Z</time></trkpt><trkpt lat="43.2867171" lon="11.6393044"><ele>321.42857142857144</ele><time>2026-05-03T10:54:10.788Z</time></trkpt><trkpt lat="43.2867785" lon="11.6392589"><ele>322.2857142857143</ele><time>2026-05-03T10:54:16.768Z</time></trkpt><trkpt lat="43.2868381" lon="11.6392107"><ele>323.14285714285717</ele><time>2026-05-03T10:54:22.809Z</time></trkpt><trkpt lat="43.2868989" lon="11.6391839"><ele>324.0</ele><time>2026-05-03T10:54:27.77Z</time></trkpt><trkpt lat="43.286957" lon="11.6391323"><ele>324.0</ele><time>2026-05-03T10:54:34.77Z</time></trkpt><trkpt lat="43.2870021" lon="11.6390647"><ele>324.0</ele><time>2026-05-03T10:54:39.803Z</time></trkpt><trkpt lat="43.2870747" lon="11.6390381"><ele>324.0</ele><time>2026-05-03T10:54:47.778Z</time></trkpt><trkpt lat="43.2871338" lon="11.6389701"><ele>324.0</ele><time>2026-05-03T10:54:50.799Z</time></trkpt><trkpt lat="43.2871985" lon="11.6389127"><ele>324.0</ele><time>2026-05-03T10:54:53.686Z</time></trkpt><trkpt lat="43.2872594" lon="11.6388407"><ele>324.0</ele><time>2026-05-03T10:54:56.773Z</time></trkpt><trkpt lat="43.2872957" lon="11.6387393"><ele>323.8571428571429</ele><time>2026-05-03T10:54:59.777Z</time></trkpt><trkpt lat="43.2873133" lon="11.6386558"><ele>323.7142857142857</ele><time>2026-05-03T10:55:01.786Z</time></trkpt><trkpt lat="43.2873305" lon="11.6385643"><ele>323.57142857142856</ele><time>2026-05-03T10:55:04.364Z</time></trkpt><trkpt lat="43.2873419" lon="11.6384741"><ele>323.42857142857144</ele><time>2026-05-03T10:55:06.796Z</time></trkpt><trkpt lat="43.2873572" lon="11.6383664"><ele>323.2857142857143</ele><time>2026-05-03T10:55:09.806Z</time></trkpt><trkpt lat="43.2873639" lon="11.6382639"><ele>323.14285714285717</ele><time>2026-05-03T10:55:12.753Z</time></trkpt><trkpt lat="43.287375" lon="11.6381623"><ele>323.0</ele><time>2026-05-03T10:55:15.82Z</time></trkpt><trkpt lat="43.2873974" lon="11.6380689"><ele>323.00000000000006</ele><time>2026-05-03T10:55:18.731Z</time></trkpt><trkpt lat="43.2874307" lon="11.6379852"><ele>323.0</ele><time>2026-05-03T10:55:21.786Z</time></trkpt><trkpt lat="43.2874669" lon="11.6379036"><ele>323.0</ele><time>2026-05-03T10:55:24.727Z</time></trkpt><trkpt lat="43.2875267" lon="11.6378543"><ele>323.0</ele><time>2026-05-03T10:55:27.785Z</time></trkpt><trkpt lat="43.2875851" lon="11.6378021"><ele>323.0</ele><time>2026-05-03T10:55:30.671Z</time></trkpt><trkpt lat="43.2876421" lon="11.6377554"><ele>323.00000000000006</ele><time>2026-05-03T10:55:33.778Z</time></trkpt><trkpt lat="43.287708" lon="11.637704"><ele>323.0</ele><time>2026-05-03T10:55:37.691Z</time></trkpt><trkpt lat="43.2877626" lon="11.6376566"><ele>322.83333333333337</ele><time>2026-05-03T10:55:40.787Z</time></trkpt><trkpt lat="43.2878198" lon="11.6376172"><ele>322.6666666666667</ele><time>2026-05-03T10:55:43.795Z</time></trkpt><trkpt lat="43.287891" lon="11.6375737"><ele>322.5</ele><time>2026-05-03T10:55:47.775Z</time></trkpt><trkpt lat="43.2879612" lon="11.637521"><ele>322.3333333333333</ele><time>2026-05-03T10:55:51.814Z</time></trkpt><trkpt lat="43.2880318" lon="11.6374655"><ele>322.16666666666663</ele><time>2026-05-03T10:55:55.795Z</time></trkpt><trkpt lat="43.2880967" lon="11.6374158"><ele>322.0</ele><time>2026-05-03T10:55:59.75Z</time></trkpt><trkpt lat="43.288167" lon="11.6373665"><ele>322.0</ele><time>2026-05-03T10:56:03.678Z</time></trkpt><trkpt lat="43.2882298" lon="11.6373144"><ele>322.0</ele><time>2026-05-03T10:56:06.81Z</time></trkpt><trkpt lat="43.2882922" lon="11.6372562"><ele>322.0</ele><time>2026-05-03T10:56:09.731Z</time></trkpt><trkpt lat="43.2883482" lon="11.6371968"><ele>322.0</ele><time>2026-05-03T10:56:12.804Z</time></trkpt><trkpt lat="43.2884001" lon="11.6371443"><ele>322.0</ele><time>2026-05-03T10:56:15.79Z</time></trkpt><trkpt lat="43.2884762" lon="11.6370997"><ele>322.0</ele><time>2026-05-03T10:56:19.707Z</time></trkpt><trkpt lat="43.2885536" lon="11.6370641"><ele>322.0</ele><time>2026-05-03T10:56:23.79Z</time></trkpt><trkpt lat="43.2886145" lon="11.637032"><ele>322.0</ele><time>2026-05-03T10:56:26.783Z</time></trkpt><trkpt lat="43.2886757" lon="11.637003"><ele>322.0</ele><time>2026-05-03T10:56:29.707Z</time></trkpt><trkpt lat="43.2887411" lon="11.6369767"><ele>322.0</ele><time>2026-05-03T10:56:32.806Z</time></trkpt><trkpt lat="43.2888046" lon="11.6369597"><ele>322.0</ele><time>2026-05-03T10:56:35.703Z</time></trkpt><trkpt lat="43.288872" lon="11.6369491"><ele>322.0</ele><time>2026-05-03T10:56:38.794Z</time></trkpt><trkpt lat="43.2889369" lon="11.6369534"><ele>322.0</ele><time>2026-05-03T10:56:41.73Z</time></trkpt><trkpt lat="43.2890212" lon="11.6369665"><ele>322.0</ele><time>2026-05-03T10:56:45.779Z</time></trkpt><trkpt lat="43.2890852" lon="11.6369701"><ele>322.14285714285717</ele><time>2026-05-03T10:56:48.794Z</time></trkpt><trkpt lat="43.2891533" lon="11.6369683"><ele>322.2857142857143</ele><time>2026-05-03T10:56:51.708Z</time></trkpt><trkpt lat="43.2892383" lon="11.6369643"><ele>322.42857142857144</ele><time>2026-05-03T10:56:55.817Z</time></trkpt><trkpt lat="43.2893186" lon="11.6369576"><ele>322.57142857142856</ele><time>2026-05-03T10:56:59.768Z</time></trkpt><trkpt lat="43.2893817" lon="11.6369405"><ele>322.7142857142857</ele><time>2026-05-03T10:57:02.785Z</time></trkpt><trkpt lat="43.2894444" lon="11.6369041"><ele>322.8571428571429</ele><time>2026-05-03T10:57:05.783Z</time></trkpt><trkpt lat="43.2894999" lon="11.6368457"><ele>323.0</ele><time>2026-05-03T10:57:08.708Z</time></trkpt><trkpt lat="43.2895442" lon="11.6367446"><ele>323.0</ele><time>2026-05-03T10:57:11.792Z</time></trkpt><trkpt lat="43.2895774" lon="11.6366404"><ele>323.0</ele><time>2026-05-03T10:57:14.78Z</time></trkpt><trkpt lat="43.2896071" lon="11.6365334"><ele>323.0</ele><time>2026-05-03T10:57:17.842Z</time></trkpt><trkpt lat="43.2896347" lon="11.6364396"><ele>323.0</ele><time>2026-05-03T10:57:20.704Z</time></trkpt><trkpt lat="43.2896579" lon="11.6363392"><ele>323.0</ele><time>2026-05-03T10:57:23.783Z</time></trkpt><trkpt lat="43.2896868" lon="11.6362501"><ele>323.0</ele><time>2026-05-03T10:57:26.788Z</time></trkpt><trkpt lat="43.2897066" lon="11.6361663"><ele>323.1666666666667</ele><time>2026-05-03T10:57:29.798Z</time></trkpt><trkpt lat="43.2897332" lon="11.6360728"><ele>323.33333333333337</ele><time>2026-05-03T10:57:32.787Z</time></trkpt><trkpt lat="43.2897704" lon="11.6359779"><ele>323.5</ele><time>2026-05-03T10:57:35.776Z</time></trkpt><trkpt lat="43.289809" lon="11.6358808"><ele>323.6666666666667</ele><time>2026-05-03T10:57:38.812Z</time></trkpt><trkpt lat="43.2898459" lon="11.6357887"><ele>323.8333333333333</ele><time>2026-05-03T10:57:41.777Z</time></trkpt><trkpt lat="43.2898867" lon="11.6356999"><ele>324.0</ele><time>2026-05-03T10:57:44.766Z</time></trkpt><trkpt lat="43.2899244" lon="11.6356123"><ele>324.0</ele><time>2026-05-03T10:57:47.789Z</time></trkpt><trkpt lat="43.2899726" lon="11.6355169"><ele>324.0</ele><time>2026-05-03T10:57:50.83Z</time></trkpt><trkpt lat="43.2900185" lon="11.6354348"><ele>324.0</ele><time>2026-05-03T10:57:53.778Z</time></trkpt><trkpt lat="43.2900605" lon="11.6353399"><ele>324.0</ele><time>2026-05-03T10:57:56.843Z</time></trkpt><trkpt lat="43.290094" lon="11.6352587"><ele>324.0</ele><time>2026-05-03T10:57:59.764Z</time></trkpt><trkpt lat="43.2901307" lon="11.6351798"><ele>324.0</ele><time>2026-05-03T10:58:02.794Z</time></trkpt><trkpt lat="43.2901674" lon="11.6351041"><ele>324.0</ele><time>2026-05-03T10:58:05.786Z</time></trkpt><trkpt lat="43.290205" lon="11.6350217"><ele>323.57142857142856</ele><time>2026-05-03T10:58:08.842Z</time></trkpt><trkpt lat="43.2902429" lon="11.6349398"><ele>323.1428571428571</ele><time>2026-05-03T10:58:11.789Z</time></trkpt><trkpt lat="43.2902813" lon="11.6348616"><ele>322.71428571428567</ele><time>2026-05-03T10:58:14.798Z</time></trkpt><trkpt lat="43.2903164" lon="11.6347808"><ele>322.2857142857143</ele><time>2026-05-03T10:58:17.794Z</time></trkpt><trkpt lat="43.2903545" lon="11.6346975"><ele>321.85714285714283</ele><time>2026-05-03T10:58:20.774Z</time></trkpt><trkpt lat="43.2903902" lon="11.6346224"><ele>321.4285714285714</ele><time>2026-05-03T10:58:23.795Z</time></trkpt><trkpt lat="43.2904397" lon="11.6345323"><ele>321.0</ele><time>2026-05-03T10:58:27.828Z</time></trkpt><trkpt lat="43.2904874" lon="11.634431"><ele>320.85714285714283</ele><time>2026-05-03T10:58:31.733Z</time></trkpt><trkpt lat="43.2905229" lon="11.6343551"><ele>320.7142857142857</ele><time>2026-05-03T10:58:34.787Z</time></trkpt><trkpt lat="43.2905609" lon="11.6342774"><ele>320.57142857142856</ele><time>2026-05-03T10:58:37.741Z</time></trkpt><trkpt lat="43.2906098" lon="11.6341994"><ele>320.42857142857144</ele><time>2026-05-03T10:58:40.791Z</time></trkpt><trkpt lat="43.2906573" lon="11.6341233"><ele>320.2857142857143</ele><time>2026-05-03T10:58:43.799Z</time></trkpt><trkpt lat="43.290699" lon="11.6340484"><ele>320.1428571428571</ele><time>2026-05-03T10:58:46.785Z</time></trkpt><trkpt lat="43.29074" lon="11.6339653"><ele>320.0</ele><time>2026-05-03T10:58:49.779Z</time></trkpt><trkpt lat="43.2907738" lon="11.6338769"><ele>320.0</ele><time>2026-05-03T10:58:52.705Z</time></trkpt><trkpt lat="43.2908038" lon="11.633795"><ele>320.0</ele><time>2026-05-03T10:58:55.797Z</time></trkpt><trkpt lat="43.290823" lon="11.6337081"><ele>320.0</ele><time>2026-05-03T10:58:58.749Z</time></trkpt><trkpt lat="43.2908473" lon="11.6336013"><ele>320.0</ele><time>2026-05-03T10:59:02.712Z</time></trkpt><trkpt lat="43.2908753" lon="11.633518"><ele>320.0</ele><time>2026-05-03T10:59:05.816Z</time></trkpt><trkpt lat="43.2909013" lon="11.6334175"><ele>320.0</ele><time>2026-05-03T10:59:09.775Z</time></trkpt><trkpt lat="43.2909318" lon="11.6333173"><ele>320.0</ele><time>2026-05-03T10:59:13.782Z</time></trkpt><trkpt lat="43.2909439" lon="11.6332041"><ele>320.0</ele><time>2026-05-03T10:59:17.731Z</time></trkpt><trkpt lat="43.2909654" lon="11.6331174"><ele>320.0</ele><time>2026-05-03T10:59:20.787Z</time></trkpt><trkpt lat="43.2909873" lon="11.6330302"><ele>320.0</ele><time>2026-05-03T10:59:23.811Z</time></trkpt><trkpt lat="43.2910171" lon="11.6329482"><ele>320.0</ele><time>2026-05-03T10:59:26.777Z</time></trkpt><trkpt lat="43.2910465" lon="11.6328558"><ele>320.0</ele><time>2026-05-03T10:59:29.799Z</time></trkpt><trkpt lat="43.2910691" lon="11.6327643"><ele>320.0</ele><time>2026-05-03T10:59:32.771Z</time></trkpt><trkpt lat="43.291085" lon="11.6326803"><ele>320.0</ele><time>2026-05-03T10:59:35.778Z</time></trkpt><trkpt lat="43.2911061" lon="11.6325948"><ele>320.0</ele><time>2026-05-03T10:59:38.805Z</time></trkpt><trkpt lat="43.2911318" lon="11.6324872"><ele>320.0</ele><time>2026-05-03T10:59:42.826Z</time></trkpt><trkpt lat="43.2911594" lon="11.6323998"><ele>320.0</ele><time>2026-05-03T10:59:45.77Z</time></trkpt><trkpt lat="43.2912001" lon="11.632323"><ele>320.0</ele><time>2026-05-03T10:59:48.831Z</time></trkpt><trkpt lat="43.2912041" lon="11.6322324"><ele>320.0</ele><time>2026-05-03T10:59:51.714Z</time></trkpt><trkpt lat="43.2912245" lon="11.6321479"><ele>320.0</ele><time>2026-05-03T10:59:54.778Z</time></trkpt><trkpt lat="43.2912478" lon="11.6320641"><ele>320.0</ele><time>2026-05-03T10:59:57.829Z</time></trkpt><trkpt lat="43.2912747" lon="11.631965"><ele>320.0</ele><time>2026-05-03T11:00:01.712Z</time></trkpt><trkpt lat="43.2913024" lon="11.6318626"><ele>320.0</ele><time>2026-05-03T11:00:05.652Z</time></trkpt><trkpt lat="43.2913251" lon="11.6317614"><ele>320.0</ele><time>2026-05-03T11:00:09.789Z</time></trkpt><trkpt lat="43.2913452" lon="11.6316602"><ele>320.0</ele><time>2026-05-03T11:00:13.786Z</time></trkpt><trkpt lat="43.2913621" lon="11.6315705"><ele>320.0</ele><time>2026-05-03T11:00:16.827Z</time></trkpt><trkpt lat="43.2913871" lon="11.6314859"><ele>320.0</ele><time>2026-05-03T11:00:19.73Z</time></trkpt><trkpt lat="43.2914119" lon="11.6314034"><ele>320.0</ele><time>2026-05-03T11:00:22.828Z</time></trkpt><trkpt lat="43.2914394" lon="11.6313065"><ele>320.1428571428571</ele><time>2026-05-03T11:00:26.766Z</time></trkpt><trkpt lat="43.2914529" lon="11.6312068"><ele>320.2857142857143</ele><time>2026-05-03T11:00:30.8Z</time></trkpt><trkpt lat="43.2914545" lon="11.6311157"><ele>320.42857142857144</ele><time>2026-05-03T11:00:33.804Z</time></trkpt><trkpt lat="43.2914614" lon="11.6310058"><ele>320.57142857142856</ele><time>2026-05-03T11:00:37.767Z</time></trkpt><trkpt lat="43.2914627" lon="11.630903"><ele>320.7142857142857</ele><time>2026-05-03T11:00:41.786Z</time></trkpt><trkpt lat="43.2914525" lon="11.6307957"><ele>320.85714285714283</ele><time>2026-05-03T11:00:45.766Z</time></trkpt><trkpt lat="43.2914369" lon="11.6307103"><ele>321.0</ele><time>2026-05-03T11:00:48.806Z</time></trkpt><trkpt lat="43.2914147" lon="11.6306128"><ele>320.85714285714283</ele><time>2026-05-03T11:00:51.827Z</time></trkpt><trkpt lat="43.2913899" lon="11.6305054"><ele>320.7142857142857</ele><time>2026-05-03T11:00:55.712Z</time></trkpt><trkpt lat="43.2913824" lon="11.6303906"><ele>320.57142857142856</ele><time>2026-05-03T11:00:59.784Z</time></trkpt><trkpt lat="43.2913781" lon="11.6302966"><ele>320.42857142857144</ele><time>2026-05-03T11:01:02.802Z</time></trkpt><trkpt lat="43.2913753" lon="11.6302078"><ele>320.2857142857143</ele><time>2026-05-03T11:01:05.775Z</time></trkpt><trkpt lat="43.2913665" lon="11.6301101"><ele>320.1428571428571</ele><time>2026-05-03T11:01:08.789Z</time></trkpt><trkpt lat="43.2913668" lon="11.6300127"><ele>320.0</ele><time>2026-05-03T11:01:11.805Z</time></trkpt><trkpt lat="43.2913637" lon="11.6299182"><ele>320.0</ele><time>2026-05-03T11:01:14.783Z</time></trkpt><trkpt lat="43.2913677" lon="11.6297933"><ele>320.0</ele><time>2026-05-03T11:01:18.812Z</time></trkpt><trkpt lat="43.2913657" lon="11.6296927"><ele>320.0</ele><time>2026-05-03T11:01:21.804Z</time></trkpt><trkpt lat="43.2913705" lon="11.6295959"><ele>320.0</ele><time>2026-05-03T11:01:24.726Z</time></trkpt><trkpt lat="43.2913838" lon="11.629499"><ele>320.0</ele><time>2026-05-03T11:01:27.793Z</time></trkpt><trkpt lat="43.2913943" lon="11.6294004"><ele>320.0</ele><time>2026-05-03T11:01:30.811Z</time></trkpt><trkpt lat="43.2914123" lon="11.6293166"><ele>320.0</ele><time>2026-05-03T11:01:33.729Z</time></trkpt><trkpt lat="43.2914322" lon="11.6292128"><ele>320.42857142857144</ele><time>2026-05-03T11:01:37.75Z</time></trkpt><trkpt lat="43.2914511" lon="11.6291114"><ele>320.8571428571429</ele><time>2026-05-03T11:01:41.774Z</time></trkpt><trkpt lat="43.2914742" lon="11.6290166"><ele>321.28571428571433</ele><time>2026-05-03T11:01:45.816Z</time></trkpt><trkpt lat="43.2915013" lon="11.6289241"><ele>321.7142857142857</ele><time>2026-05-03T11:01:49.824Z</time></trkpt><trkpt lat="43.2915357" lon="11.6288427"><ele>322.14285714285717</ele><time>2026-05-03T11:01:53.79Z</time></trkpt><trkpt lat="43.2915882" lon="11.6287668"><ele>322.5714285714286</ele><time>2026-05-03T11:01:57.814Z</time></trkpt><trkpt lat="43.2916272" lon="11.6286907"><ele>323.0</ele><time>2026-05-03T11:02:00.786Z</time></trkpt><trkpt lat="43.2916523" lon="11.6285978"><ele>323.00000000000006</ele><time>2026-05-03T11:02:03.783Z</time></trkpt><trkpt lat="43.2916675" lon="11.6284994"><ele>323.0</ele><time>2026-05-03T11:02:06.848Z</time></trkpt><trkpt lat="43.29167" lon="11.6284075"><ele>323.0</ele><time>2026-05-03T11:02:09.766Z</time></trkpt><trkpt lat="43.2916688" lon="11.628302"><ele>323.0</ele><time>2026-05-03T11:02:12.773Z</time></trkpt><trkpt lat="43.2916625" lon="11.6281997"><ele>323.0</ele><time>2026-05-03T11:02:15.727Z</time></trkpt><trkpt lat="43.2916509" lon="11.6280985"><ele>323.00000000000006</ele><time>2026-05-03T11:02:18.781Z</time></trkpt><trkpt lat="43.2916335" lon="11.6280138"><ele>323.0</ele><time>2026-05-03T11:02:21.412Z</time></trkpt><trkpt lat="43.2916164" lon="11.6279292"><ele>323.0</ele><time>2026-05-03T11:02:23.812Z</time></trkpt><trkpt lat="43.2915946" lon="11.6278268"><ele>323.0</ele><time>2026-05-03T11:02:26.749Z</time></trkpt><trkpt lat="43.2915715" lon="11.6277277"><ele>323.0</ele><time>2026-05-03T11:02:29.758Z</time></trkpt><trkpt lat="43.2915534" lon="11.6276263"><ele>323.0</ele><time>2026-05-03T11:02:32.724Z</time></trkpt><trkpt lat="43.2915311" lon="11.6275271"><ele>323.0</ele><time>2026-05-03T11:02:35.827Z</time></trkpt><trkpt lat="43.291509" lon="11.6274137"><ele>323.0</ele><time>2026-05-03T11:02:39.761Z</time></trkpt><trkpt lat="43.2914838" lon="11.6273022"><ele>323.00000000000006</ele><time>2026-05-03T11:02:43.799Z</time></trkpt><trkpt lat="43.2914658" lon="11.6272079"><ele>323.0</ele><time>2026-05-03T11:02:46.798Z</time></trkpt><trkpt lat="43.2914525" lon="11.6271131"><ele>323.0</ele><time>2026-05-03T11:02:49.688Z</time></trkpt><trkpt lat="43.2914327" lon="11.6270236"><ele>323.0</ele><time>2026-05-03T11:02:52.764Z</time></trkpt><trkpt lat="43.2914074" lon="11.6269426"><ele>323.0</ele><time>2026-05-03T11:02:55.702Z</time></trkpt><trkpt lat="43.2913808" lon="11.6268377"><ele>323.00000000000006</ele><time>2026-05-03T11:02:59.774Z</time></trkpt><trkpt lat="43.2913683" lon="11.6267384"><ele>323.0</ele><time>2026-05-03T11:03:02.78Z</time></trkpt><trkpt lat="43.2913518" lon="11.6266409"><ele>323.0</ele><time>2026-05-03T11:03:05.761Z</time></trkpt><trkpt lat="43.2913287" lon="11.626535"><ele>323.0</ele><time>2026-05-03T11:03:08.771Z</time></trkpt><trkpt lat="43.2913095" lon="11.626431"><ele>323.0</ele><time>2026-05-03T11:03:11.727Z</time></trkpt><trkpt lat="43.2912921" lon="11.6263419"><ele>323.0</ele><time>2026-05-03T11:03:14.781Z</time></trkpt><trkpt lat="43.2912717" lon="11.6262469"><ele>323.0</ele><time>2026-05-03T11:03:17.799Z</time></trkpt><trkpt lat="43.2912479" lon="11.626149"><ele>323.0</ele><time>2026-05-03T11:03:20.783Z</time></trkpt><trkpt lat="43.2912279" lon="11.6260473"><ele>322.5714285714286</ele><time>2026-05-03T11:03:23.767Z</time></trkpt><trkpt lat="43.2912071" lon="11.6259457"><ele>322.14285714285717</ele><time>2026-05-03T11:03:26.802Z</time></trkpt><trkpt lat="43.2911916" lon="11.6258417"><ele>321.7142857142857</ele><time>2026-05-03T11:03:29.804Z</time></trkpt><trkpt lat="43.2911775" lon="11.6257465"><ele>321.28571428571433</ele><time>2026-05-03T11:03:32.782Z</time></trkpt><trkpt lat="43.29116" lon="11.6256464"><ele>320.8571428571429</ele><time>2026-05-03T11:03:35.792Z</time></trkpt><trkpt lat="43.2911486" lon="11.6255524"><ele>320.42857142857144</ele><time>2026-05-03T11:03:38.76Z</time></trkpt><trkpt lat="43.2911315" lon="11.6254573"><ele>320.0</ele><time>2026-05-03T11:03:41.831Z</time></trkpt><trkpt lat="43.2911067" lon="11.6253425"><ele>320.0</ele><time>2026-05-03T11:03:45.728Z</time></trkpt><trkpt lat="43.291086" lon="11.6252466"><ele>320.0</ele><time>2026-05-03T11:03:48.798Z</time></trkpt><trkpt lat="43.2910698" lon="11.6251528"><ele>320.0</ele><time>2026-05-03T11:03:51.755Z</time></trkpt><trkpt lat="43.2910521" lon="11.6250579"><ele>320.0</ele><time>2026-05-03T11:03:54.8Z</time></trkpt><trkpt lat="43.2910309" lon="11.6249677"><ele>320.0</ele><time>2026-05-03T11:03:57.777Z</time></trkpt><trkpt lat="43.2910165" lon="11.6248641"><ele>320.0</ele><time>2026-05-03T11:04:00.767Z</time></trkpt><trkpt lat="43.2910046" lon="11.6247624"><ele>320.0</ele><time>2026-05-03T11:04:03.784Z</time></trkpt><trkpt lat="43.290986" lon="11.6246697"><ele>320.0</ele><time>2026-05-03T11:04:06.798Z</time></trkpt><trkpt lat="43.2909665" lon="11.6245575"><ele>320.0</ele><time>2026-05-03T11:04:10.797Z</time></trkpt><trkpt lat="43.2909404" lon="11.6244679"><ele>320.0</ele><time>2026-05-03T11:04:13.78Z</time></trkpt><trkpt lat="43.290926" lon="11.6243749"><ele>320.0</ele><time>2026-05-03T11:04:16.791Z</time></trkpt><trkpt lat="43.2909135" lon="11.624287"><ele>320.0</ele><time>2026-05-03T11:04:19.748Z</time></trkpt><trkpt lat="43.2909037" lon="11.6241763"><ele>320.0</ele><time>2026-05-03T11:04:23.727Z</time></trkpt><trkpt lat="43.290906" lon="11.6240643"><ele>320.0</ele><time>2026-05-03T11:04:27.706Z</time></trkpt><trkpt lat="43.2909196" lon="11.6239715"><ele>320.0</ele><time>2026-05-03T11:04:30.768Z</time></trkpt><trkpt lat="43.2909303" lon="11.6238706"><ele>320.0</ele><time>2026-05-03T11:04:33.794Z</time></trkpt><trkpt lat="43.2909416" lon="11.6237781"><ele>320.0</ele><time>2026-05-03T11:04:36.771Z</time></trkpt><trkpt lat="43.290952" lon="11.6236901"><ele>320.0</ele><time>2026-05-03T11:04:39.808Z</time></trkpt><trkpt lat="43.2909658" lon="11.6236052"><ele>320.0</ele><time>2026-05-03T11:04:42.823Z</time></trkpt><trkpt lat="43.2909728" lon="11.6235011"><ele>320.0</ele><time>2026-05-03T11:04:46.802Z</time></trkpt><trkpt lat="43.2909775" lon="11.623381"><ele>319.85714285714283</ele><time>2026-05-03T11:04:50.803Z</time></trkpt><trkpt lat="43.2909843" lon="11.6232829"><ele>319.7142857142857</ele><time>2026-05-03T11:04:53.778Z</time></trkpt><trkpt lat="43.2909877" lon="11.6231926"><ele>319.57142857142856</ele><time>2026-05-03T11:04:56.79Z</time></trkpt><trkpt lat="43.2909966" lon="11.6231051"><ele>319.42857142857144</ele><time>2026-05-03T11:04:59.764Z</time></trkpt><trkpt lat="43.291007" lon="11.6230152"><ele>319.2857142857143</ele><time>2026-05-03T11:05:02.777Z</time></trkpt><trkpt lat="43.2910082" lon="11.6229204"><ele>319.14285714285717</ele><time>2026-05-03T11:05:05.851Z</time></trkpt><trkpt lat="43.2910114" lon="11.6228311"><ele>319.0</ele><time>2026-05-03T11:05:08.75Z</time></trkpt><trkpt lat="43.2910078" lon="11.6227424"><ele>318.8333333333333</ele><time>2026-05-03T11:05:11.768Z</time></trkpt><trkpt lat="43.2910053" lon="11.622652"><ele>318.66666666666663</ele><time>2026-05-03T11:05:14.786Z</time></trkpt><trkpt lat="43.2909972" lon="11.6225375"><ele>318.5</ele><time>2026-05-03T11:05:18.79Z</time></trkpt><trkpt lat="43.2909983" lon="11.6224328"><ele>318.3333333333333</ele><time>2026-05-03T11:05:22.771Z</time></trkpt><trkpt lat="43.2909893" lon="11.6223207"><ele>318.1666666666667</ele><time>2026-05-03T11:05:26.809Z</time></trkpt><trkpt lat="43.2909817" lon="11.6222046"><ele>318.0</ele><time>2026-05-03T11:05:30.801Z</time></trkpt><trkpt lat="43.2909973" lon="11.6220947"><ele>318.0</ele><time>2026-05-03T11:05:34.764Z</time></trkpt><trkpt lat="43.291001" lon="11.6219862"><ele>318.0</ele><time>2026-05-03T11:05:38.778Z</time></trkpt><trkpt lat="43.2910067" lon="11.6218972"><ele>318.0</ele><time>2026-05-03T11:05:41.78Z</time></trkpt><trkpt lat="43.2910138" lon="11.6218027"><ele>318.0</ele><time>2026-05-03T11:05:44.787Z</time></trkpt><trkpt lat="43.2910203" lon="11.6217135"><ele>318.0</ele><time>2026-05-03T11:05:47.749Z</time></trkpt><trkpt lat="43.2910229" lon="11.6216218"><ele>318.0</ele><time>2026-05-03T11:05:50.786Z</time></trkpt><trkpt lat="43.2910206" lon="11.6215188"><ele>318.0</ele><time>2026-05-03T11:05:53.807Z</time></trkpt><trkpt lat="43.29101" lon="11.6214214"><ele>318.2857142857143</ele><time>2026-05-03T11:05:56.789Z</time></trkpt><trkpt lat="43.2910051" lon="11.6213305"><ele>318.5714285714286</ele><time>2026-05-03T11:05:59.797Z</time></trkpt><trkpt lat="43.2909997" lon="11.6212416"><ele>318.8571428571429</ele><time>2026-05-03T11:06:02.808Z</time></trkpt><trkpt lat="43.2909963" lon="11.6211549"><ele>319.1428571428571</ele><time>2026-05-03T11:06:05.767Z</time></trkpt><trkpt lat="43.2909908" lon="11.621064"><ele>319.42857142857144</ele><time>2026-05-03T11:06:08.789Z</time></trkpt><trkpt lat="43.2909834" lon="11.620962"><ele>319.7142857142857</ele><time>2026-05-03T11:06:11.724Z</time></trkpt><trkpt lat="43.290973" lon="11.6208662"><ele>320.0</ele><time>2026-05-03T11:06:14.779Z</time></trkpt><trkpt lat="43.2909604" lon="11.6207684"><ele>320.1428571428571</ele><time>2026-05-03T11:06:17.809Z</time></trkpt><trkpt lat="43.2909516" lon="11.6206769"><ele>320.2857142857143</ele><time>2026-05-03T11:06:20.688Z</time></trkpt><trkpt lat="43.2909486" lon="11.6205805"><ele>320.42857142857144</ele><time>2026-05-03T11:06:23.796Z</time></trkpt><trkpt lat="43.2909444" lon="11.6204859"><ele>320.57142857142856</ele><time>2026-05-03T11:06:26.726Z</time></trkpt><trkpt lat="43.2909342" lon="11.6203889"><ele>320.7142857142857</ele><time>2026-05-03T11:06:29.785Z</time></trkpt><trkpt lat="43.2909379" lon="11.6202896"><ele>320.85714285714283</ele><time>2026-05-03T11:06:32.786Z</time></trkpt><trkpt lat="43.2909396" lon="11.6201876"><ele>321.0</ele><time>2026-05-03T11:06:35.727Z</time></trkpt><trkpt lat="43.2909487" lon="11.6200897"><ele>320.99999999999994</ele><time>2026-05-03T11:06:38.802Z</time></trkpt><trkpt lat="43.2909633" lon="11.6199961"><ele>321.0</ele><time>2026-05-03T11:06:41.798Z</time></trkpt><trkpt lat="43.2909682" lon="11.619906"><ele>321.0</ele><time>2026-05-03T11:06:44.781Z</time></trkpt><trkpt lat="43.2909819" lon="11.6198168"><ele>321.0</ele><time>2026-05-03T11:06:47.81Z</time></trkpt><trkpt lat="43.290995" lon="11.6197235"><ele>321.0</ele><time>2026-05-03T11:06:50.779Z</time></trkpt><trkpt lat="43.2910173" lon="11.6196362"><ele>320.99999999999994</ele><time>2026-05-03T11:06:53.783Z</time></trkpt><trkpt lat="43.2910441" lon="11.6195556"><ele>321.0</ele><time>2026-05-03T11:06:56.789Z</time></trkpt><trkpt lat="43.2910746" lon="11.6194493"><ele>320.4285714285714</ele><time>2026-05-03T11:07:00.748Z</time></trkpt><trkpt lat="43.2910993" lon="11.619362"><ele>319.85714285714283</ele><time>2026-05-03T11:07:03.773Z</time></trkpt><trkpt lat="43.2911266" lon="11.6192735"><ele>319.2857142857143</ele><time>2026-05-03T11:07:06.824Z</time></trkpt><trkpt lat="43.2911521" lon="11.6191882"><ele>318.71428571428567</ele><time>2026-05-03T11:07:09.791Z</time></trkpt><trkpt lat="43.2911783" lon="11.6190998"><ele>318.1428571428571</ele><time>2026-05-03T11:07:12.801Z</time></trkpt><trkpt lat="43.2912112" lon="11.6190182"><ele>317.57142857142856</ele><time>2026-05-03T11:07:15.725Z</time></trkpt><trkpt lat="43.2912461" lon="11.6189337"><ele>317.0</ele><time>2026-05-03T11:07:18.607Z</time></trkpt><trkpt lat="43.2912816" lon="11.6188378"><ele>317.0</ele><time>2026-05-03T11:07:21.802Z</time></trkpt><trkpt lat="43.2913235" lon="11.6187344"><ele>317.0</ele><time>2026-05-03T11:07:25.765Z</time></trkpt><trkpt lat="43.2913561" lon="11.6186557"><ele>317.0</ele><time>2026-05-03T11:07:28.785Z</time></trkpt><trkpt lat="43.2913847" lon="11.6185726"><ele>317.0</ele><time>2026-05-03T11:07:31.782Z</time></trkpt><trkpt lat="43.2914215" lon="11.6184947"><ele>317.0</ele><time>2026-05-03T11:07:34.772Z</time></trkpt><trkpt lat="43.2914686" lon="11.6183963"><ele>317.0</ele><time>2026-05-03T11:07:38.778Z</time></trkpt><trkpt lat="43.2915026" lon="11.6183202"><ele>317.0</ele><time>2026-05-03T11:07:41.747Z</time></trkpt><trkpt lat="43.2915334" lon="11.6182383"><ele>317.2857142857143</ele><time>2026-05-03T11:07:44.71Z</time></trkpt><trkpt lat="43.2915564" lon="11.6181408"><ele>317.57142857142856</ele><time>2026-05-03T11:07:47.774Z</time></trkpt><trkpt lat="43.29158" lon="11.6180359"><ele>317.8571428571429</ele><time>2026-05-03T11:07:50.732Z</time></trkpt><trkpt lat="43.2915929" lon="11.6179287"><ele>318.1428571428571</ele><time>2026-05-03T11:07:53.83Z</time></trkpt><trkpt lat="43.2915995" lon="11.6178328"><ele>318.4285714285714</ele><time>2026-05-03T11:07:56.809Z</time></trkpt><trkpt lat="43.2915899" lon="11.6177358"><ele>318.7142857142857</ele><time>2026-05-03T11:07:59.777Z</time></trkpt><trkpt lat="43.2915765" lon="11.6176419"><ele>319.0</ele><time>2026-05-03T11:08:02.792Z</time></trkpt><trkpt lat="43.2915572" lon="11.6175417"><ele>318.42857142857144</ele><time>2026-05-03T11:08:05.791Z</time></trkpt><trkpt lat="43.2915372" lon="11.6174412"><ele>317.85714285714283</ele><time>2026-05-03T11:08:08.76Z</time></trkpt><trkpt lat="43.2915096" lon="11.6173497"><ele>317.2857142857143</ele><time>2026-05-03T11:08:11.759Z</time></trkpt><trkpt lat="43.2914846" lon="11.6172548"><ele>316.7142857142857</ele><time>2026-05-03T11:08:14.758Z</time></trkpt><trkpt lat="43.2914576" lon="11.6171704"><ele>316.1428571428571</ele><time>2026-05-03T11:08:17.776Z</time></trkpt><trkpt lat="43.2914239" lon="11.6170681"><ele>315.57142857142856</ele><time>2026-05-03T11:08:21.796Z</time></trkpt><trkpt lat="43.2913974" lon="11.6169873"><ele>315.0</ele><time>2026-05-03T11:08:24.773Z</time></trkpt><trkpt lat="43.2913708" lon="11.6168958"><ele>314.7142857142857</ele><time>2026-05-03T11:08:27.772Z</time></trkpt><trkpt lat="43.2913427" lon="11.6168012"><ele>314.42857142857144</ele><time>2026-05-03T11:08:30.789Z</time></trkpt><trkpt lat="43.2913148" lon="11.6167186"><ele>314.1428571428571</ele><time>2026-05-03T11:08:33.79Z</time></trkpt><trkpt lat="43.2912912" lon="11.6166364"><ele>313.8571428571429</ele><time>2026-05-03T11:08:36.78Z</time></trkpt><trkpt lat="43.2912633" lon="11.6165434"><ele>313.57142857142856</ele><time>2026-05-03T11:08:39.797Z</time></trkpt><trkpt lat="43.2912387" lon="11.616455"><ele>313.2857142857143</ele><time>2026-05-03T11:08:42.746Z</time></trkpt><trkpt lat="43.29122" lon="11.6163682"><ele>313.0</ele><time>2026-05-03T11:08:45.788Z</time></trkpt><trkpt lat="43.2911996" lon="11.6162825"><ele>313.0</ele><time>2026-05-03T11:08:48.799Z</time></trkpt><trkpt lat="43.2911876" lon="11.6161849"><ele>313.0</ele><time>2026-05-03T11:08:51.711Z</time></trkpt><trkpt lat="43.2911759" lon="11.616088"><ele>313.0</ele><time>2026-05-03T11:08:54.815Z</time></trkpt><trkpt lat="43.2911619" lon="11.6160015"><ele>313.0</ele><time>2026-05-03T11:08:57.71Z</time></trkpt><trkpt lat="43.2911429" lon="11.615888"><ele>313.0</ele><time>2026-05-03T11:09:01.783Z</time></trkpt><trkpt lat="43.2911236" lon="11.6157925"><ele>313.0</ele><time>2026-05-03T11:09:04.827Z</time></trkpt><trkpt lat="43.2910985" lon="11.6157021"><ele>313.0</ele><time>2026-05-03T11:09:07.774Z</time></trkpt><trkpt lat="43.2910821" lon="11.6156007"><ele>313.1428571428571</ele><time>2026-05-03T11:09:10.805Z</time></trkpt><trkpt lat="43.2910651" lon="11.615498"><ele>313.2857142857143</ele><time>2026-05-03T11:09:13.706Z</time></trkpt><trkpt lat="43.2910555" lon="11.615387"><ele>313.42857142857144</ele><time>2026-05-03T11:09:16.804Z</time></trkpt><trkpt lat="43.2910407" lon="11.615288"><ele>313.57142857142856</ele><time>2026-05-03T11:09:19.733Z</time></trkpt><trkpt lat="43.2910219" lon="11.6151879"><ele>313.7142857142857</ele><time>2026-05-03T11:09:22.794Z</time></trkpt><trkpt lat="43.2910003" lon="11.615097"><ele>313.85714285714283</ele><time>2026-05-03T11:09:25.758Z</time></trkpt><trkpt lat="43.2909845" lon="11.6150102"><ele>314.0</ele><time>2026-05-03T11:09:28.779Z</time></trkpt><trkpt lat="43.2909686" lon="11.6149229"><ele>313.71428571428567</ele><time>2026-05-03T11:09:31.79Z</time></trkpt><trkpt lat="43.2909483" lon="11.6148377"><ele>313.42857142857144</ele><time>2026-05-03T11:09:34.776Z</time></trkpt><trkpt lat="43.2909314" lon="11.6147456"><ele>313.1428571428571</ele><time>2026-05-03T11:09:37.771Z</time></trkpt><trkpt lat="43.2909131" lon="11.6146543"><ele>312.85714285714283</ele><time>2026-05-03T11:09:40.804Z</time></trkpt><trkpt lat="43.2908909" lon="11.6145489"><ele>312.57142857142856</ele><time>2026-05-03T11:09:44.78Z</time></trkpt><trkpt lat="43.2908731" lon="11.6144473"><ele>312.2857142857143</ele><time>2026-05-03T11:09:48.723Z</time></trkpt><trkpt lat="43.2908624" lon="11.614344"><ele>312.0</ele><time>2026-05-03T11:09:52.725Z</time></trkpt><trkpt lat="43.2908475" lon="11.6142542"><ele>312.0</ele><time>2026-05-03T11:09:55.772Z</time></trkpt><trkpt lat="43.2908301" lon="11.6141578"><ele>312.0</ele><time>2026-05-03T11:09:58.798Z</time></trkpt><trkpt lat="43.290813" lon="11.614064"><ele>312.0</ele><time>2026-05-03T11:10:01.682Z</time></trkpt><trkpt lat="43.2907991" lon="11.6139691"><ele>312.0</ele><time>2026-05-03T11:10:04.819Z</time></trkpt><trkpt lat="43.290789" lon="11.6138716"><ele>312.0</ele><time>2026-05-03T11:10:07.745Z</time></trkpt><trkpt lat="43.2907816" lon="11.6137737"><ele>312.0</ele><time>2026-05-03T11:10:10.769Z</time></trkpt><trkpt lat="43.2907786" lon="11.6136797"><ele>312.0</ele><time>2026-05-03T11:10:13.766Z</time></trkpt><trkpt lat="43.2907803" lon="11.6135809"><ele>312.14285714285717</ele><time>2026-05-03T11:10:16.769Z</time></trkpt><trkpt lat="43.2907788" lon="11.6134845"><ele>312.2857142857143</ele><time>2026-05-03T11:10:19.852Z</time></trkpt><trkpt lat="43.2907809" lon="11.6133776"><ele>312.42857142857144</ele><time>2026-05-03T11:10:23.05Z</time></trkpt><trkpt lat="43.2907877" lon="11.6132779"><ele>312.57142857142856</ele><time>2026-05-03T11:10:26.232Z</time></trkpt><trkpt lat="43.2907986" lon="11.6131686"><ele>312.7142857142857</ele><time>2026-05-03T11:10:30.445Z</time></trkpt><trkpt lat="43.2908049" lon="11.6130755"><ele>312.85714285714283</ele><time>2026-05-03T11:10:33.644Z</time></trkpt><trkpt lat="43.2908143" lon="11.6129836"><ele>313.0</ele><time>2026-05-03T11:10:36.79Z</time></trkpt><trkpt lat="43.2908246" lon="11.6128944"><ele>313.2857142857143</ele><time>2026-05-03T11:10:39.732Z</time></trkpt><trkpt lat="43.290859" lon="11.6128175"><ele>313.57142857142856</ele><time>2026-05-03T11:10:42.788Z</time></trkpt><trkpt lat="43.2908796" lon="11.6127194"><ele>313.8571428571429</ele><time>2026-05-03T11:10:45.742Z</time></trkpt><trkpt lat="43.2909045" lon="11.6126276"><ele>314.1428571428571</ele><time>2026-05-03T11:10:48.801Z</time></trkpt><trkpt lat="43.2909386" lon="11.6125454"><ele>314.42857142857144</ele><time>2026-05-03T11:10:51.768Z</time></trkpt><trkpt lat="43.2909768" lon="11.6124671"><ele>314.7142857142857</ele><time>2026-05-03T11:10:54.789Z</time></trkpt><trkpt lat="43.2910197" lon="11.6123656"><ele>315.0</ele><time>2026-05-03T11:10:58.799Z</time></trkpt><trkpt lat="43.291072" lon="11.6122804"><ele>315.0</ele><time>2026-05-03T11:11:02.772Z</time></trkpt><trkpt lat="43.2911194" lon="11.6121962"><ele>315.0</ele><time>2026-05-03T11:11:06.824Z</time></trkpt><trkpt lat="43.2911609" lon="11.6121085"><ele>315.0</ele><time>2026-05-03T11:11:10.78Z</time></trkpt><trkpt lat="43.2912085" lon="11.6120367"><ele>315.0</ele><time>2026-05-03T11:11:14.799Z</time></trkpt><trkpt lat="43.291267" lon="11.6119695"><ele>315.0</ele><time>2026-05-03T11:11:19.728Z</time></trkpt><trkpt lat="43.2913233" lon="11.611918"><ele>315.0</ele><time>2026-05-03T11:11:26.771Z</time></trkpt><trkpt lat="43.2913758" lon="11.6118677"><ele>315.0</ele><time>2026-05-03T11:11:31.794Z</time></trkpt><trkpt lat="43.2914272" lon="11.6118097"><ele>316.2857142857143</ele><time>2026-05-03T11:11:37.774Z</time></trkpt><trkpt lat="43.2914667" lon="11.6117413"><ele>317.57142857142856</ele><time>2026-05-03T11:11:42.804Z</time></trkpt><trkpt lat="43.2915207" lon="11.6116753"><ele>318.8571428571429</ele><time>2026-05-03T11:11:48.795Z</time></trkpt><trkpt lat="43.291574" lon="11.6116033"><ele>320.1428571428571</ele><time>2026-05-03T11:11:54.784Z</time></trkpt><trkpt lat="43.2916277" lon="11.611531"><ele>321.42857142857144</ele><time>2026-05-03T11:12:00.773Z</time></trkpt><trkpt lat="43.2916816" lon="11.6114552"><ele>322.7142857142857</ele><time>2026-05-03T11:12:06.66Z</time></trkpt><trkpt lat="43.291723" lon="11.6113844"><ele>324.0</ele><time>2026-05-03T11:12:09.797Z</time></trkpt><trkpt lat="43.2917653" lon="11.6113077"><ele>324.0</ele><time>2026-05-03T11:12:12.805Z</time></trkpt><trkpt lat="43.2918018" lon="11.6112354"><ele>324.0</ele><time>2026-05-03T11:12:15.783Z</time></trkpt><trkpt lat="43.2918338" lon="11.6111609"><ele>324.0</ele><time>2026-05-03T11:12:18.775Z</time></trkpt><trkpt lat="43.2918687" lon="11.6110779"><ele>324.0</ele><time>2026-05-03T11:12:21.758Z</time></trkpt><trkpt lat="43.2919112" lon="11.6109969"><ele>324.0</ele><time>2026-05-03T11:12:24.805Z</time></trkpt><trkpt lat="43.2919568" lon="11.6109145"><ele>324.0</ele><time>2026-05-03T11:12:27.799Z</time></trkpt><trkpt lat="43.292001" lon="11.6108238"><ele>324.0</ele><time>2026-05-03T11:12:30.792Z</time></trkpt><trkpt lat="43.2920492" lon="11.6107439"><ele>322.5</ele><time>2026-05-03T11:12:33.732Z</time></trkpt><trkpt lat="43.2920971" lon="11.6106602"><ele>321.0</ele><time>2026-05-03T11:12:36.806Z</time></trkpt><trkpt lat="43.2921566" lon="11.6105882"><ele>319.5</ele><time>2026-05-03T11:12:39.741Z</time></trkpt><trkpt lat="43.2922112" lon="11.61051"><ele>318.0</ele><time>2026-05-03T11:12:42.69Z</time></trkpt><trkpt lat="43.2922592" lon="11.6104278"><ele>316.5</ele><time>2026-05-03T11:12:45.747Z</time></trkpt><trkpt lat="43.2923051" lon="11.6103463"><ele>315.0</ele><time>2026-05-03T11:12:48.807Z</time></trkpt><trkpt lat="43.2923541" lon="11.6102796"><ele>315.0</ele><time>2026-05-03T11:12:51.764Z</time></trkpt><trkpt lat="43.292406" lon="11.6101997"><ele>315.0</ele><time>2026-05-03T11:12:54.687Z</time></trkpt><trkpt lat="43.2924535" lon="11.6101317"><ele>315.0</ele><time>2026-05-03T11:12:57.753Z</time></trkpt><trkpt lat="43.2925075" lon="11.6100553"><ele>315.0</ele><time>2026-05-03T11:13:00.792Z</time></trkpt><trkpt lat="43.2925558" lon="11.6099908"><ele>315.0</ele><time>2026-05-03T11:13:03.683Z</time></trkpt><trkpt lat="43.2926187" lon="11.6099132"><ele>315.0</ele><time>2026-05-03T11:13:06.78Z</time></trkpt><trkpt lat="43.2926737" lon="11.6098496"><ele>315.0</ele><time>2026-05-03T11:13:09.775Z</time></trkpt><trkpt lat="43.2927389" lon="11.6097792"><ele>315.0</ele><time>2026-05-03T11:13:12.71Z</time></trkpt><trkpt lat="43.2928049" lon="11.6097105"><ele>315.0</ele><time>2026-05-03T11:13:15.786Z</time></trkpt><trkpt lat="43.2928614" lon="11.6096572"><ele>315.0</ele><time>2026-05-03T11:13:18.77Z</time></trkpt><trkpt lat="43.2929286" lon="11.6096155"><ele>315.0</ele><time>2026-05-03T11:13:21.764Z</time></trkpt><trkpt lat="43.2929948" lon="11.6095753"><ele>315.0</ele><time>2026-05-03T11:13:24.811Z</time></trkpt><trkpt lat="43.2930593" lon="11.6095366"><ele>315.0</ele><time>2026-05-03T11:13:27.703Z</time></trkpt><trkpt lat="43.2931317" lon="11.6095223"><ele>315.0</ele><time>2026-05-03T11:13:30.775Z</time></trkpt><trkpt lat="43.2931959" lon="11.6094402"><ele>314.3333333333333</ele><time>2026-05-03T11:13:33.781Z</time></trkpt><trkpt lat="43.2932486" lon="11.6093512"><ele>313.6666666666667</ele><time>2026-05-03T11:13:36.774Z</time></trkpt><trkpt lat="43.2932902" lon="11.6092575"><ele>313.0</ele><time>2026-05-03T11:13:39.797Z</time></trkpt><trkpt lat="43.2933297" lon="11.609168"><ele>312.33333333333337</ele><time>2026-05-03T11:13:42.758Z</time></trkpt><trkpt lat="43.2933602" lon="11.6090786"><ele>311.6666666666667</ele><time>2026-05-03T11:13:45.945Z</time></trkpt><trkpt lat="43.2933835" lon="11.6089827"><ele>311.0</ele><time>2026-05-03T11:13:49.064Z</time></trkpt><trkpt lat="43.2934087" lon="11.6088762"><ele>311.0</ele><time>2026-05-03T11:13:52.283Z</time></trkpt><trkpt lat="43.2934417" lon="11.6087697"><ele>311.0</ele><time>2026-05-03T11:13:55.441Z</time></trkpt><trkpt lat="43.2934825" lon="11.6086657"><ele>311.0</ele><time>2026-05-03T11:13:58.606Z</time></trkpt><trkpt lat="43.2935288" lon="11.6085818"><ele>311.0</ele><time>2026-05-03T11:14:01.76Z</time></trkpt><trkpt lat="43.2935742" lon="11.608499"><ele>311.0</ele><time>2026-05-03T11:14:04.785Z</time></trkpt><trkpt lat="43.2936062" lon="11.608405"><ele>311.0</ele><time>2026-05-03T11:14:07.753Z</time></trkpt><trkpt lat="43.2936431" lon="11.6083162"><ele>310.57142857142856</ele><time>2026-05-03T11:14:10.802Z</time></trkpt><trkpt lat="43.2936926" lon="11.6082338"><ele>310.14285714285717</ele><time>2026-05-03T11:14:13.753Z</time></trkpt><trkpt lat="43.2937386" lon="11.6081566"><ele>309.7142857142857</ele><time>2026-05-03T11:14:16.786Z</time></trkpt><trkpt lat="43.2937819" lon="11.608082"><ele>309.2857142857143</ele><time>2026-05-03T11:14:19.707Z</time></trkpt><trkpt lat="43.2938338" lon="11.6080064"><ele>308.8571428571429</ele><time>2026-05-03T11:14:22.792Z</time></trkpt><trkpt lat="43.2938784" lon="11.6079372"><ele>308.42857142857144</ele><time>2026-05-03T11:14:25.706Z</time></trkpt><trkpt lat="43.2939242" lon="11.6078642"><ele>308.0</ele><time>2026-05-03T11:14:28.811Z</time></trkpt><trkpt lat="43.2939631" lon="11.607788"><ele>307.7142857142857</ele><time>2026-05-03T11:14:31.76Z</time></trkpt><trkpt lat="43.2940118" lon="11.6077049"><ele>307.42857142857144</ele><time>2026-05-03T11:14:34.828Z</time></trkpt><trkpt lat="43.2940536" lon="11.6076297"><ele>307.1428571428571</ele><time>2026-05-03T11:14:37.774Z</time></trkpt><trkpt lat="43.2940921" lon="11.6075478"><ele>306.8571428571429</ele><time>2026-05-03T11:14:40.77Z</time></trkpt><trkpt lat="43.2941435" lon="11.6074736"><ele>306.57142857142856</ele><time>2026-05-03T11:14:43.779Z</time></trkpt><trkpt lat="43.2941939" lon="11.6073924"><ele>306.2857142857143</ele><time>2026-05-03T11:14:46.796Z</time></trkpt><trkpt lat="43.294242" lon="11.6073087"><ele>306.0</ele><time>2026-05-03T11:14:49.777Z</time></trkpt><trkpt lat="43.2942871" lon="11.6072322"><ele>306.0</ele><time>2026-05-03T11:14:52.789Z</time></trkpt><trkpt lat="43.294334" lon="11.6071621"><ele>306.0</ele><time>2026-05-03T11:14:55.709Z</time></trkpt><trkpt lat="43.2943794" lon="11.6070879"><ele>306.0</ele><time>2026-05-03T11:14:58.806Z</time></trkpt><trkpt lat="43.2944204" lon="11.6070182"><ele>306.0</ele><time>2026-05-03T11:15:01.708Z</time></trkpt><trkpt lat="43.2944587" lon="11.6069459"><ele>306.0</ele><time>2026-05-03T11:15:04.777Z</time></trkpt><trkpt lat="43.2945069" lon="11.6068518"><ele>306.0</ele><time>2026-05-03T11:15:08.83Z</time></trkpt><trkpt lat="43.2945457" lon="11.6067768"><ele>306.0</ele><time>2026-05-03T11:15:11.786Z</time></trkpt><trkpt lat="43.2945942" lon="11.6066994"><ele>305.7142857142857</ele><time>2026-05-03T11:15:14.793Z</time></trkpt><trkpt lat="43.2946429" lon="11.6066278"><ele>305.42857142857144</ele><time>2026-05-03T11:15:17.774Z</time></trkpt><trkpt lat="43.2946997" lon="11.6065621"><ele>305.1428571428571</ele><time>2026-05-03T11:15:20.777Z</time></trkpt><trkpt lat="43.2947583" lon="11.6065152"><ele>304.8571428571429</ele><time>2026-05-03T11:15:23.728Z</time></trkpt><trkpt lat="43.294821" lon="11.6064757"><ele>304.5714285714286</ele><time>2026-05-03T11:15:26.8Z</time></trkpt><trkpt lat="43.2948838" lon="11.6064521"><ele>304.2857142857143</ele><time>2026-05-03T11:15:29.799Z</time></trkpt><trkpt lat="43.2949488" lon="11.6064459"><ele>304.0</ele><time>2026-05-03T11:15:32.789Z</time></trkpt><trkpt lat="43.2950236" lon="11.6064566"><ele>304.0</ele><time>2026-05-03T11:15:35.769Z</time></trkpt><trkpt lat="43.2950943" lon="11.6064744"><ele>304.0</ele><time>2026-05-03T11:15:38.825Z</time></trkpt><trkpt lat="43.2951733" lon="11.6065036"><ele>304.0</ele><time>2026-05-03T11:15:42.803Z</time></trkpt><trkpt lat="43.2952429" lon="11.6065243"><ele>304.0</ele><time>2026-05-03T11:15:45.773Z</time></trkpt><trkpt lat="43.2953009" lon="11.6065826"><ele>304.0</ele><time>2026-05-03T11:15:48.787Z</time></trkpt><trkpt lat="43.2953529" lon="11.6066459"><ele>304.0</ele><time>2026-05-03T11:15:51.781Z</time></trkpt><trkpt lat="43.2954173" lon="11.6067237"><ele>304.0</ele><time>2026-05-03T11:15:55.789Z</time></trkpt><trkpt lat="43.2954864" lon="11.606791"><ele>304.0</ele><time>2026-05-03T11:15:59.707Z</time></trkpt><trkpt lat="43.295548" lon="11.6068334"><ele>304.0</ele><time>2026-05-03T11:16:02.793Z</time></trkpt><trkpt lat="43.2956121" lon="11.6068539"><ele>304.0</ele><time>2026-05-03T11:16:05.747Z</time></trkpt><trkpt lat="43.2956782" lon="11.606864"><ele>304.0</ele><time>2026-05-03T11:16:08.81Z</time></trkpt><trkpt lat="43.2957618" lon="11.6068572"><ele>304.0</ele><time>2026-05-03T11:16:12.747Z</time></trkpt><trkpt lat="43.2958324" lon="11.6068287"><ele>304.0</ele><time>2026-05-03T11:16:15.79Z</time></trkpt><trkpt lat="43.2958917" lon="11.6067827"><ele>303.8333333333333</ele><time>2026-05-03T11:16:18.796Z</time></trkpt><trkpt lat="43.2959532" lon="11.6067232"><ele>303.66666666666663</ele><time>2026-05-03T11:16:21.822Z</time></trkpt><trkpt lat="43.2960096" lon="11.6066611"><ele>303.5</ele><time>2026-05-03T11:16:24.785Z</time></trkpt><trkpt lat="43.2960723" lon="11.6065956"><ele>303.3333333333333</ele><time>2026-05-03T11:16:27.751Z</time></trkpt><trkpt lat="43.2961336" lon="11.6065268"><ele>303.1666666666667</ele><time>2026-05-03T11:16:30.811Z</time></trkpt><trkpt lat="43.2961961" lon="11.6064582"><ele>303.0</ele><time>2026-05-03T11:16:33.781Z</time></trkpt><trkpt lat="43.2962649" lon="11.6063911"><ele>303.0</ele><time>2026-05-03T11:16:36.801Z</time></trkpt><trkpt lat="43.2963293" lon="11.6063244"><ele>303.0</ele><time>2026-05-03T11:16:39.798Z</time></trkpt><trkpt lat="43.2963916" lon="11.6062588"><ele>303.0</ele><time>2026-05-03T11:16:42.773Z</time></trkpt><trkpt lat="43.2964582" lon="11.6061933"><ele>303.0</ele><time>2026-05-03T11:16:45.794Z</time></trkpt><trkpt lat="43.2965228" lon="11.6061253"><ele>303.0</ele><time>2026-05-03T11:16:48.728Z</time></trkpt><trkpt lat="43.2965865" lon="11.6060502"><ele>303.0</ele><time>2026-05-03T11:16:51.866Z</time></trkpt><trkpt lat="43.2966501" lon="11.6059837"><ele>302.5</ele><time>2026-05-03T11:16:54.771Z</time></trkpt><trkpt lat="43.296718" lon="11.6059197"><ele>302.0</ele><time>2026-05-03T11:16:57.789Z</time></trkpt><trkpt lat="43.2967823" lon="11.6058531"><ele>301.5</ele><time>2026-05-03T11:17:00.774Z</time></trkpt><trkpt lat="43.2968546" lon="11.6057737"><ele>301.0</ele><time>2026-05-03T11:17:03.803Z</time></trkpt><trkpt lat="43.2969238" lon="11.6057021"><ele>300.5</ele><time>2026-05-03T11:17:06.777Z</time></trkpt><trkpt lat="43.2969903" lon="11.6056271"><ele>300.0</ele><time>2026-05-03T11:17:09.791Z</time></trkpt><trkpt lat="43.2970513" lon="11.6055559"><ele>300.0</ele><time>2026-05-03T11:17:12.771Z</time></trkpt><trkpt lat="43.2971063" lon="11.6054816"><ele>300.0</ele><time>2026-05-03T11:17:15.784Z</time></trkpt><trkpt lat="43.2971548" lon="11.6054067"><ele>300.0</ele><time>2026-05-03T11:17:18.729Z</time></trkpt><trkpt lat="43.2972079" lon="11.605328"><ele>300.0</ele><time>2026-05-03T11:17:21.791Z</time></trkpt><trkpt lat="43.297264" lon="11.6052578"><ele>300.0</ele><time>2026-05-03T11:17:24.783Z</time></trkpt><trkpt lat="43.2973001" lon="11.6051691"><ele>300.0</ele><time>2026-05-03T11:17:27.802Z</time></trkpt><trkpt lat="43.2972634" lon="11.6050696"><ele>299.99999999999994</ele><time>2026-05-03T11:17:30.789Z</time></trkpt><trkpt lat="43.297202" lon="11.6050121"><ele>300.0</ele><time>2026-05-03T11:17:33.814Z</time></trkpt><trkpt lat="43.2971367" lon="11.6049669"><ele>300.0</ele><time>2026-05-03T11:17:36.785Z</time></trkpt><trkpt lat="43.2970747" lon="11.6049189"><ele>300.0</ele><time>2026-05-03T11:17:39.786Z</time></trkpt><trkpt lat="43.2970134" lon="11.6048621"><ele>300.0</ele><time>2026-05-03T11:17:42.79Z</time></trkpt><trkpt lat="43.2969615" lon="11.6047987"><ele>299.99999999999994</ele><time>2026-05-03T11:17:45.791Z</time></trkpt><trkpt lat="43.2969153" lon="11.6047231"><ele>300.0</ele><time>2026-05-03T11:17:48.782Z</time></trkpt><trkpt lat="43.2968737" lon="11.604647"><ele>299.99999999999994</ele><time>2026-05-03T11:17:51.688Z</time></trkpt><trkpt lat="43.2968402" lon="11.6045646"><ele>300.0</ele><time>2026-05-03T11:17:54.777Z</time></trkpt><trkpt lat="43.2968042" lon="11.6044841"><ele>300.0</ele><time>2026-05-03T11:17:57.802Z</time></trkpt><trkpt lat="43.2967758" lon="11.6043951"><ele>300.0</ele><time>2026-05-03T11:18:00.781Z</time></trkpt><trkpt lat="43.296748" lon="11.6043043"><ele>300.0</ele><time>2026-05-03T11:18:03.741Z</time></trkpt><trkpt lat="43.2967213" lon="11.6042042"><ele>299.99999999999994</ele><time>2026-05-03T11:18:06.722Z</time></trkpt><trkpt lat="43.2966937" lon="11.6041031"><ele>300.0</ele><time>2026-05-03T11:18:09.737Z</time></trkpt><trkpt lat="43.2966733" lon="11.6039958"><ele>300.0</ele><time>2026-05-03T11:18:12.751Z</time></trkpt><trkpt lat="43.2966494" lon="11.6038971"><ele>300.0</ele><time>2026-05-03T11:18:15.77Z</time></trkpt><trkpt lat="43.2966238" lon="11.6038009"><ele>300.0</ele><time>2026-05-03T11:18:18.781Z</time></trkpt><trkpt lat="43.2965625" lon="11.6037588"><ele>300.0</ele><time>2026-05-03T11:18:21.75Z</time></trkpt><trkpt lat="43.2964997" lon="11.6038347"><ele>300.0</ele><time>2026-05-03T11:18:24.752Z</time></trkpt><trkpt lat="43.2964357" lon="11.6039017"><ele>300.0</ele><time>2026-05-03T11:18:27.788Z</time></trkpt><trkpt lat="43.2963604" lon="11.6039531"><ele>300.3333333333333</ele><time>2026-05-03T11:18:30.772Z</time></trkpt><trkpt lat="43.2962829" lon="11.604003"><ele>300.6666666666667</ele><time>2026-05-03T11:18:33.806Z</time></trkpt><trkpt lat="43.2962097" lon="11.6040514"><ele>301.0</ele><time>2026-05-03T11:18:36.773Z</time></trkpt><trkpt lat="43.2961508" lon="11.604099"><ele>301.33333333333337</ele><time>2026-05-03T11:18:39.774Z</time></trkpt><trkpt lat="43.2960877" lon="11.6041494"><ele>301.6666666666667</ele><time>2026-05-03T11:18:42.684Z</time></trkpt><trkpt lat="43.2960225" lon="11.6042124"><ele>302.0</ele><time>2026-05-03T11:18:45.788Z</time></trkpt><trkpt lat="43.2959751" lon="11.6042904"><ele>302.0</ele><time>2026-05-03T11:18:48.682Z</time></trkpt><trkpt lat="43.2959227" lon="11.6043679"><ele>302.0</ele><time>2026-05-03T11:18:51.786Z</time></trkpt><trkpt lat="43.2958657" lon="11.6044445"><ele>302.0</ele><time>2026-05-03T11:18:54.708Z</time></trkpt><trkpt lat="43.2958079" lon="11.6045191"><ele>302.0</ele><time>2026-05-03T11:18:57.787Z</time></trkpt><trkpt lat="43.2957551" lon="11.6046004"><ele>302.0</ele><time>2026-05-03T11:19:00.727Z</time></trkpt><trkpt lat="43.295698" lon="11.6046804"><ele>302.0</ele><time>2026-05-03T11:19:03.8Z</time></trkpt><trkpt lat="43.2956469" lon="11.6047538"><ele>302.0</ele><time>2026-05-03T11:19:06.738Z</time></trkpt><trkpt lat="43.2955903" lon="11.6048312"><ele>302.0</ele><time>2026-05-03T11:19:09.817Z</time></trkpt><trkpt lat="43.2955402" lon="11.6049136"><ele>302.0</ele><time>2026-05-03T11:19:12.7Z</time></trkpt><trkpt lat="43.2954891" lon="11.6050109"><ele>302.0</ele><time>2026-05-03T11:19:15.753Z</time></trkpt><trkpt lat="43.2954403" lon="11.605098"><ele>302.0</ele><time>2026-05-03T11:19:18.705Z</time></trkpt><trkpt lat="43.2953953" lon="11.6051797"><ele>302.0</ele><time>2026-05-03T11:19:21.757Z</time></trkpt><trkpt lat="43.2953406" lon="11.6052776"><ele>302.1666666666667</ele><time>2026-05-03T11:19:24.768Z</time></trkpt><trkpt lat="43.2952872" lon="11.6053671"><ele>302.33333333333337</ele><time>2026-05-03T11:19:27.793Z</time></trkpt><trkpt lat="43.2952337" lon="11.6054492"><ele>302.5</ele><time>2026-05-03T11:19:30.783Z</time></trkpt><trkpt lat="43.2951818" lon="11.6055331"><ele>302.6666666666667</ele><time>2026-05-03T11:19:33.785Z</time></trkpt><trkpt lat="43.2951405" lon="11.6056126"><ele>302.8333333333333</ele><time>2026-05-03T11:19:36.787Z</time></trkpt><trkpt lat="43.295097" lon="11.6056903"><ele>303.0</ele><time>2026-05-03T11:19:39.688Z</time></trkpt><trkpt lat="43.2950455" lon="11.6057602"><ele>303.0</ele><time>2026-05-03T11:19:42.807Z</time></trkpt><trkpt lat="43.2949723" lon="11.6057978"><ele>303.0</ele><time>2026-05-03T11:19:45.788Z</time></trkpt><trkpt lat="43.2948919" lon="11.6057947"><ele>303.0</ele><time>2026-05-03T11:19:49.736Z</time></trkpt><trkpt lat="43.2948238" lon="11.6057974"><ele>303.0</ele><time>2026-05-03T11:19:52.778Z</time></trkpt><trkpt lat="43.2947579" lon="11.6057919"><ele>303.0</ele><time>2026-05-03T11:19:55.778Z</time></trkpt><trkpt lat="43.2946925" lon="11.6057819"><ele>303.0</ele><time>2026-05-03T11:19:58.862Z</time></trkpt><trkpt lat="43.2946184" lon="11.6057575"><ele>303.0</ele><time>2026-05-03T11:20:01.8Z</time></trkpt><trkpt lat="43.2945293" lon="11.605712"><ele>303.0</ele><time>2026-05-03T11:20:04.785Z</time></trkpt><trkpt lat="43.2944767" lon="11.6056544"><ele>303.0</ele><time>2026-05-03T11:20:06.779Z</time></trkpt><trkpt lat="43.2944235" lon="11.6055521"><ele>303.0</ele><time>2026-05-03T11:20:09.779Z</time></trkpt><trkpt lat="43.2943649" lon="11.6054706"><ele>303.0</ele><time>2026-05-03T11:20:12.689Z</time></trkpt><trkpt lat="43.294291" lon="11.6054051"><ele>303.0</ele><time>2026-05-03T11:20:15.852Z</time></trkpt><trkpt lat="43.2942193" lon="11.6053965"><ele>303.0</ele><time>2026-05-03T11:20:18.777Z</time></trkpt><trkpt lat="43.2941515" lon="11.6054166"><ele>303.0</ele><time>2026-05-03T11:20:21.806Z</time></trkpt><trkpt lat="43.2940765" lon="11.6054381"><ele>303.0</ele><time>2026-05-03T11:20:24.812Z</time></trkpt><trkpt lat="43.2940019" lon="11.6054517"><ele>303.0</ele><time>2026-05-03T11:20:27.802Z</time></trkpt><trkpt lat="43.2939233" lon="11.6054811"><ele>303.0</ele><time>2026-05-03T11:20:30.774Z</time></trkpt><trkpt lat="43.2938569" lon="11.6055059"><ele>303.0</ele><time>2026-05-03T11:20:33.827Z</time></trkpt><trkpt lat="43.2937955" lon="11.6055398"><ele>303.0</ele><time>2026-05-03T11:20:38.784Z</time></trkpt><trkpt lat="43.2937528" lon="11.6056195"><ele>303.0</ele><time>2026-05-03T11:20:46.791Z</time></trkpt><trkpt lat="43.2937383" lon="11.6057128"><ele>303.0</ele><time>2026-05-03T11:20:58.782Z</time></trkpt><trkpt lat="43.2936985" lon="11.6057841"><ele>303.0</ele><time>2026-05-03T11:21:59.785Z</time></trkpt><trkpt lat="43.2936458" lon="11.6057267"><ele>303.0</ele><time>2026-05-03T11:22:10.777Z</time></trkpt><trkpt lat="43.2935812" lon="11.6057152"><ele>303.0</ele><time>2026-05-03T11:25:03.791Z</time></trkpt><trkpt lat="43.293602" lon="11.6056256"><ele>303.0</ele><time>2026-05-03T11:28:02.806Z</time></trkpt><trkpt lat="43.293569" lon="11.6055458"><ele>303.0</ele><time>2026-05-03T11:28:18.785Z</time></trkpt><trkpt lat="43.2934991" lon="11.6055628"><ele>303.0</ele><time>2026-05-03T11:28:33.802Z</time></trkpt><trkpt lat="43.2934342" lon="11.6055715"><ele>303.0</ele><time>2026-05-03T11:28:48.797Z</time></trkpt><trkpt lat="43.2933744" lon="11.6056086"><ele>303.0</ele><time>2026-05-03T11:29:00.784Z</time></trkpt><trkpt lat="43.2933134" lon="11.6056406"><ele>303.0</ele><time>2026-05-03T11:29:12.826Z</time></trkpt></trkseg></trk></gpx>